<?xml version="1.0" encoding="UTF-8" standalone="no" ?>
<gpx xmlns="http://www.topografix.com/GPX/1/1" xmlns:xsi="http://www.w3.org/2001/XMLSchema-instance" xsi:schemaLocation="http://www.topografix.com/GPX/1/1 http://www.topografix.com/GPX/1/1/gpx.xsd" version="1.1" creator="VisuGPX - https://www.visugpx.com">
  <metadata>
    <name>Tour du Lot Vtt - Étape 5 - Bach - Montcuq</name>
    <desc><![CDATA[Cette cinquième étape de notre tour Vtt du Lot est la plus facile (dénivelé réduit, distance modérée et chemins roulants). Elle nous conduit de Bach à Montcuq en Quercy blanc. Elle suit aussi en grande partie le tracé du Chemin de Compostelle et la direction générale de l'étape est Est - Ouest. Un premier point bas à la traversée de la D820 (ex Nationale 20) - Petit détour qui peut être évité pour aller au village Le Montat.
]]></desc>
  </metadata>
  <trk>
    <name><![CDATA[Tour du Lot Vtt - Étape 5 - Bach - Montcuq]]></name>
    <trkseg>
      <trkpt lat="44.34935" lon="1.67006">
        <ele>317</ele>
        <time>2022-05-26T06:41:31.000Z</time>
      </trkpt>
      <trkpt lat="44.34936" lon="1.67006">
        <ele>319.20001220703</ele>
        <time>2022-05-26T06:41:32.000Z</time>
      </trkpt>
      <trkpt lat="44.34932" lon="1.67015">
        <ele>319.39999389648</ele>
        <time>2022-05-26T06:41:49.000Z</time>
      </trkpt>
      <trkpt lat="44.34932" lon="1.67017">
        <ele>319.39999389648</ele>
        <time>2022-05-26T06:41:50.000Z</time>
      </trkpt>
      <trkpt lat="44.34931" lon="1.6702">
        <ele>319.39999389648</ele>
        <time>2022-05-26T06:41:51.000Z</time>
      </trkpt>
      <trkpt lat="44.34928" lon="1.67027">
        <ele>319.60000610352</ele>
        <time>2022-05-26T06:41:54.000Z</time>
      </trkpt>
      <trkpt lat="44.34928" lon="1.67029">
        <ele>319.60000610352</ele>
        <time>2022-05-26T06:41:55.000Z</time>
      </trkpt>
      <trkpt lat="44.34931" lon="1.67035">
        <ele>319.79998779297</ele>
        <time>2022-05-26T06:41:57.000Z</time>
      </trkpt>
      <trkpt lat="44.34933" lon="1.67037">
        <ele>320</ele>
        <time>2022-05-26T06:41:58.000Z</time>
      </trkpt>
      <trkpt lat="44.34944" lon="1.67049">
        <ele>320.60000610352</ele>
        <time>2022-05-26T06:42:02.000Z</time>
      </trkpt>
      <trkpt lat="44.34953" lon="1.67058">
        <ele>321</ele>
        <time>2022-05-26T06:42:05.000Z</time>
      </trkpt>
      <trkpt lat="44.34967" lon="1.67071">
        <ele>321.39999389648</ele>
        <time>2022-05-26T06:42:09.000Z</time>
      </trkpt>
      <trkpt lat="44.34988" lon="1.67092">
        <ele>321.60000610352</ele>
        <time>2022-05-26T06:42:15.000Z</time>
      </trkpt>
      <trkpt lat="44.3501" lon="1.67107">
        <ele>321.60000610352</ele>
        <time>2022-05-26T06:42:22.000Z</time>
      </trkpt>
      <trkpt lat="44.35022" lon="1.67098">
        <ele>321.60000610352</ele>
        <time>2022-05-26T06:42:26.000Z</time>
      </trkpt>
      <trkpt lat="44.35035" lon="1.67103">
        <ele>321.79998779297</ele>
        <time>2022-05-26T06:42:30.000Z</time>
      </trkpt>
      <trkpt lat="44.35056" lon="1.67121">
        <ele>322</ele>
        <time>2022-05-26T06:42:37.000Z</time>
      </trkpt>
      <trkpt lat="44.35062" lon="1.67121">
        <ele>322</ele>
        <time>2022-05-26T06:42:39.000Z</time>
      </trkpt>
      <trkpt lat="44.35067" lon="1.67115">
        <ele>322</ele>
        <time>2022-05-26T06:42:41.000Z</time>
      </trkpt>
      <trkpt lat="44.35088" lon="1.67084">
        <ele>322</ele>
        <time>2022-05-26T06:42:48.000Z</time>
      </trkpt>
      <trkpt lat="44.35113" lon="1.67046">
        <ele>322</ele>
        <time>2022-05-26T06:42:56.000Z</time>
      </trkpt>
      <trkpt lat="44.35116" lon="1.67041">
        <ele>322</ele>
        <time>2022-05-26T06:42:57.000Z</time>
      </trkpt>
      <trkpt lat="44.35134" lon="1.67011">
        <ele>322</ele>
        <time>2022-05-26T06:43:03.000Z</time>
      </trkpt>
      <trkpt lat="44.35156" lon="1.6697">
        <ele>321</ele>
        <time>2022-05-26T06:43:11.000Z</time>
      </trkpt>
      <trkpt lat="44.35179" lon="1.66935">
        <ele>320.39999389648</ele>
        <time>2022-05-26T06:43:18.000Z</time>
      </trkpt>
      <trkpt lat="44.35187" lon="1.66926">
        <ele>320.39999389648</ele>
        <time>2022-05-26T06:43:20.000Z</time>
      </trkpt>
      <trkpt lat="44.35199" lon="1.66913">
        <ele>320</ele>
        <time>2022-05-26T06:43:23.000Z</time>
      </trkpt>
      <trkpt lat="44.35219" lon="1.66895">
        <ele>319.60000610352</ele>
        <time>2022-05-26T06:43:29.000Z</time>
      </trkpt>
      <trkpt lat="44.35242" lon="1.66864">
        <ele>319.20001220703</ele>
        <time>2022-05-26T06:43:36.000Z</time>
      </trkpt>
      <trkpt lat="44.35255" lon="1.66843">
        <ele>319</ele>
        <time>2022-05-26T06:43:40.000Z</time>
      </trkpt>
      <trkpt lat="44.3527" lon="1.66814">
        <ele>318.60000610352</ele>
        <time>2022-05-26T06:43:45.000Z</time>
      </trkpt>
      <trkpt lat="44.35285" lon="1.66792">
        <ele>318</ele>
        <time>2022-05-26T06:43:50.000Z</time>
      </trkpt>
      <trkpt lat="44.35288" lon="1.66787">
        <ele>317.79998779297</ele>
        <time>2022-05-26T06:43:51.000Z</time>
      </trkpt>
      <trkpt lat="44.35304" lon="1.66759">
        <ele>317.39999389648</ele>
        <time>2022-05-26T06:43:58.000Z</time>
      </trkpt>
      <trkpt lat="44.35321" lon="1.66731">
        <ele>317.39999389648</ele>
        <time>2022-05-26T06:44:06.000Z</time>
      </trkpt>
      <trkpt lat="44.35333" lon="1.6671">
        <ele>317</ele>
        <time>2022-05-26T06:44:12.000Z</time>
      </trkpt>
      <trkpt lat="44.35338" lon="1.66701">
        <ele>317</ele>
        <time>2022-05-26T06:44:15.000Z</time>
      </trkpt>
      <trkpt lat="44.35339" lon="1.66697">
        <ele>316.79998779297</ele>
        <time>2022-05-26T06:44:16.000Z</time>
      </trkpt>
      <trkpt lat="44.35337" lon="1.66691">
        <ele>316.79998779297</ele>
        <time>2022-05-26T06:44:18.000Z</time>
      </trkpt>
      <trkpt lat="44.35336" lon="1.66689">
        <ele>316.79998779297</ele>
        <time>2022-05-26T06:44:19.000Z</time>
      </trkpt>
      <trkpt lat="44.3533" lon="1.66684">
        <ele>316.79998779297</ele>
        <time>2022-05-26T06:44:22.000Z</time>
      </trkpt>
      <trkpt lat="44.3533" lon="1.66681">
        <ele>316.60000610352</ele>
        <time>2022-05-26T06:44:24.000Z</time>
      </trkpt>
      <trkpt lat="44.3533" lon="1.6668">
        <ele>316.60000610352</ele>
        <time>2022-05-26T06:44:25.000Z</time>
      </trkpt>
      <trkpt lat="44.3533" lon="1.6668">
        <ele>316.60000610352</ele>
        <time>2022-05-26T06:44:26.000Z</time>
      </trkpt>
      <trkpt lat="44.35338" lon="1.667">
        <ele>315.60000610352</ele>
        <time>2022-05-26T06:55:31.000Z</time>
      </trkpt>
      <trkpt lat="44.35336" lon="1.66704">
        <ele>315.39999389648</ele>
        <time>2022-05-26T06:55:33.000Z</time>
      </trkpt>
      <trkpt lat="44.35326" lon="1.66721">
        <ele>315.39999389648</ele>
        <time>2022-05-26T06:55:40.000Z</time>
      </trkpt>
      <trkpt lat="44.35318" lon="1.66738">
        <ele>315.39999389648</ele>
        <time>2022-05-26T06:55:47.000Z</time>
      </trkpt>
      <trkpt lat="44.35299" lon="1.66768">
        <ele>315.79998779297</ele>
        <time>2022-05-26T06:55:57.000Z</time>
      </trkpt>
      <trkpt lat="44.35281" lon="1.66797">
        <ele>316</ele>
        <time>2022-05-26T06:56:06.000Z</time>
      </trkpt>
      <trkpt lat="44.35257" lon="1.66837">
        <ele>316.20001220703</ele>
        <time>2022-05-26T06:56:18.000Z</time>
      </trkpt>
      <trkpt lat="44.3524" lon="1.66865">
        <ele>316.60000610352</ele>
        <time>2022-05-26T06:56:26.000Z</time>
      </trkpt>
      <trkpt lat="44.35234" lon="1.66874">
        <ele>316.60000610352</ele>
        <time>2022-05-26T06:56:29.000Z</time>
      </trkpt>
      <trkpt lat="44.35214" lon="1.66898">
        <ele>316.79998779297</ele>
        <time>2022-05-26T06:56:38.000Z</time>
      </trkpt>
      <trkpt lat="44.35192" lon="1.66918">
        <ele>317.20001220703</ele>
        <time>2022-05-26T06:56:47.000Z</time>
      </trkpt>
      <trkpt lat="44.35174" lon="1.66939">
        <ele>317.60000610352</ele>
        <time>2022-05-26T06:56:55.000Z</time>
      </trkpt>
      <trkpt lat="44.35171" lon="1.66945">
        <ele>317.60000610352</ele>
        <time>2022-05-26T06:56:57.000Z</time>
      </trkpt>
      <trkpt lat="44.35154" lon="1.66975">
        <ele>318.39999389648</ele>
        <time>2022-05-26T06:57:07.000Z</time>
      </trkpt>
      <trkpt lat="44.35147" lon="1.66988">
        <ele>318.60000610352</ele>
        <time>2022-05-26T06:57:12.000Z</time>
      </trkpt>
      <trkpt lat="44.35145" lon="1.6699">
        <ele>318.60000610352</ele>
        <time>2022-05-26T06:57:13.000Z</time>
      </trkpt>
      <trkpt lat="44.35134" lon="1.67012">
        <ele>318.79998779297</ele>
        <time>2022-05-26T06:57:21.000Z</time>
      </trkpt>
      <trkpt lat="44.35123" lon="1.67032">
        <ele>319.39999389648</ele>
        <time>2022-05-26T06:57:29.000Z</time>
      </trkpt>
      <trkpt lat="44.35118" lon="1.6704">
        <ele>319.60000610352</ele>
        <time>2022-05-26T06:57:32.000Z</time>
      </trkpt>
      <trkpt lat="44.3511" lon="1.67051">
        <ele>319.79998779297</ele>
        <time>2022-05-26T06:57:36.000Z</time>
      </trkpt>
      <trkpt lat="44.35094" lon="1.67075">
        <ele>320.20001220703</ele>
        <time>2022-05-26T06:57:43.000Z</time>
      </trkpt>
      <trkpt lat="44.35075" lon="1.67101">
        <ele>320.39999389648</ele>
        <time>2022-05-26T06:57:52.000Z</time>
      </trkpt>
      <trkpt lat="44.35057" lon="1.67127">
        <ele>320.60000610352</ele>
        <time>2022-05-26T06:58:02.000Z</time>
      </trkpt>
      <trkpt lat="44.35046" lon="1.67144">
        <ele>320.60000610352</ele>
        <time>2022-05-26T06:58:08.000Z</time>
      </trkpt>
      <trkpt lat="44.35044" lon="1.67144">
        <ele>320.60000610352</ele>
        <time>2022-05-26T06:58:09.000Z</time>
      </trkpt>
      <trkpt lat="44.35032" lon="1.67133">
        <ele>320.39999389648</ele>
        <time>2022-05-26T06:58:15.000Z</time>
      </trkpt>
      <trkpt lat="44.35022" lon="1.67124">
        <ele>320.39999389648</ele>
        <time>2022-05-26T06:58:19.000Z</time>
      </trkpt>
      <trkpt lat="44.35015" lon="1.67117">
        <ele>320.39999389648</ele>
        <time>2022-05-26T06:58:22.000Z</time>
      </trkpt>
      <trkpt lat="44.35005" lon="1.67107">
        <ele>320.60000610352</ele>
        <time>2022-05-26T06:58:27.000Z</time>
      </trkpt>
      <trkpt lat="44.35003" lon="1.67105">
        <ele>320.60000610352</ele>
        <time>2022-05-26T06:58:29.000Z</time>
      </trkpt>
      <trkpt lat="44.35003" lon="1.67105">
        <ele>320.60000610352</ele>
        <time>2022-05-26T06:58:31.000Z</time>
      </trkpt>
      <trkpt lat="44.35001" lon="1.67104">
        <ele>320</ele>
        <time>2022-05-26T06:59:19.000Z</time>
      </trkpt>
      <trkpt lat="44.34999" lon="1.67102">
        <ele>320</ele>
        <time>2022-05-26T06:59:20.000Z</time>
      </trkpt>
      <trkpt lat="44.34984" lon="1.67087">
        <ele>320.20001220703</ele>
        <time>2022-05-26T06:59:26.000Z</time>
      </trkpt>
      <trkpt lat="44.34963" lon="1.67067">
        <ele>320.20001220703</ele>
        <time>2022-05-26T06:59:33.000Z</time>
      </trkpt>
      <trkpt lat="44.34943" lon="1.67051">
        <ele>320.20001220703</ele>
        <time>2022-05-26T06:59:40.000Z</time>
      </trkpt>
      <trkpt lat="44.34929" lon="1.67036">
        <ele>320.20001220703</ele>
        <time>2022-05-26T06:59:47.000Z</time>
      </trkpt>
      <trkpt lat="44.34907" lon="1.67017">
        <ele>320</ele>
        <time>2022-05-26T06:59:55.000Z</time>
      </trkpt>
      <trkpt lat="44.34887" lon="1.66999">
        <ele>319.60000610352</ele>
        <time>2022-05-26T07:00:02.000Z</time>
      </trkpt>
      <trkpt lat="44.34885" lon="1.66996">
        <ele>319.60000610352</ele>
        <time>2022-05-26T07:00:03.000Z</time>
      </trkpt>
      <trkpt lat="44.34869" lon="1.66981">
        <ele>319.39999389648</ele>
        <time>2022-05-26T07:00:09.000Z</time>
      </trkpt>
      <trkpt lat="44.34858" lon="1.6697">
        <ele>319.20001220703</ele>
        <time>2022-05-26T07:00:13.000Z</time>
      </trkpt>
      <trkpt lat="44.34839" lon="1.66946">
        <ele>318.79998779297</ele>
        <time>2022-05-26T07:00:20.000Z</time>
      </trkpt>
      <trkpt lat="44.34823" lon="1.66922">
        <ele>318.60000610352</ele>
        <time>2022-05-26T07:00:26.000Z</time>
      </trkpt>
      <trkpt lat="44.34815" lon="1.66911">
        <ele>318.20001220703</ele>
        <time>2022-05-26T07:00:29.000Z</time>
      </trkpt>
      <trkpt lat="44.34798" lon="1.6688">
        <ele>318</ele>
        <time>2022-05-26T07:00:37.000Z</time>
      </trkpt>
      <trkpt lat="44.34777" lon="1.66841">
        <ele>317.39999389648</ele>
        <time>2022-05-26T07:00:47.000Z</time>
      </trkpt>
      <trkpt lat="44.34775" lon="1.66837">
        <ele>317.20001220703</ele>
        <time>2022-05-26T07:00:48.000Z</time>
      </trkpt>
      <trkpt lat="44.34756" lon="1.66805">
        <ele>316.60000610352</ele>
        <time>2022-05-26T07:00:56.000Z</time>
      </trkpt>
      <trkpt lat="44.34724" lon="1.6675">
        <ele>316</ele>
        <time>2022-05-26T07:01:10.000Z</time>
      </trkpt>
      <trkpt lat="44.34718" lon="1.6674">
        <ele>315.79998779297</ele>
        <time>2022-05-26T07:01:15.000Z</time>
      </trkpt>
      <trkpt lat="44.34716" lon="1.66738">
        <ele>315.60000610352</ele>
        <time>2022-05-26T07:01:16.000Z</time>
      </trkpt>
      <trkpt lat="44.34713" lon="1.66731">
        <ele>315.39999389648</ele>
        <time>2022-05-26T07:01:20.000Z</time>
      </trkpt>
      <trkpt lat="44.3471" lon="1.66725">
        <ele>315.20001220703</ele>
        <time>2022-05-26T07:01:28.000Z</time>
      </trkpt>
      <trkpt lat="44.34719" lon="1.6674">
        <ele>315</ele>
        <time>2022-05-26T07:01:47.000Z</time>
      </trkpt>
      <trkpt lat="44.34721" lon="1.66744">
        <ele>315</ele>
        <time>2022-05-26T07:01:49.000Z</time>
      </trkpt>
      <trkpt lat="44.34726" lon="1.66747">
        <ele>315</ele>
        <time>2022-05-26T07:01:52.000Z</time>
      </trkpt>
      <trkpt lat="44.34727" lon="1.66749">
        <ele>314.79998779297</ele>
        <time>2022-05-26T07:01:53.000Z</time>
      </trkpt>
      <trkpt lat="44.34727" lon="1.6675">
        <ele>314.79998779297</ele>
        <time>2022-05-26T07:01:56.000Z</time>
      </trkpt>
      <trkpt lat="44.34724" lon="1.6674">
        <ele>314.79998779297</ele>
        <time>2022-05-26T07:05:43.000Z</time>
      </trkpt>
      <trkpt lat="44.34723" lon="1.66737">
        <ele>314.79998779297</ele>
        <time>2022-05-26T07:05:44.000Z</time>
      </trkpt>
      <trkpt lat="44.34716" lon="1.66714">
        <ele>315</ele>
        <time>2022-05-26T07:05:50.000Z</time>
      </trkpt>
      <trkpt lat="44.3471" lon="1.66697">
        <ele>315</ele>
        <time>2022-05-26T07:05:55.000Z</time>
      </trkpt>
      <trkpt lat="44.3471" lon="1.66682">
        <ele>315.20001220703</ele>
        <time>2022-05-26T07:06:00.000Z</time>
      </trkpt>
      <trkpt lat="44.34712" lon="1.66657">
        <ele>315.60000610352</ele>
        <time>2022-05-26T07:06:05.000Z</time>
      </trkpt>
      <trkpt lat="44.34716" lon="1.6662">
        <ele>315.79998779297</ele>
        <time>2022-05-26T07:06:12.000Z</time>
      </trkpt>
      <trkpt lat="44.34719" lon="1.66598">
        <ele>315.79998779297</ele>
        <time>2022-05-26T07:06:17.000Z</time>
      </trkpt>
      <trkpt lat="44.34723" lon="1.66565">
        <ele>315.79998779297</ele>
        <time>2022-05-26T07:06:24.000Z</time>
      </trkpt>
      <trkpt lat="44.34719" lon="1.66532">
        <ele>316</ele>
        <time>2022-05-26T07:06:31.000Z</time>
      </trkpt>
      <trkpt lat="44.34709" lon="1.6648">
        <ele>316</ele>
        <time>2022-05-26T07:06:42.000Z</time>
      </trkpt>
      <trkpt lat="44.347" lon="1.66437">
        <ele>316.39999389648</ele>
        <time>2022-05-26T07:06:51.000Z</time>
      </trkpt>
      <trkpt lat="44.3469" lon="1.66384">
        <ele>315.79998779297</ele>
        <time>2022-05-26T07:07:02.000Z</time>
      </trkpt>
      <trkpt lat="44.34686" lon="1.66359">
        <ele>315.60000610352</ele>
        <time>2022-05-26T07:07:08.000Z</time>
      </trkpt>
      <trkpt lat="44.34678" lon="1.66328">
        <ele>315.60000610352</ele>
        <time>2022-05-26T07:07:15.000Z</time>
      </trkpt>
      <trkpt lat="44.34676" lon="1.66314">
        <ele>315.60000610352</ele>
        <time>2022-05-26T07:07:18.000Z</time>
      </trkpt>
      <trkpt lat="44.34669" lon="1.66264">
        <ele>315</ele>
        <time>2022-05-26T07:07:29.000Z</time>
      </trkpt>
      <trkpt lat="44.34667" lon="1.66251">
        <ele>314.79998779297</ele>
        <time>2022-05-26T07:07:32.000Z</time>
      </trkpt>
      <trkpt lat="44.34663" lon="1.6623">
        <ele>314.60000610352</ele>
        <time>2022-05-26T07:07:36.000Z</time>
      </trkpt>
      <trkpt lat="44.34656" lon="1.66189">
        <ele>314.20001220703</ele>
        <time>2022-05-26T07:07:44.000Z</time>
      </trkpt>
      <trkpt lat="44.34648" lon="1.66154">
        <ele>313.79998779297</ele>
        <time>2022-05-26T07:07:52.000Z</time>
      </trkpt>
      <trkpt lat="44.34647" lon="1.6615">
        <ele>313.79998779297</ele>
        <time>2022-05-26T07:07:53.000Z</time>
      </trkpt>
      <trkpt lat="44.34646" lon="1.66143">
        <ele>313.60000610352</ele>
        <time>2022-05-26T07:07:55.000Z</time>
      </trkpt>
      <trkpt lat="44.34645" lon="1.66126">
        <ele>313.39999389648</ele>
        <time>2022-05-26T07:07:59.000Z</time>
      </trkpt>
      <trkpt lat="44.3464" lon="1.66085">
        <ele>313.20001220703</ele>
        <time>2022-05-26T07:08:08.000Z</time>
      </trkpt>
      <trkpt lat="44.3463" lon="1.6605">
        <ele>313</ele>
        <time>2022-05-26T07:08:16.000Z</time>
      </trkpt>
      <trkpt lat="44.34622" lon="1.65998">
        <ele>313.39999389648</ele>
        <time>2022-05-26T07:08:27.000Z</time>
      </trkpt>
      <trkpt lat="44.34621" lon="1.65989">
        <ele>313.20001220703</ele>
        <time>2022-05-26T07:08:29.000Z</time>
      </trkpt>
      <trkpt lat="44.34615" lon="1.65956">
        <ele>312.60000610352</ele>
        <time>2022-05-26T07:08:36.000Z</time>
      </trkpt>
      <trkpt lat="44.34612" lon="1.6594">
        <ele>312.20001220703</ele>
        <time>2022-05-26T07:08:39.000Z</time>
      </trkpt>
      <trkpt lat="44.34602" lon="1.65902">
        <ele>312.20001220703</ele>
        <time>2022-05-26T07:08:47.000Z</time>
      </trkpt>
      <trkpt lat="44.34585" lon="1.65857">
        <ele>312.20001220703</ele>
        <time>2022-05-26T07:08:57.000Z</time>
      </trkpt>
      <trkpt lat="44.34565" lon="1.65814">
        <ele>311.60000610352</ele>
        <time>2022-05-26T07:09:06.000Z</time>
      </trkpt>
      <trkpt lat="44.3456" lon="1.65804">
        <ele>311.79998779297</ele>
        <time>2022-05-26T07:09:08.000Z</time>
      </trkpt>
      <trkpt lat="44.34554" lon="1.65789">
        <ele>311.60000610352</ele>
        <time>2022-05-26T07:09:11.000Z</time>
      </trkpt>
      <trkpt lat="44.34549" lon="1.6578">
        <ele>311.60000610352</ele>
        <time>2022-05-26T07:09:13.000Z</time>
      </trkpt>
      <trkpt lat="44.34528" lon="1.65731">
        <ele>310.79998779297</ele>
        <time>2022-05-26T07:09:23.000Z</time>
      </trkpt>
      <trkpt lat="44.34509" lon="1.65689">
        <ele>310.60000610352</ele>
        <time>2022-05-26T07:09:32.000Z</time>
      </trkpt>
      <trkpt lat="44.34502" lon="1.65673">
        <ele>310.60000610352</ele>
        <time>2022-05-26T07:09:37.000Z</time>
      </trkpt>
      <trkpt lat="44.34501" lon="1.65671">
        <ele>310.60000610352</ele>
        <time>2022-05-26T07:09:38.000Z</time>
      </trkpt>
      <trkpt lat="44.34499" lon="1.65667">
        <ele>310.39999389648</ele>
        <time>2022-05-26T07:09:40.000Z</time>
      </trkpt>
      <trkpt lat="44.34498" lon="1.65656">
        <ele>310.60000610352</ele>
        <time>2022-05-26T07:09:45.000Z</time>
      </trkpt>
      <trkpt lat="44.34506" lon="1.65634">
        <ele>310.79998779297</ele>
        <time>2022-05-26T07:09:53.000Z</time>
      </trkpt>
      <trkpt lat="44.34514" lon="1.65611">
        <ele>311</ele>
        <time>2022-05-26T07:09:59.000Z</time>
      </trkpt>
      <trkpt lat="44.34521" lon="1.65584">
        <ele>311</ele>
        <time>2022-05-26T07:10:05.000Z</time>
      </trkpt>
      <trkpt lat="44.34529" lon="1.65554">
        <ele>311</ele>
        <time>2022-05-26T07:10:12.000Z</time>
      </trkpt>
      <trkpt lat="44.34535" lon="1.65534">
        <ele>310.79998779297</ele>
        <time>2022-05-26T07:10:17.000Z</time>
      </trkpt>
      <trkpt lat="44.34538" lon="1.65526">
        <ele>310.79998779297</ele>
        <time>2022-05-26T07:10:19.000Z</time>
      </trkpt>
      <trkpt lat="44.34547" lon="1.65494">
        <ele>310.79998779297</ele>
        <time>2022-05-26T07:10:25.000Z</time>
      </trkpt>
      <trkpt lat="44.34553" lon="1.65468">
        <ele>310.39999389648</ele>
        <time>2022-05-26T07:10:30.000Z</time>
      </trkpt>
      <trkpt lat="44.3456" lon="1.65442">
        <ele>310</ele>
        <time>2022-05-26T07:10:35.000Z</time>
      </trkpt>
      <trkpt lat="44.34563" lon="1.65426">
        <ele>309.20001220703</ele>
        <time>2022-05-26T07:10:38.000Z</time>
      </trkpt>
      <trkpt lat="44.34569" lon="1.65406">
        <ele>309</ele>
        <time>2022-05-26T07:10:42.000Z</time>
      </trkpt>
      <trkpt lat="44.34577" lon="1.65371">
        <ele>308.60000610352</ele>
        <time>2022-05-26T07:10:48.000Z</time>
      </trkpt>
      <trkpt lat="44.34581" lon="1.65353">
        <ele>308.20001220703</ele>
        <time>2022-05-26T07:10:51.000Z</time>
      </trkpt>
      <trkpt lat="44.34584" lon="1.65348">
        <ele>308</ele>
        <time>2022-05-26T07:10:53.000Z</time>
      </trkpt>
      <trkpt lat="44.34587" lon="1.65336">
        <ele>307.60000610352</ele>
        <time>2022-05-26T07:10:56.000Z</time>
      </trkpt>
      <trkpt lat="44.34593" lon="1.65322">
        <ele>307.20001220703</ele>
        <time>2022-05-26T07:10:59.000Z</time>
      </trkpt>
      <trkpt lat="44.34595" lon="1.65318">
        <ele>307.20001220703</ele>
        <time>2022-05-26T07:11:00.000Z</time>
      </trkpt>
      <trkpt lat="44.34601" lon="1.6529">
        <ele>306.60000610352</ele>
        <time>2022-05-26T07:11:05.000Z</time>
      </trkpt>
      <trkpt lat="44.3461" lon="1.65259">
        <ele>306.20001220703</ele>
        <time>2022-05-26T07:11:11.000Z</time>
      </trkpt>
      <trkpt lat="44.3462" lon="1.65225">
        <ele>305.20001220703</ele>
        <time>2022-05-26T07:11:18.000Z</time>
      </trkpt>
      <trkpt lat="44.34627" lon="1.65198">
        <ele>304.79998779297</ele>
        <time>2022-05-26T07:11:24.000Z</time>
      </trkpt>
      <trkpt lat="44.34634" lon="1.65175">
        <ele>304.39999389648</ele>
        <time>2022-05-26T07:11:29.000Z</time>
      </trkpt>
      <trkpt lat="44.34639" lon="1.65152">
        <ele>303</ele>
        <time>2022-05-26T07:11:34.000Z</time>
      </trkpt>
      <trkpt lat="44.34641" lon="1.65142">
        <ele>304</ele>
        <time>2022-05-26T07:11:36.000Z</time>
      </trkpt>
      <trkpt lat="44.34652" lon="1.65098">
        <ele>303.39999389648</ele>
        <time>2022-05-26T07:11:45.000Z</time>
      </trkpt>
      <trkpt lat="44.34656" lon="1.65082">
        <ele>303</ele>
        <time>2022-05-26T07:11:48.000Z</time>
      </trkpt>
      <trkpt lat="44.34662" lon="1.65062">
        <ele>302.60000610352</ele>
        <time>2022-05-26T07:11:52.000Z</time>
      </trkpt>
      <trkpt lat="44.34663" lon="1.65053">
        <ele>302.39999389648</ele>
        <time>2022-05-26T07:11:54.000Z</time>
      </trkpt>
      <trkpt lat="44.34665" lon="1.65042">
        <ele>302.20001220703</ele>
        <time>2022-05-26T07:11:56.000Z</time>
      </trkpt>
      <trkpt lat="44.34667" lon="1.65023">
        <ele>302</ele>
        <time>2022-05-26T07:11:59.000Z</time>
      </trkpt>
      <trkpt lat="44.34668" lon="1.65017">
        <ele>302</ele>
        <time>2022-05-26T07:12:00.000Z</time>
      </trkpt>
      <trkpt lat="44.34673" lon="1.64996">
        <ele>301.79998779297</ele>
        <time>2022-05-26T07:12:05.000Z</time>
      </trkpt>
      <trkpt lat="44.34678" lon="1.6497">
        <ele>301.79998779297</ele>
        <time>2022-05-26T07:12:11.000Z</time>
      </trkpt>
      <trkpt lat="44.34686" lon="1.64943">
        <ele>301.79998779297</ele>
        <time>2022-05-26T07:12:18.000Z</time>
      </trkpt>
      <trkpt lat="44.34689" lon="1.64931">
        <ele>301.79998779297</ele>
        <time>2022-05-26T07:12:21.000Z</time>
      </trkpt>
      <trkpt lat="44.3469" lon="1.64927">
        <ele>301.79998779297</ele>
        <time>2022-05-26T07:12:22.000Z</time>
      </trkpt>
      <trkpt lat="44.34696" lon="1.649">
        <ele>302.20001220703</ele>
        <time>2022-05-26T07:12:28.000Z</time>
      </trkpt>
      <trkpt lat="44.34701" lon="1.64882">
        <ele>302.39999389648</ele>
        <time>2022-05-26T07:12:33.000Z</time>
      </trkpt>
      <trkpt lat="44.34705" lon="1.64857">
        <ele>302.79998779297</ele>
        <time>2022-05-26T07:12:40.000Z</time>
      </trkpt>
      <trkpt lat="44.34709" lon="1.64839">
        <ele>302.79998779297</ele>
        <time>2022-05-26T07:12:44.000Z</time>
      </trkpt>
      <trkpt lat="44.34712" lon="1.6483">
        <ele>302.79998779297</ele>
        <time>2022-05-26T07:12:46.000Z</time>
      </trkpt>
      <trkpt lat="44.34713" lon="1.6482">
        <ele>303</ele>
        <time>2022-05-26T07:12:48.000Z</time>
      </trkpt>
      <trkpt lat="44.34712" lon="1.64806">
        <ele>303</ele>
        <time>2022-05-26T07:12:51.000Z</time>
      </trkpt>
      <trkpt lat="44.34713" lon="1.64792">
        <ele>303</ele>
        <time>2022-05-26T07:12:55.000Z</time>
      </trkpt>
      <trkpt lat="44.34715" lon="1.64777">
        <ele>303.20001220703</ele>
        <time>2022-05-26T07:12:59.000Z</time>
      </trkpt>
      <trkpt lat="44.34715" lon="1.64769">
        <ele>303.39999389648</ele>
        <time>2022-05-26T07:13:01.000Z</time>
      </trkpt>
      <trkpt lat="44.34715" lon="1.64746">
        <ele>303.60000610352</ele>
        <time>2022-05-26T07:13:07.000Z</time>
      </trkpt>
      <trkpt lat="44.34714" lon="1.64732">
        <ele>303.79998779297</ele>
        <time>2022-05-26T07:13:10.000Z</time>
      </trkpt>
      <trkpt lat="44.34712" lon="1.64717">
        <ele>304</ele>
        <time>2022-05-26T07:13:14.000Z</time>
      </trkpt>
      <trkpt lat="44.34707" lon="1.64692">
        <ele>304.39999389648</ele>
        <time>2022-05-26T07:13:20.000Z</time>
      </trkpt>
      <trkpt lat="44.34704" lon="1.64678">
        <ele>304.79998779297</ele>
        <time>2022-05-26T07:13:23.000Z</time>
      </trkpt>
      <trkpt lat="44.347" lon="1.64664">
        <ele>305.20001220703</ele>
        <time>2022-05-26T07:13:26.000Z</time>
      </trkpt>
      <trkpt lat="44.34699" lon="1.6466">
        <ele>305.39999389648</ele>
        <time>2022-05-26T07:13:27.000Z</time>
      </trkpt>
      <trkpt lat="44.34691" lon="1.64629">
        <ele>305.39999389648</ele>
        <time>2022-05-26T07:13:34.000Z</time>
      </trkpt>
      <trkpt lat="44.34681" lon="1.64596">
        <ele>305.39999389648</ele>
        <time>2022-05-26T07:13:42.000Z</time>
      </trkpt>
      <trkpt lat="44.34675" lon="1.64576">
        <ele>305</ele>
        <time>2022-05-26T07:13:47.000Z</time>
      </trkpt>
      <trkpt lat="44.34665" lon="1.64536">
        <ele>304.79998779297</ele>
        <time>2022-05-26T07:13:55.000Z</time>
      </trkpt>
      <trkpt lat="44.34657" lon="1.64501">
        <ele>304.39999389648</ele>
        <time>2022-05-26T07:14:02.000Z</time>
      </trkpt>
      <trkpt lat="44.34648" lon="1.6446">
        <ele>304.39999389648</ele>
        <time>2022-05-26T07:14:10.000Z</time>
      </trkpt>
      <trkpt lat="44.34645" lon="1.6444">
        <ele>304.39999389648</ele>
        <time>2022-05-26T07:14:14.000Z</time>
      </trkpt>
      <trkpt lat="44.34643" lon="1.6443">
        <ele>304.60000610352</ele>
        <time>2022-05-26T07:14:16.000Z</time>
      </trkpt>
      <trkpt lat="44.34633" lon="1.64386">
        <ele>304.60000610352</ele>
        <time>2022-05-26T07:14:25.000Z</time>
      </trkpt>
      <trkpt lat="44.34624" lon="1.64339">
        <ele>305.20001220703</ele>
        <time>2022-05-26T07:14:35.000Z</time>
      </trkpt>
      <trkpt lat="44.34617" lon="1.64306">
        <ele>305.79998779297</ele>
        <time>2022-05-26T07:14:42.000Z</time>
      </trkpt>
      <trkpt lat="44.34613" lon="1.64292">
        <ele>306</ele>
        <time>2022-05-26T07:14:45.000Z</time>
      </trkpt>
      <trkpt lat="44.346" lon="1.64253">
        <ele>306.20001220703</ele>
        <time>2022-05-26T07:14:54.000Z</time>
      </trkpt>
      <trkpt lat="44.3459" lon="1.64227">
        <ele>306.39999389648</ele>
        <time>2022-05-26T07:15:01.000Z</time>
      </trkpt>
      <trkpt lat="44.3458" lon="1.64204">
        <ele>307</ele>
        <time>2022-05-26T07:15:07.000Z</time>
      </trkpt>
      <trkpt lat="44.34577" lon="1.64197">
        <ele>307.20001220703</ele>
        <time>2022-05-26T07:15:09.000Z</time>
      </trkpt>
      <trkpt lat="44.34564" lon="1.6417">
        <ele>307.79998779297</ele>
        <time>2022-05-26T07:15:17.000Z</time>
      </trkpt>
      <trkpt lat="44.34563" lon="1.64167">
        <ele>308</ele>
        <time>2022-05-26T07:15:18.000Z</time>
      </trkpt>
      <trkpt lat="44.34549" lon="1.64143">
        <ele>308.79998779297</ele>
        <time>2022-05-26T07:15:25.000Z</time>
      </trkpt>
      <trkpt lat="44.34541" lon="1.6413">
        <ele>309</ele>
        <time>2022-05-26T07:15:29.000Z</time>
      </trkpt>
      <trkpt lat="44.3453" lon="1.6411">
        <ele>309.79998779297</ele>
        <time>2022-05-26T07:15:35.000Z</time>
      </trkpt>
      <trkpt lat="44.34527" lon="1.64105">
        <ele>310.20001220703</ele>
        <time>2022-05-26T07:15:37.000Z</time>
      </trkpt>
      <trkpt lat="44.34516" lon="1.64081">
        <ele>311.39999389648</ele>
        <time>2022-05-26T07:15:44.000Z</time>
      </trkpt>
      <trkpt lat="44.34514" lon="1.64073">
        <ele>311.60000610352</ele>
        <time>2022-05-26T07:15:46.000Z</time>
      </trkpt>
      <trkpt lat="44.34506" lon="1.64051">
        <ele>312.60000610352</ele>
        <time>2022-05-26T07:15:52.000Z</time>
      </trkpt>
      <trkpt lat="44.34505" lon="1.64048">
        <ele>312.60000610352</ele>
        <time>2022-05-26T07:15:53.000Z</time>
      </trkpt>
      <trkpt lat="44.34501" lon="1.64027">
        <ele>313.39999389648</ele>
        <time>2022-05-26T07:15:59.000Z</time>
      </trkpt>
      <trkpt lat="44.34499" lon="1.64019">
        <ele>313.60000610352</ele>
        <time>2022-05-26T07:16:01.000Z</time>
      </trkpt>
      <trkpt lat="44.34496" lon="1.64006">
        <ele>314</ele>
        <time>2022-05-26T07:16:05.000Z</time>
      </trkpt>
      <trkpt lat="44.34492" lon="1.63991">
        <ele>314.39999389648</ele>
        <time>2022-05-26T07:16:08.000Z</time>
      </trkpt>
      <trkpt lat="44.34489" lon="1.63982">
        <ele>314.60000610352</ele>
        <time>2022-05-26T07:16:10.000Z</time>
      </trkpt>
      <trkpt lat="44.34481" lon="1.63948">
        <ele>315</ele>
        <time>2022-05-26T07:16:17.000Z</time>
      </trkpt>
      <trkpt lat="44.34477" lon="1.6393">
        <ele>314.79998779297</ele>
        <time>2022-05-26T07:16:22.000Z</time>
      </trkpt>
      <trkpt lat="44.34471" lon="1.63901">
        <ele>314.39999389648</ele>
        <time>2022-05-26T07:16:28.000Z</time>
      </trkpt>
      <trkpt lat="44.34465" lon="1.63869">
        <ele>314.20001220703</ele>
        <time>2022-05-26T07:16:35.000Z</time>
      </trkpt>
      <trkpt lat="44.34457" lon="1.63831">
        <ele>314</ele>
        <time>2022-05-26T07:16:44.000Z</time>
      </trkpt>
      <trkpt lat="44.34452" lon="1.63809">
        <ele>314</ele>
        <time>2022-05-26T07:16:50.000Z</time>
      </trkpt>
      <trkpt lat="44.34449" lon="1.63783">
        <ele>313.79998779297</ele>
        <time>2022-05-26T07:16:56.000Z</time>
      </trkpt>
      <trkpt lat="44.34445" lon="1.63745">
        <ele>313.60000610352</ele>
        <time>2022-05-26T07:17:04.000Z</time>
      </trkpt>
      <trkpt lat="44.34442" lon="1.63716">
        <ele>314</ele>
        <time>2022-05-26T07:17:10.000Z</time>
      </trkpt>
      <trkpt lat="44.34439" lon="1.6368">
        <ele>314.39999389648</ele>
        <time>2022-05-26T07:17:17.000Z</time>
      </trkpt>
      <trkpt lat="44.34438" lon="1.63621">
        <ele>314.20001220703</ele>
        <time>2022-05-26T07:17:28.000Z</time>
      </trkpt>
      <trkpt lat="44.34439" lon="1.63598">
        <ele>314.39999389648</ele>
        <time>2022-05-26T07:17:33.000Z</time>
      </trkpt>
      <trkpt lat="44.34441" lon="1.63558">
        <ele>314.60000610352</ele>
        <time>2022-05-26T07:17:41.000Z</time>
      </trkpt>
      <trkpt lat="44.34446" lon="1.63524">
        <ele>314.60000610352</ele>
        <time>2022-05-26T07:17:48.000Z</time>
      </trkpt>
      <trkpt lat="44.3445" lon="1.63506">
        <ele>314.60000610352</ele>
        <time>2022-05-26T07:17:52.000Z</time>
      </trkpt>
      <trkpt lat="44.3445" lon="1.63493">
        <ele>314.39999389648</ele>
        <time>2022-05-26T07:17:55.000Z</time>
      </trkpt>
      <trkpt lat="44.34451" lon="1.63483">
        <ele>314.20001220703</ele>
        <time>2022-05-26T07:17:57.000Z</time>
      </trkpt>
      <trkpt lat="44.34455" lon="1.63451">
        <ele>313.79998779297</ele>
        <time>2022-05-26T07:18:03.000Z</time>
      </trkpt>
      <trkpt lat="44.3446" lon="1.63412">
        <ele>313.20001220703</ele>
        <time>2022-05-26T07:18:09.000Z</time>
      </trkpt>
      <trkpt lat="44.34463" lon="1.63401">
        <ele>313.39999389648</ele>
        <time>2022-05-26T07:18:11.000Z</time>
      </trkpt>
      <trkpt lat="44.34463" lon="1.63375">
        <ele>313</ele>
        <time>2022-05-26T07:18:16.000Z</time>
      </trkpt>
      <trkpt lat="44.34463" lon="1.6337">
        <ele>313</ele>
        <time>2022-05-26T07:18:17.000Z</time>
      </trkpt>
      <trkpt lat="44.34465" lon="1.63349">
        <ele>312.60000610352</ele>
        <time>2022-05-26T07:18:21.000Z</time>
      </trkpt>
      <trkpt lat="44.3447" lon="1.6332">
        <ele>312.20001220703</ele>
        <time>2022-05-26T07:18:26.000Z</time>
      </trkpt>
      <trkpt lat="44.34471" lon="1.63311">
        <ele>312.20001220703</ele>
        <time>2022-05-26T07:18:28.000Z</time>
      </trkpt>
      <trkpt lat="44.34474" lon="1.63291">
        <ele>312.20001220703</ele>
        <time>2022-05-26T07:18:32.000Z</time>
      </trkpt>
      <trkpt lat="44.34478" lon="1.63271">
        <ele>311.79998779297</ele>
        <time>2022-05-26T07:18:36.000Z</time>
      </trkpt>
      <trkpt lat="44.3448" lon="1.63266">
        <ele>311.60000610352</ele>
        <time>2022-05-26T07:18:37.000Z</time>
      </trkpt>
      <trkpt lat="44.34481" lon="1.6325">
        <ele>311</ele>
        <time>2022-05-26T07:18:40.000Z</time>
      </trkpt>
      <trkpt lat="44.34486" lon="1.63229">
        <ele>310.60000610352</ele>
        <time>2022-05-26T07:18:44.000Z</time>
      </trkpt>
      <trkpt lat="44.3449" lon="1.63217">
        <ele>310.39999389648</ele>
        <time>2022-05-26T07:18:46.000Z</time>
      </trkpt>
      <trkpt lat="44.34497" lon="1.63197">
        <ele>310.20001220703</ele>
        <time>2022-05-26T07:18:50.000Z</time>
      </trkpt>
      <trkpt lat="44.34498" lon="1.63192">
        <ele>310</ele>
        <time>2022-05-26T07:18:51.000Z</time>
      </trkpt>
      <trkpt lat="44.34499" lon="1.63187">
        <ele>310</ele>
        <time>2022-05-26T07:18:52.000Z</time>
      </trkpt>
      <trkpt lat="44.34503" lon="1.63172">
        <ele>309.60000610352</ele>
        <time>2022-05-26T07:18:55.000Z</time>
      </trkpt>
      <trkpt lat="44.34504" lon="1.63168">
        <ele>309.60000610352</ele>
        <time>2022-05-26T07:18:56.000Z</time>
      </trkpt>
      <trkpt lat="44.34512" lon="1.63144">
        <ele>309</ele>
        <time>2022-05-26T07:19:01.000Z</time>
      </trkpt>
      <trkpt lat="44.34523" lon="1.63106">
        <ele>308.39999389648</ele>
        <time>2022-05-26T07:19:07.000Z</time>
      </trkpt>
      <trkpt lat="44.34532" lon="1.63076">
        <ele>308</ele>
        <time>2022-05-26T07:19:12.000Z</time>
      </trkpt>
      <trkpt lat="44.34536" lon="1.63066">
        <ele>308</ele>
        <time>2022-05-26T07:19:14.000Z</time>
      </trkpt>
      <trkpt lat="44.34542" lon="1.63046">
        <ele>307.60000610352</ele>
        <time>2022-05-26T07:19:17.000Z</time>
      </trkpt>
      <trkpt lat="44.34553" lon="1.63009">
        <ele>306.79998779297</ele>
        <time>2022-05-26T07:19:23.000Z</time>
      </trkpt>
      <trkpt lat="44.3457" lon="1.62967">
        <ele>305.79998779297</ele>
        <time>2022-05-26T07:19:30.000Z</time>
      </trkpt>
      <trkpt lat="44.34573" lon="1.6296">
        <ele>305.79998779297</ele>
        <time>2022-05-26T07:19:31.000Z</time>
      </trkpt>
      <trkpt lat="44.34581" lon="1.62931">
        <ele>305.39999389648</ele>
        <time>2022-05-26T07:19:35.000Z</time>
      </trkpt>
      <trkpt lat="44.34584" lon="1.62924">
        <ele>305.20001220703</ele>
        <time>2022-05-26T07:19:36.000Z</time>
      </trkpt>
      <trkpt lat="44.3459" lon="1.62904">
        <ele>305</ele>
        <time>2022-05-26T07:19:39.000Z</time>
      </trkpt>
      <trkpt lat="44.34594" lon="1.62892">
        <ele>304.60000610352</ele>
        <time>2022-05-26T07:19:41.000Z</time>
      </trkpt>
      <trkpt lat="44.34597" lon="1.62886">
        <ele>304.60000610352</ele>
        <time>2022-05-26T07:19:42.000Z</time>
      </trkpt>
      <trkpt lat="44.34613" lon="1.62854">
        <ele>304</ele>
        <time>2022-05-26T07:19:48.000Z</time>
      </trkpt>
      <trkpt lat="44.34615" lon="1.62849">
        <ele>304</ele>
        <time>2022-05-26T07:19:49.000Z</time>
      </trkpt>
      <trkpt lat="44.3462" lon="1.62824">
        <ele>303.79998779297</ele>
        <time>2022-05-26T07:19:53.000Z</time>
      </trkpt>
      <trkpt lat="44.34631" lon="1.62786">
        <ele>303.79998779297</ele>
        <time>2022-05-26T07:19:59.000Z</time>
      </trkpt>
      <trkpt lat="44.34642" lon="1.62754">
        <ele>303.60000610352</ele>
        <time>2022-05-26T07:20:04.000Z</time>
      </trkpt>
      <trkpt lat="44.34643" lon="1.62748">
        <ele>303.39999389648</ele>
        <time>2022-05-26T07:20:05.000Z</time>
      </trkpt>
      <trkpt lat="44.34647" lon="1.62736">
        <ele>303</ele>
        <time>2022-05-26T07:20:07.000Z</time>
      </trkpt>
      <trkpt lat="44.34657" lon="1.62701">
        <ele>302.39999389648</ele>
        <time>2022-05-26T07:20:13.000Z</time>
      </trkpt>
      <trkpt lat="44.3466" lon="1.62689">
        <ele>302.39999389648</ele>
        <time>2022-05-26T07:20:15.000Z</time>
      </trkpt>
      <trkpt lat="44.34677" lon="1.62631">
        <ele>301.20001220703</ele>
        <time>2022-05-26T07:20:24.000Z</time>
      </trkpt>
      <trkpt lat="44.34683" lon="1.62604">
        <ele>300</ele>
        <time>2022-05-26T07:20:28.000Z</time>
      </trkpt>
      <trkpt lat="44.34685" lon="1.62592">
        <ele>299.39999389648</ele>
        <time>2022-05-26T07:20:30.000Z</time>
      </trkpt>
      <trkpt lat="44.34688" lon="1.62574">
        <ele>299</ele>
        <time>2022-05-26T07:20:33.000Z</time>
      </trkpt>
      <trkpt lat="44.34692" lon="1.62562">
        <ele>298.79998779297</ele>
        <time>2022-05-26T07:20:35.000Z</time>
      </trkpt>
      <trkpt lat="44.34694" lon="1.62558">
        <ele>298.79998779297</ele>
        <time>2022-05-26T07:20:36.000Z</time>
      </trkpt>
      <trkpt lat="44.34698" lon="1.62548">
        <ele>297.60000610352</ele>
        <time>2022-05-26T07:20:38.000Z</time>
      </trkpt>
      <trkpt lat="44.34702" lon="1.62535">
        <ele>297</ele>
        <time>2022-05-26T07:20:41.000Z</time>
      </trkpt>
      <trkpt lat="44.34704" lon="1.62525">
        <ele>296.60000610352</ele>
        <time>2022-05-26T07:20:43.000Z</time>
      </trkpt>
      <trkpt lat="44.34705" lon="1.62515">
        <ele>296</ele>
        <time>2022-05-26T07:20:45.000Z</time>
      </trkpt>
      <trkpt lat="44.34705" lon="1.62509">
        <ele>295.39999389648</ele>
        <time>2022-05-26T07:20:46.000Z</time>
      </trkpt>
      <trkpt lat="44.34707" lon="1.62489">
        <ele>294.39999389648</ele>
        <time>2022-05-26T07:20:50.000Z</time>
      </trkpt>
      <trkpt lat="44.34708" lon="1.62484">
        <ele>294.39999389648</ele>
        <time>2022-05-26T07:20:51.000Z</time>
      </trkpt>
      <trkpt lat="44.3471" lon="1.62464">
        <ele>293.39999389648</ele>
        <time>2022-05-26T07:20:55.000Z</time>
      </trkpt>
      <trkpt lat="44.3471" lon="1.62457">
        <ele>293.20001220703</ele>
        <time>2022-05-26T07:20:56.000Z</time>
      </trkpt>
      <trkpt lat="44.3471" lon="1.62431">
        <ele>292</ele>
        <time>2022-05-26T07:21:00.000Z</time>
      </trkpt>
      <trkpt lat="44.3471" lon="1.62424">
        <ele>292</ele>
        <time>2022-05-26T07:21:01.000Z</time>
      </trkpt>
      <trkpt lat="44.34709" lon="1.62412">
        <ele>291</ele>
        <time>2022-05-26T07:21:03.000Z</time>
      </trkpt>
      <trkpt lat="44.34706" lon="1.62382">
        <ele>290</ele>
        <time>2022-05-26T07:21:08.000Z</time>
      </trkpt>
      <trkpt lat="44.34705" lon="1.62376">
        <ele>289.79998779297</ele>
        <time>2022-05-26T07:21:09.000Z</time>
      </trkpt>
      <trkpt lat="44.34705" lon="1.62339">
        <ele>288.79998779297</ele>
        <time>2022-05-26T07:21:14.000Z</time>
      </trkpt>
      <trkpt lat="44.34706" lon="1.62304">
        <ele>287.60000610352</ele>
        <time>2022-05-26T07:21:19.000Z</time>
      </trkpt>
      <trkpt lat="44.34706" lon="1.62291">
        <ele>287</ele>
        <time>2022-05-26T07:21:21.000Z</time>
      </trkpt>
      <trkpt lat="44.34708" lon="1.62277">
        <ele>286.39999389648</ele>
        <time>2022-05-26T07:21:23.000Z</time>
      </trkpt>
      <trkpt lat="44.34711" lon="1.62242">
        <ele>285.60000610352</ele>
        <time>2022-05-26T07:21:28.000Z</time>
      </trkpt>
      <trkpt lat="44.34711" lon="1.62227">
        <ele>285.20001220703</ele>
        <time>2022-05-26T07:21:30.000Z</time>
      </trkpt>
      <trkpt lat="44.34711" lon="1.62195">
        <ele>284.20001220703</ele>
        <time>2022-05-26T07:21:34.000Z</time>
      </trkpt>
      <trkpt lat="44.34711" lon="1.6218">
        <ele>283.60000610352</ele>
        <time>2022-05-26T07:21:36.000Z</time>
      </trkpt>
      <trkpt lat="44.34709" lon="1.62153">
        <ele>283</ele>
        <time>2022-05-26T07:21:40.000Z</time>
      </trkpt>
      <trkpt lat="44.3471" lon="1.62134">
        <ele>282.60000610352</ele>
        <time>2022-05-26T07:21:43.000Z</time>
      </trkpt>
      <trkpt lat="44.34709" lon="1.62096">
        <ele>282</ele>
        <time>2022-05-26T07:21:49.000Z</time>
      </trkpt>
      <trkpt lat="44.34709" lon="1.6209">
        <ele>282</ele>
        <time>2022-05-26T07:21:50.000Z</time>
      </trkpt>
      <trkpt lat="44.34711" lon="1.62054">
        <ele>281.60000610352</ele>
        <time>2022-05-26T07:21:55.000Z</time>
      </trkpt>
      <trkpt lat="44.3471" lon="1.6204">
        <ele>281.60000610352</ele>
        <time>2022-05-26T07:21:57.000Z</time>
      </trkpt>
      <trkpt lat="44.34711" lon="1.62012">
        <ele>281.39999389648</ele>
        <time>2022-05-26T07:22:01.000Z</time>
      </trkpt>
      <trkpt lat="44.3471" lon="1.62006">
        <ele>281.39999389648</ele>
        <time>2022-05-26T07:22:02.000Z</time>
      </trkpt>
      <trkpt lat="44.34708" lon="1.61987">
        <ele>280.79998779297</ele>
        <time>2022-05-26T07:22:05.000Z</time>
      </trkpt>
      <trkpt lat="44.34707" lon="1.61974">
        <ele>280.60000610352</ele>
        <time>2022-05-26T07:22:07.000Z</time>
      </trkpt>
      <trkpt lat="44.34707" lon="1.61955">
        <ele>280.20001220703</ele>
        <time>2022-05-26T07:22:10.000Z</time>
      </trkpt>
      <trkpt lat="44.34706" lon="1.61944">
        <ele>279.79998779297</ele>
        <time>2022-05-26T07:22:12.000Z</time>
      </trkpt>
      <trkpt lat="44.34707" lon="1.61931">
        <ele>279.20001220703</ele>
        <time>2022-05-26T07:22:14.000Z</time>
      </trkpt>
      <trkpt lat="44.34707" lon="1.6192">
        <ele>278.60000610352</ele>
        <time>2022-05-26T07:22:16.000Z</time>
      </trkpt>
      <trkpt lat="44.34707" lon="1.61901">
        <ele>278</ele>
        <time>2022-05-26T07:22:19.000Z</time>
      </trkpt>
      <trkpt lat="44.34706" lon="1.61894">
        <ele>277.60000610352</ele>
        <time>2022-05-26T07:22:20.000Z</time>
      </trkpt>
      <trkpt lat="44.34706" lon="1.61881">
        <ele>276.79998779297</ele>
        <time>2022-05-26T07:22:22.000Z</time>
      </trkpt>
      <trkpt lat="44.34708" lon="1.61867">
        <ele>276.20001220703</ele>
        <time>2022-05-26T07:22:24.000Z</time>
      </trkpt>
      <trkpt lat="44.34708" lon="1.6186">
        <ele>276.20001220703</ele>
        <time>2022-05-26T07:22:25.000Z</time>
      </trkpt>
      <trkpt lat="44.3471" lon="1.61813">
        <ele>274.79998779297</ele>
        <time>2022-05-26T07:22:31.000Z</time>
      </trkpt>
      <trkpt lat="44.34711" lon="1.61792">
        <ele>273.60000610352</ele>
        <time>2022-05-26T07:22:34.000Z</time>
      </trkpt>
      <trkpt lat="44.34711" lon="1.61777">
        <ele>272.20001220703</ele>
        <time>2022-05-26T07:22:36.000Z</time>
      </trkpt>
      <trkpt lat="44.3471" lon="1.61751">
        <ele>270.79998779297</ele>
        <time>2022-05-26T07:22:40.000Z</time>
      </trkpt>
      <trkpt lat="44.34711" lon="1.61733">
        <ele>269.60000610352</ele>
        <time>2022-05-26T07:22:43.000Z</time>
      </trkpt>
      <trkpt lat="44.34711" lon="1.61727">
        <ele>269.39999389648</ele>
        <time>2022-05-26T07:22:44.000Z</time>
      </trkpt>
      <trkpt lat="44.34713" lon="1.61717">
        <ele>268.60000610352</ele>
        <time>2022-05-26T07:22:46.000Z</time>
      </trkpt>
      <trkpt lat="44.34715" lon="1.61707">
        <ele>267.39999389648</ele>
        <time>2022-05-26T07:22:48.000Z</time>
      </trkpt>
      <trkpt lat="44.34717" lon="1.61697">
        <ele>266.39999389648</ele>
        <time>2022-05-26T07:22:50.000Z</time>
      </trkpt>
      <trkpt lat="44.3472" lon="1.61688">
        <ele>264.39999389648</ele>
        <time>2022-05-26T07:22:52.000Z</time>
      </trkpt>
      <trkpt lat="44.34721" lon="1.61684">
        <ele>264</ele>
        <time>2022-05-26T07:22:53.000Z</time>
      </trkpt>
      <trkpt lat="44.34725" lon="1.61675">
        <ele>263.39999389648</ele>
        <time>2022-05-26T07:22:55.000Z</time>
      </trkpt>
      <trkpt lat="44.34728" lon="1.61656">
        <ele>262.20001220703</ele>
        <time>2022-05-26T07:22:59.000Z</time>
      </trkpt>
      <trkpt lat="44.3473" lon="1.61617">
        <ele>260.79998779297</ele>
        <time>2022-05-26T07:23:05.000Z</time>
      </trkpt>
      <trkpt lat="44.34729" lon="1.61595">
        <ele>259.60000610352</ele>
        <time>2022-05-26T07:23:08.000Z</time>
      </trkpt>
      <trkpt lat="44.34731" lon="1.61582">
        <ele>259.39999389648</ele>
        <time>2022-05-26T07:23:10.000Z</time>
      </trkpt>
      <trkpt lat="44.34737" lon="1.61566">
        <ele>258.60000610352</ele>
        <time>2022-05-26T07:23:14.000Z</time>
      </trkpt>
      <trkpt lat="44.34738" lon="1.61563">
        <ele>258.60000610352</ele>
        <time>2022-05-26T07:23:15.000Z</time>
      </trkpt>
      <trkpt lat="44.34752" lon="1.61546">
        <ele>258.60000610352</ele>
        <time>2022-05-26T07:23:21.000Z</time>
      </trkpt>
      <trkpt lat="44.34767" lon="1.61523">
        <ele>259.60000610352</ele>
        <time>2022-05-26T07:23:28.000Z</time>
      </trkpt>
      <trkpt lat="44.34771" lon="1.61517">
        <ele>260</ele>
        <time>2022-05-26T07:23:30.000Z</time>
      </trkpt>
      <trkpt lat="44.34783" lon="1.61497">
        <ele>260.60000610352</ele>
        <time>2022-05-26T07:23:37.000Z</time>
      </trkpt>
      <trkpt lat="44.34785" lon="1.61493">
        <ele>260.60000610352</ele>
        <time>2022-05-26T07:23:38.000Z</time>
      </trkpt>
      <trkpt lat="44.34787" lon="1.61489">
        <ele>260.60000610352</ele>
        <time>2022-05-26T07:23:39.000Z</time>
      </trkpt>
      <trkpt lat="44.34795" lon="1.61467">
        <ele>260.39999389648</ele>
        <time>2022-05-26T07:23:43.000Z</time>
      </trkpt>
      <trkpt lat="44.34805" lon="1.61438">
        <ele>260</ele>
        <time>2022-05-26T07:23:49.000Z</time>
      </trkpt>
      <trkpt lat="44.3481" lon="1.61407">
        <ele>260</ele>
        <time>2022-05-26T07:23:55.000Z</time>
      </trkpt>
      <trkpt lat="44.34812" lon="1.61379">
        <ele>260.60000610352</ele>
        <time>2022-05-26T07:24:01.000Z</time>
      </trkpt>
      <trkpt lat="44.34814" lon="1.61366">
        <ele>261.39999389648</ele>
        <time>2022-05-26T07:24:04.000Z</time>
      </trkpt>
      <trkpt lat="44.34814" lon="1.61359">
        <ele>262.39999389648</ele>
        <time>2022-05-26T07:24:06.000Z</time>
      </trkpt>
      <trkpt lat="44.34816" lon="1.61349">
        <ele>263.79998779297</ele>
        <time>2022-05-26T07:24:09.000Z</time>
      </trkpt>
      <trkpt lat="44.34818" lon="1.61334">
        <ele>264.79998779297</ele>
        <time>2022-05-26T07:24:13.000Z</time>
      </trkpt>
      <trkpt lat="44.3482" lon="1.6132">
        <ele>266</ele>
        <time>2022-05-26T07:24:17.000Z</time>
      </trkpt>
      <trkpt lat="44.34821" lon="1.61314">
        <ele>266.79998779297</ele>
        <time>2022-05-26T07:24:19.000Z</time>
      </trkpt>
      <trkpt lat="44.34821" lon="1.6131">
        <ele>267.20001220703</ele>
        <time>2022-05-26T07:24:20.000Z</time>
      </trkpt>
      <trkpt lat="44.34822" lon="1.61297">
        <ele>268.39999389648</ele>
        <time>2022-05-26T07:24:24.000Z</time>
      </trkpt>
      <trkpt lat="44.34824" lon="1.61279">
        <ele>269.60000610352</ele>
        <time>2022-05-26T07:24:29.000Z</time>
      </trkpt>
      <trkpt lat="44.34825" lon="1.6126">
        <ele>270.79998779297</ele>
        <time>2022-05-26T07:24:34.000Z</time>
      </trkpt>
      <trkpt lat="44.34826" lon="1.6125">
        <ele>271</ele>
        <time>2022-05-26T07:24:37.000Z</time>
      </trkpt>
      <trkpt lat="44.34827" lon="1.61229">
        <ele>271.79998779297</ele>
        <time>2022-05-26T07:24:42.000Z</time>
      </trkpt>
      <trkpt lat="44.34827" lon="1.61209">
        <ele>272</ele>
        <time>2022-05-26T07:24:47.000Z</time>
      </trkpt>
      <trkpt lat="44.34826" lon="1.61182">
        <ele>272.79998779297</ele>
        <time>2022-05-26T07:24:55.000Z</time>
      </trkpt>
      <trkpt lat="44.34826" lon="1.61165">
        <ele>273.79998779297</ele>
        <time>2022-05-26T07:25:00.000Z</time>
      </trkpt>
      <trkpt lat="44.34826" lon="1.6115">
        <ele>274.39999389648</ele>
        <time>2022-05-26T07:25:04.000Z</time>
      </trkpt>
      <trkpt lat="44.34824" lon="1.61137">
        <ele>274.79998779297</ele>
        <time>2022-05-26T07:25:08.000Z</time>
      </trkpt>
      <trkpt lat="44.34822" lon="1.61115">
        <ele>275.60000610352</ele>
        <time>2022-05-26T07:25:14.000Z</time>
      </trkpt>
      <trkpt lat="44.3482" lon="1.61104">
        <ele>275.79998779297</ele>
        <time>2022-05-26T07:25:17.000Z</time>
      </trkpt>
      <trkpt lat="44.34816" lon="1.61087">
        <ele>276.60000610352</ele>
        <time>2022-05-26T07:25:22.000Z</time>
      </trkpt>
      <trkpt lat="44.34814" lon="1.61076">
        <ele>276.79998779297</ele>
        <time>2022-05-26T07:25:25.000Z</time>
      </trkpt>
      <trkpt lat="44.34814" lon="1.61073">
        <ele>277</ele>
        <time>2022-05-26T07:25:26.000Z</time>
      </trkpt>
      <trkpt lat="44.34813" lon="1.61066">
        <ele>277.20001220703</ele>
        <time>2022-05-26T07:25:28.000Z</time>
      </trkpt>
      <trkpt lat="44.34808" lon="1.61042">
        <ele>278</ele>
        <time>2022-05-26T07:25:34.000Z</time>
      </trkpt>
      <trkpt lat="44.34806" lon="1.61034">
        <ele>278.20001220703</ele>
        <time>2022-05-26T07:25:36.000Z</time>
      </trkpt>
      <trkpt lat="44.34803" lon="1.61002">
        <ele>278.79998779297</ele>
        <time>2022-05-26T07:25:44.000Z</time>
      </trkpt>
      <trkpt lat="44.34801" lon="1.60982">
        <ele>279</ele>
        <time>2022-05-26T07:25:49.000Z</time>
      </trkpt>
      <trkpt lat="44.348" lon="1.60961">
        <ele>279.39999389648</ele>
        <time>2022-05-26T07:25:54.000Z</time>
      </trkpt>
      <trkpt lat="44.34798" lon="1.60928">
        <ele>279.60000610352</ele>
        <time>2022-05-26T07:26:02.000Z</time>
      </trkpt>
      <trkpt lat="44.34797" lon="1.60891">
        <ele>279.79998779297</ele>
        <time>2022-05-26T07:26:10.000Z</time>
      </trkpt>
      <trkpt lat="44.34796" lon="1.60854">
        <ele>280</ele>
        <time>2022-05-26T07:26:18.000Z</time>
      </trkpt>
      <trkpt lat="44.34794" lon="1.60817">
        <ele>279.79998779297</ele>
        <time>2022-05-26T07:26:26.000Z</time>
      </trkpt>
      <trkpt lat="44.34793" lon="1.60777">
        <ele>279.79998779297</ele>
        <time>2022-05-26T07:26:34.000Z</time>
      </trkpt>
      <trkpt lat="44.34794" lon="1.60762">
        <ele>280</ele>
        <time>2022-05-26T07:26:37.000Z</time>
      </trkpt>
      <trkpt lat="44.34793" lon="1.60739">
        <ele>280.20001220703</ele>
        <time>2022-05-26T07:26:42.000Z</time>
      </trkpt>
      <trkpt lat="44.34792" lon="1.607">
        <ele>280.60000610352</ele>
        <time>2022-05-26T07:26:51.000Z</time>
      </trkpt>
      <trkpt lat="44.34788" lon="1.60678">
        <ele>281.20001220703</ele>
        <time>2022-05-26T07:26:57.000Z</time>
      </trkpt>
      <trkpt lat="44.34788" lon="1.60669">
        <ele>281.39999389648</ele>
        <time>2022-05-26T07:26:59.000Z</time>
      </trkpt>
      <trkpt lat="44.34787" lon="1.60636">
        <ele>281.79998779297</ele>
        <time>2022-05-26T07:27:07.000Z</time>
      </trkpt>
      <trkpt lat="44.34788" lon="1.60614">
        <ele>281.60000610352</ele>
        <time>2022-05-26T07:27:12.000Z</time>
      </trkpt>
      <trkpt lat="44.34789" lon="1.60573">
        <ele>281.39999389648</ele>
        <time>2022-05-26T07:27:21.000Z</time>
      </trkpt>
      <trkpt lat="44.3479" lon="1.60546">
        <ele>280.79998779297</ele>
        <time>2022-05-26T07:27:27.000Z</time>
      </trkpt>
      <trkpt lat="44.34794" lon="1.60517">
        <ele>280.39999389648</ele>
        <time>2022-05-26T07:27:33.000Z</time>
      </trkpt>
      <trkpt lat="44.34798" lon="1.60503">
        <ele>280.20001220703</ele>
        <time>2022-05-26T07:27:36.000Z</time>
      </trkpt>
      <trkpt lat="44.34808" lon="1.60462">
        <ele>279.20001220703</ele>
        <time>2022-05-26T07:27:44.000Z</time>
      </trkpt>
      <trkpt lat="44.34813" lon="1.60437">
        <ele>277.79998779297</ele>
        <time>2022-05-26T07:27:49.000Z</time>
      </trkpt>
      <trkpt lat="44.34814" lon="1.60426">
        <ele>277.39999389648</ele>
        <time>2022-05-26T07:27:51.000Z</time>
      </trkpt>
      <trkpt lat="44.34819" lon="1.604">
        <ele>276.60000610352</ele>
        <time>2022-05-26T07:27:56.000Z</time>
      </trkpt>
      <trkpt lat="44.34822" lon="1.60391">
        <ele>276.39999389648</ele>
        <time>2022-05-26T07:27:58.000Z</time>
      </trkpt>
      <trkpt lat="44.34827" lon="1.60368">
        <ele>275.79998779297</ele>
        <time>2022-05-26T07:28:03.000Z</time>
      </trkpt>
      <trkpt lat="44.34828" lon="1.60363">
        <ele>275.60000610352</ele>
        <time>2022-05-26T07:28:04.000Z</time>
      </trkpt>
      <trkpt lat="44.34834" lon="1.60339">
        <ele>274.60000610352</ele>
        <time>2022-05-26T07:28:10.000Z</time>
      </trkpt>
      <trkpt lat="44.34834" lon="1.60336">
        <ele>274.60000610352</ele>
        <time>2022-05-26T07:28:11.000Z</time>
      </trkpt>
      <trkpt lat="44.34834" lon="1.6033">
        <ele>274.20001220703</ele>
        <time>2022-05-26T07:28:13.000Z</time>
      </trkpt>
      <trkpt lat="44.34835" lon="1.60323">
        <ele>274</ele>
        <time>2022-05-26T07:28:15.000Z</time>
      </trkpt>
      <trkpt lat="44.34839" lon="1.60308">
        <ele>273.20001220703</ele>
        <time>2022-05-26T07:28:19.000Z</time>
      </trkpt>
      <trkpt lat="44.3484" lon="1.603">
        <ele>272.79998779297</ele>
        <time>2022-05-26T07:28:21.000Z</time>
      </trkpt>
      <trkpt lat="44.34846" lon="1.60277">
        <ele>272.39999389648</ele>
        <time>2022-05-26T07:28:27.000Z</time>
      </trkpt>
      <trkpt lat="44.34849" lon="1.60268">
        <ele>272</ele>
        <time>2022-05-26T07:28:30.000Z</time>
      </trkpt>
      <trkpt lat="44.3485" lon="1.60265">
        <ele>271.79998779297</ele>
        <time>2022-05-26T07:28:31.000Z</time>
      </trkpt>
      <trkpt lat="44.34854" lon="1.60259">
        <ele>271.60000610352</ele>
        <time>2022-05-26T07:28:33.000Z</time>
      </trkpt>
      <trkpt lat="44.3486" lon="1.60246">
        <ele>270.79998779297</ele>
        <time>2022-05-26T07:28:37.000Z</time>
      </trkpt>
      <trkpt lat="44.34864" lon="1.60236">
        <ele>269.60000610352</ele>
        <time>2022-05-26T07:28:40.000Z</time>
      </trkpt>
      <trkpt lat="44.34872" lon="1.60212">
        <ele>268.39999389648</ele>
        <time>2022-05-26T07:28:46.000Z</time>
      </trkpt>
      <trkpt lat="44.34875" lon="1.602">
        <ele>268</ele>
        <time>2022-05-26T07:28:49.000Z</time>
      </trkpt>
      <trkpt lat="44.34878" lon="1.60188">
        <ele>267.20001220703</ele>
        <time>2022-05-26T07:28:52.000Z</time>
      </trkpt>
      <trkpt lat="44.34882" lon="1.60171">
        <ele>266.20001220703</ele>
        <time>2022-05-26T07:28:56.000Z</time>
      </trkpt>
      <trkpt lat="44.34885" lon="1.60155">
        <ele>265</ele>
        <time>2022-05-26T07:29:00.000Z</time>
      </trkpt>
      <trkpt lat="44.34889" lon="1.60142">
        <ele>264.39999389648</ele>
        <time>2022-05-26T07:29:03.000Z</time>
      </trkpt>
      <trkpt lat="44.34896" lon="1.60131">
        <ele>264</ele>
        <time>2022-05-26T07:29:06.000Z</time>
      </trkpt>
      <trkpt lat="44.34903" lon="1.60122">
        <ele>264</ele>
        <time>2022-05-26T07:29:09.000Z</time>
      </trkpt>
      <trkpt lat="44.34912" lon="1.60106">
        <ele>264.39999389648</ele>
        <time>2022-05-26T07:29:14.000Z</time>
      </trkpt>
      <trkpt lat="44.34918" lon="1.60095">
        <ele>264.79998779297</ele>
        <time>2022-05-26T07:29:17.000Z</time>
      </trkpt>
      <trkpt lat="44.34919" lon="1.60091">
        <ele>265.39999389648</ele>
        <time>2022-05-26T07:29:18.000Z</time>
      </trkpt>
      <trkpt lat="44.34928" lon="1.60074">
        <ele>266.60000610352</ele>
        <time>2022-05-26T07:29:23.000Z</time>
      </trkpt>
      <trkpt lat="44.34935" lon="1.60058">
        <ele>267.60000610352</ele>
        <time>2022-05-26T07:29:28.000Z</time>
      </trkpt>
      <trkpt lat="44.34936" lon="1.60054">
        <ele>267.79998779297</ele>
        <time>2022-05-26T07:29:29.000Z</time>
      </trkpt>
      <trkpt lat="44.34943" lon="1.60031">
        <ele>268.39999389648</ele>
        <time>2022-05-26T07:29:36.000Z</time>
      </trkpt>
      <trkpt lat="44.34945" lon="1.60024">
        <ele>268.79998779297</ele>
        <time>2022-05-26T07:29:38.000Z</time>
      </trkpt>
      <trkpt lat="44.34957" lon="1.59997">
        <ele>269.39999389648</ele>
        <time>2022-05-26T07:29:45.000Z</time>
      </trkpt>
      <trkpt lat="44.34969" lon="1.59972">
        <ele>269.20001220703</ele>
        <time>2022-05-26T07:29:52.000Z</time>
      </trkpt>
      <trkpt lat="44.34988" lon="1.59936">
        <ele>269.60000610352</ele>
        <time>2022-05-26T07:30:03.000Z</time>
      </trkpt>
      <trkpt lat="44.34993" lon="1.59927">
        <ele>269.79998779297</ele>
        <time>2022-05-26T07:30:06.000Z</time>
      </trkpt>
      <trkpt lat="44.35003" lon="1.5991">
        <ele>270.20001220703</ele>
        <time>2022-05-26T07:30:12.000Z</time>
      </trkpt>
      <trkpt lat="44.35022" lon="1.59879">
        <ele>270.60000610352</ele>
        <time>2022-05-26T07:30:22.000Z</time>
      </trkpt>
      <trkpt lat="44.35025" lon="1.59873">
        <ele>270.79998779297</ele>
        <time>2022-05-26T07:30:24.000Z</time>
      </trkpt>
      <trkpt lat="44.35037" lon="1.5985">
        <ele>271.39999389648</ele>
        <time>2022-05-26T07:30:31.000Z</time>
      </trkpt>
      <trkpt lat="44.35047" lon="1.59831">
        <ele>271.79998779297</ele>
        <time>2022-05-26T07:30:37.000Z</time>
      </trkpt>
      <trkpt lat="44.35052" lon="1.59822">
        <ele>272</ele>
        <time>2022-05-26T07:30:40.000Z</time>
      </trkpt>
      <trkpt lat="44.35065" lon="1.59797">
        <ele>272.20001220703</ele>
        <time>2022-05-26T07:30:49.000Z</time>
      </trkpt>
      <trkpt lat="44.35078" lon="1.59773">
        <ele>272.60000610352</ele>
        <time>2022-05-26T07:30:57.000Z</time>
      </trkpt>
      <trkpt lat="44.35081" lon="1.59767">
        <ele>272.79998779297</ele>
        <time>2022-05-26T07:30:59.000Z</time>
      </trkpt>
      <trkpt lat="44.35096" lon="1.59739">
        <ele>273.60000610352</ele>
        <time>2022-05-26T07:31:10.000Z</time>
      </trkpt>
      <trkpt lat="44.35097" lon="1.59736">
        <ele>273.79998779297</ele>
        <time>2022-05-26T07:31:12.000Z</time>
      </trkpt>
      <trkpt lat="44.35101" lon="1.5973">
        <ele>274</ele>
        <time>2022-05-26T07:31:16.000Z</time>
      </trkpt>
      <trkpt lat="44.35113" lon="1.59712">
        <ele>274.79998779297</ele>
        <time>2022-05-26T07:31:23.000Z</time>
      </trkpt>
      <trkpt lat="44.35128" lon="1.59689">
        <ele>275.79998779297</ele>
        <time>2022-05-26T07:31:31.000Z</time>
      </trkpt>
      <trkpt lat="44.35136" lon="1.59677">
        <ele>276.60000610352</ele>
        <time>2022-05-26T07:31:37.000Z</time>
      </trkpt>
      <trkpt lat="44.35139" lon="1.59672">
        <ele>276.79998779297</ele>
        <time>2022-05-26T07:31:40.000Z</time>
      </trkpt>
      <trkpt lat="44.35142" lon="1.59667">
        <ele>277</ele>
        <time>2022-05-26T07:31:42.000Z</time>
      </trkpt>
      <trkpt lat="44.35152" lon="1.59655">
        <ele>277</ele>
        <time>2022-05-26T07:31:46.000Z</time>
      </trkpt>
      <trkpt lat="44.35157" lon="1.59648">
        <ele>277</ele>
        <time>2022-05-26T07:31:48.000Z</time>
      </trkpt>
      <trkpt lat="44.35171" lon="1.59622">
        <ele>276.39999389648</ele>
        <time>2022-05-26T07:31:55.000Z</time>
      </trkpt>
      <trkpt lat="44.35172" lon="1.5962">
        <ele>276.39999389648</ele>
        <time>2022-05-26T07:31:56.000Z</time>
      </trkpt>
      <trkpt lat="44.35171" lon="1.59614">
        <ele>276</ele>
        <time>2022-05-26T07:31:59.000Z</time>
      </trkpt>
      <trkpt lat="44.3517" lon="1.59614">
        <ele>275.60000610352</ele>
        <time>2022-05-26T07:32:00.000Z</time>
      </trkpt>
      <trkpt lat="44.35164" lon="1.59616">
        <ele>275.39999389648</ele>
        <time>2022-05-26T07:32:04.000Z</time>
      </trkpt>
      <trkpt lat="44.35154" lon="1.59613">
        <ele>275.39999389648</ele>
        <time>2022-05-26T07:32:10.000Z</time>
      </trkpt>
      <trkpt lat="44.3515" lon="1.59609">
        <ele>275.60000610352</ele>
        <time>2022-05-26T07:32:15.000Z</time>
      </trkpt>
      <trkpt lat="44.35141" lon="1.59605">
        <ele>276</ele>
        <time>2022-05-26T07:33:53.000Z</time>
      </trkpt>
      <trkpt lat="44.35139" lon="1.59604">
        <ele>276</ele>
        <time>2022-05-26T07:33:54.000Z</time>
      </trkpt>
      <trkpt lat="44.35126" lon="1.59599">
        <ele>276</ele>
        <time>2022-05-26T07:34:00.000Z</time>
      </trkpt>
      <trkpt lat="44.35117" lon="1.59595">
        <ele>276.39999389648</ele>
        <time>2022-05-26T07:34:06.000Z</time>
      </trkpt>
      <trkpt lat="44.35113" lon="1.59594">
        <ele>276.39999389648</ele>
        <time>2022-05-26T07:34:07.000Z</time>
      </trkpt>
      <trkpt lat="44.35104" lon="1.59591">
        <ele>276.60000610352</ele>
        <time>2022-05-26T07:34:10.000Z</time>
      </trkpt>
      <trkpt lat="44.35091" lon="1.59585">
        <ele>276.79998779297</ele>
        <time>2022-05-26T07:34:16.000Z</time>
      </trkpt>
      <trkpt lat="44.35072" lon="1.59576">
        <ele>277</ele>
        <time>2022-05-26T07:34:23.000Z</time>
      </trkpt>
      <trkpt lat="44.35045" lon="1.59565">
        <ele>276.60000610352</ele>
        <time>2022-05-26T07:34:33.000Z</time>
      </trkpt>
      <trkpt lat="44.35039" lon="1.59562">
        <ele>276.60000610352</ele>
        <time>2022-05-26T07:34:34.000Z</time>
      </trkpt>
      <trkpt lat="44.35019" lon="1.59562">
        <ele>276.39999389648</ele>
        <time>2022-05-26T07:34:40.000Z</time>
      </trkpt>
      <trkpt lat="44.34997" lon="1.5957">
        <ele>276.20001220703</ele>
        <time>2022-05-26T07:34:47.000Z</time>
      </trkpt>
      <trkpt lat="44.34982" lon="1.59585">
        <ele>275.39999389648</ele>
        <time>2022-05-26T07:34:53.000Z</time>
      </trkpt>
      <trkpt lat="44.34965" lon="1.59604">
        <ele>275.20001220703</ele>
        <time>2022-05-26T07:34:59.000Z</time>
      </trkpt>
      <trkpt lat="44.34941" lon="1.59624">
        <ele>275.20001220703</ele>
        <time>2022-05-26T07:35:05.000Z</time>
      </trkpt>
      <trkpt lat="44.34918" lon="1.59648">
        <ele>275.79998779297</ele>
        <time>2022-05-26T07:35:12.000Z</time>
      </trkpt>
      <trkpt lat="44.34914" lon="1.59651">
        <ele>275.79998779297</ele>
        <time>2022-05-26T07:35:13.000Z</time>
      </trkpt>
      <trkpt lat="44.34901" lon="1.59661">
        <ele>276.20001220703</ele>
        <time>2022-05-26T07:35:18.000Z</time>
      </trkpt>
      <trkpt lat="44.34895" lon="1.59664">
        <ele>276.39999389648</ele>
        <time>2022-05-26T07:35:20.000Z</time>
      </trkpt>
      <trkpt lat="44.34887" lon="1.5967">
        <ele>276.60000610352</ele>
        <time>2022-05-26T07:35:21.000Z</time>
      </trkpt>
      <trkpt lat="44.34872" lon="1.59679">
        <ele>277.60000610352</ele>
        <time>2022-05-26T07:35:27.000Z</time>
      </trkpt>
      <trkpt lat="44.34857" lon="1.59687">
        <ele>278</ele>
        <time>2022-05-26T07:35:30.000Z</time>
      </trkpt>
      <trkpt lat="44.34834" lon="1.59703">
        <ele>278.20001220703</ele>
        <time>2022-05-26T07:35:36.000Z</time>
      </trkpt>
      <trkpt lat="44.3481" lon="1.59722">
        <ele>277.60000610352</ele>
        <time>2022-05-26T07:35:42.000Z</time>
      </trkpt>
      <trkpt lat="44.34785" lon="1.59741">
        <ele>276.79998779297</ele>
        <time>2022-05-26T07:35:46.000Z</time>
      </trkpt>
      <trkpt lat="44.3478" lon="1.59743">
        <ele>276.60000610352</ele>
        <time>2022-05-26T07:35:48.000Z</time>
      </trkpt>
      <trkpt lat="44.3477" lon="1.59748">
        <ele>276.39999389648</ele>
        <time>2022-05-26T07:35:49.000Z</time>
      </trkpt>
      <trkpt lat="44.34753" lon="1.59755">
        <ele>276</ele>
        <time>2022-05-26T07:35:54.000Z</time>
      </trkpt>
      <trkpt lat="44.34731" lon="1.59765">
        <ele>275.20001220703</ele>
        <time>2022-05-26T07:35:59.000Z</time>
      </trkpt>
      <trkpt lat="44.34715" lon="1.59772">
        <ele>275</ele>
        <time>2022-05-26T07:36:01.000Z</time>
      </trkpt>
      <trkpt lat="44.34692" lon="1.59785">
        <ele>274.20001220703</ele>
        <time>2022-05-26T07:36:06.000Z</time>
      </trkpt>
      <trkpt lat="44.34684" lon="1.5979">
        <ele>274.20001220703</ele>
        <time>2022-05-26T07:36:09.000Z</time>
      </trkpt>
      <trkpt lat="44.3466" lon="1.59804">
        <ele>274.20001220703</ele>
        <time>2022-05-26T07:36:16.000Z</time>
      </trkpt>
      <trkpt lat="44.34638" lon="1.59817">
        <ele>274.79998779297</ele>
        <time>2022-05-26T07:36:23.000Z</time>
      </trkpt>
      <trkpt lat="44.34633" lon="1.59821">
        <ele>275.39999389648</ele>
        <time>2022-05-26T07:36:25.000Z</time>
      </trkpt>
      <trkpt lat="44.34606" lon="1.59842">
        <ele>276.20001220703</ele>
        <time>2022-05-26T07:36:32.000Z</time>
      </trkpt>
      <trkpt lat="44.34567" lon="1.59876">
        <ele>275.60000610352</ele>
        <time>2022-05-26T07:36:44.000Z</time>
      </trkpt>
      <trkpt lat="44.34537" lon="1.599">
        <ele>274</ele>
        <time>2022-05-26T07:36:50.000Z</time>
      </trkpt>
      <trkpt lat="44.34514" lon="1.59915">
        <ele>273.20001220703</ele>
        <time>2022-05-26T07:36:54.000Z</time>
      </trkpt>
      <trkpt lat="44.34509" lon="1.59918">
        <ele>273.20001220703</ele>
        <time>2022-05-26T07:36:55.000Z</time>
      </trkpt>
      <trkpt lat="44.34504" lon="1.59923">
        <ele>273</ele>
        <time>2022-05-26T07:36:56.000Z</time>
      </trkpt>
      <trkpt lat="44.3448" lon="1.59943">
        <ele>272.60000610352</ele>
        <time>2022-05-26T07:37:01.000Z</time>
      </trkpt>
      <trkpt lat="44.3447" lon="1.59949">
        <ele>272.39999389648</ele>
        <time>2022-05-26T07:37:03.000Z</time>
      </trkpt>
      <trkpt lat="44.34442" lon="1.59964">
        <ele>271.79998779297</ele>
        <time>2022-05-26T07:37:08.000Z</time>
      </trkpt>
      <trkpt lat="44.34431" lon="1.5997">
        <ele>271.39999389648</ele>
        <time>2022-05-26T07:37:10.000Z</time>
      </trkpt>
      <trkpt lat="44.34424" lon="1.59973">
        <ele>271.20001220703</ele>
        <time>2022-05-26T07:37:11.000Z</time>
      </trkpt>
      <trkpt lat="44.34411" lon="1.59977">
        <ele>270.60000610352</ele>
        <time>2022-05-26T07:37:13.000Z</time>
      </trkpt>
      <trkpt lat="44.34392" lon="1.59986">
        <ele>270</ele>
        <time>2022-05-26T07:37:16.000Z</time>
      </trkpt>
      <trkpt lat="44.34381" lon="1.59993">
        <ele>269.60000610352</ele>
        <time>2022-05-26T07:37:18.000Z</time>
      </trkpt>
      <trkpt lat="44.3436" lon="1.60004">
        <ele>269.39999389648</ele>
        <time>2022-05-26T07:37:22.000Z</time>
      </trkpt>
      <trkpt lat="44.34335" lon="1.60018">
        <ele>269.39999389648</ele>
        <time>2022-05-26T07:37:28.000Z</time>
      </trkpt>
      <trkpt lat="44.34308" lon="1.60031">
        <ele>269.39999389648</ele>
        <time>2022-05-26T07:37:35.000Z</time>
      </trkpt>
      <trkpt lat="44.34301" lon="1.60034">
        <ele>269.39999389648</ele>
        <time>2022-05-26T07:37:37.000Z</time>
      </trkpt>
      <trkpt lat="44.34286" lon="1.60042">
        <ele>269.60000610352</ele>
        <time>2022-05-26T07:37:41.000Z</time>
      </trkpt>
      <trkpt lat="44.34274" lon="1.60048">
        <ele>270.20001220703</ele>
        <time>2022-05-26T07:37:45.000Z</time>
      </trkpt>
      <trkpt lat="44.3426" lon="1.60055">
        <ele>271</ele>
        <time>2022-05-26T07:37:49.000Z</time>
      </trkpt>
      <trkpt lat="44.34257" lon="1.60056">
        <ele>271.20001220703</ele>
        <time>2022-05-26T07:37:50.000Z</time>
      </trkpt>
      <trkpt lat="44.34238" lon="1.60063">
        <ele>272</ele>
        <time>2022-05-26T07:37:55.000Z</time>
      </trkpt>
      <trkpt lat="44.34228" lon="1.60067">
        <ele>273.39999389648</ele>
        <time>2022-05-26T07:37:58.000Z</time>
      </trkpt>
      <trkpt lat="44.34221" lon="1.6007">
        <ele>273.79998779297</ele>
        <time>2022-05-26T07:38:00.000Z</time>
      </trkpt>
      <trkpt lat="44.34203" lon="1.60077">
        <ele>274.60000610352</ele>
        <time>2022-05-26T07:38:05.000Z</time>
      </trkpt>
      <trkpt lat="44.34189" lon="1.60083">
        <ele>275</ele>
        <time>2022-05-26T07:38:08.000Z</time>
      </trkpt>
      <trkpt lat="44.3418" lon="1.60087">
        <ele>275.39999389648</ele>
        <time>2022-05-26T07:38:12.000Z</time>
      </trkpt>
      <trkpt lat="44.34177" lon="1.60088">
        <ele>275.60000610352</ele>
        <time>2022-05-26T07:38:13.000Z</time>
      </trkpt>
      <trkpt lat="44.3416" lon="1.60095">
        <ele>276.79998779297</ele>
        <time>2022-05-26T07:38:18.000Z</time>
      </trkpt>
      <trkpt lat="44.34148" lon="1.601">
        <ele>277.60000610352</ele>
        <time>2022-05-26T07:38:22.000Z</time>
      </trkpt>
      <trkpt lat="44.34145" lon="1.60102">
        <ele>278</ele>
        <time>2022-05-26T07:38:23.000Z</time>
      </trkpt>
      <trkpt lat="44.3413" lon="1.60108">
        <ele>279</ele>
        <time>2022-05-26T07:38:28.000Z</time>
      </trkpt>
      <trkpt lat="44.34118" lon="1.60112">
        <ele>279.79998779297</ele>
        <time>2022-05-26T07:38:32.000Z</time>
      </trkpt>
      <trkpt lat="44.3411" lon="1.60114">
        <ele>280.20001220703</ele>
        <time>2022-05-26T07:38:34.000Z</time>
      </trkpt>
      <trkpt lat="44.34089" lon="1.60121">
        <ele>280.79998779297</ele>
        <time>2022-05-26T07:38:40.000Z</time>
      </trkpt>
      <trkpt lat="44.34056" lon="1.60131">
        <ele>280.79998779297</ele>
        <time>2022-05-26T07:38:49.000Z</time>
      </trkpt>
      <trkpt lat="44.34013" lon="1.60147">
        <ele>280.20001220703</ele>
        <time>2022-05-26T07:38:58.000Z</time>
      </trkpt>
      <trkpt lat="44.33983" lon="1.60159">
        <ele>279</ele>
        <time>2022-05-26T07:39:03.000Z</time>
      </trkpt>
      <trkpt lat="44.33977" lon="1.6016">
        <ele>278.79998779297</ele>
        <time>2022-05-26T07:39:04.000Z</time>
      </trkpt>
      <trkpt lat="44.33965" lon="1.6016">
        <ele>278.39999389648</ele>
        <time>2022-05-26T07:39:06.000Z</time>
      </trkpt>
      <trkpt lat="44.33949" lon="1.60157">
        <ele>278</ele>
        <time>2022-05-26T07:39:09.000Z</time>
      </trkpt>
      <trkpt lat="44.3394" lon="1.60153">
        <ele>278</ele>
        <time>2022-05-26T07:39:11.000Z</time>
      </trkpt>
      <trkpt lat="44.33936" lon="1.60151">
        <ele>277.79998779297</ele>
        <time>2022-05-26T07:39:12.000Z</time>
      </trkpt>
      <trkpt lat="44.33928" lon="1.60147">
        <ele>277.79998779297</ele>
        <time>2022-05-26T07:39:14.000Z</time>
      </trkpt>
      <trkpt lat="44.33911" lon="1.60139">
        <ele>278</ele>
        <time>2022-05-26T07:39:19.000Z</time>
      </trkpt>
      <trkpt lat="44.33907" lon="1.60137">
        <ele>278</ele>
        <time>2022-05-26T07:39:20.000Z</time>
      </trkpt>
      <trkpt lat="44.33893" lon="1.6013">
        <ele>279</ele>
        <time>2022-05-26T07:39:24.000Z</time>
      </trkpt>
      <trkpt lat="44.33887" lon="1.60126">
        <ele>280</ele>
        <time>2022-05-26T07:39:27.000Z</time>
      </trkpt>
      <trkpt lat="44.33882" lon="1.60123">
        <ele>280.20001220703</ele>
        <time>2022-05-26T07:39:28.000Z</time>
      </trkpt>
      <trkpt lat="44.33853" lon="1.60105">
        <ele>281</ele>
        <time>2022-05-26T07:39:36.000Z</time>
      </trkpt>
      <trkpt lat="44.33824" lon="1.60093">
        <ele>279.39999389648</ele>
        <time>2022-05-26T07:39:41.000Z</time>
      </trkpt>
      <trkpt lat="44.33812" lon="1.60087">
        <ele>278.79998779297</ele>
        <time>2022-05-26T07:39:43.000Z</time>
      </trkpt>
      <trkpt lat="44.33783" lon="1.60073">
        <ele>277.79998779297</ele>
        <time>2022-05-26T07:39:48.000Z</time>
      </trkpt>
      <trkpt lat="44.33777" lon="1.6007">
        <ele>277.60000610352</ele>
        <time>2022-05-26T07:39:49.000Z</time>
      </trkpt>
      <trkpt lat="44.33758" lon="1.60062">
        <ele>276.60000610352</ele>
        <time>2022-05-26T07:39:53.000Z</time>
      </trkpt>
      <trkpt lat="44.33753" lon="1.60059">
        <ele>276.60000610352</ele>
        <time>2022-05-26T07:39:54.000Z</time>
      </trkpt>
      <trkpt lat="44.33726" lon="1.60044">
        <ele>276.39999389648</ele>
        <time>2022-05-26T07:40:01.000Z</time>
      </trkpt>
      <trkpt lat="44.33702" lon="1.6003">
        <ele>276.60000610352</ele>
        <time>2022-05-26T07:40:07.000Z</time>
      </trkpt>
      <trkpt lat="44.33681" lon="1.60018">
        <ele>276.60000610352</ele>
        <time>2022-05-26T07:40:12.000Z</time>
      </trkpt>
      <trkpt lat="44.33677" lon="1.60016">
        <ele>276.60000610352</ele>
        <time>2022-05-26T07:40:13.000Z</time>
      </trkpt>
      <trkpt lat="44.33642" lon="1.59993">
        <ele>276.39999389648</ele>
        <time>2022-05-26T07:40:22.000Z</time>
      </trkpt>
      <trkpt lat="44.33619" lon="1.5998">
        <ele>276.60000610352</ele>
        <time>2022-05-26T07:40:28.000Z</time>
      </trkpt>
      <trkpt lat="44.33615" lon="1.5998">
        <ele>276.60000610352</ele>
        <time>2022-05-26T07:40:29.000Z</time>
      </trkpt>
      <trkpt lat="44.33608" lon="1.59981">
        <ele>277</ele>
        <time>2022-05-26T07:40:31.000Z</time>
      </trkpt>
      <trkpt lat="44.33601" lon="1.59984">
        <ele>277.39999389648</ele>
        <time>2022-05-26T07:40:33.000Z</time>
      </trkpt>
      <trkpt lat="44.33597" lon="1.59986">
        <ele>277.60000610352</ele>
        <time>2022-05-26T07:40:34.000Z</time>
      </trkpt>
      <trkpt lat="44.33588" lon="1.59993">
        <ele>279</ele>
        <time>2022-05-26T07:40:37.000Z</time>
      </trkpt>
      <trkpt lat="44.3357" lon="1.60008">
        <ele>279.79998779297</ele>
        <time>2022-05-26T07:40:42.000Z</time>
      </trkpt>
      <trkpt lat="44.33566" lon="1.6001">
        <ele>280</ele>
        <time>2022-05-26T07:40:43.000Z</time>
      </trkpt>
      <trkpt lat="44.33543" lon="1.60026">
        <ele>280.60000610352</ele>
        <time>2022-05-26T07:40:49.000Z</time>
      </trkpt>
      <trkpt lat="44.33534" lon="1.60023">
        <ele>280.60000610352</ele>
        <time>2022-05-26T07:40:52.000Z</time>
      </trkpt>
      <trkpt lat="44.3352" lon="1.6">
        <ele>280.39999389648</ele>
        <time>2022-05-26T07:40:58.000Z</time>
      </trkpt>
      <trkpt lat="44.33517" lon="1.59992">
        <ele>279.39999389648</ele>
        <time>2022-05-26T07:41:02.000Z</time>
      </trkpt>
      <trkpt lat="44.33517" lon="1.59992">
        <ele>279</ele>
        <time>2022-05-26T07:41:04.000Z</time>
      </trkpt>
      <trkpt lat="44.33512" lon="1.59985">
        <ele>278.39999389648</ele>
        <time>2022-05-26T07:41:12.000Z</time>
      </trkpt>
      <trkpt lat="44.3351" lon="1.59983">
        <ele>278.39999389648</ele>
        <time>2022-05-26T07:41:13.000Z</time>
      </trkpt>
      <trkpt lat="44.33495" lon="1.59972">
        <ele>278.20001220703</ele>
        <time>2022-05-26T07:41:17.000Z</time>
      </trkpt>
      <trkpt lat="44.33465" lon="1.59947">
        <ele>278</ele>
        <time>2022-05-26T07:41:26.000Z</time>
      </trkpt>
      <trkpt lat="44.33434" lon="1.5993">
        <ele>279</ele>
        <time>2022-05-26T07:41:35.000Z</time>
      </trkpt>
      <trkpt lat="44.33422" lon="1.59925">
        <ele>279.60000610352</ele>
        <time>2022-05-26T07:41:38.000Z</time>
      </trkpt>
      <trkpt lat="44.33403" lon="1.59914">
        <ele>280</ele>
        <time>2022-05-26T07:41:43.000Z</time>
      </trkpt>
      <trkpt lat="44.33367" lon="1.59896">
        <ele>280</ele>
        <time>2022-05-26T07:41:53.000Z</time>
      </trkpt>
      <trkpt lat="44.3335" lon="1.59887">
        <ele>279.79998779297</ele>
        <time>2022-05-26T07:41:58.000Z</time>
      </trkpt>
      <trkpt lat="44.33348" lon="1.59884">
        <ele>279.79998779297</ele>
        <time>2022-05-26T07:41:59.000Z</time>
      </trkpt>
      <trkpt lat="44.33336" lon="1.59858">
        <ele>279.39999389648</ele>
        <time>2022-05-26T07:42:05.000Z</time>
      </trkpt>
      <trkpt lat="44.33321" lon="1.59844">
        <ele>279</ele>
        <time>2022-05-26T07:42:10.000Z</time>
      </trkpt>
      <trkpt lat="44.33303" lon="1.59828">
        <ele>279.20001220703</ele>
        <time>2022-05-26T07:42:16.000Z</time>
      </trkpt>
      <trkpt lat="44.33279" lon="1.59809">
        <ele>280.39999389648</ele>
        <time>2022-05-26T07:42:23.000Z</time>
      </trkpt>
      <trkpt lat="44.33271" lon="1.59804">
        <ele>280.60000610352</ele>
        <time>2022-05-26T07:42:25.000Z</time>
      </trkpt>
      <trkpt lat="44.33256" lon="1.59801">
        <ele>281</ele>
        <time>2022-05-26T07:42:29.000Z</time>
      </trkpt>
      <trkpt lat="44.3323" lon="1.59803">
        <ele>281.60000610352</ele>
        <time>2022-05-26T07:42:36.000Z</time>
      </trkpt>
      <trkpt lat="44.33227" lon="1.59803">
        <ele>281.79998779297</ele>
        <time>2022-05-26T07:42:37.000Z</time>
      </trkpt>
      <trkpt lat="44.3319" lon="1.59806">
        <ele>282.60000610352</ele>
        <time>2022-05-26T07:42:47.000Z</time>
      </trkpt>
      <trkpt lat="44.33182" lon="1.59807">
        <ele>282.60000610352</ele>
        <time>2022-05-26T07:42:49.000Z</time>
      </trkpt>
      <trkpt lat="44.3316" lon="1.59807">
        <ele>282.79998779297</ele>
        <time>2022-05-26T07:42:55.000Z</time>
      </trkpt>
      <trkpt lat="44.33121" lon="1.59803">
        <ele>283.60000610352</ele>
        <time>2022-05-26T07:43:05.000Z</time>
      </trkpt>
      <trkpt lat="44.33101" lon="1.59802">
        <ele>283.79998779297</ele>
        <time>2022-05-26T07:43:11.000Z</time>
      </trkpt>
      <trkpt lat="44.33091" lon="1.59802">
        <ele>283.79998779297</ele>
        <time>2022-05-26T07:43:14.000Z</time>
      </trkpt>
      <trkpt lat="44.33056" lon="1.598">
        <ele>284.79998779297</ele>
        <time>2022-05-26T07:43:24.000Z</time>
      </trkpt>
      <trkpt lat="44.33054" lon="1.59799">
        <ele>284.79998779297</ele>
        <time>2022-05-26T07:43:25.000Z</time>
      </trkpt>
      <trkpt lat="44.33049" lon="1.59793">
        <ele>285.39999389648</ele>
        <time>2022-05-26T07:43:27.000Z</time>
      </trkpt>
      <trkpt lat="44.33048" lon="1.59789">
        <ele>285.39999389648</ele>
        <time>2022-05-26T07:43:28.000Z</time>
      </trkpt>
      <trkpt lat="44.33049" lon="1.59764">
        <ele>285.60000610352</ele>
        <time>2022-05-26T07:43:33.000Z</time>
      </trkpt>
      <trkpt lat="44.33038" lon="1.59753">
        <ele>285.79998779297</ele>
        <time>2022-05-26T07:43:37.000Z</time>
      </trkpt>
      <trkpt lat="44.33004" lon="1.59746">
        <ele>286.39999389648</ele>
        <time>2022-05-26T07:43:45.000Z</time>
      </trkpt>
      <trkpt lat="44.32986" lon="1.5975">
        <ele>287</ele>
        <time>2022-05-26T07:43:50.000Z</time>
      </trkpt>
      <trkpt lat="44.32973" lon="1.59754">
        <ele>287.60000610352</ele>
        <time>2022-05-26T07:43:54.000Z</time>
      </trkpt>
      <trkpt lat="44.32955" lon="1.59754">
        <ele>288.20001220703</ele>
        <time>2022-05-26T07:43:59.000Z</time>
      </trkpt>
      <trkpt lat="44.32948" lon="1.59752">
        <ele>288.39999389648</ele>
        <time>2022-05-26T07:44:01.000Z</time>
      </trkpt>
      <trkpt lat="44.32924" lon="1.59744">
        <ele>289</ele>
        <time>2022-05-26T07:44:09.000Z</time>
      </trkpt>
      <trkpt lat="44.32918" lon="1.59742">
        <ele>289.20001220703</ele>
        <time>2022-05-26T07:44:11.000Z</time>
      </trkpt>
      <trkpt lat="44.32895" lon="1.59734">
        <ele>290.39999389648</ele>
        <time>2022-05-26T07:44:19.000Z</time>
      </trkpt>
      <trkpt lat="44.32891" lon="1.59732">
        <ele>290.60000610352</ele>
        <time>2022-05-26T07:44:20.000Z</time>
      </trkpt>
      <trkpt lat="44.32863" lon="1.59725">
        <ele>291.39999389648</ele>
        <time>2022-05-26T07:44:28.000Z</time>
      </trkpt>
      <trkpt lat="44.32856" lon="1.59726">
        <ele>291.39999389648</ele>
        <time>2022-05-26T07:44:30.000Z</time>
      </trkpt>
      <trkpt lat="44.32831" lon="1.59733">
        <ele>292</ele>
        <time>2022-05-26T07:44:37.000Z</time>
      </trkpt>
      <trkpt lat="44.32806" lon="1.59743">
        <ele>292.39999389648</ele>
        <time>2022-05-26T07:44:44.000Z</time>
      </trkpt>
      <trkpt lat="44.32795" lon="1.59748">
        <ele>292.79998779297</ele>
        <time>2022-05-26T07:44:47.000Z</time>
      </trkpt>
      <trkpt lat="44.32771" lon="1.59765">
        <ele>293.60000610352</ele>
        <time>2022-05-26T07:44:54.000Z</time>
      </trkpt>
      <trkpt lat="44.32764" lon="1.59771">
        <ele>293.60000610352</ele>
        <time>2022-05-26T07:44:56.000Z</time>
      </trkpt>
      <trkpt lat="44.32741" lon="1.59784">
        <ele>294.39999389648</ele>
        <time>2022-05-26T07:45:03.000Z</time>
      </trkpt>
      <trkpt lat="44.32728" lon="1.59776">
        <ele>294.60000610352</ele>
        <time>2022-05-26T07:45:07.000Z</time>
      </trkpt>
      <trkpt lat="44.32714" lon="1.59749">
        <ele>294.79998779297</ele>
        <time>2022-05-26T07:45:13.000Z</time>
      </trkpt>
      <trkpt lat="44.32692" lon="1.5971">
        <ele>294.60000610352</ele>
        <time>2022-05-26T07:45:22.000Z</time>
      </trkpt>
      <trkpt lat="44.32674" lon="1.5968">
        <ele>294.79998779297</ele>
        <time>2022-05-26T07:45:29.000Z</time>
      </trkpt>
      <trkpt lat="44.32658" lon="1.59663">
        <ele>295.20001220703</ele>
        <time>2022-05-26T07:45:35.000Z</time>
      </trkpt>
      <trkpt lat="44.32651" lon="1.59662">
        <ele>295.39999389648</ele>
        <time>2022-05-26T07:45:37.000Z</time>
      </trkpt>
      <trkpt lat="44.3263" lon="1.59661">
        <ele>296.39999389648</ele>
        <time>2022-05-26T07:45:43.000Z</time>
      </trkpt>
      <trkpt lat="44.32627" lon="1.59661">
        <ele>296.60000610352</ele>
        <time>2022-05-26T07:45:44.000Z</time>
      </trkpt>
      <trkpt lat="44.32611" lon="1.59663">
        <ele>297.79998779297</ele>
        <time>2022-05-26T07:45:49.000Z</time>
      </trkpt>
      <trkpt lat="44.32608" lon="1.59664">
        <ele>297.79998779297</ele>
        <time>2022-05-26T07:45:50.000Z</time>
      </trkpt>
      <trkpt lat="44.32586" lon="1.59671">
        <ele>299</ele>
        <time>2022-05-26T07:45:56.000Z</time>
      </trkpt>
      <trkpt lat="44.32578" lon="1.59674">
        <ele>299.20001220703</ele>
        <time>2022-05-26T07:45:58.000Z</time>
      </trkpt>
      <trkpt lat="44.3256" lon="1.59684">
        <ele>300</ele>
        <time>2022-05-26T07:46:03.000Z</time>
      </trkpt>
      <trkpt lat="44.32556" lon="1.59687">
        <ele>300</ele>
        <time>2022-05-26T07:46:04.000Z</time>
      </trkpt>
      <trkpt lat="44.32526" lon="1.59719">
        <ele>300.60000610352</ele>
        <time>2022-05-26T07:46:13.000Z</time>
      </trkpt>
      <trkpt lat="44.32505" lon="1.59741">
        <ele>301</ele>
        <time>2022-05-26T07:46:19.000Z</time>
      </trkpt>
      <trkpt lat="44.32494" lon="1.59755">
        <ele>301.20001220703</ele>
        <time>2022-05-26T07:46:23.000Z</time>
      </trkpt>
      <trkpt lat="44.32479" lon="1.59766">
        <ele>301.79998779297</ele>
        <time>2022-05-26T07:46:29.000Z</time>
      </trkpt>
      <trkpt lat="44.32468" lon="1.59757">
        <ele>301.79998779297</ele>
        <time>2022-05-26T07:46:33.000Z</time>
      </trkpt>
      <trkpt lat="44.32449" lon="1.59731">
        <ele>301.79998779297</ele>
        <time>2022-05-26T07:46:41.000Z</time>
      </trkpt>
      <trkpt lat="44.32448" lon="1.59724">
        <ele>301.79998779297</ele>
        <time>2022-05-26T07:46:43.000Z</time>
      </trkpt>
      <trkpt lat="44.3245" lon="1.59718">
        <ele>301.60000610352</ele>
        <time>2022-05-26T07:46:45.000Z</time>
      </trkpt>
      <trkpt lat="44.32462" lon="1.59696">
        <ele>301</ele>
        <time>2022-05-26T07:46:50.000Z</time>
      </trkpt>
      <trkpt lat="44.32479" lon="1.59658">
        <ele>301</ele>
        <time>2022-05-26T07:46:57.000Z</time>
      </trkpt>
      <trkpt lat="44.325" lon="1.59608">
        <ele>301.20001220703</ele>
        <time>2022-05-26T07:47:05.000Z</time>
      </trkpt>
      <trkpt lat="44.32517" lon="1.59567">
        <ele>300.60000610352</ele>
        <time>2022-05-26T07:47:13.000Z</time>
      </trkpt>
      <trkpt lat="44.3252" lon="1.59562">
        <ele>300.39999389648</ele>
        <time>2022-05-26T07:47:14.000Z</time>
      </trkpt>
      <trkpt lat="44.32533" lon="1.59537">
        <ele>300</ele>
        <time>2022-05-26T07:47:19.000Z</time>
      </trkpt>
      <trkpt lat="44.32543" lon="1.59517">
        <ele>299</ele>
        <time>2022-05-26T07:47:23.000Z</time>
      </trkpt>
      <trkpt lat="44.32548" lon="1.59507">
        <ele>299</ele>
        <time>2022-05-26T07:47:25.000Z</time>
      </trkpt>
      <trkpt lat="44.32563" lon="1.59479">
        <ele>298.79998779297</ele>
        <time>2022-05-26T07:47:31.000Z</time>
      </trkpt>
      <trkpt lat="44.3259" lon="1.59427">
        <ele>298.60000610352</ele>
        <time>2022-05-26T07:47:41.000Z</time>
      </trkpt>
      <trkpt lat="44.32603" lon="1.594">
        <ele>298.79998779297</ele>
        <time>2022-05-26T07:47:46.000Z</time>
      </trkpt>
      <trkpt lat="44.32612" lon="1.59377">
        <ele>299</ele>
        <time>2022-05-26T07:47:50.000Z</time>
      </trkpt>
      <trkpt lat="44.32623" lon="1.59346">
        <ele>299.20001220703</ele>
        <time>2022-05-26T07:47:55.000Z</time>
      </trkpt>
      <trkpt lat="44.32634" lon="1.59313">
        <ele>299</ele>
        <time>2022-05-26T07:48:00.000Z</time>
      </trkpt>
      <trkpt lat="44.32648" lon="1.59262">
        <ele>298.39999389648</ele>
        <time>2022-05-26T07:48:08.000Z</time>
      </trkpt>
      <trkpt lat="44.32662" lon="1.59215">
        <ele>298.39999389648</ele>
        <time>2022-05-26T07:48:16.000Z</time>
      </trkpt>
      <trkpt lat="44.32669" lon="1.59191">
        <ele>299</ele>
        <time>2022-05-26T07:48:21.000Z</time>
      </trkpt>
      <trkpt lat="44.32682" lon="1.59152">
        <ele>300.20001220703</ele>
        <time>2022-05-26T07:48:29.000Z</time>
      </trkpt>
      <trkpt lat="44.32686" lon="1.59135">
        <ele>300.39999389648</ele>
        <time>2022-05-26T07:48:32.000Z</time>
      </trkpt>
      <trkpt lat="44.32693" lon="1.59115">
        <ele>300.39999389648</ele>
        <time>2022-05-26T07:48:35.000Z</time>
      </trkpt>
      <trkpt lat="44.32702" lon="1.5909">
        <ele>300.20001220703</ele>
        <time>2022-05-26T07:48:39.000Z</time>
      </trkpt>
      <trkpt lat="44.32708" lon="1.59073">
        <ele>300</ele>
        <time>2022-05-26T07:48:42.000Z</time>
      </trkpt>
      <trkpt lat="44.32716" lon="1.5905">
        <ele>299.79998779297</ele>
        <time>2022-05-26T07:48:46.000Z</time>
      </trkpt>
      <trkpt lat="44.3273" lon="1.5901">
        <ele>299.20001220703</ele>
        <time>2022-05-26T07:48:53.000Z</time>
      </trkpt>
      <trkpt lat="44.32739" lon="1.58987">
        <ele>299</ele>
        <time>2022-05-26T07:48:57.000Z</time>
      </trkpt>
      <trkpt lat="44.32756" lon="1.58936">
        <ele>299.20001220703</ele>
        <time>2022-05-26T07:49:06.000Z</time>
      </trkpt>
      <trkpt lat="44.32765" lon="1.58909">
        <ele>299.20001220703</ele>
        <time>2022-05-26T07:49:12.000Z</time>
      </trkpt>
      <trkpt lat="44.32771" lon="1.58892">
        <ele>299.20001220703</ele>
        <time>2022-05-26T07:49:17.000Z</time>
      </trkpt>
      <trkpt lat="44.32772" lon="1.58885">
        <ele>299.20001220703</ele>
        <time>2022-05-26T07:49:19.000Z</time>
      </trkpt>
      <trkpt lat="44.32769" lon="1.58879">
        <ele>299.20001220703</ele>
        <time>2022-05-26T07:49:21.000Z</time>
      </trkpt>
      <trkpt lat="44.32751" lon="1.58861">
        <ele>298.60000610352</ele>
        <time>2022-05-26T07:49:27.000Z</time>
      </trkpt>
      <trkpt lat="44.32741" lon="1.58851">
        <ele>298.20001220703</ele>
        <time>2022-05-26T07:49:30.000Z</time>
      </trkpt>
      <trkpt lat="44.32729" lon="1.58841">
        <ele>297.39999389648</ele>
        <time>2022-05-26T07:49:33.000Z</time>
      </trkpt>
      <trkpt lat="44.32717" lon="1.58828">
        <ele>296.79998779297</ele>
        <time>2022-05-26T07:49:36.000Z</time>
      </trkpt>
      <trkpt lat="44.32709" lon="1.58822">
        <ele>296</ele>
        <time>2022-05-26T07:49:38.000Z</time>
      </trkpt>
      <trkpt lat="44.327" lon="1.58817">
        <ele>295.20001220703</ele>
        <time>2022-05-26T07:49:40.000Z</time>
      </trkpt>
      <trkpt lat="44.32691" lon="1.58815">
        <ele>294.39999389648</ele>
        <time>2022-05-26T07:49:42.000Z</time>
      </trkpt>
      <trkpt lat="44.32682" lon="1.58812">
        <ele>294</ele>
        <time>2022-05-26T07:49:44.000Z</time>
      </trkpt>
      <trkpt lat="44.32673" lon="1.58809">
        <ele>292.79998779297</ele>
        <time>2022-05-26T07:49:46.000Z</time>
      </trkpt>
      <trkpt lat="44.32668" lon="1.58807">
        <ele>292</ele>
        <time>2022-05-26T07:49:47.000Z</time>
      </trkpt>
      <trkpt lat="44.3266" lon="1.58802">
        <ele>291.60000610352</ele>
        <time>2022-05-26T07:49:49.000Z</time>
      </trkpt>
      <trkpt lat="44.3265" lon="1.58798">
        <ele>290.20001220703</ele>
        <time>2022-05-26T07:49:52.000Z</time>
      </trkpt>
      <trkpt lat="44.32642" lon="1.58796">
        <ele>289.20001220703</ele>
        <time>2022-05-26T07:49:54.000Z</time>
      </trkpt>
      <trkpt lat="44.32638" lon="1.58795">
        <ele>289</ele>
        <time>2022-05-26T07:49:55.000Z</time>
      </trkpt>
      <trkpt lat="44.32618" lon="1.58792">
        <ele>288.39999389648</ele>
        <time>2022-05-26T07:50:01.000Z</time>
      </trkpt>
      <trkpt lat="44.32595" lon="1.58796">
        <ele>288.60000610352</ele>
        <time>2022-05-26T07:50:07.000Z</time>
      </trkpt>
      <trkpt lat="44.32573" lon="1.58798">
        <ele>289</ele>
        <time>2022-05-26T07:50:13.000Z</time>
      </trkpt>
      <trkpt lat="44.32569" lon="1.58799">
        <ele>289.20001220703</ele>
        <time>2022-05-26T07:50:14.000Z</time>
      </trkpt>
      <trkpt lat="44.32541" lon="1.58801">
        <ele>289.79998779297</ele>
        <time>2022-05-26T07:50:22.000Z</time>
      </trkpt>
      <trkpt lat="44.32538" lon="1.58801">
        <ele>290</ele>
        <time>2022-05-26T07:50:23.000Z</time>
      </trkpt>
      <trkpt lat="44.32534" lon="1.58801">
        <ele>290.20001220703</ele>
        <time>2022-05-26T07:50:24.000Z</time>
      </trkpt>
      <trkpt lat="44.32528" lon="1.58802">
        <ele>290.60000610352</ele>
        <time>2022-05-26T07:50:26.000Z</time>
      </trkpt>
      <trkpt lat="44.32519" lon="1.58804">
        <ele>291</ele>
        <time>2022-05-26T07:50:29.000Z</time>
      </trkpt>
      <trkpt lat="44.32517" lon="1.58806">
        <ele>291.20001220703</ele>
        <time>2022-05-26T07:50:30.000Z</time>
      </trkpt>
      <trkpt lat="44.32504" lon="1.58824">
        <ele>291.79998779297</ele>
        <time>2022-05-26T07:50:35.000Z</time>
      </trkpt>
      <trkpt lat="44.32496" lon="1.58831">
        <ele>291.60000610352</ele>
        <time>2022-05-26T07:50:37.000Z</time>
      </trkpt>
      <trkpt lat="44.32488" lon="1.58838">
        <ele>291.39999389648</ele>
        <time>2022-05-26T07:50:39.000Z</time>
      </trkpt>
      <trkpt lat="44.32479" lon="1.58847">
        <ele>291</ele>
        <time>2022-05-26T07:50:41.000Z</time>
      </trkpt>
      <trkpt lat="44.32465" lon="1.58856">
        <ele>290.20001220703</ele>
        <time>2022-05-26T07:50:44.000Z</time>
      </trkpt>
      <trkpt lat="44.32454" lon="1.58864">
        <ele>289.79998779297</ele>
        <time>2022-05-26T07:50:46.000Z</time>
      </trkpt>
      <trkpt lat="44.32435" lon="1.5888">
        <ele>288.60000610352</ele>
        <time>2022-05-26T07:50:50.000Z</time>
      </trkpt>
      <trkpt lat="44.3243" lon="1.58884">
        <ele>288.20001220703</ele>
        <time>2022-05-26T07:50:51.000Z</time>
      </trkpt>
      <trkpt lat="44.32408" lon="1.58901">
        <ele>287.39999389648</ele>
        <time>2022-05-26T07:50:56.000Z</time>
      </trkpt>
      <trkpt lat="44.32404" lon="1.58903">
        <ele>287.39999389648</ele>
        <time>2022-05-26T07:50:57.000Z</time>
      </trkpt>
      <trkpt lat="44.32393" lon="1.5891">
        <ele>285.79998779297</ele>
        <time>2022-05-26T07:51:00.000Z</time>
      </trkpt>
      <trkpt lat="44.32389" lon="1.58913">
        <ele>285.79998779297</ele>
        <time>2022-05-26T07:51:01.000Z</time>
      </trkpt>
      <trkpt lat="44.32385" lon="1.58915">
        <ele>285.39999389648</ele>
        <time>2022-05-26T07:51:02.000Z</time>
      </trkpt>
      <trkpt lat="44.32382" lon="1.58918">
        <ele>285</ele>
        <time>2022-05-26T07:51:03.000Z</time>
      </trkpt>
      <trkpt lat="44.32368" lon="1.58933">
        <ele>283.60000610352</ele>
        <time>2022-05-26T07:51:07.000Z</time>
      </trkpt>
      <trkpt lat="44.32364" lon="1.58935">
        <ele>283.60000610352</ele>
        <time>2022-05-26T07:51:08.000Z</time>
      </trkpt>
      <trkpt lat="44.32361" lon="1.58938">
        <ele>283</ele>
        <time>2022-05-26T07:51:09.000Z</time>
      </trkpt>
      <trkpt lat="44.32358" lon="1.5894">
        <ele>282.60000610352</ele>
        <time>2022-05-26T07:51:10.000Z</time>
      </trkpt>
      <trkpt lat="44.32355" lon="1.58944">
        <ele>282</ele>
        <time>2022-05-26T07:51:11.000Z</time>
      </trkpt>
      <trkpt lat="44.32349" lon="1.58953">
        <ele>281.60000610352</ele>
        <time>2022-05-26T07:51:13.000Z</time>
      </trkpt>
      <trkpt lat="44.32344" lon="1.58961">
        <ele>280.60000610352</ele>
        <time>2022-05-26T07:51:15.000Z</time>
      </trkpt>
      <trkpt lat="44.32341" lon="1.58965">
        <ele>280.20001220703</ele>
        <time>2022-05-26T07:51:16.000Z</time>
      </trkpt>
      <trkpt lat="44.32331" lon="1.58977">
        <ele>279.79998779297</ele>
        <time>2022-05-26T07:51:19.000Z</time>
      </trkpt>
      <trkpt lat="44.32309" lon="1.59004">
        <ele>279</ele>
        <time>2022-05-26T07:51:25.000Z</time>
      </trkpt>
      <trkpt lat="44.32297" lon="1.59017">
        <ele>278.20001220703</ele>
        <time>2022-05-26T07:51:28.000Z</time>
      </trkpt>
      <trkpt lat="44.32293" lon="1.59021">
        <ele>278</ele>
        <time>2022-05-26T07:51:29.000Z</time>
      </trkpt>
      <trkpt lat="44.32279" lon="1.59034">
        <ele>277.39999389648</ele>
        <time>2022-05-26T07:51:33.000Z</time>
      </trkpt>
      <trkpt lat="44.32272" lon="1.59042">
        <ele>277</ele>
        <time>2022-05-26T07:51:35.000Z</time>
      </trkpt>
      <trkpt lat="44.32264" lon="1.5905">
        <ele>276.60000610352</ele>
        <time>2022-05-26T07:51:37.000Z</time>
      </trkpt>
      <trkpt lat="44.32252" lon="1.59063">
        <ele>276.20001220703</ele>
        <time>2022-05-26T07:51:40.000Z</time>
      </trkpt>
      <trkpt lat="44.32248" lon="1.59067">
        <ele>275.79998779297</ele>
        <time>2022-05-26T07:51:41.000Z</time>
      </trkpt>
      <trkpt lat="44.32223" lon="1.59097">
        <ele>274.79998779297</ele>
        <time>2022-05-26T07:51:47.000Z</time>
      </trkpt>
      <trkpt lat="44.32219" lon="1.59101">
        <ele>274.79998779297</ele>
        <time>2022-05-26T07:51:48.000Z</time>
      </trkpt>
      <trkpt lat="44.32208" lon="1.59112">
        <ele>273.79998779297</ele>
        <time>2022-05-26T07:51:51.000Z</time>
      </trkpt>
      <trkpt lat="44.32204" lon="1.59115">
        <ele>273.60000610352</ele>
        <time>2022-05-26T07:51:52.000Z</time>
      </trkpt>
      <trkpt lat="44.32199" lon="1.59117">
        <ele>273</ele>
        <time>2022-05-26T07:51:53.000Z</time>
      </trkpt>
      <trkpt lat="44.32195" lon="1.59117">
        <ele>272.79998779297</ele>
        <time>2022-05-26T07:51:54.000Z</time>
      </trkpt>
      <trkpt lat="44.32186" lon="1.59114">
        <ele>272.20001220703</ele>
        <time>2022-05-26T07:51:56.000Z</time>
      </trkpt>
      <trkpt lat="44.32181" lon="1.59111">
        <ele>272</ele>
        <time>2022-05-26T07:51:57.000Z</time>
      </trkpt>
      <trkpt lat="44.32177" lon="1.59108">
        <ele>271.60000610352</ele>
        <time>2022-05-26T07:51:58.000Z</time>
      </trkpt>
      <trkpt lat="44.32147" lon="1.5908">
        <ele>271</ele>
        <time>2022-05-26T07:52:06.000Z</time>
      </trkpt>
      <trkpt lat="44.32141" lon="1.59072">
        <ele>271</ele>
        <time>2022-05-26T07:52:08.000Z</time>
      </trkpt>
      <trkpt lat="44.32132" lon="1.59059">
        <ele>270.79998779297</ele>
        <time>2022-05-26T07:52:11.000Z</time>
      </trkpt>
      <trkpt lat="44.32129" lon="1.59053">
        <ele>270.79998779297</ele>
        <time>2022-05-26T07:52:12.000Z</time>
      </trkpt>
      <trkpt lat="44.32127" lon="1.59049">
        <ele>270.79998779297</ele>
        <time>2022-05-26T07:52:13.000Z</time>
      </trkpt>
      <trkpt lat="44.32117" lon="1.5902">
        <ele>270.60000610352</ele>
        <time>2022-05-26T07:52:18.000Z</time>
      </trkpt>
      <trkpt lat="44.32115" lon="1.59014">
        <ele>270.39999389648</ele>
        <time>2022-05-26T07:52:19.000Z</time>
      </trkpt>
      <trkpt lat="44.32111" lon="1.58996">
        <ele>270.39999389648</ele>
        <time>2022-05-26T07:52:22.000Z</time>
      </trkpt>
      <trkpt lat="44.3211" lon="1.5899">
        <ele>270.39999389648</ele>
        <time>2022-05-26T07:52:23.000Z</time>
      </trkpt>
      <trkpt lat="44.3211" lon="1.58977">
        <ele>270.20001220703</ele>
        <time>2022-05-26T07:52:25.000Z</time>
      </trkpt>
      <trkpt lat="44.32112" lon="1.58945">
        <ele>270.39999389648</ele>
        <time>2022-05-26T07:52:30.000Z</time>
      </trkpt>
      <trkpt lat="44.32112" lon="1.58934">
        <ele>270.60000610352</ele>
        <time>2022-05-26T07:52:32.000Z</time>
      </trkpt>
      <trkpt lat="44.32112" lon="1.58915">
        <ele>271.60000610352</ele>
        <time>2022-05-26T07:52:35.000Z</time>
      </trkpt>
      <trkpt lat="44.32112" lon="1.58882">
        <ele>272.79998779297</ele>
        <time>2022-05-26T07:52:41.000Z</time>
      </trkpt>
      <trkpt lat="44.32112" lon="1.58877">
        <ele>273.20001220703</ele>
        <time>2022-05-26T07:52:42.000Z</time>
      </trkpt>
      <trkpt lat="44.32112" lon="1.58872">
        <ele>273.39999389648</ele>
        <time>2022-05-26T07:52:43.000Z</time>
      </trkpt>
      <trkpt lat="44.32112" lon="1.58856">
        <ele>273.79998779297</ele>
        <time>2022-05-26T07:52:46.000Z</time>
      </trkpt>
      <trkpt lat="44.32112" lon="1.58833">
        <ele>275</ele>
        <time>2022-05-26T07:52:51.000Z</time>
      </trkpt>
      <trkpt lat="44.32111" lon="1.58822">
        <ele>275.20001220703</ele>
        <time>2022-05-26T07:52:53.000Z</time>
      </trkpt>
      <trkpt lat="44.32102" lon="1.58794">
        <ele>275.60000610352</ele>
        <time>2022-05-26T07:52:59.000Z</time>
      </trkpt>
      <trkpt lat="44.32084" lon="1.58775">
        <ele>276</ele>
        <time>2022-05-26T07:53:04.000Z</time>
      </trkpt>
      <trkpt lat="44.3208" lon="1.58772">
        <ele>276.20001220703</ele>
        <time>2022-05-26T07:53:05.000Z</time>
      </trkpt>
      <trkpt lat="44.32038" lon="1.58735">
        <ele>275.39999389648</ele>
        <time>2022-05-26T07:53:15.000Z</time>
      </trkpt>
      <trkpt lat="44.32015" lon="1.58716">
        <ele>275.20001220703</ele>
        <time>2022-05-26T07:53:21.000Z</time>
      </trkpt>
      <trkpt lat="44.32003" lon="1.58706">
        <ele>275</ele>
        <time>2022-05-26T07:53:24.000Z</time>
      </trkpt>
      <trkpt lat="44.31959" lon="1.5867">
        <ele>275.20001220703</ele>
        <time>2022-05-26T07:53:35.000Z</time>
      </trkpt>
      <trkpt lat="44.31955" lon="1.58667">
        <ele>275.20001220703</ele>
        <time>2022-05-26T07:53:36.000Z</time>
      </trkpt>
      <trkpt lat="44.31948" lon="1.58662">
        <ele>275.39999389648</ele>
        <time>2022-05-26T07:53:38.000Z</time>
      </trkpt>
      <trkpt lat="44.31939" lon="1.5866">
        <ele>275.20001220703</ele>
        <time>2022-05-26T07:53:40.000Z</time>
      </trkpt>
      <trkpt lat="44.31922" lon="1.58657">
        <ele>275</ele>
        <time>2022-05-26T07:53:45.000Z</time>
      </trkpt>
      <trkpt lat="44.31904" lon="1.58646">
        <ele>275</ele>
        <time>2022-05-26T07:53:50.000Z</time>
      </trkpt>
      <trkpt lat="44.31894" lon="1.58636">
        <ele>274.60000610352</ele>
        <time>2022-05-26T07:53:53.000Z</time>
      </trkpt>
      <trkpt lat="44.31885" lon="1.58624">
        <ele>274.39999389648</ele>
        <time>2022-05-26T07:53:56.000Z</time>
      </trkpt>
      <trkpt lat="44.31877" lon="1.58616">
        <ele>274</ele>
        <time>2022-05-26T07:53:59.000Z</time>
      </trkpt>
      <trkpt lat="44.31871" lon="1.5861">
        <ele>273.79998779297</ele>
        <time>2022-05-26T07:54:01.000Z</time>
      </trkpt>
      <trkpt lat="44.3185" lon="1.58589">
        <ele>273.20001220703</ele>
        <time>2022-05-26T07:54:08.000Z</time>
      </trkpt>
      <trkpt lat="44.31842" lon="1.58579">
        <ele>272.79998779297</ele>
        <time>2022-05-26T07:54:11.000Z</time>
      </trkpt>
      <trkpt lat="44.31828" lon="1.58563">
        <ele>272</ele>
        <time>2022-05-26T07:54:16.000Z</time>
      </trkpt>
      <trkpt lat="44.31825" lon="1.5856">
        <ele>271.79998779297</ele>
        <time>2022-05-26T07:54:17.000Z</time>
      </trkpt>
      <trkpt lat="44.31818" lon="1.58548">
        <ele>270.60000610352</ele>
        <time>2022-05-26T07:54:20.000Z</time>
      </trkpt>
      <trkpt lat="44.31809" lon="1.58539">
        <ele>269.79998779297</ele>
        <time>2022-05-26T07:54:23.000Z</time>
      </trkpt>
      <trkpt lat="44.31807" lon="1.58536">
        <ele>269.60000610352</ele>
        <time>2022-05-26T07:54:24.000Z</time>
      </trkpt>
      <trkpt lat="44.318" lon="1.58525">
        <ele>268.39999389648</ele>
        <time>2022-05-26T07:54:27.000Z</time>
      </trkpt>
      <trkpt lat="44.31794" lon="1.58517">
        <ele>268</ele>
        <time>2022-05-26T07:54:29.000Z</time>
      </trkpt>
      <trkpt lat="44.31788" lon="1.58509">
        <ele>267</ele>
        <time>2022-05-26T07:54:31.000Z</time>
      </trkpt>
      <trkpt lat="44.31779" lon="1.58497">
        <ele>266</ele>
        <time>2022-05-26T07:54:34.000Z</time>
      </trkpt>
      <trkpt lat="44.31772" lon="1.58486">
        <ele>265.20001220703</ele>
        <time>2022-05-26T07:54:37.000Z</time>
      </trkpt>
      <trkpt lat="44.3177" lon="1.58482">
        <ele>265</ele>
        <time>2022-05-26T07:54:38.000Z</time>
      </trkpt>
      <trkpt lat="44.31763" lon="1.58472">
        <ele>263.79998779297</ele>
        <time>2022-05-26T07:54:41.000Z</time>
      </trkpt>
      <trkpt lat="44.31761" lon="1.5847">
        <ele>263.60000610352</ele>
        <time>2022-05-26T07:54:42.000Z</time>
      </trkpt>
      <trkpt lat="44.31755" lon="1.58463">
        <ele>262.60000610352</ele>
        <time>2022-05-26T07:54:45.000Z</time>
      </trkpt>
      <trkpt lat="44.31752" lon="1.5846">
        <ele>262.20001220703</ele>
        <time>2022-05-26T07:54:46.000Z</time>
      </trkpt>
      <trkpt lat="44.31735" lon="1.58445">
        <ele>261.79998779297</ele>
        <time>2022-05-26T07:54:50.000Z</time>
      </trkpt>
      <trkpt lat="44.31723" lon="1.58433">
        <ele>261.39999389648</ele>
        <time>2022-05-26T07:54:52.000Z</time>
      </trkpt>
      <trkpt lat="44.31708" lon="1.58414">
        <ele>260.60000610352</ele>
        <time>2022-05-26T07:54:55.000Z</time>
      </trkpt>
      <trkpt lat="44.31695" lon="1.58399">
        <ele>260</ele>
        <time>2022-05-26T07:54:57.000Z</time>
      </trkpt>
      <trkpt lat="44.31673" lon="1.58375">
        <ele>259.20001220703</ele>
        <time>2022-05-26T07:55:00.000Z</time>
      </trkpt>
      <trkpt lat="44.31666" lon="1.58366">
        <ele>258.79998779297</ele>
        <time>2022-05-26T07:55:01.000Z</time>
      </trkpt>
      <trkpt lat="44.31643" lon="1.5834">
        <ele>257.79998779297</ele>
        <time>2022-05-26T07:55:04.000Z</time>
      </trkpt>
      <trkpt lat="44.31621" lon="1.58314">
        <ele>257</ele>
        <time>2022-05-26T07:55:07.000Z</time>
      </trkpt>
      <trkpt lat="44.31614" lon="1.58306">
        <ele>256.20001220703</ele>
        <time>2022-05-26T07:55:08.000Z</time>
      </trkpt>
      <trkpt lat="44.31595" lon="1.58281">
        <ele>254.80000305176</ele>
        <time>2022-05-26T07:55:11.000Z</time>
      </trkpt>
      <trkpt lat="44.31563" lon="1.58241">
        <ele>254</ele>
        <time>2022-05-26T07:55:16.000Z</time>
      </trkpt>
      <trkpt lat="44.31553" lon="1.58223">
        <ele>253.39999389648</ele>
        <time>2022-05-26T07:55:18.000Z</time>
      </trkpt>
      <trkpt lat="44.31545" lon="1.58207">
        <ele>252.60000610352</ele>
        <time>2022-05-26T07:55:20.000Z</time>
      </trkpt>
      <trkpt lat="44.3154" lon="1.582">
        <ele>252.39999389648</ele>
        <time>2022-05-26T07:55:21.000Z</time>
      </trkpt>
      <trkpt lat="44.31534" lon="1.58195">
        <ele>251.80000305176</ele>
        <time>2022-05-26T07:55:22.000Z</time>
      </trkpt>
      <trkpt lat="44.31528" lon="1.58191">
        <ele>251.39999389648</ele>
        <time>2022-05-26T07:55:23.000Z</time>
      </trkpt>
      <trkpt lat="44.31522" lon="1.58188">
        <ele>251.19999694824</ele>
        <time>2022-05-26T07:55:24.000Z</time>
      </trkpt>
      <trkpt lat="44.31506" lon="1.58186">
        <ele>250.80000305176</ele>
        <time>2022-05-26T07:55:27.000Z</time>
      </trkpt>
      <trkpt lat="44.31485" lon="1.58186">
        <ele>250.60000610352</ele>
        <time>2022-05-26T07:55:32.000Z</time>
      </trkpt>
      <trkpt lat="44.31481" lon="1.58185">
        <ele>250.60000610352</ele>
        <time>2022-05-26T07:55:33.000Z</time>
      </trkpt>
      <trkpt lat="44.31463" lon="1.58187">
        <ele>251.19999694824</ele>
        <time>2022-05-26T07:55:38.000Z</time>
      </trkpt>
      <trkpt lat="44.31458" lon="1.58188">
        <ele>251.80000305176</ele>
        <time>2022-05-26T07:55:40.000Z</time>
      </trkpt>
      <trkpt lat="44.31453" lon="1.58189">
        <ele>252.39999389648</ele>
        <time>2022-05-26T07:55:42.000Z</time>
      </trkpt>
      <trkpt lat="44.31448" lon="1.58187">
        <ele>253</ele>
        <time>2022-05-26T07:55:45.000Z</time>
      </trkpt>
      <trkpt lat="44.31446" lon="1.58186">
        <ele>253.39999389648</ele>
        <time>2022-05-26T07:55:47.000Z</time>
      </trkpt>
      <trkpt lat="44.3144" lon="1.58183">
        <ele>254.19999694824</ele>
        <time>2022-05-26T07:55:51.000Z</time>
      </trkpt>
      <trkpt lat="44.3144" lon="1.58182">
        <ele>254.19999694824</ele>
        <time>2022-05-26T07:55:52.000Z</time>
      </trkpt>
      <trkpt lat="44.31438" lon="1.58181">
        <ele>254.60000610352</ele>
        <time>2022-05-26T07:55:53.000Z</time>
      </trkpt>
      <trkpt lat="44.31435" lon="1.58179">
        <ele>255.19999694824</ele>
        <time>2022-05-26T07:55:56.000Z</time>
      </trkpt>
      <trkpt lat="44.31433" lon="1.58179">
        <ele>255.80000305176</ele>
        <time>2022-05-26T07:55:57.000Z</time>
      </trkpt>
      <trkpt lat="44.31424" lon="1.58178">
        <ele>256.79998779297</ele>
        <time>2022-05-26T07:56:01.000Z</time>
      </trkpt>
      <trkpt lat="44.31418" lon="1.58178">
        <ele>257.20001220703</ele>
        <time>2022-05-26T07:56:04.000Z</time>
      </trkpt>
      <trkpt lat="44.31413" lon="1.5818">
        <ele>257.79998779297</ele>
        <time>2022-05-26T07:56:07.000Z</time>
      </trkpt>
      <trkpt lat="44.31403" lon="1.58179">
        <ele>258.60000610352</ele>
        <time>2022-05-26T07:56:14.000Z</time>
      </trkpt>
      <trkpt lat="44.31398" lon="1.5818">
        <ele>258.79998779297</ele>
        <time>2022-05-26T07:56:17.000Z</time>
      </trkpt>
      <trkpt lat="44.31384" lon="1.58182">
        <ele>259.60000610352</ele>
        <time>2022-05-26T07:56:24.000Z</time>
      </trkpt>
      <trkpt lat="44.3138" lon="1.58183">
        <ele>259.60000610352</ele>
        <time>2022-05-26T07:56:26.000Z</time>
      </trkpt>
      <trkpt lat="44.31368" lon="1.58186">
        <ele>259.79998779297</ele>
        <time>2022-05-26T07:56:31.000Z</time>
      </trkpt>
      <trkpt lat="44.31356" lon="1.5819">
        <ele>260</ele>
        <time>2022-05-26T07:56:36.000Z</time>
      </trkpt>
      <trkpt lat="44.31349" lon="1.58191">
        <ele>260.20001220703</ele>
        <time>2022-05-26T07:56:39.000Z</time>
      </trkpt>
      <trkpt lat="44.31327" lon="1.58198">
        <ele>260.60000610352</ele>
        <time>2022-05-26T07:56:47.000Z</time>
      </trkpt>
      <trkpt lat="44.31303" lon="1.58205">
        <ele>261</ele>
        <time>2022-05-26T07:56:56.000Z</time>
      </trkpt>
      <trkpt lat="44.31296" lon="1.58207">
        <ele>261</ele>
        <time>2022-05-26T07:56:59.000Z</time>
      </trkpt>
      <trkpt lat="44.31269" lon="1.58212">
        <ele>261.20001220703</ele>
        <time>2022-05-26T07:57:09.000Z</time>
      </trkpt>
      <trkpt lat="44.31242" lon="1.58217">
        <ele>262.20001220703</ele>
        <time>2022-05-26T07:57:19.000Z</time>
      </trkpt>
      <trkpt lat="44.31211" lon="1.5822">
        <ele>263</ele>
        <time>2022-05-26T07:57:30.000Z</time>
      </trkpt>
      <trkpt lat="44.31202" lon="1.58221">
        <ele>263.20001220703</ele>
        <time>2022-05-26T07:57:33.000Z</time>
      </trkpt>
      <trkpt lat="44.31179" lon="1.58225">
        <ele>263.39999389648</ele>
        <time>2022-05-26T07:57:41.000Z</time>
      </trkpt>
      <trkpt lat="44.31148" lon="1.58232">
        <ele>263.79998779297</ele>
        <time>2022-05-26T07:57:51.000Z</time>
      </trkpt>
      <trkpt lat="44.31113" lon="1.58238">
        <ele>264.20001220703</ele>
        <time>2022-05-26T07:58:01.000Z</time>
      </trkpt>
      <trkpt lat="44.31104" lon="1.5824">
        <ele>264.20001220703</ele>
        <time>2022-05-26T07:58:04.000Z</time>
      </trkpt>
      <trkpt lat="44.31075" lon="1.58247">
        <ele>264.79998779297</ele>
        <time>2022-05-26T07:58:13.000Z</time>
      </trkpt>
      <trkpt lat="44.31056" lon="1.58247">
        <ele>265</ele>
        <time>2022-05-26T07:58:20.000Z</time>
      </trkpt>
      <trkpt lat="44.31028" lon="1.58248">
        <ele>263.60000610352</ele>
        <time>2022-05-26T07:58:28.000Z</time>
      </trkpt>
      <trkpt lat="44.31026" lon="1.58248">
        <ele>263.60000610352</ele>
        <time>2022-05-26T07:58:29.000Z</time>
      </trkpt>
      <trkpt lat="44.31024" lon="1.58248">
        <ele>262.79998779297</ele>
        <time>2022-05-26T07:58:30.000Z</time>
      </trkpt>
      <trkpt lat="44.3102" lon="1.58248">
        <ele>261.20001220703</ele>
        <time>2022-05-26T07:58:33.000Z</time>
      </trkpt>
      <trkpt lat="44.31017" lon="1.58247">
        <ele>260.60000610352</ele>
        <time>2022-05-26T07:58:35.000Z</time>
      </trkpt>
      <trkpt lat="44.31014" lon="1.58246">
        <ele>260</ele>
        <time>2022-05-26T07:58:37.000Z</time>
      </trkpt>
      <trkpt lat="44.31006" lon="1.58247">
        <ele>259.20001220703</ele>
        <time>2022-05-26T07:58:41.000Z</time>
      </trkpt>
      <trkpt lat="44.31005" lon="1.58247">
        <ele>259</ele>
        <time>2022-05-26T07:58:42.000Z</time>
      </trkpt>
      <trkpt lat="44.31004" lon="1.58247">
        <ele>258.60000610352</ele>
        <time>2022-05-26T07:58:44.000Z</time>
      </trkpt>
      <trkpt lat="44.30998" lon="1.58248">
        <ele>257.79998779297</ele>
        <time>2022-05-26T07:59:37.000Z</time>
      </trkpt>
      <trkpt lat="44.30996" lon="1.58248">
        <ele>257.79998779297</ele>
        <time>2022-05-26T07:59:38.000Z</time>
      </trkpt>
      <trkpt lat="44.30981" lon="1.58248">
        <ele>257.39999389648</ele>
        <time>2022-05-26T07:59:43.000Z</time>
      </trkpt>
      <trkpt lat="44.30954" lon="1.58249">
        <ele>257</ele>
        <time>2022-05-26T07:59:52.000Z</time>
      </trkpt>
      <trkpt lat="44.30924" lon="1.58251">
        <ele>257</ele>
        <time>2022-05-26T08:00:02.000Z</time>
      </trkpt>
      <trkpt lat="44.30918" lon="1.58252">
        <ele>257</ele>
        <time>2022-05-26T08:00:04.000Z</time>
      </trkpt>
      <trkpt lat="44.30903" lon="1.58256">
        <ele>257.79998779297</ele>
        <time>2022-05-26T08:00:09.000Z</time>
      </trkpt>
      <trkpt lat="44.30897" lon="1.58257">
        <ele>258.20001220703</ele>
        <time>2022-05-26T08:00:11.000Z</time>
      </trkpt>
      <trkpt lat="44.30892" lon="1.58257">
        <ele>258.39999389648</ele>
        <time>2022-05-26T08:00:13.000Z</time>
      </trkpt>
      <trkpt lat="44.30888" lon="1.58257">
        <ele>258.79998779297</ele>
        <time>2022-05-26T08:00:15.000Z</time>
      </trkpt>
      <trkpt lat="44.30883" lon="1.58257">
        <ele>259.39999389648</ele>
        <time>2022-05-26T08:00:17.000Z</time>
      </trkpt>
      <trkpt lat="44.30878" lon="1.58257">
        <ele>260</ele>
        <time>2022-05-26T08:00:19.000Z</time>
      </trkpt>
      <trkpt lat="44.30868" lon="1.58258">
        <ele>261.20001220703</ele>
        <time>2022-05-26T08:00:23.000Z</time>
      </trkpt>
      <trkpt lat="44.30861" lon="1.58259">
        <ele>262.39999389648</ele>
        <time>2022-05-26T08:00:26.000Z</time>
      </trkpt>
      <trkpt lat="44.30857" lon="1.5826">
        <ele>263</ele>
        <time>2022-05-26T08:00:28.000Z</time>
      </trkpt>
      <trkpt lat="44.30852" lon="1.58261">
        <ele>263.79998779297</ele>
        <time>2022-05-26T08:00:30.000Z</time>
      </trkpt>
      <trkpt lat="44.30839" lon="1.58263">
        <ele>264.79998779297</ele>
        <time>2022-05-26T08:00:35.000Z</time>
      </trkpt>
      <trkpt lat="44.30836" lon="1.58264">
        <ele>265</ele>
        <time>2022-05-26T08:00:36.000Z</time>
      </trkpt>
      <trkpt lat="44.30819" lon="1.58268">
        <ele>266</ele>
        <time>2022-05-26T08:00:42.000Z</time>
      </trkpt>
      <trkpt lat="44.30816" lon="1.58268">
        <ele>266.20001220703</ele>
        <time>2022-05-26T08:00:43.000Z</time>
      </trkpt>
      <trkpt lat="44.30799" lon="1.58272">
        <ele>267.20001220703</ele>
        <time>2022-05-26T08:00:49.000Z</time>
      </trkpt>
      <trkpt lat="44.30792" lon="1.58274">
        <ele>267.39999389648</ele>
        <time>2022-05-26T08:00:52.000Z</time>
      </trkpt>
      <trkpt lat="44.30774" lon="1.58276">
        <ele>268.20001220703</ele>
        <time>2022-05-26T08:00:59.000Z</time>
      </trkpt>
      <trkpt lat="44.30745" lon="1.5828">
        <ele>267.60000610352</ele>
        <time>2022-05-26T08:01:09.000Z</time>
      </trkpt>
      <trkpt lat="44.30735" lon="1.58283">
        <ele>267</ele>
        <time>2022-05-26T08:01:12.000Z</time>
      </trkpt>
      <trkpt lat="44.30724" lon="1.58284">
        <ele>266.20001220703</ele>
        <time>2022-05-26T08:01:16.000Z</time>
      </trkpt>
      <trkpt lat="44.30721" lon="1.58284">
        <ele>266</ele>
        <time>2022-05-26T08:01:17.000Z</time>
      </trkpt>
      <trkpt lat="44.30718" lon="1.58284">
        <ele>265.79998779297</ele>
        <time>2022-05-26T08:01:18.000Z</time>
      </trkpt>
      <trkpt lat="44.30693" lon="1.58283">
        <ele>265.60000610352</ele>
        <time>2022-05-26T08:01:27.000Z</time>
      </trkpt>
      <trkpt lat="44.30668" lon="1.58283">
        <ele>266</ele>
        <time>2022-05-26T08:01:35.000Z</time>
      </trkpt>
      <trkpt lat="44.30644" lon="1.58289">
        <ele>267</ele>
        <time>2022-05-26T08:01:43.000Z</time>
      </trkpt>
      <trkpt lat="44.3064" lon="1.5829">
        <ele>267.20001220703</ele>
        <time>2022-05-26T08:01:44.000Z</time>
      </trkpt>
      <trkpt lat="44.30626" lon="1.58292">
        <ele>268.39999389648</ele>
        <time>2022-05-26T08:01:48.000Z</time>
      </trkpt>
      <trkpt lat="44.3062" lon="1.58292">
        <ele>268.79998779297</ele>
        <time>2022-05-26T08:01:50.000Z</time>
      </trkpt>
      <trkpt lat="44.30609" lon="1.58293">
        <ele>269.60000610352</ele>
        <time>2022-05-26T08:01:54.000Z</time>
      </trkpt>
      <trkpt lat="44.30599" lon="1.58295">
        <ele>270.20001220703</ele>
        <time>2022-05-26T08:01:58.000Z</time>
      </trkpt>
      <trkpt lat="44.3059" lon="1.58296">
        <ele>270.79998779297</ele>
        <time>2022-05-26T08:02:02.000Z</time>
      </trkpt>
      <trkpt lat="44.30583" lon="1.58297">
        <ele>271.39999389648</ele>
        <time>2022-05-26T08:02:05.000Z</time>
      </trkpt>
      <trkpt lat="44.30577" lon="1.58297">
        <ele>271.79998779297</ele>
        <time>2022-05-26T08:02:08.000Z</time>
      </trkpt>
      <trkpt lat="44.30574" lon="1.58296">
        <ele>272</ele>
        <time>2022-05-26T08:02:10.000Z</time>
      </trkpt>
      <trkpt lat="44.30573" lon="1.58294">
        <ele>272.20001220703</ele>
        <time>2022-05-26T08:02:11.000Z</time>
      </trkpt>
      <trkpt lat="44.30572" lon="1.58285">
        <ele>272.79998779297</ele>
        <time>2022-05-26T08:02:15.000Z</time>
      </trkpt>
      <trkpt lat="44.30572" lon="1.58283">
        <ele>272.79998779297</ele>
        <time>2022-05-26T08:02:16.000Z</time>
      </trkpt>
      <trkpt lat="44.30572" lon="1.58263">
        <ele>273.20001220703</ele>
        <time>2022-05-26T08:02:22.000Z</time>
      </trkpt>
      <trkpt lat="44.30572" lon="1.58229">
        <ele>273.39999389648</ele>
        <time>2022-05-26T08:02:29.000Z</time>
      </trkpt>
      <trkpt lat="44.30573" lon="1.58186">
        <ele>273.39999389648</ele>
        <time>2022-05-26T08:02:37.000Z</time>
      </trkpt>
      <trkpt lat="44.3057" lon="1.58159">
        <ele>273.60000610352</ele>
        <time>2022-05-26T08:02:42.000Z</time>
      </trkpt>
      <trkpt lat="44.30567" lon="1.58151">
        <ele>273.79998779297</ele>
        <time>2022-05-26T08:02:44.000Z</time>
      </trkpt>
      <trkpt lat="44.30557" lon="1.58126">
        <ele>274.39999389648</ele>
        <time>2022-05-26T08:02:50.000Z</time>
      </trkpt>
      <trkpt lat="44.30552" lon="1.58113">
        <ele>275</ele>
        <time>2022-05-26T08:02:53.000Z</time>
      </trkpt>
      <trkpt lat="44.30545" lon="1.58099">
        <ele>275.20001220703</ele>
        <time>2022-05-26T08:02:57.000Z</time>
      </trkpt>
      <trkpt lat="44.30537" lon="1.58087">
        <ele>275.60000610352</ele>
        <time>2022-05-26T08:03:02.000Z</time>
      </trkpt>
      <trkpt lat="44.3053" lon="1.58076">
        <ele>275.79998779297</ele>
        <time>2022-05-26T08:03:07.000Z</time>
      </trkpt>
      <trkpt lat="44.30524" lon="1.58067">
        <ele>276</ele>
        <time>2022-05-26T08:03:09.000Z</time>
      </trkpt>
      <trkpt lat="44.30519" lon="1.58059">
        <ele>276.20001220703</ele>
        <time>2022-05-26T08:03:12.000Z</time>
      </trkpt>
      <trkpt lat="44.30498" lon="1.58033">
        <ele>276.20001220703</ele>
        <time>2022-05-26T08:03:19.000Z</time>
      </trkpt>
      <trkpt lat="44.30486" lon="1.58003">
        <ele>276.39999389648</ele>
        <time>2022-05-26T08:03:26.000Z</time>
      </trkpt>
      <trkpt lat="44.30476" lon="1.57959">
        <ele>276.79998779297</ele>
        <time>2022-05-26T08:03:36.000Z</time>
      </trkpt>
      <trkpt lat="44.30474" lon="1.57946">
        <ele>277</ele>
        <time>2022-05-26T08:03:39.000Z</time>
      </trkpt>
      <trkpt lat="44.3047" lon="1.57928">
        <ele>277.39999389648</ele>
        <time>2022-05-26T08:03:43.000Z</time>
      </trkpt>
      <trkpt lat="44.30464" lon="1.57891">
        <ele>277.60000610352</ele>
        <time>2022-05-26T08:03:51.000Z</time>
      </trkpt>
      <trkpt lat="44.30455" lon="1.57847">
        <ele>276.79998779297</ele>
        <time>2022-05-26T08:04:01.000Z</time>
      </trkpt>
      <trkpt lat="44.3045" lon="1.57819">
        <ele>276.39999389648</ele>
        <time>2022-05-26T08:04:06.000Z</time>
      </trkpt>
      <trkpt lat="44.30448" lon="1.57808">
        <ele>276</ele>
        <time>2022-05-26T08:04:09.000Z</time>
      </trkpt>
      <trkpt lat="44.30446" lon="1.57796">
        <ele>275.79998779297</ele>
        <time>2022-05-26T08:04:10.000Z</time>
      </trkpt>
      <trkpt lat="44.30445" lon="1.57787">
        <ele>275.20001220703</ele>
        <time>2022-05-26T08:04:12.000Z</time>
      </trkpt>
      <trkpt lat="44.30444" lon="1.57782">
        <ele>275</ele>
        <time>2022-05-26T08:04:13.000Z</time>
      </trkpt>
      <trkpt lat="44.30444" lon="1.57778">
        <ele>275</ele>
        <time>2022-05-26T08:04:14.000Z</time>
      </trkpt>
      <trkpt lat="44.30441" lon="1.57766">
        <ele>274.20001220703</ele>
        <time>2022-05-26T08:04:17.000Z</time>
      </trkpt>
      <trkpt lat="44.30435" lon="1.57761">
        <ele>273.60000610352</ele>
        <time>2022-05-26T08:04:20.000Z</time>
      </trkpt>
      <trkpt lat="44.30432" lon="1.57761">
        <ele>273.39999389648</ele>
        <time>2022-05-26T08:04:21.000Z</time>
      </trkpt>
      <trkpt lat="44.30426" lon="1.57764">
        <ele>271.79998779297</ele>
        <time>2022-05-26T08:04:23.000Z</time>
      </trkpt>
      <trkpt lat="44.30422" lon="1.57766">
        <ele>270.79998779297</ele>
        <time>2022-05-26T08:04:25.000Z</time>
      </trkpt>
      <trkpt lat="44.30413" lon="1.5777">
        <ele>270.60000610352</ele>
        <time>2022-05-26T08:04:26.000Z</time>
      </trkpt>
      <trkpt lat="44.30401" lon="1.57775">
        <ele>269.60000610352</ele>
        <time>2022-05-26T08:04:29.000Z</time>
      </trkpt>
      <trkpt lat="44.30389" lon="1.57779">
        <ele>267.79998779297</ele>
        <time>2022-05-26T08:04:32.000Z</time>
      </trkpt>
      <trkpt lat="44.30386" lon="1.57781">
        <ele>267.39999389648</ele>
        <time>2022-05-26T08:04:33.000Z</time>
      </trkpt>
      <trkpt lat="44.30383" lon="1.57783">
        <ele>266.60000610352</ele>
        <time>2022-05-26T08:04:34.000Z</time>
      </trkpt>
      <trkpt lat="44.30374" lon="1.57787">
        <ele>265</ele>
        <time>2022-05-26T08:04:37.000Z</time>
      </trkpt>
      <trkpt lat="44.30372" lon="1.57786">
        <ele>264.79998779297</ele>
        <time>2022-05-26T08:04:38.000Z</time>
      </trkpt>
      <trkpt lat="44.30369" lon="1.57784">
        <ele>264.39999389648</ele>
        <time>2022-05-26T08:04:39.000Z</time>
      </trkpt>
      <trkpt lat="44.30365" lon="1.57776">
        <ele>263.60000610352</ele>
        <time>2022-05-26T08:04:41.000Z</time>
      </trkpt>
      <trkpt lat="44.30364" lon="1.57765">
        <ele>262.60000610352</ele>
        <time>2022-05-26T08:04:43.000Z</time>
      </trkpt>
      <trkpt lat="44.30361" lon="1.5775">
        <ele>261.39999389648</ele>
        <time>2022-05-26T08:04:46.000Z</time>
      </trkpt>
      <trkpt lat="44.30357" lon="1.5773">
        <ele>260.20001220703</ele>
        <time>2022-05-26T08:04:50.000Z</time>
      </trkpt>
      <trkpt lat="44.30356" lon="1.57725">
        <ele>260.20001220703</ele>
        <time>2022-05-26T08:04:51.000Z</time>
      </trkpt>
      <trkpt lat="44.30355" lon="1.57712">
        <ele>259.20001220703</ele>
        <time>2022-05-26T08:04:54.000Z</time>
      </trkpt>
      <trkpt lat="44.30355" lon="1.57708">
        <ele>259</ele>
        <time>2022-05-26T08:04:55.000Z</time>
      </trkpt>
      <trkpt lat="44.3036" lon="1.57687">
        <ele>258.79998779297</ele>
        <time>2022-05-26T08:05:00.000Z</time>
      </trkpt>
      <trkpt lat="44.30363" lon="1.57666">
        <ele>258.79998779297</ele>
        <time>2022-05-26T08:05:05.000Z</time>
      </trkpt>
      <trkpt lat="44.30364" lon="1.57634">
        <ele>259.20001220703</ele>
        <time>2022-05-26T08:05:12.000Z</time>
      </trkpt>
      <trkpt lat="44.30365" lon="1.57602">
        <ele>259.60000610352</ele>
        <time>2022-05-26T08:05:18.000Z</time>
      </trkpt>
      <trkpt lat="44.30365" lon="1.57597">
        <ele>259.79998779297</ele>
        <time>2022-05-26T08:05:19.000Z</time>
      </trkpt>
      <trkpt lat="44.30365" lon="1.57583">
        <ele>260.39999389648</ele>
        <time>2022-05-26T08:05:22.000Z</time>
      </trkpt>
      <trkpt lat="44.30362" lon="1.57572">
        <ele>260.60000610352</ele>
        <time>2022-05-26T08:05:24.000Z</time>
      </trkpt>
      <trkpt lat="44.3036" lon="1.57569">
        <ele>260.79998779297</ele>
        <time>2022-05-26T08:05:25.000Z</time>
      </trkpt>
      <trkpt lat="44.30357" lon="1.57564">
        <ele>261.39999389648</ele>
        <time>2022-05-26T08:05:27.000Z</time>
      </trkpt>
      <trkpt lat="44.30349" lon="1.57555">
        <ele>262</ele>
        <time>2022-05-26T08:05:30.000Z</time>
      </trkpt>
      <trkpt lat="44.30343" lon="1.57552">
        <ele>262.60000610352</ele>
        <time>2022-05-26T08:05:32.000Z</time>
      </trkpt>
      <trkpt lat="44.3034" lon="1.57548">
        <ele>262.79998779297</ele>
        <time>2022-05-26T08:05:33.000Z</time>
      </trkpt>
      <trkpt lat="44.30334" lon="1.57535">
        <ele>262.79998779297</ele>
        <time>2022-05-26T08:05:36.000Z</time>
      </trkpt>
      <trkpt lat="44.30331" lon="1.5752">
        <ele>262.79998779297</ele>
        <time>2022-05-26T08:05:39.000Z</time>
      </trkpt>
      <trkpt lat="44.3032" lon="1.57486">
        <ele>263.20001220703</ele>
        <time>2022-05-26T08:05:46.000Z</time>
      </trkpt>
      <trkpt lat="44.30317" lon="1.57474">
        <ele>263.60000610352</ele>
        <time>2022-05-26T08:05:48.000Z</time>
      </trkpt>
      <trkpt lat="44.30315" lon="1.57465">
        <ele>264.20001220703</ele>
        <time>2022-05-26T08:05:51.000Z</time>
      </trkpt>
      <trkpt lat="44.30307" lon="1.57449">
        <ele>264.79998779297</ele>
        <time>2022-05-26T08:05:54.000Z</time>
      </trkpt>
      <trkpt lat="44.30306" lon="1.57446">
        <ele>265</ele>
        <time>2022-05-26T08:05:55.000Z</time>
      </trkpt>
      <trkpt lat="44.30301" lon="1.57438">
        <ele>265.39999389648</ele>
        <time>2022-05-26T08:05:57.000Z</time>
      </trkpt>
      <trkpt lat="44.30297" lon="1.57431">
        <ele>265.60000610352</ele>
        <time>2022-05-26T08:05:59.000Z</time>
      </trkpt>
      <trkpt lat="44.30296" lon="1.57427">
        <ele>265.60000610352</ele>
        <time>2022-05-26T08:06:00.000Z</time>
      </trkpt>
      <trkpt lat="44.30294" lon="1.57423">
        <ele>265.60000610352</ele>
        <time>2022-05-26T08:06:01.000Z</time>
      </trkpt>
      <trkpt lat="44.30293" lon="1.5742">
        <ele>265.79998779297</ele>
        <time>2022-05-26T08:06:02.000Z</time>
      </trkpt>
      <trkpt lat="44.30285" lon="1.57403">
        <ele>265.39999389648</ele>
        <time>2022-05-26T08:06:07.000Z</time>
      </trkpt>
      <trkpt lat="44.30281" lon="1.57395">
        <ele>265.60000610352</ele>
        <time>2022-05-26T08:06:09.000Z</time>
      </trkpt>
      <trkpt lat="44.30272" lon="1.57382">
        <ele>265.60000610352</ele>
        <time>2022-05-26T08:06:13.000Z</time>
      </trkpt>
      <trkpt lat="44.30268" lon="1.57375">
        <ele>266</ele>
        <time>2022-05-26T08:06:15.000Z</time>
      </trkpt>
      <trkpt lat="44.30259" lon="1.57358">
        <ele>266.79998779297</ele>
        <time>2022-05-26T08:06:19.000Z</time>
      </trkpt>
      <trkpt lat="44.30249" lon="1.57344">
        <ele>267</ele>
        <time>2022-05-26T08:06:23.000Z</time>
      </trkpt>
      <trkpt lat="44.30246" lon="1.5734">
        <ele>267.20001220703</ele>
        <time>2022-05-26T08:06:24.000Z</time>
      </trkpt>
      <trkpt lat="44.30237" lon="1.57325">
        <ele>267.39999389648</ele>
        <time>2022-05-26T08:06:28.000Z</time>
      </trkpt>
      <trkpt lat="44.30216" lon="1.573">
        <ele>267.39999389648</ele>
        <time>2022-05-26T08:06:36.000Z</time>
      </trkpt>
      <trkpt lat="44.30214" lon="1.57296">
        <ele>267.39999389648</ele>
        <time>2022-05-26T08:06:37.000Z</time>
      </trkpt>
      <trkpt lat="44.3021" lon="1.57272">
        <ele>266.79998779297</ele>
        <time>2022-05-26T08:06:42.000Z</time>
      </trkpt>
      <trkpt lat="44.30204" lon="1.57234">
        <ele>266.20001220703</ele>
        <time>2022-05-26T08:06:49.000Z</time>
      </trkpt>
      <trkpt lat="44.30196" lon="1.57204">
        <ele>266</ele>
        <time>2022-05-26T08:06:55.000Z</time>
      </trkpt>
      <trkpt lat="44.3019" lon="1.57184">
        <ele>266</ele>
        <time>2022-05-26T08:06:59.000Z</time>
      </trkpt>
      <trkpt lat="44.30185" lon="1.57167">
        <ele>265.79998779297</ele>
        <time>2022-05-26T08:07:03.000Z</time>
      </trkpt>
      <trkpt lat="44.30178" lon="1.57137">
        <ele>265.39999389648</ele>
        <time>2022-05-26T08:07:09.000Z</time>
      </trkpt>
      <trkpt lat="44.30177" lon="1.57133">
        <ele>265.39999389648</ele>
        <time>2022-05-26T08:07:10.000Z</time>
      </trkpt>
      <trkpt lat="44.30176" lon="1.57128">
        <ele>265.39999389648</ele>
        <time>2022-05-26T08:07:11.000Z</time>
      </trkpt>
      <trkpt lat="44.30174" lon="1.57114">
        <ele>265.20001220703</ele>
        <time>2022-05-26T08:07:14.000Z</time>
      </trkpt>
      <trkpt lat="44.30173" lon="1.57099">
        <ele>265.39999389648</ele>
        <time>2022-05-26T08:07:17.000Z</time>
      </trkpt>
      <trkpt lat="44.30172" lon="1.57085">
        <ele>265.60000610352</ele>
        <time>2022-05-26T08:07:20.000Z</time>
      </trkpt>
      <trkpt lat="44.30178" lon="1.5707">
        <ele>265.79998779297</ele>
        <time>2022-05-26T08:07:24.000Z</time>
      </trkpt>
      <trkpt lat="44.30188" lon="1.57063">
        <ele>266.20001220703</ele>
        <time>2022-05-26T08:07:28.000Z</time>
      </trkpt>
      <trkpt lat="44.30191" lon="1.57059">
        <ele>266.79998779297</ele>
        <time>2022-05-26T08:07:32.000Z</time>
      </trkpt>
      <trkpt lat="44.30194" lon="1.57056">
        <ele>266.60000610352</ele>
        <time>2022-05-26T08:07:59.000Z</time>
      </trkpt>
      <trkpt lat="44.30197" lon="1.57053">
        <ele>266.60000610352</ele>
        <time>2022-05-26T08:08:00.000Z</time>
      </trkpt>
      <trkpt lat="44.30199" lon="1.57051">
        <ele>266.60000610352</ele>
        <time>2022-05-26T08:08:01.000Z</time>
      </trkpt>
      <trkpt lat="44.3021" lon="1.57039">
        <ele>267</ele>
        <time>2022-05-26T08:08:06.000Z</time>
      </trkpt>
      <trkpt lat="44.30214" lon="1.57035">
        <ele>267.79998779297</ele>
        <time>2022-05-26T08:08:08.000Z</time>
      </trkpt>
      <trkpt lat="44.30217" lon="1.5703">
        <ele>268.60000610352</ele>
        <time>2022-05-26T08:08:10.000Z</time>
      </trkpt>
      <trkpt lat="44.30223" lon="1.5702">
        <ele>269.39999389648</ele>
        <time>2022-05-26T08:08:14.000Z</time>
      </trkpt>
      <trkpt lat="44.30224" lon="1.57018">
        <ele>269.79998779297</ele>
        <time>2022-05-26T08:08:15.000Z</time>
      </trkpt>
      <trkpt lat="44.30227" lon="1.57007">
        <ele>270.79998779297</ele>
        <time>2022-05-26T08:08:19.000Z</time>
      </trkpt>
      <trkpt lat="44.30232" lon="1.56996">
        <ele>271.39999389648</ele>
        <time>2022-05-26T08:08:23.000Z</time>
      </trkpt>
      <trkpt lat="44.30236" lon="1.56987">
        <ele>271.79998779297</ele>
        <time>2022-05-26T08:08:26.000Z</time>
      </trkpt>
      <trkpt lat="44.30243" lon="1.56967">
        <ele>272.60000610352</ele>
        <time>2022-05-26T08:08:33.000Z</time>
      </trkpt>
      <trkpt lat="44.30245" lon="1.56964">
        <ele>272.60000610352</ele>
        <time>2022-05-26T08:08:34.000Z</time>
      </trkpt>
      <trkpt lat="44.30254" lon="1.56939">
        <ele>273.39999389648</ele>
        <time>2022-05-26T08:08:42.000Z</time>
      </trkpt>
      <trkpt lat="44.30262" lon="1.56929">
        <ele>273.79998779297</ele>
        <time>2022-05-26T08:08:46.000Z</time>
      </trkpt>
      <trkpt lat="44.3027" lon="1.56918">
        <ele>274.39999389648</ele>
        <time>2022-05-26T08:08:50.000Z</time>
      </trkpt>
      <trkpt lat="44.30279" lon="1.56907">
        <ele>274.79998779297</ele>
        <time>2022-05-26T08:08:55.000Z</time>
      </trkpt>
      <trkpt lat="44.30282" lon="1.56904">
        <ele>275</ele>
        <time>2022-05-26T08:08:57.000Z</time>
      </trkpt>
      <trkpt lat="44.30286" lon="1.56902">
        <ele>275.20001220703</ele>
        <time>2022-05-26T08:09:00.000Z</time>
      </trkpt>
      <trkpt lat="44.30289" lon="1.56898">
        <ele>275.39999389648</ele>
        <time>2022-05-26T08:09:02.000Z</time>
      </trkpt>
      <trkpt lat="44.30301" lon="1.56889">
        <ele>275.39999389648</ele>
        <time>2022-05-26T08:09:08.000Z</time>
      </trkpt>
      <trkpt lat="44.30313" lon="1.56876">
        <ele>275.20001220703</ele>
        <time>2022-05-26T08:09:13.000Z</time>
      </trkpt>
      <trkpt lat="44.30323" lon="1.56865">
        <ele>275.20001220703</ele>
        <time>2022-05-26T08:09:16.000Z</time>
      </trkpt>
      <trkpt lat="44.30329" lon="1.56855">
        <ele>275</ele>
        <time>2022-05-26T08:09:18.000Z</time>
      </trkpt>
      <trkpt lat="44.30344" lon="1.56834">
        <ele>274.20001220703</ele>
        <time>2022-05-26T08:09:22.000Z</time>
      </trkpt>
      <trkpt lat="44.30354" lon="1.56822">
        <ele>273.79998779297</ele>
        <time>2022-05-26T08:09:25.000Z</time>
      </trkpt>
      <trkpt lat="44.30366" lon="1.5681">
        <ele>272.60000610352</ele>
        <time>2022-05-26T08:09:29.000Z</time>
      </trkpt>
      <trkpt lat="44.30368" lon="1.56808">
        <ele>272.20001220703</ele>
        <time>2022-05-26T08:09:30.000Z</time>
      </trkpt>
      <trkpt lat="44.30378" lon="1.56799">
        <ele>271.39999389648</ele>
        <time>2022-05-26T08:09:34.000Z</time>
      </trkpt>
      <trkpt lat="44.30387" lon="1.56793">
        <ele>270.39999389648</ele>
        <time>2022-05-26T08:09:37.000Z</time>
      </trkpt>
      <trkpt lat="44.30399" lon="1.56786">
        <ele>270</ele>
        <time>2022-05-26T08:09:40.000Z</time>
      </trkpt>
      <trkpt lat="44.30402" lon="1.56782">
        <ele>269.60000610352</ele>
        <time>2022-05-26T08:09:41.000Z</time>
      </trkpt>
      <trkpt lat="44.30405" lon="1.56778">
        <ele>269.20001220703</ele>
        <time>2022-05-26T08:09:42.000Z</time>
      </trkpt>
      <trkpt lat="44.30419" lon="1.56759">
        <ele>268.20001220703</ele>
        <time>2022-05-26T08:09:46.000Z</time>
      </trkpt>
      <trkpt lat="44.30425" lon="1.5675">
        <ele>267.79998779297</ele>
        <time>2022-05-26T08:09:48.000Z</time>
      </trkpt>
      <trkpt lat="44.30436" lon="1.56735">
        <ele>267.39999389648</ele>
        <time>2022-05-26T08:09:51.000Z</time>
      </trkpt>
      <trkpt lat="44.30443" lon="1.56725">
        <ele>267</ele>
        <time>2022-05-26T08:09:53.000Z</time>
      </trkpt>
      <trkpt lat="44.3045" lon="1.56715">
        <ele>266.79998779297</ele>
        <time>2022-05-26T08:09:55.000Z</time>
      </trkpt>
      <trkpt lat="44.30454" lon="1.5671">
        <ele>266.60000610352</ele>
        <time>2022-05-26T08:09:56.000Z</time>
      </trkpt>
      <trkpt lat="44.30479" lon="1.56689">
        <ele>266</ele>
        <time>2022-05-26T08:10:02.000Z</time>
      </trkpt>
      <trkpt lat="44.30491" lon="1.56679">
        <ele>265.79998779297</ele>
        <time>2022-05-26T08:10:05.000Z</time>
      </trkpt>
      <trkpt lat="44.30498" lon="1.56672">
        <ele>265.39999389648</ele>
        <time>2022-05-26T08:10:07.000Z</time>
      </trkpt>
      <trkpt lat="44.30512" lon="1.56657">
        <ele>265</ele>
        <time>2022-05-26T08:10:11.000Z</time>
      </trkpt>
      <trkpt lat="44.30516" lon="1.56653">
        <ele>265</ele>
        <time>2022-05-26T08:10:12.000Z</time>
      </trkpt>
      <trkpt lat="44.30523" lon="1.56645">
        <ele>264.79998779297</ele>
        <time>2022-05-26T08:10:14.000Z</time>
      </trkpt>
      <trkpt lat="44.30535" lon="1.56636">
        <ele>264.60000610352</ele>
        <time>2022-05-26T08:10:17.000Z</time>
      </trkpt>
      <trkpt lat="44.30563" lon="1.56611">
        <ele>264.39999389648</ele>
        <time>2022-05-26T08:10:25.000Z</time>
      </trkpt>
      <trkpt lat="44.30593" lon="1.5659">
        <ele>264</ele>
        <time>2022-05-26T08:10:32.000Z</time>
      </trkpt>
      <trkpt lat="44.30625" lon="1.56562">
        <ele>263.20001220703</ele>
        <time>2022-05-26T08:10:40.000Z</time>
      </trkpt>
      <trkpt lat="44.30639" lon="1.56547">
        <ele>262.79998779297</ele>
        <time>2022-05-26T08:10:44.000Z</time>
      </trkpt>
      <trkpt lat="44.30646" lon="1.56537">
        <ele>262.39999389648</ele>
        <time>2022-05-26T08:10:46.000Z</time>
      </trkpt>
      <trkpt lat="44.3065" lon="1.56532">
        <ele>262.39999389648</ele>
        <time>2022-05-26T08:10:47.000Z</time>
      </trkpt>
      <trkpt lat="44.30666" lon="1.5651">
        <ele>262.39999389648</ele>
        <time>2022-05-26T08:10:52.000Z</time>
      </trkpt>
      <trkpt lat="44.30688" lon="1.56478">
        <ele>262.20001220703</ele>
        <time>2022-05-26T08:10:59.000Z</time>
      </trkpt>
      <trkpt lat="44.30705" lon="1.56452">
        <ele>262</ele>
        <time>2022-05-26T08:11:05.000Z</time>
      </trkpt>
      <trkpt lat="44.3074" lon="1.56409">
        <ele>261.79998779297</ele>
        <time>2022-05-26T08:11:15.000Z</time>
      </trkpt>
      <trkpt lat="44.30773" lon="1.56381">
        <ele>261.20001220703</ele>
        <time>2022-05-26T08:11:23.000Z</time>
      </trkpt>
      <trkpt lat="44.30789" lon="1.56368">
        <ele>260.79998779297</ele>
        <time>2022-05-26T08:11:27.000Z</time>
      </trkpt>
      <trkpt lat="44.30807" lon="1.56352">
        <ele>260.20001220703</ele>
        <time>2022-05-26T08:11:31.000Z</time>
      </trkpt>
      <trkpt lat="44.30824" lon="1.5634">
        <ele>259.39999389648</ele>
        <time>2022-05-26T08:11:34.000Z</time>
      </trkpt>
      <trkpt lat="44.30835" lon="1.56336">
        <ele>259</ele>
        <time>2022-05-26T08:11:36.000Z</time>
      </trkpt>
      <trkpt lat="44.30845" lon="1.56333">
        <ele>258.20001220703</ele>
        <time>2022-05-26T08:11:38.000Z</time>
      </trkpt>
      <trkpt lat="44.3085" lon="1.56331">
        <ele>258</ele>
        <time>2022-05-26T08:11:39.000Z</time>
      </trkpt>
      <trkpt lat="44.30855" lon="1.56329">
        <ele>257.60000610352</ele>
        <time>2022-05-26T08:11:40.000Z</time>
      </trkpt>
      <trkpt lat="44.3086" lon="1.56326">
        <ele>257</ele>
        <time>2022-05-26T08:11:41.000Z</time>
      </trkpt>
      <trkpt lat="44.30872" lon="1.56323">
        <ele>256</ele>
        <time>2022-05-26T08:11:43.000Z</time>
      </trkpt>
      <trkpt lat="44.30897" lon="1.56317">
        <ele>254.19999694824</ele>
        <time>2022-05-26T08:11:47.000Z</time>
      </trkpt>
      <trkpt lat="44.30915" lon="1.56315">
        <ele>252.80000305176</ele>
        <time>2022-05-26T08:11:50.000Z</time>
      </trkpt>
      <trkpt lat="44.30932" lon="1.56316">
        <ele>251.80000305176</ele>
        <time>2022-05-26T08:11:53.000Z</time>
      </trkpt>
      <trkpt lat="44.30942" lon="1.56318">
        <ele>251.39999389648</ele>
        <time>2022-05-26T08:11:55.000Z</time>
      </trkpt>
      <trkpt lat="44.30951" lon="1.56318">
        <ele>250.39999389648</ele>
        <time>2022-05-26T08:11:57.000Z</time>
      </trkpt>
      <trkpt lat="44.30956" lon="1.56317">
        <ele>250.19999694824</ele>
        <time>2022-05-26T08:11:58.000Z</time>
      </trkpt>
      <trkpt lat="44.3096" lon="1.56315">
        <ele>249.60000610352</ele>
        <time>2022-05-26T08:11:59.000Z</time>
      </trkpt>
      <trkpt lat="44.30964" lon="1.56312">
        <ele>249.19999694824</ele>
        <time>2022-05-26T08:12:00.000Z</time>
      </trkpt>
      <trkpt lat="44.30974" lon="1.56305">
        <ele>248.39999389648</ele>
        <time>2022-05-26T08:12:02.000Z</time>
      </trkpt>
      <trkpt lat="44.30979" lon="1.56302">
        <ele>247.80000305176</ele>
        <time>2022-05-26T08:12:03.000Z</time>
      </trkpt>
      <trkpt lat="44.30985" lon="1.56299">
        <ele>247.39999389648</ele>
        <time>2022-05-26T08:12:04.000Z</time>
      </trkpt>
      <trkpt lat="44.30998" lon="1.56295">
        <ele>246.39999389648</ele>
        <time>2022-05-26T08:12:06.000Z</time>
      </trkpt>
      <trkpt lat="44.31031" lon="1.56289">
        <ele>245</ele>
        <time>2022-05-26T08:12:11.000Z</time>
      </trkpt>
      <trkpt lat="44.31037" lon="1.56288">
        <ele>244.19999694824</ele>
        <time>2022-05-26T08:12:12.000Z</time>
      </trkpt>
      <trkpt lat="44.31043" lon="1.56286">
        <ele>243.60000610352</ele>
        <time>2022-05-26T08:12:13.000Z</time>
      </trkpt>
      <trkpt lat="44.31052" lon="1.56284">
        <ele>242.39999389648</ele>
        <time>2022-05-26T08:12:15.000Z</time>
      </trkpt>
      <trkpt lat="44.31059" lon="1.56282">
        <ele>241.39999389648</ele>
        <time>2022-05-26T08:12:17.000Z</time>
      </trkpt>
      <trkpt lat="44.31068" lon="1.56279">
        <ele>240.19999694824</ele>
        <time>2022-05-26T08:12:20.000Z</time>
      </trkpt>
      <trkpt lat="44.31076" lon="1.56276">
        <ele>239.39999389648</ele>
        <time>2022-05-26T08:12:22.000Z</time>
      </trkpt>
      <trkpt lat="44.31088" lon="1.56268">
        <ele>239.19999694824</ele>
        <time>2022-05-26T08:12:25.000Z</time>
      </trkpt>
      <trkpt lat="44.31092" lon="1.56265">
        <ele>239.19999694824</ele>
        <time>2022-05-26T08:12:26.000Z</time>
      </trkpt>
      <trkpt lat="44.31105" lon="1.56261">
        <ele>239</ele>
        <time>2022-05-26T08:12:29.000Z</time>
      </trkpt>
      <trkpt lat="44.31113" lon="1.56258">
        <ele>238.80000305176</ele>
        <time>2022-05-26T08:12:31.000Z</time>
      </trkpt>
      <trkpt lat="44.31121" lon="1.56253">
        <ele>238.80000305176</ele>
        <time>2022-05-26T08:12:33.000Z</time>
      </trkpt>
      <trkpt lat="44.31125" lon="1.56249">
        <ele>238.60000610352</ele>
        <time>2022-05-26T08:12:34.000Z</time>
      </trkpt>
      <trkpt lat="44.3114" lon="1.56232">
        <ele>238.39999389648</ele>
        <time>2022-05-26T08:12:38.000Z</time>
      </trkpt>
      <trkpt lat="44.31148" lon="1.56221">
        <ele>238.19999694824</ele>
        <time>2022-05-26T08:12:40.000Z</time>
      </trkpt>
      <trkpt lat="44.31151" lon="1.56213">
        <ele>238.19999694824</ele>
        <time>2022-05-26T08:12:41.000Z</time>
      </trkpt>
      <trkpt lat="44.3116" lon="1.56189">
        <ele>237.80000305176</ele>
        <time>2022-05-26T08:12:44.000Z</time>
      </trkpt>
      <trkpt lat="44.31166" lon="1.56171">
        <ele>237.19999694824</ele>
        <time>2022-05-26T08:12:46.000Z</time>
      </trkpt>
      <trkpt lat="44.31176" lon="1.56155">
        <ele>236.19999694824</ele>
        <time>2022-05-26T08:12:48.000Z</time>
      </trkpt>
      <trkpt lat="44.31181" lon="1.56147">
        <ele>235.60000610352</ele>
        <time>2022-05-26T08:12:49.000Z</time>
      </trkpt>
      <trkpt lat="44.31208" lon="1.56111">
        <ele>234.19999694824</ele>
        <time>2022-05-26T08:12:54.000Z</time>
      </trkpt>
      <trkpt lat="44.31217" lon="1.56096">
        <ele>232.80000305176</ele>
        <time>2022-05-26T08:12:56.000Z</time>
      </trkpt>
      <trkpt lat="44.3123" lon="1.56072">
        <ele>231.80000305176</ele>
        <time>2022-05-26T08:12:59.000Z</time>
      </trkpt>
      <trkpt lat="44.31234" lon="1.56066">
        <ele>231.19999694824</ele>
        <time>2022-05-26T08:13:00.000Z</time>
      </trkpt>
      <trkpt lat="44.31247" lon="1.56047">
        <ele>230.80000305176</ele>
        <time>2022-05-26T08:13:03.000Z</time>
      </trkpt>
      <trkpt lat="44.31266" lon="1.56024">
        <ele>229.80000305176</ele>
        <time>2022-05-26T08:13:07.000Z</time>
      </trkpt>
      <trkpt lat="44.31281" lon="1.56007">
        <ele>228.60000610352</ele>
        <time>2022-05-26T08:13:10.000Z</time>
      </trkpt>
      <trkpt lat="44.31294" lon="1.5599">
        <ele>228.19999694824</ele>
        <time>2022-05-26T08:13:13.000Z</time>
      </trkpt>
      <trkpt lat="44.31298" lon="1.55985">
        <ele>228</ele>
        <time>2022-05-26T08:13:14.000Z</time>
      </trkpt>
      <trkpt lat="44.31302" lon="1.55979">
        <ele>227.80000305176</ele>
        <time>2022-05-26T08:13:15.000Z</time>
      </trkpt>
      <trkpt lat="44.31312" lon="1.55968">
        <ele>227.39999389648</ele>
        <time>2022-05-26T08:13:17.000Z</time>
      </trkpt>
      <trkpt lat="44.31322" lon="1.55955">
        <ele>226.60000610352</ele>
        <time>2022-05-26T08:13:19.000Z</time>
      </trkpt>
      <trkpt lat="44.31332" lon="1.55942">
        <ele>225.39999389648</ele>
        <time>2022-05-26T08:13:21.000Z</time>
      </trkpt>
      <trkpt lat="44.3135" lon="1.55919">
        <ele>224.19999694824</ele>
        <time>2022-05-26T08:13:25.000Z</time>
      </trkpt>
      <trkpt lat="44.31354" lon="1.55914">
        <ele>224</ele>
        <time>2022-05-26T08:13:26.000Z</time>
      </trkpt>
      <trkpt lat="44.31375" lon="1.55888">
        <ele>223.19999694824</ele>
        <time>2022-05-26T08:13:32.000Z</time>
      </trkpt>
      <trkpt lat="44.31394" lon="1.55864">
        <ele>223.19999694824</ele>
        <time>2022-05-26T08:13:38.000Z</time>
      </trkpt>
      <trkpt lat="44.31396" lon="1.5586">
        <ele>223.19999694824</ele>
        <time>2022-05-26T08:13:39.000Z</time>
      </trkpt>
      <trkpt lat="44.31413" lon="1.55839">
        <ele>224</ele>
        <time>2022-05-26T08:13:45.000Z</time>
      </trkpt>
      <trkpt lat="44.31416" lon="1.55836">
        <ele>224.39999389648</ele>
        <time>2022-05-26T08:13:46.000Z</time>
      </trkpt>
      <trkpt lat="44.31442" lon="1.55818">
        <ele>225</ele>
        <time>2022-05-26T08:13:53.000Z</time>
      </trkpt>
      <trkpt lat="44.31446" lon="1.55817">
        <ele>225.19999694824</ele>
        <time>2022-05-26T08:13:54.000Z</time>
      </trkpt>
      <trkpt lat="44.31454" lon="1.55816">
        <ele>225.39999389648</ele>
        <time>2022-05-26T08:13:56.000Z</time>
      </trkpt>
      <trkpt lat="44.31461" lon="1.55818">
        <ele>225.60000610352</ele>
        <time>2022-05-26T08:13:58.000Z</time>
      </trkpt>
      <trkpt lat="44.3147" lon="1.55818">
        <ele>226.19999694824</ele>
        <time>2022-05-26T08:14:02.000Z</time>
      </trkpt>
      <trkpt lat="44.31472" lon="1.55817">
        <ele>226.19999694824</ele>
        <time>2022-05-26T08:14:03.000Z</time>
      </trkpt>
      <trkpt lat="44.31474" lon="1.55816">
        <ele>226.60000610352</ele>
        <time>2022-05-26T08:14:04.000Z</time>
      </trkpt>
      <trkpt lat="44.31479" lon="1.55815">
        <ele>227.60000610352</ele>
        <time>2022-05-26T08:14:06.000Z</time>
      </trkpt>
      <trkpt lat="44.31489" lon="1.55813">
        <ele>228.39999389648</ele>
        <time>2022-05-26T08:14:09.000Z</time>
      </trkpt>
      <trkpt lat="44.31496" lon="1.55813">
        <ele>228.80000305176</ele>
        <time>2022-05-26T08:14:11.000Z</time>
      </trkpt>
      <trkpt lat="44.31512" lon="1.55814">
        <ele>229.19999694824</ele>
        <time>2022-05-26T08:14:15.000Z</time>
      </trkpt>
      <trkpt lat="44.31525" lon="1.55813">
        <ele>229.80000305176</ele>
        <time>2022-05-26T08:14:18.000Z</time>
      </trkpt>
      <trkpt lat="44.31558" lon="1.55809">
        <ele>230.60000610352</ele>
        <time>2022-05-26T08:14:25.000Z</time>
      </trkpt>
      <trkpt lat="44.31596" lon="1.55801">
        <ele>230.80000305176</ele>
        <time>2022-05-26T08:14:33.000Z</time>
      </trkpt>
      <trkpt lat="44.31599" lon="1.558">
        <ele>231</ele>
        <time>2022-05-26T08:14:34.000Z</time>
      </trkpt>
      <trkpt lat="44.31632" lon="1.5579">
        <ele>231</ele>
        <time>2022-05-26T08:14:41.000Z</time>
      </trkpt>
      <trkpt lat="44.3165" lon="1.55781">
        <ele>232</ele>
        <time>2022-05-26T08:14:46.000Z</time>
      </trkpt>
      <trkpt lat="44.31664" lon="1.55776">
        <ele>233.19999694824</ele>
        <time>2022-05-26T08:14:50.000Z</time>
      </trkpt>
      <trkpt lat="44.31678" lon="1.55771">
        <ele>233.60000610352</ele>
        <time>2022-05-26T08:14:54.000Z</time>
      </trkpt>
      <trkpt lat="44.31696" lon="1.55765">
        <ele>234.19999694824</ele>
        <time>2022-05-26T08:14:59.000Z</time>
      </trkpt>
      <trkpt lat="44.31707" lon="1.55762">
        <ele>234.39999389648</ele>
        <time>2022-05-26T08:15:02.000Z</time>
      </trkpt>
      <trkpt lat="44.31735" lon="1.55762">
        <ele>234.19999694824</ele>
        <time>2022-05-26T08:15:10.000Z</time>
      </trkpt>
      <trkpt lat="44.31767" lon="1.55773">
        <ele>233.39999389648</ele>
        <time>2022-05-26T08:15:18.000Z</time>
      </trkpt>
      <trkpt lat="44.31772" lon="1.55775">
        <ele>233</ele>
        <time>2022-05-26T08:15:19.000Z</time>
      </trkpt>
      <trkpt lat="44.31797" lon="1.55788">
        <ele>232.19999694824</ele>
        <time>2022-05-26T08:15:26.000Z</time>
      </trkpt>
      <trkpt lat="44.31806" lon="1.55797">
        <ele>232.60000610352</ele>
        <time>2022-05-26T08:15:31.000Z</time>
      </trkpt>
      <trkpt lat="44.31813" lon="1.55805">
        <ele>233.19999694824</ele>
        <time>2022-05-26T08:15:37.000Z</time>
      </trkpt>
      <trkpt lat="44.31819" lon="1.55811">
        <ele>234</ele>
        <time>2022-05-26T08:15:41.000Z</time>
      </trkpt>
      <trkpt lat="44.31824" lon="1.55816">
        <ele>235</ele>
        <time>2022-05-26T08:15:45.000Z</time>
      </trkpt>
      <trkpt lat="44.31832" lon="1.55818">
        <ele>236.39999389648</ele>
        <time>2022-05-26T08:15:50.000Z</time>
      </trkpt>
      <trkpt lat="44.31833" lon="1.55818">
        <ele>236.39999389648</ele>
        <time>2022-05-26T08:15:51.000Z</time>
      </trkpt>
      <trkpt lat="44.31842" lon="1.55817">
        <ele>237.60000610352</ele>
        <time>2022-05-26T08:15:56.000Z</time>
      </trkpt>
      <trkpt lat="44.31844" lon="1.55816">
        <ele>237.80000305176</ele>
        <time>2022-05-26T08:15:57.000Z</time>
      </trkpt>
      <trkpt lat="44.3185" lon="1.55812">
        <ele>238.60000610352</ele>
        <time>2022-05-26T08:16:01.000Z</time>
      </trkpt>
      <trkpt lat="44.31861" lon="1.55804">
        <ele>239.60000610352</ele>
        <time>2022-05-26T08:16:07.000Z</time>
      </trkpt>
      <trkpt lat="44.31862" lon="1.55803">
        <ele>239.80000305176</ele>
        <time>2022-05-26T08:16:08.000Z</time>
      </trkpt>
      <trkpt lat="44.31872" lon="1.55791">
        <ele>240.80000305176</ele>
        <time>2022-05-26T08:16:15.000Z</time>
      </trkpt>
      <trkpt lat="44.31875" lon="1.55788">
        <ele>241</ele>
        <time>2022-05-26T08:16:17.000Z</time>
      </trkpt>
      <trkpt lat="44.31883" lon="1.55777">
        <ele>241.80000305176</ele>
        <time>2022-05-26T08:16:23.000Z</time>
      </trkpt>
      <trkpt lat="44.31886" lon="1.55774">
        <ele>242.19999694824</ele>
        <time>2022-05-26T08:16:25.000Z</time>
      </trkpt>
      <trkpt lat="44.31895" lon="1.55767">
        <ele>242.80000305176</ele>
        <time>2022-05-26T08:16:30.000Z</time>
      </trkpt>
      <trkpt lat="44.31899" lon="1.55765">
        <ele>243.19999694824</ele>
        <time>2022-05-26T08:16:32.000Z</time>
      </trkpt>
      <trkpt lat="44.31909" lon="1.55761">
        <ele>244</ele>
        <time>2022-05-26T08:16:38.000Z</time>
      </trkpt>
      <trkpt lat="44.31927" lon="1.55756">
        <ele>244.60000610352</ele>
        <time>2022-05-26T08:16:47.000Z</time>
      </trkpt>
      <trkpt lat="44.31929" lon="1.55755">
        <ele>244.80000305176</ele>
        <time>2022-05-26T08:16:48.000Z</time>
      </trkpt>
      <trkpt lat="44.31941" lon="1.55752">
        <ele>246</ele>
        <time>2022-05-26T08:16:54.000Z</time>
      </trkpt>
      <trkpt lat="44.31946" lon="1.55751">
        <ele>246.80000305176</ele>
        <time>2022-05-26T08:16:57.000Z</time>
      </trkpt>
      <trkpt lat="44.31948" lon="1.55751">
        <ele>247</ele>
        <time>2022-05-26T08:16:58.000Z</time>
      </trkpt>
      <trkpt lat="44.3196" lon="1.55743">
        <ele>248.19999694824</ele>
        <time>2022-05-26T08:17:05.000Z</time>
      </trkpt>
      <trkpt lat="44.31964" lon="1.5574">
        <ele>248.60000610352</ele>
        <time>2022-05-26T08:17:07.000Z</time>
      </trkpt>
      <trkpt lat="44.31974" lon="1.55737">
        <ele>249.19999694824</ele>
        <time>2022-05-26T08:17:13.000Z</time>
      </trkpt>
      <trkpt lat="44.31975" lon="1.55736">
        <ele>249.39999389648</ele>
        <time>2022-05-26T08:17:14.000Z</time>
      </trkpt>
      <trkpt lat="44.31986" lon="1.55733">
        <ele>250.19999694824</ele>
        <time>2022-05-26T08:17:20.000Z</time>
      </trkpt>
      <trkpt lat="44.3199" lon="1.55732">
        <ele>250.60000610352</ele>
        <time>2022-05-26T08:17:22.000Z</time>
      </trkpt>
      <trkpt lat="44.31998" lon="1.55731">
        <ele>251.39999389648</ele>
        <time>2022-05-26T08:17:26.000Z</time>
      </trkpt>
      <trkpt lat="44.32006" lon="1.55729">
        <ele>251.80000305176</ele>
        <time>2022-05-26T08:17:31.000Z</time>
      </trkpt>
      <trkpt lat="44.32012" lon="1.55728">
        <ele>252.39999389648</ele>
        <time>2022-05-26T08:17:34.000Z</time>
      </trkpt>
      <trkpt lat="44.32024" lon="1.55725">
        <ele>253.19999694824</ele>
        <time>2022-05-26T08:17:42.000Z</time>
      </trkpt>
      <trkpt lat="44.32026" lon="1.55724">
        <ele>253.39999389648</ele>
        <time>2022-05-26T08:17:43.000Z</time>
      </trkpt>
      <trkpt lat="44.32034" lon="1.55722">
        <ele>254.39999389648</ele>
        <time>2022-05-26T08:17:48.000Z</time>
      </trkpt>
      <trkpt lat="44.32045" lon="1.55719">
        <ele>254.80000305176</ele>
        <time>2022-05-26T08:17:54.000Z</time>
      </trkpt>
      <trkpt lat="44.32052" lon="1.55716">
        <ele>255.60000610352</ele>
        <time>2022-05-26T08:17:58.000Z</time>
      </trkpt>
      <trkpt lat="44.32057" lon="1.55715">
        <ele>256</ele>
        <time>2022-05-26T08:18:01.000Z</time>
      </trkpt>
      <trkpt lat="44.32066" lon="1.55712">
        <ele>256.60000610352</ele>
        <time>2022-05-26T08:18:06.000Z</time>
      </trkpt>
      <trkpt lat="44.32074" lon="1.5571">
        <ele>257.60000610352</ele>
        <time>2022-05-26T08:18:10.000Z</time>
      </trkpt>
      <trkpt lat="44.32075" lon="1.55709">
        <ele>257.79998779297</ele>
        <time>2022-05-26T08:18:11.000Z</time>
      </trkpt>
      <trkpt lat="44.32088" lon="1.557">
        <ele>258.79998779297</ele>
        <time>2022-05-26T08:18:18.000Z</time>
      </trkpt>
      <trkpt lat="44.3209" lon="1.55698">
        <ele>259</ele>
        <time>2022-05-26T08:18:19.000Z</time>
      </trkpt>
      <trkpt lat="44.321" lon="1.5569">
        <ele>260</ele>
        <time>2022-05-26T08:18:25.000Z</time>
      </trkpt>
      <trkpt lat="44.32102" lon="1.55689">
        <ele>260</ele>
        <time>2022-05-26T08:18:26.000Z</time>
      </trkpt>
      <trkpt lat="44.32112" lon="1.55682">
        <ele>261</ele>
        <time>2022-05-26T08:18:32.000Z</time>
      </trkpt>
      <trkpt lat="44.32115" lon="1.55679">
        <ele>261.39999389648</ele>
        <time>2022-05-26T08:18:34.000Z</time>
      </trkpt>
      <trkpt lat="44.32123" lon="1.55672">
        <ele>262.20001220703</ele>
        <time>2022-05-26T08:18:39.000Z</time>
      </trkpt>
      <trkpt lat="44.32132" lon="1.55666">
        <ele>262.79998779297</ele>
        <time>2022-05-26T08:18:44.000Z</time>
      </trkpt>
      <trkpt lat="44.3214" lon="1.55659">
        <ele>263.20001220703</ele>
        <time>2022-05-26T08:18:48.000Z</time>
      </trkpt>
      <trkpt lat="44.32154" lon="1.55648">
        <ele>264</ele>
        <time>2022-05-26T08:18:54.000Z</time>
      </trkpt>
      <trkpt lat="44.32168" lon="1.55638">
        <ele>264.39999389648</ele>
        <time>2022-05-26T08:18:59.000Z</time>
      </trkpt>
      <trkpt lat="44.32177" lon="1.55629">
        <ele>264.60000610352</ele>
        <time>2022-05-26T08:19:03.000Z</time>
      </trkpt>
      <trkpt lat="44.32198" lon="1.55602">
        <ele>265</ele>
        <time>2022-05-26T08:19:13.000Z</time>
      </trkpt>
      <trkpt lat="44.32209" lon="1.55588">
        <ele>265.39999389648</ele>
        <time>2022-05-26T08:19:18.000Z</time>
      </trkpt>
      <trkpt lat="44.3222" lon="1.55573">
        <ele>266.39999389648</ele>
        <time>2022-05-26T08:19:24.000Z</time>
      </trkpt>
      <trkpt lat="44.32222" lon="1.5557">
        <ele>266.39999389648</ele>
        <time>2022-05-26T08:19:25.000Z</time>
      </trkpt>
      <trkpt lat="44.32243" lon="1.5555">
        <ele>267.60000610352</ele>
        <time>2022-05-26T08:19:33.000Z</time>
      </trkpt>
      <trkpt lat="44.32256" lon="1.55532">
        <ele>267.79998779297</ele>
        <time>2022-05-26T08:19:39.000Z</time>
      </trkpt>
      <trkpt lat="44.3227" lon="1.55513">
        <ele>268.39999389648</ele>
        <time>2022-05-26T08:19:46.000Z</time>
      </trkpt>
      <trkpt lat="44.32272" lon="1.5551">
        <ele>268.60000610352</ele>
        <time>2022-05-26T08:19:47.000Z</time>
      </trkpt>
      <trkpt lat="44.3229" lon="1.55494">
        <ele>269.20001220703</ele>
        <time>2022-05-26T08:19:54.000Z</time>
      </trkpt>
      <trkpt lat="44.32315" lon="1.5548">
        <ele>269.60000610352</ele>
        <time>2022-05-26T08:20:03.000Z</time>
      </trkpt>
      <trkpt lat="44.32331" lon="1.5547">
        <ele>270.39999389648</ele>
        <time>2022-05-26T08:20:09.000Z</time>
      </trkpt>
      <trkpt lat="44.32334" lon="1.55467">
        <ele>270.60000610352</ele>
        <time>2022-05-26T08:20:10.000Z</time>
      </trkpt>
      <trkpt lat="44.32353" lon="1.55456">
        <ele>271</ele>
        <time>2022-05-26T08:20:17.000Z</time>
      </trkpt>
      <trkpt lat="44.32375" lon="1.55442">
        <ele>271.60000610352</ele>
        <time>2022-05-26T08:20:25.000Z</time>
      </trkpt>
      <trkpt lat="44.3238" lon="1.55439">
        <ele>271.79998779297</ele>
        <time>2022-05-26T08:20:27.000Z</time>
      </trkpt>
      <trkpt lat="44.32409" lon="1.55417">
        <ele>272.60000610352</ele>
        <time>2022-05-26T08:20:37.000Z</time>
      </trkpt>
      <trkpt lat="44.3242" lon="1.55409">
        <ele>273.20001220703</ele>
        <time>2022-05-26T08:20:40.000Z</time>
      </trkpt>
      <trkpt lat="44.3244" lon="1.55395">
        <ele>273.60000610352</ele>
        <time>2022-05-26T08:20:47.000Z</time>
      </trkpt>
      <trkpt lat="44.32448" lon="1.55391">
        <ele>274</ele>
        <time>2022-05-26T08:20:49.000Z</time>
      </trkpt>
      <trkpt lat="44.32462" lon="1.55381">
        <ele>274.79998779297</ele>
        <time>2022-05-26T08:20:53.000Z</time>
      </trkpt>
      <trkpt lat="44.32471" lon="1.55375">
        <ele>275.20001220703</ele>
        <time>2022-05-26T08:20:56.000Z</time>
      </trkpt>
      <trkpt lat="44.32483" lon="1.55367">
        <ele>275.20001220703</ele>
        <time>2022-05-26T08:21:01.000Z</time>
      </trkpt>
      <trkpt lat="44.32488" lon="1.55364">
        <ele>275</ele>
        <time>2022-05-26T08:21:03.000Z</time>
      </trkpt>
      <trkpt lat="44.32504" lon="1.55355">
        <ele>274.79998779297</ele>
        <time>2022-05-26T08:21:09.000Z</time>
      </trkpt>
      <trkpt lat="44.32518" lon="1.55346">
        <ele>274.60000610352</ele>
        <time>2022-05-26T08:21:14.000Z</time>
      </trkpt>
      <trkpt lat="44.32524" lon="1.55342">
        <ele>274.60000610352</ele>
        <time>2022-05-26T08:21:16.000Z</time>
      </trkpt>
      <trkpt lat="44.32541" lon="1.55337">
        <ele>274</ele>
        <time>2022-05-26T08:21:22.000Z</time>
      </trkpt>
      <trkpt lat="44.32545" lon="1.55338">
        <ele>273.60000610352</ele>
        <time>2022-05-26T08:21:24.000Z</time>
      </trkpt>
      <trkpt lat="44.3256" lon="1.55338">
        <ele>272.79998779297</ele>
        <time>2022-05-26T08:21:29.000Z</time>
      </trkpt>
      <trkpt lat="44.32572" lon="1.55339">
        <ele>272.39999389648</ele>
        <time>2022-05-26T08:21:32.000Z</time>
      </trkpt>
      <trkpt lat="44.32575" lon="1.5534">
        <ele>272</ele>
        <time>2022-05-26T08:21:33.000Z</time>
      </trkpt>
      <trkpt lat="44.32579" lon="1.55342">
        <ele>270.79998779297</ele>
        <time>2022-05-26T08:21:37.000Z</time>
      </trkpt>
      <trkpt lat="44.32579" lon="1.55342">
        <ele>270.39999389648</ele>
        <time>2022-05-26T08:21:38.000Z</time>
      </trkpt>
      <trkpt lat="44.32585" lon="1.55338">
        <ele>269.20001220703</ele>
        <time>2022-05-26T08:28:19.000Z</time>
      </trkpt>
      <trkpt lat="44.32588" lon="1.55337">
        <ele>269.20001220703</ele>
        <time>2022-05-26T08:28:20.000Z</time>
      </trkpt>
      <trkpt lat="44.3261" lon="1.55327">
        <ele>269.20001220703</ele>
        <time>2022-05-26T08:28:27.000Z</time>
      </trkpt>
      <trkpt lat="44.32625" lon="1.5532">
        <ele>269.20001220703</ele>
        <time>2022-05-26T08:28:33.000Z</time>
      </trkpt>
      <trkpt lat="44.32644" lon="1.55312">
        <ele>269.79998779297</ele>
        <time>2022-05-26T08:28:41.000Z</time>
      </trkpt>
      <trkpt lat="44.32665" lon="1.55302">
        <ele>269.79998779297</ele>
        <time>2022-05-26T08:28:48.000Z</time>
      </trkpt>
      <trkpt lat="44.32669" lon="1.55301">
        <ele>269.79998779297</ele>
        <time>2022-05-26T08:28:49.000Z</time>
      </trkpt>
      <trkpt lat="44.32681" lon="1.55296">
        <ele>269.79998779297</ele>
        <time>2022-05-26T08:28:52.000Z</time>
      </trkpt>
      <trkpt lat="44.3269" lon="1.55293">
        <ele>269.60000610352</ele>
        <time>2022-05-26T08:28:54.000Z</time>
      </trkpt>
      <trkpt lat="44.32727" lon="1.55274">
        <ele>268.79998779297</ele>
        <time>2022-05-26T08:29:01.000Z</time>
      </trkpt>
      <trkpt lat="44.3276" lon="1.55249">
        <ele>267.20001220703</ele>
        <time>2022-05-26T08:29:06.000Z</time>
      </trkpt>
      <trkpt lat="44.32789" lon="1.55226">
        <ele>266.20001220703</ele>
        <time>2022-05-26T08:29:10.000Z</time>
      </trkpt>
      <trkpt lat="44.32815" lon="1.55207">
        <ele>265.20001220703</ele>
        <time>2022-05-26T08:29:14.000Z</time>
      </trkpt>
      <trkpt lat="44.32836" lon="1.5519">
        <ele>264</ele>
        <time>2022-05-26T08:29:18.000Z</time>
      </trkpt>
      <trkpt lat="44.3284" lon="1.55187">
        <ele>263.79998779297</ele>
        <time>2022-05-26T08:29:19.000Z</time>
      </trkpt>
      <trkpt lat="44.32851" lon="1.55178">
        <ele>263.60000610352</ele>
        <time>2022-05-26T08:29:22.000Z</time>
      </trkpt>
      <trkpt lat="44.32859" lon="1.55173">
        <ele>263.60000610352</ele>
        <time>2022-05-26T08:29:24.000Z</time>
      </trkpt>
      <trkpt lat="44.32887" lon="1.5515">
        <ele>264</ele>
        <time>2022-05-26T08:29:32.000Z</time>
      </trkpt>
      <trkpt lat="44.32903" lon="1.55138">
        <ele>264.39999389648</ele>
        <time>2022-05-26T08:29:37.000Z</time>
      </trkpt>
      <trkpt lat="44.32912" lon="1.55131">
        <ele>264.79998779297</ele>
        <time>2022-05-26T08:29:40.000Z</time>
      </trkpt>
      <trkpt lat="44.32921" lon="1.55124">
        <ele>265</ele>
        <time>2022-05-26T08:29:43.000Z</time>
      </trkpt>
      <trkpt lat="44.32932" lon="1.55114">
        <ele>265.60000610352</ele>
        <time>2022-05-26T08:29:48.000Z</time>
      </trkpt>
      <trkpt lat="44.32935" lon="1.55111">
        <ele>265.79998779297</ele>
        <time>2022-05-26T08:29:50.000Z</time>
      </trkpt>
      <trkpt lat="44.32935" lon="1.55107">
        <ele>266</ele>
        <time>2022-05-26T08:29:52.000Z</time>
      </trkpt>
      <trkpt lat="44.32932" lon="1.55101">
        <ele>266</ele>
        <time>2022-05-26T08:29:55.000Z</time>
      </trkpt>
      <trkpt lat="44.32932" lon="1.55096">
        <ele>265.79998779297</ele>
        <time>2022-05-26T08:29:57.000Z</time>
      </trkpt>
      <trkpt lat="44.32934" lon="1.55075">
        <ele>265.39999389648</ele>
        <time>2022-05-26T08:30:02.000Z</time>
      </trkpt>
      <trkpt lat="44.3294" lon="1.55054">
        <ele>264.39999389648</ele>
        <time>2022-05-26T08:30:08.000Z</time>
      </trkpt>
      <trkpt lat="44.32942" lon="1.55049">
        <ele>264</ele>
        <time>2022-05-26T08:30:10.000Z</time>
      </trkpt>
      <trkpt lat="44.32944" lon="1.55046">
        <ele>263.79998779297</ele>
        <time>2022-05-26T08:30:12.000Z</time>
      </trkpt>
      <trkpt lat="44.32944" lon="1.55044">
        <ele>263.60000610352</ele>
        <time>2022-05-26T08:30:13.000Z</time>
      </trkpt>
      <trkpt lat="44.32946" lon="1.55041">
        <ele>263</ele>
        <time>2022-05-26T08:30:18.000Z</time>
      </trkpt>
      <trkpt lat="44.3294" lon="1.55053">
        <ele>262.79998779297</ele>
        <time>2022-05-26T08:30:35.000Z</time>
      </trkpt>
      <trkpt lat="44.32936" lon="1.55056">
        <ele>262.79998779297</ele>
        <time>2022-05-26T08:30:37.000Z</time>
      </trkpt>
      <trkpt lat="44.32932" lon="1.55055">
        <ele>262.79998779297</ele>
        <time>2022-05-26T08:30:39.000Z</time>
      </trkpt>
      <trkpt lat="44.32928" lon="1.55049">
        <ele>262.79998779297</ele>
        <time>2022-05-26T08:30:41.000Z</time>
      </trkpt>
      <trkpt lat="44.32917" lon="1.55026">
        <ele>262.60000610352</ele>
        <time>2022-05-26T08:30:49.000Z</time>
      </trkpt>
      <trkpt lat="44.32902" lon="1.55001">
        <ele>261.60000610352</ele>
        <time>2022-05-26T08:30:54.000Z</time>
      </trkpt>
      <trkpt lat="44.329" lon="1.54995">
        <ele>261.20001220703</ele>
        <time>2022-05-26T08:30:55.000Z</time>
      </trkpt>
      <trkpt lat="44.32899" lon="1.5499">
        <ele>260.79998779297</ele>
        <time>2022-05-26T08:30:56.000Z</time>
      </trkpt>
      <trkpt lat="44.32898" lon="1.54983">
        <ele>260.20001220703</ele>
        <time>2022-05-26T08:30:57.000Z</time>
      </trkpt>
      <trkpt lat="44.32899" lon="1.54974">
        <ele>259.20001220703</ele>
        <time>2022-05-26T08:30:59.000Z</time>
      </trkpt>
      <trkpt lat="44.329" lon="1.54966">
        <ele>257.79998779297</ele>
        <time>2022-05-26T08:31:01.000Z</time>
      </trkpt>
      <trkpt lat="44.329" lon="1.54955">
        <ele>256.79998779297</ele>
        <time>2022-05-26T08:31:04.000Z</time>
      </trkpt>
      <trkpt lat="44.32902" lon="1.54923">
        <ele>255.60000610352</ele>
        <time>2022-05-26T08:31:12.000Z</time>
      </trkpt>
      <trkpt lat="44.32897" lon="1.54899">
        <ele>254.80000305176</ele>
        <time>2022-05-26T08:31:18.000Z</time>
      </trkpt>
      <trkpt lat="44.32895" lon="1.54895">
        <ele>254.60000610352</ele>
        <time>2022-05-26T08:31:19.000Z</time>
      </trkpt>
      <trkpt lat="44.32885" lon="1.54878">
        <ele>254.19999694824</ele>
        <time>2022-05-26T08:31:25.000Z</time>
      </trkpt>
      <trkpt lat="44.32866" lon="1.54859">
        <ele>253.60000610352</ele>
        <time>2022-05-26T08:31:32.000Z</time>
      </trkpt>
      <trkpt lat="44.32863" lon="1.54858">
        <ele>253.19999694824</ele>
        <time>2022-05-26T08:31:33.000Z</time>
      </trkpt>
      <trkpt lat="44.32852" lon="1.54853">
        <ele>252.19999694824</ele>
        <time>2022-05-26T08:31:37.000Z</time>
      </trkpt>
      <trkpt lat="44.3285" lon="1.54851">
        <ele>252.19999694824</ele>
        <time>2022-05-26T08:31:38.000Z</time>
      </trkpt>
      <trkpt lat="44.32849" lon="1.54849">
        <ele>252</ele>
        <time>2022-05-26T08:31:39.000Z</time>
      </trkpt>
      <trkpt lat="44.32846" lon="1.54842">
        <ele>251</ele>
        <time>2022-05-26T08:31:42.000Z</time>
      </trkpt>
      <trkpt lat="44.32846" lon="1.5484">
        <ele>250.80000305176</ele>
        <time>2022-05-26T08:31:43.000Z</time>
      </trkpt>
      <trkpt lat="44.32844" lon="1.5483">
        <ele>250.39999389648</ele>
        <time>2022-05-26T08:31:47.000Z</time>
      </trkpt>
      <trkpt lat="44.32843" lon="1.54819">
        <ele>250.39999389648</ele>
        <time>2022-05-26T08:31:50.000Z</time>
      </trkpt>
      <trkpt lat="44.3284" lon="1.54793">
        <ele>251</ele>
        <time>2022-05-26T08:31:56.000Z</time>
      </trkpt>
      <trkpt lat="44.32839" lon="1.54784">
        <ele>251.39999389648</ele>
        <time>2022-05-26T08:31:58.000Z</time>
      </trkpt>
      <trkpt lat="44.32835" lon="1.54752">
        <ele>251.60000610352</ele>
        <time>2022-05-26T08:32:04.000Z</time>
      </trkpt>
      <trkpt lat="44.32835" lon="1.54748">
        <ele>251.80000305176</ele>
        <time>2022-05-26T08:32:06.000Z</time>
      </trkpt>
      <trkpt lat="44.32836" lon="1.54744">
        <ele>252</ele>
        <time>2022-05-26T08:32:07.000Z</time>
      </trkpt>
      <trkpt lat="44.3284" lon="1.54709">
        <ele>252.19999694824</ele>
        <time>2022-05-26T08:32:14.000Z</time>
      </trkpt>
      <trkpt lat="44.3284" lon="1.54682">
        <ele>252</ele>
        <time>2022-05-26T08:32:21.000Z</time>
      </trkpt>
      <trkpt lat="44.3284" lon="1.5466">
        <ele>250.80000305176</ele>
        <time>2022-05-26T08:32:25.000Z</time>
      </trkpt>
      <trkpt lat="44.3284" lon="1.54657">
        <ele>249.80000305176</ele>
        <time>2022-05-26T08:32:27.000Z</time>
      </trkpt>
      <trkpt lat="44.32838" lon="1.54652">
        <ele>248.60000610352</ele>
        <time>2022-05-26T08:32:29.000Z</time>
      </trkpt>
      <trkpt lat="44.32833" lon="1.54637">
        <ele>247.19999694824</ele>
        <time>2022-05-26T08:32:32.000Z</time>
      </trkpt>
      <trkpt lat="44.3283" lon="1.54627">
        <ele>246.80000305176</ele>
        <time>2022-05-26T08:32:33.000Z</time>
      </trkpt>
      <trkpt lat="44.32827" lon="1.54615">
        <ele>245.60000610352</ele>
        <time>2022-05-26T08:32:35.000Z</time>
      </trkpt>
      <trkpt lat="44.32818" lon="1.54593">
        <ele>245</ele>
        <time>2022-05-26T08:32:40.000Z</time>
      </trkpt>
      <trkpt lat="44.32813" lon="1.54582">
        <ele>244.60000610352</ele>
        <time>2022-05-26T08:32:42.000Z</time>
      </trkpt>
      <trkpt lat="44.328" lon="1.54566">
        <ele>243.80000305176</ele>
        <time>2022-05-26T08:32:45.000Z</time>
      </trkpt>
      <trkpt lat="44.32794" lon="1.54557">
        <ele>243.80000305176</ele>
        <time>2022-05-26T08:32:47.000Z</time>
      </trkpt>
      <trkpt lat="44.32792" lon="1.54553">
        <ele>243.60000610352</ele>
        <time>2022-05-26T08:32:48.000Z</time>
      </trkpt>
      <trkpt lat="44.32788" lon="1.54543">
        <ele>243</ele>
        <time>2022-05-26T08:32:50.000Z</time>
      </trkpt>
      <trkpt lat="44.32788" lon="1.54543">
        <ele>242.39999389648</ele>
        <time>2022-05-26T08:32:51.000Z</time>
      </trkpt>
      <trkpt lat="44.32788" lon="1.54524">
        <ele>241.39999389648</ele>
        <time>2022-05-26T08:32:55.000Z</time>
      </trkpt>
      <trkpt lat="44.32796" lon="1.54513">
        <ele>240.39999389648</ele>
        <time>2022-05-26T08:32:58.000Z</time>
      </trkpt>
      <trkpt lat="44.328" lon="1.54503">
        <ele>240</ele>
        <time>2022-05-26T08:33:00.000Z</time>
      </trkpt>
      <trkpt lat="44.32812" lon="1.54465">
        <ele>239.60000610352</ele>
        <time>2022-05-26T08:33:07.000Z</time>
      </trkpt>
      <trkpt lat="44.32828" lon="1.54416">
        <ele>239.60000610352</ele>
        <time>2022-05-26T08:33:15.000Z</time>
      </trkpt>
      <trkpt lat="44.3283" lon="1.54412">
        <ele>239.60000610352</ele>
        <time>2022-05-26T08:33:16.000Z</time>
      </trkpt>
      <trkpt lat="44.32836" lon="1.54403">
        <ele>239.39999389648</ele>
        <time>2022-05-26T08:33:18.000Z</time>
      </trkpt>
      <trkpt lat="44.32843" lon="1.54397">
        <ele>239.19999694824</ele>
        <time>2022-05-26T08:33:20.000Z</time>
      </trkpt>
      <trkpt lat="44.32847" lon="1.54394">
        <ele>239.19999694824</ele>
        <time>2022-05-26T08:33:21.000Z</time>
      </trkpt>
      <trkpt lat="44.3286" lon="1.54389">
        <ele>239</ele>
        <time>2022-05-26T08:33:24.000Z</time>
      </trkpt>
      <trkpt lat="44.32872" lon="1.5439">
        <ele>238.60000610352</ele>
        <time>2022-05-26T08:33:27.000Z</time>
      </trkpt>
      <trkpt lat="44.32885" lon="1.54393">
        <ele>238.19999694824</ele>
        <time>2022-05-26T08:33:30.000Z</time>
      </trkpt>
      <trkpt lat="44.32906" lon="1.54396">
        <ele>237.60000610352</ele>
        <time>2022-05-26T08:33:35.000Z</time>
      </trkpt>
      <trkpt lat="44.32927" lon="1.54399">
        <ele>237.19999694824</ele>
        <time>2022-05-26T08:33:40.000Z</time>
      </trkpt>
      <trkpt lat="44.3294" lon="1.54398">
        <ele>237</ele>
        <time>2022-05-26T08:33:43.000Z</time>
      </trkpt>
      <trkpt lat="44.32945" lon="1.54397">
        <ele>237</ele>
        <time>2022-05-26T08:33:44.000Z</time>
      </trkpt>
      <trkpt lat="44.32966" lon="1.5439">
        <ele>236.80000305176</ele>
        <time>2022-05-26T08:33:49.000Z</time>
      </trkpt>
      <trkpt lat="44.3298" lon="1.54385">
        <ele>236.60000610352</ele>
        <time>2022-05-26T08:33:52.000Z</time>
      </trkpt>
      <trkpt lat="44.3299" lon="1.54384">
        <ele>236.60000610352</ele>
        <time>2022-05-26T08:33:53.000Z</time>
      </trkpt>
      <trkpt lat="44.33005" lon="1.54386">
        <ele>236.39999389648</ele>
        <time>2022-05-26T08:33:56.000Z</time>
      </trkpt>
      <trkpt lat="44.3303" lon="1.54397">
        <ele>236.80000305176</ele>
        <time>2022-05-26T08:34:02.000Z</time>
      </trkpt>
      <trkpt lat="44.33034" lon="1.54399">
        <ele>236.80000305176</ele>
        <time>2022-05-26T08:34:03.000Z</time>
      </trkpt>
      <trkpt lat="44.3306" lon="1.54414">
        <ele>237.19999694824</ele>
        <time>2022-05-26T08:34:10.000Z</time>
      </trkpt>
      <trkpt lat="44.33072" lon="1.54419">
        <ele>237.19999694824</ele>
        <time>2022-05-26T08:34:13.000Z</time>
      </trkpt>
      <trkpt lat="44.3308" lon="1.54419">
        <ele>237.19999694824</ele>
        <time>2022-05-26T08:34:15.000Z</time>
      </trkpt>
      <trkpt lat="44.33082" lon="1.54417">
        <ele>237.39999389648</ele>
        <time>2022-05-26T08:34:16.000Z</time>
      </trkpt>
      <trkpt lat="44.33084" lon="1.54414">
        <ele>237.39999389648</ele>
        <time>2022-05-26T08:34:17.000Z</time>
      </trkpt>
      <trkpt lat="44.33085" lon="1.54406">
        <ele>237.39999389648</ele>
        <time>2022-05-26T08:34:19.000Z</time>
      </trkpt>
      <trkpt lat="44.33088" lon="1.54386">
        <ele>238</ele>
        <time>2022-05-26T08:34:24.000Z</time>
      </trkpt>
      <trkpt lat="44.33091" lon="1.54374">
        <ele>238.60000610352</ele>
        <time>2022-05-26T08:34:27.000Z</time>
      </trkpt>
      <trkpt lat="44.33092" lon="1.54365">
        <ele>239.19999694824</ele>
        <time>2022-05-26T08:34:29.000Z</time>
      </trkpt>
      <trkpt lat="44.33094" lon="1.54358">
        <ele>240.19999694824</ele>
        <time>2022-05-26T08:34:31.000Z</time>
      </trkpt>
      <trkpt lat="44.33095" lon="1.5435">
        <ele>240.80000305176</ele>
        <time>2022-05-26T08:34:33.000Z</time>
      </trkpt>
      <trkpt lat="44.33096" lon="1.54341">
        <ele>241.60000610352</ele>
        <time>2022-05-26T08:34:35.000Z</time>
      </trkpt>
      <trkpt lat="44.33096" lon="1.54337">
        <ele>241.80000305176</ele>
        <time>2022-05-26T08:34:36.000Z</time>
      </trkpt>
      <trkpt lat="44.33096" lon="1.54329">
        <ele>242.80000305176</ele>
        <time>2022-05-26T08:34:38.000Z</time>
      </trkpt>
      <trkpt lat="44.33095" lon="1.54317">
        <ele>243.80000305176</ele>
        <time>2022-05-26T08:34:41.000Z</time>
      </trkpt>
      <trkpt lat="44.33094" lon="1.54314">
        <ele>244</ele>
        <time>2022-05-26T08:34:42.000Z</time>
      </trkpt>
      <trkpt lat="44.33092" lon="1.54301">
        <ele>245</ele>
        <time>2022-05-26T08:34:46.000Z</time>
      </trkpt>
      <trkpt lat="44.3309" lon="1.54286">
        <ele>245.80000305176</ele>
        <time>2022-05-26T08:34:50.000Z</time>
      </trkpt>
      <trkpt lat="44.33091" lon="1.54282">
        <ele>246</ele>
        <time>2022-05-26T08:34:51.000Z</time>
      </trkpt>
      <trkpt lat="44.33096" lon="1.54269">
        <ele>247</ele>
        <time>2022-05-26T08:34:55.000Z</time>
      </trkpt>
      <trkpt lat="44.33097" lon="1.54266">
        <ele>247.19999694824</ele>
        <time>2022-05-26T08:34:56.000Z</time>
      </trkpt>
      <trkpt lat="44.33106" lon="1.54251">
        <ele>248.39999389648</ele>
        <time>2022-05-26T08:35:01.000Z</time>
      </trkpt>
      <trkpt lat="44.33115" lon="1.54238">
        <ele>248.60000610352</ele>
        <time>2022-05-26T08:35:05.000Z</time>
      </trkpt>
      <trkpt lat="44.3314" lon="1.54199">
        <ele>249.19999694824</ele>
        <time>2022-05-26T08:35:16.000Z</time>
      </trkpt>
      <trkpt lat="44.33152" lon="1.54181">
        <ele>249.39999389648</ele>
        <time>2022-05-26T08:35:21.000Z</time>
      </trkpt>
      <trkpt lat="44.33163" lon="1.54163">
        <ele>249.80000305176</ele>
        <time>2022-05-26T08:35:26.000Z</time>
      </trkpt>
      <trkpt lat="44.33183" lon="1.54131">
        <ele>250.39999389648</ele>
        <time>2022-05-26T08:35:34.000Z</time>
      </trkpt>
      <trkpt lat="44.33188" lon="1.54123">
        <ele>250.60000610352</ele>
        <time>2022-05-26T08:35:36.000Z</time>
      </trkpt>
      <trkpt lat="44.33202" lon="1.54101">
        <ele>250.60000610352</ele>
        <time>2022-05-26T08:35:42.000Z</time>
      </trkpt>
      <trkpt lat="44.33209" lon="1.54089">
        <ele>250.60000610352</ele>
        <time>2022-05-26T08:35:46.000Z</time>
      </trkpt>
      <trkpt lat="44.33214" lon="1.54081">
        <ele>250.60000610352</ele>
        <time>2022-05-26T08:35:47.000Z</time>
      </trkpt>
      <trkpt lat="44.33224" lon="1.54071">
        <ele>250.39999389648</ele>
        <time>2022-05-26T08:35:50.000Z</time>
      </trkpt>
      <trkpt lat="44.33236" lon="1.54059">
        <ele>250.39999389648</ele>
        <time>2022-05-26T08:35:54.000Z</time>
      </trkpt>
      <trkpt lat="44.33245" lon="1.54046">
        <ele>250.60000610352</ele>
        <time>2022-05-26T08:35:59.000Z</time>
      </trkpt>
      <trkpt lat="44.33248" lon="1.54031">
        <ele>251.60000610352</ele>
        <time>2022-05-26T08:36:03.000Z</time>
      </trkpt>
      <trkpt lat="44.33249" lon="1.54023">
        <ele>252.19999694824</ele>
        <time>2022-05-26T08:36:06.000Z</time>
      </trkpt>
      <trkpt lat="44.33251" lon="1.54016">
        <ele>252.80000305176</ele>
        <time>2022-05-26T08:36:08.000Z</time>
      </trkpt>
      <trkpt lat="44.33251" lon="1.54015">
        <ele>253</ele>
        <time>2022-05-26T08:36:10.000Z</time>
      </trkpt>
      <trkpt lat="44.33251" lon="1.54015">
        <ele>253</ele>
        <time>2022-05-26T08:36:43.000Z</time>
      </trkpt>
      <trkpt lat="44.33252" lon="1.5401">
        <ele>253</ele>
        <time>2022-05-26T08:36:44.000Z</time>
      </trkpt>
      <trkpt lat="44.33254" lon="1.54005">
        <ele>253</ele>
        <time>2022-05-26T08:36:46.000Z</time>
      </trkpt>
      <trkpt lat="44.33264" lon="1.53988">
        <ele>253.39999389648</ele>
        <time>2022-05-26T08:36:51.000Z</time>
      </trkpt>
      <trkpt lat="44.33273" lon="1.53976">
        <ele>253.80000305176</ele>
        <time>2022-05-26T08:36:55.000Z</time>
      </trkpt>
      <trkpt lat="44.33276" lon="1.53975">
        <ele>253.80000305176</ele>
        <time>2022-05-26T08:36:56.000Z</time>
      </trkpt>
      <trkpt lat="44.33278" lon="1.53975">
        <ele>254</ele>
        <time>2022-05-26T08:36:57.000Z</time>
      </trkpt>
      <trkpt lat="44.33282" lon="1.53978">
        <ele>254.39999389648</ele>
        <time>2022-05-26T08:36:59.000Z</time>
      </trkpt>
      <trkpt lat="44.33283" lon="1.5398">
        <ele>254.39999389648</ele>
        <time>2022-05-26T08:37:00.000Z</time>
      </trkpt>
      <trkpt lat="44.33285" lon="1.5399">
        <ele>254.80000305176</ele>
        <time>2022-05-26T08:37:03.000Z</time>
      </trkpt>
      <trkpt lat="44.33295" lon="1.54026">
        <ele>255.19999694824</ele>
        <time>2022-05-26T08:37:13.000Z</time>
      </trkpt>
      <trkpt lat="44.33306" lon="1.54043">
        <ele>255</ele>
        <time>2022-05-26T08:37:17.000Z</time>
      </trkpt>
      <trkpt lat="44.33314" lon="1.54066">
        <ele>254.19999694824</ele>
        <time>2022-05-26T08:37:22.000Z</time>
      </trkpt>
      <trkpt lat="44.3332" lon="1.5408">
        <ele>253.80000305176</ele>
        <time>2022-05-26T08:37:25.000Z</time>
      </trkpt>
      <trkpt lat="44.33327" lon="1.54088">
        <ele>253.19999694824</ele>
        <time>2022-05-26T08:37:27.000Z</time>
      </trkpt>
      <trkpt lat="44.33336" lon="1.54095">
        <ele>252.60000610352</ele>
        <time>2022-05-26T08:37:29.000Z</time>
      </trkpt>
      <trkpt lat="44.33351" lon="1.54105">
        <ele>251.39999389648</ele>
        <time>2022-05-26T08:37:32.000Z</time>
      </trkpt>
      <trkpt lat="44.3337" lon="1.54117">
        <ele>250.60000610352</ele>
        <time>2022-05-26T08:37:36.000Z</time>
      </trkpt>
      <trkpt lat="44.33375" lon="1.54121">
        <ele>249.60000610352</ele>
        <time>2022-05-26T08:37:37.000Z</time>
      </trkpt>
      <trkpt lat="44.33378" lon="1.54126">
        <ele>249.19999694824</ele>
        <time>2022-05-26T08:37:38.000Z</time>
      </trkpt>
      <trkpt lat="44.33382" lon="1.54131">
        <ele>248.39999389648</ele>
        <time>2022-05-26T08:37:39.000Z</time>
      </trkpt>
      <trkpt lat="44.33393" lon="1.5415">
        <ele>246.80000305176</ele>
        <time>2022-05-26T08:37:43.000Z</time>
      </trkpt>
      <trkpt lat="44.33395" lon="1.54155">
        <ele>246.60000610352</ele>
        <time>2022-05-26T08:37:44.000Z</time>
      </trkpt>
      <trkpt lat="44.33401" lon="1.54169">
        <ele>246.80000305176</ele>
        <time>2022-05-26T08:37:47.000Z</time>
      </trkpt>
      <trkpt lat="44.33409" lon="1.54183">
        <ele>247.19999694824</ele>
        <time>2022-05-26T08:37:50.000Z</time>
      </trkpt>
      <trkpt lat="44.3341" lon="1.54185">
        <ele>247.60000610352</ele>
        <time>2022-05-26T08:37:51.000Z</time>
      </trkpt>
      <trkpt lat="44.33416" lon="1.54192">
        <ele>248.19999694824</ele>
        <time>2022-05-26T08:37:53.000Z</time>
      </trkpt>
      <trkpt lat="44.33426" lon="1.54204">
        <ele>250</ele>
        <time>2022-05-26T08:37:57.000Z</time>
      </trkpt>
      <trkpt lat="44.33429" lon="1.54207">
        <ele>250.19999694824</ele>
        <time>2022-05-26T08:37:58.000Z</time>
      </trkpt>
      <trkpt lat="44.33435" lon="1.54212">
        <ele>251.19999694824</ele>
        <time>2022-05-26T08:38:00.000Z</time>
      </trkpt>
      <trkpt lat="44.3344" lon="1.54216">
        <ele>252.39999389648</ele>
        <time>2022-05-26T08:38:02.000Z</time>
      </trkpt>
      <trkpt lat="44.33443" lon="1.54217">
        <ele>252.80000305176</ele>
        <time>2022-05-26T08:38:03.000Z</time>
      </trkpt>
      <trkpt lat="44.33445" lon="1.54219">
        <ele>253.60000610352</ele>
        <time>2022-05-26T08:38:04.000Z</time>
      </trkpt>
      <trkpt lat="44.33451" lon="1.54223">
        <ele>254.60000610352</ele>
        <time>2022-05-26T08:38:06.000Z</time>
      </trkpt>
      <trkpt lat="44.33458" lon="1.54228">
        <ele>255.80000305176</ele>
        <time>2022-05-26T08:38:09.000Z</time>
      </trkpt>
      <trkpt lat="44.33465" lon="1.54233">
        <ele>256.39999389648</ele>
        <time>2022-05-26T08:38:12.000Z</time>
      </trkpt>
      <trkpt lat="44.3347" lon="1.54237">
        <ele>256.79998779297</ele>
        <time>2022-05-26T08:38:14.000Z</time>
      </trkpt>
      <trkpt lat="44.33479" lon="1.54244">
        <ele>258</ele>
        <time>2022-05-26T08:38:18.000Z</time>
      </trkpt>
      <trkpt lat="44.33493" lon="1.54256">
        <ele>259.20001220703</ele>
        <time>2022-05-26T08:38:24.000Z</time>
      </trkpt>
      <trkpt lat="44.33509" lon="1.54269">
        <ele>260.39999389648</ele>
        <time>2022-05-26T08:38:31.000Z</time>
      </trkpt>
      <trkpt lat="44.33511" lon="1.54271">
        <ele>260.60000610352</ele>
        <time>2022-05-26T08:38:32.000Z</time>
      </trkpt>
      <trkpt lat="44.3352" lon="1.54277">
        <ele>261.60000610352</ele>
        <time>2022-05-26T08:38:36.000Z</time>
      </trkpt>
      <trkpt lat="44.33528" lon="1.54284">
        <ele>262.60000610352</ele>
        <time>2022-05-26T08:38:40.000Z</time>
      </trkpt>
      <trkpt lat="44.33532" lon="1.54287">
        <ele>263</ele>
        <time>2022-05-26T08:38:42.000Z</time>
      </trkpt>
      <trkpt lat="44.33542" lon="1.54294">
        <ele>264.20001220703</ele>
        <time>2022-05-26T08:38:47.000Z</time>
      </trkpt>
      <trkpt lat="44.33547" lon="1.54298">
        <ele>265.39999389648</ele>
        <time>2022-05-26T08:38:50.000Z</time>
      </trkpt>
      <trkpt lat="44.33553" lon="1.54301">
        <ele>266</ele>
        <time>2022-05-26T08:38:53.000Z</time>
      </trkpt>
      <trkpt lat="44.33555" lon="1.54304">
        <ele>266.39999389648</ele>
        <time>2022-05-26T08:38:55.000Z</time>
      </trkpt>
      <trkpt lat="44.33559" lon="1.54308">
        <ele>267.60000610352</ele>
        <time>2022-05-26T08:38:57.000Z</time>
      </trkpt>
      <trkpt lat="44.33563" lon="1.54315">
        <ele>268</ele>
        <time>2022-05-26T08:39:00.000Z</time>
      </trkpt>
      <trkpt lat="44.33567" lon="1.54322">
        <ele>268.79998779297</ele>
        <time>2022-05-26T08:39:03.000Z</time>
      </trkpt>
      <trkpt lat="44.33576" lon="1.54333">
        <ele>270</ele>
        <time>2022-05-26T08:39:08.000Z</time>
      </trkpt>
      <trkpt lat="44.33581" lon="1.54341">
        <ele>270.20001220703</ele>
        <time>2022-05-26T08:39:11.000Z</time>
      </trkpt>
      <trkpt lat="44.33591" lon="1.54359">
        <ele>271</ele>
        <time>2022-05-26T08:39:18.000Z</time>
      </trkpt>
      <trkpt lat="44.33594" lon="1.54364">
        <ele>271.20001220703</ele>
        <time>2022-05-26T08:39:20.000Z</time>
      </trkpt>
      <trkpt lat="44.3361" lon="1.54389">
        <ele>271.60000610352</ele>
        <time>2022-05-26T08:39:29.000Z</time>
      </trkpt>
      <trkpt lat="44.33622" lon="1.5441">
        <ele>271.79998779297</ele>
        <time>2022-05-26T08:39:36.000Z</time>
      </trkpt>
      <trkpt lat="44.33631" lon="1.54432">
        <ele>271.60000610352</ele>
        <time>2022-05-26T08:39:42.000Z</time>
      </trkpt>
      <trkpt lat="44.33631" lon="1.54432">
        <ele>271.60000610352</ele>
        <time>2022-05-26T08:39:43.000Z</time>
      </trkpt>
      <trkpt lat="44.33633" lon="1.54439">
        <ele>271.79998779297</ele>
        <time>2022-05-26T08:39:45.000Z</time>
      </trkpt>
      <trkpt lat="44.33633" lon="1.54441">
        <ele>271.60000610352</ele>
        <time>2022-05-26T08:39:46.000Z</time>
      </trkpt>
      <trkpt lat="44.33631" lon="1.54448">
        <ele>271.39999389648</ele>
        <time>2022-05-26T08:39:50.000Z</time>
      </trkpt>
      <trkpt lat="44.33631" lon="1.54448">
        <ele>271.39999389648</ele>
        <time>2022-05-26T08:39:52.000Z</time>
      </trkpt>
      <trkpt lat="44.33633" lon="1.5443">
        <ele>271</ele>
        <time>2022-05-26T08:40:07.000Z</time>
      </trkpt>
      <trkpt lat="44.33637" lon="1.54424">
        <ele>271</ele>
        <time>2022-05-26T08:40:10.000Z</time>
      </trkpt>
      <trkpt lat="44.3365" lon="1.54422">
        <ele>271.20001220703</ele>
        <time>2022-05-26T08:40:15.000Z</time>
      </trkpt>
      <trkpt lat="44.33664" lon="1.54421">
        <ele>272</ele>
        <time>2022-05-26T08:40:20.000Z</time>
      </trkpt>
      <trkpt lat="44.33668" lon="1.54421">
        <ele>272.20001220703</ele>
        <time>2022-05-26T08:40:21.000Z</time>
      </trkpt>
      <trkpt lat="44.33692" lon="1.54421">
        <ele>272.39999389648</ele>
        <time>2022-05-26T08:40:29.000Z</time>
      </trkpt>
      <trkpt lat="44.33713" lon="1.54423">
        <ele>272.79998779297</ele>
        <time>2022-05-26T08:40:36.000Z</time>
      </trkpt>
      <trkpt lat="44.33723" lon="1.54426">
        <ele>273</ele>
        <time>2022-05-26T08:40:40.000Z</time>
      </trkpt>
      <trkpt lat="44.3373" lon="1.54428">
        <ele>273</ele>
        <time>2022-05-26T08:40:42.000Z</time>
      </trkpt>
      <trkpt lat="44.33758" lon="1.54426">
        <ele>273.20001220703</ele>
        <time>2022-05-26T08:40:50.000Z</time>
      </trkpt>
      <trkpt lat="44.3378" lon="1.54424">
        <ele>273.79998779297</ele>
        <time>2022-05-26T08:40:58.000Z</time>
      </trkpt>
      <trkpt lat="44.33787" lon="1.54422">
        <ele>273.79998779297</ele>
        <time>2022-05-26T08:41:02.000Z</time>
      </trkpt>
      <trkpt lat="44.33787" lon="1.5442">
        <ele>274</ele>
        <time>2022-05-26T08:41:03.000Z</time>
      </trkpt>
      <trkpt lat="44.33785" lon="1.54402">
        <ele>274</ele>
        <time>2022-05-26T08:41:08.000Z</time>
      </trkpt>
      <trkpt lat="44.33784" lon="1.54398">
        <ele>274</ele>
        <time>2022-05-26T08:41:09.000Z</time>
      </trkpt>
      <trkpt lat="44.33782" lon="1.54372">
        <ele>273.79998779297</ele>
        <time>2022-05-26T08:41:15.000Z</time>
      </trkpt>
      <trkpt lat="44.33782" lon="1.54368">
        <ele>273.79998779297</ele>
        <time>2022-05-26T08:41:16.000Z</time>
      </trkpt>
      <trkpt lat="44.3378" lon="1.54348">
        <ele>274</ele>
        <time>2022-05-26T08:41:20.000Z</time>
      </trkpt>
      <trkpt lat="44.33781" lon="1.54329">
        <ele>273.79998779297</ele>
        <time>2022-05-26T08:41:24.000Z</time>
      </trkpt>
      <trkpt lat="44.3378" lon="1.54319">
        <ele>273.39999389648</ele>
        <time>2022-05-26T08:41:28.000Z</time>
      </trkpt>
      <trkpt lat="44.3378" lon="1.54319">
        <ele>273.20001220703</ele>
        <time>2022-05-26T08:41:29.000Z</time>
      </trkpt>
      <trkpt lat="44.33779" lon="1.54312">
        <ele>271.79998779297</ele>
        <time>2022-05-26T08:41:54.000Z</time>
      </trkpt>
      <trkpt lat="44.33779" lon="1.54306">
        <ele>271.79998779297</ele>
        <time>2022-05-26T08:41:56.000Z</time>
      </trkpt>
      <trkpt lat="44.33776" lon="1.54289">
        <ele>271.60000610352</ele>
        <time>2022-05-26T08:42:01.000Z</time>
      </trkpt>
      <trkpt lat="44.33773" lon="1.5426">
        <ele>271.60000610352</ele>
        <time>2022-05-26T08:42:07.000Z</time>
      </trkpt>
      <trkpt lat="44.33772" lon="1.54254">
        <ele>271.60000610352</ele>
        <time>2022-05-26T08:42:08.000Z</time>
      </trkpt>
      <trkpt lat="44.33767" lon="1.5422">
        <ele>271.39999389648</ele>
        <time>2022-05-26T08:42:13.000Z</time>
      </trkpt>
      <trkpt lat="44.33765" lon="1.54191">
        <ele>270.39999389648</ele>
        <time>2022-05-26T08:42:16.000Z</time>
      </trkpt>
      <trkpt lat="44.33764" lon="1.54168">
        <ele>270</ele>
        <time>2022-05-26T08:42:18.000Z</time>
      </trkpt>
      <trkpt lat="44.33765" lon="1.54143">
        <ele>269.39999389648</ele>
        <time>2022-05-26T08:42:20.000Z</time>
      </trkpt>
      <trkpt lat="44.3377" lon="1.54106">
        <ele>268.39999389648</ele>
        <time>2022-05-26T08:42:23.000Z</time>
      </trkpt>
      <trkpt lat="44.33773" lon="1.54082">
        <ele>267.20001220703</ele>
        <time>2022-05-26T08:42:25.000Z</time>
      </trkpt>
      <trkpt lat="44.33777" lon="1.54057">
        <ele>266</ele>
        <time>2022-05-26T08:42:27.000Z</time>
      </trkpt>
      <trkpt lat="44.33778" lon="1.5403">
        <ele>264.39999389648</ele>
        <time>2022-05-26T08:42:29.000Z</time>
      </trkpt>
      <trkpt lat="44.33777" lon="1.54">
        <ele>263</ele>
        <time>2022-05-26T08:42:31.000Z</time>
      </trkpt>
      <trkpt lat="44.33774" lon="1.53972">
        <ele>261.60000610352</ele>
        <time>2022-05-26T08:42:33.000Z</time>
      </trkpt>
      <trkpt lat="44.33774" lon="1.5396">
        <ele>261.20001220703</ele>
        <time>2022-05-26T08:42:34.000Z</time>
      </trkpt>
      <trkpt lat="44.33773" lon="1.53948">
        <ele>260.60000610352</ele>
        <time>2022-05-26T08:42:35.000Z</time>
      </trkpt>
      <trkpt lat="44.33772" lon="1.53927">
        <ele>259.60000610352</ele>
        <time>2022-05-26T08:42:37.000Z</time>
      </trkpt>
      <trkpt lat="44.33771" lon="1.53918">
        <ele>259</ele>
        <time>2022-05-26T08:42:38.000Z</time>
      </trkpt>
      <trkpt lat="44.33771" lon="1.53902">
        <ele>258.60000610352</ele>
        <time>2022-05-26T08:42:40.000Z</time>
      </trkpt>
      <trkpt lat="44.33771" lon="1.5389">
        <ele>258.39999389648</ele>
        <time>2022-05-26T08:42:42.000Z</time>
      </trkpt>
      <trkpt lat="44.33772" lon="1.53873">
        <ele>258.20001220703</ele>
        <time>2022-05-26T08:42:45.000Z</time>
      </trkpt>
      <trkpt lat="44.33773" lon="1.53856">
        <ele>258.20001220703</ele>
        <time>2022-05-26T08:42:48.000Z</time>
      </trkpt>
      <trkpt lat="44.33773" lon="1.53852">
        <ele>258.39999389648</ele>
        <time>2022-05-26T08:42:49.000Z</time>
      </trkpt>
      <trkpt lat="44.33776" lon="1.53832">
        <ele>258.79998779297</ele>
        <time>2022-05-26T08:42:53.000Z</time>
      </trkpt>
      <trkpt lat="44.33778" lon="1.53817">
        <ele>259.79998779297</ele>
        <time>2022-05-26T08:42:57.000Z</time>
      </trkpt>
      <trkpt lat="44.33783" lon="1.53785">
        <ele>260.79998779297</ele>
        <time>2022-05-26T08:43:03.000Z</time>
      </trkpt>
      <trkpt lat="44.33783" lon="1.5378">
        <ele>261</ele>
        <time>2022-05-26T08:43:04.000Z</time>
      </trkpt>
      <trkpt lat="44.33785" lon="1.5377">
        <ele>261.39999389648</ele>
        <time>2022-05-26T08:43:06.000Z</time>
      </trkpt>
      <trkpt lat="44.33788" lon="1.53756">
        <ele>262</ele>
        <time>2022-05-26T08:43:09.000Z</time>
      </trkpt>
      <trkpt lat="44.33795" lon="1.53737">
        <ele>262.79998779297</ele>
        <time>2022-05-26T08:43:14.000Z</time>
      </trkpt>
      <trkpt lat="44.338" lon="1.53727">
        <ele>263.20001220703</ele>
        <time>2022-05-26T08:43:17.000Z</time>
      </trkpt>
      <trkpt lat="44.33811" lon="1.53708">
        <ele>264.20001220703</ele>
        <time>2022-05-26T08:43:23.000Z</time>
      </trkpt>
      <trkpt lat="44.33813" lon="1.53704">
        <ele>264.39999389648</ele>
        <time>2022-05-26T08:43:24.000Z</time>
      </trkpt>
      <trkpt lat="44.33827" lon="1.53677">
        <ele>265.20001220703</ele>
        <time>2022-05-26T08:43:31.000Z</time>
      </trkpt>
      <trkpt lat="44.33833" lon="1.53667">
        <ele>265.79998779297</ele>
        <time>2022-05-26T08:43:34.000Z</time>
      </trkpt>
      <trkpt lat="44.33847" lon="1.53643">
        <ele>266.39999389648</ele>
        <time>2022-05-26T08:43:41.000Z</time>
      </trkpt>
      <trkpt lat="44.33851" lon="1.53636">
        <ele>266.60000610352</ele>
        <time>2022-05-26T08:43:43.000Z</time>
      </trkpt>
      <trkpt lat="44.33867" lon="1.536">
        <ele>267.20001220703</ele>
        <time>2022-05-26T08:43:52.000Z</time>
      </trkpt>
      <trkpt lat="44.33872" lon="1.53587">
        <ele>267.39999389648</ele>
        <time>2022-05-26T08:43:55.000Z</time>
      </trkpt>
      <trkpt lat="44.33879" lon="1.53565">
        <ele>268.20001220703</ele>
        <time>2022-05-26T08:44:00.000Z</time>
      </trkpt>
      <trkpt lat="44.33879" lon="1.53562">
        <ele>268.20001220703</ele>
        <time>2022-05-26T08:44:01.000Z</time>
      </trkpt>
      <trkpt lat="44.33885" lon="1.53539">
        <ele>269</ele>
        <time>2022-05-26T08:44:08.000Z</time>
      </trkpt>
      <trkpt lat="44.33886" lon="1.53531">
        <ele>269.20001220703</ele>
        <time>2022-05-26T08:44:10.000Z</time>
      </trkpt>
      <trkpt lat="44.33891" lon="1.53506">
        <ele>269.79998779297</ele>
        <time>2022-05-26T08:44:16.000Z</time>
      </trkpt>
      <trkpt lat="44.33895" lon="1.53485">
        <ele>270.20001220703</ele>
        <time>2022-05-26T08:44:21.000Z</time>
      </trkpt>
      <trkpt lat="44.33899" lon="1.53463">
        <ele>271</ele>
        <time>2022-05-26T08:44:26.000Z</time>
      </trkpt>
      <trkpt lat="44.33901" lon="1.53449">
        <ele>271.20001220703</ele>
        <time>2022-05-26T08:44:29.000Z</time>
      </trkpt>
      <trkpt lat="44.33906" lon="1.53421">
        <ele>271.79998779297</ele>
        <time>2022-05-26T08:44:35.000Z</time>
      </trkpt>
      <trkpt lat="44.3391" lon="1.53399">
        <ele>272.20001220703</ele>
        <time>2022-05-26T08:44:40.000Z</time>
      </trkpt>
      <trkpt lat="44.33913" lon="1.53382">
        <ele>272.60000610352</ele>
        <time>2022-05-26T08:44:44.000Z</time>
      </trkpt>
      <trkpt lat="44.33916" lon="1.53349">
        <ele>273.20001220703</ele>
        <time>2022-05-26T08:44:52.000Z</time>
      </trkpt>
      <trkpt lat="44.33916" lon="1.53345">
        <ele>273.39999389648</ele>
        <time>2022-05-26T08:44:53.000Z</time>
      </trkpt>
      <trkpt lat="44.33916" lon="1.53296">
        <ele>274.39999389648</ele>
        <time>2022-05-26T08:45:04.000Z</time>
      </trkpt>
      <trkpt lat="44.33915" lon="1.53281">
        <ele>274.39999389648</ele>
        <time>2022-05-26T08:45:07.000Z</time>
      </trkpt>
      <trkpt lat="44.33914" lon="1.53259">
        <ele>274.60000610352</ele>
        <time>2022-05-26T08:45:11.000Z</time>
      </trkpt>
      <trkpt lat="44.33913" lon="1.53233">
        <ele>274.39999389648</ele>
        <time>2022-05-26T08:45:16.000Z</time>
      </trkpt>
      <trkpt lat="44.33913" lon="1.53218">
        <ele>274.39999389648</ele>
        <time>2022-05-26T08:45:19.000Z</time>
      </trkpt>
      <trkpt lat="44.33913" lon="1.53201">
        <ele>274</ele>
        <time>2022-05-26T08:45:23.000Z</time>
      </trkpt>
      <trkpt lat="44.33913" lon="1.53184">
        <ele>274</ele>
        <time>2022-05-26T08:45:27.000Z</time>
      </trkpt>
      <trkpt lat="44.33914" lon="1.5318">
        <ele>273.79998779297</ele>
        <time>2022-05-26T08:45:28.000Z</time>
      </trkpt>
      <trkpt lat="44.33915" lon="1.53144">
        <ele>273.79998779297</ele>
        <time>2022-05-26T08:45:35.000Z</time>
      </trkpt>
      <trkpt lat="44.33918" lon="1.53102">
        <ele>273.60000610352</ele>
        <time>2022-05-26T08:45:42.000Z</time>
      </trkpt>
      <trkpt lat="44.33918" lon="1.53096">
        <ele>273.39999389648</ele>
        <time>2022-05-26T08:45:43.000Z</time>
      </trkpt>
      <trkpt lat="44.3392" lon="1.53063">
        <ele>273</ele>
        <time>2022-05-26T08:45:49.000Z</time>
      </trkpt>
      <trkpt lat="44.33922" lon="1.53048">
        <ele>273</ele>
        <time>2022-05-26T08:45:52.000Z</time>
      </trkpt>
      <trkpt lat="44.3393" lon="1.53002">
        <ele>272.79998779297</ele>
        <time>2022-05-26T08:46:00.000Z</time>
      </trkpt>
      <trkpt lat="44.33942" lon="1.52964">
        <ele>272.79998779297</ele>
        <time>2022-05-26T08:46:06.000Z</time>
      </trkpt>
      <trkpt lat="44.33947" lon="1.52951">
        <ele>272.79998779297</ele>
        <time>2022-05-26T08:46:08.000Z</time>
      </trkpt>
      <trkpt lat="44.33964" lon="1.5291">
        <ele>273</ele>
        <time>2022-05-26T08:46:15.000Z</time>
      </trkpt>
      <trkpt lat="44.33978" lon="1.52878">
        <ele>273</ele>
        <time>2022-05-26T08:46:21.000Z</time>
      </trkpt>
      <trkpt lat="44.33981" lon="1.52873">
        <ele>273.20001220703</ele>
        <time>2022-05-26T08:46:22.000Z</time>
      </trkpt>
      <trkpt lat="44.34005" lon="1.52831">
        <ele>273.20001220703</ele>
        <time>2022-05-26T08:46:30.000Z</time>
      </trkpt>
      <trkpt lat="44.34014" lon="1.52814">
        <ele>273.20001220703</ele>
        <time>2022-05-26T08:46:33.000Z</time>
      </trkpt>
      <trkpt lat="44.34021" lon="1.52804">
        <ele>273.20001220703</ele>
        <time>2022-05-26T08:46:35.000Z</time>
      </trkpt>
      <trkpt lat="44.34024" lon="1.528">
        <ele>273</ele>
        <time>2022-05-26T08:46:36.000Z</time>
      </trkpt>
      <trkpt lat="44.34037" lon="1.52776">
        <ele>272.79998779297</ele>
        <time>2022-05-26T08:46:41.000Z</time>
      </trkpt>
      <trkpt lat="44.34045" lon="1.52761">
        <ele>272.39999389648</ele>
        <time>2022-05-26T08:46:44.000Z</time>
      </trkpt>
      <trkpt lat="44.34056" lon="1.5274">
        <ele>272.20001220703</ele>
        <time>2022-05-26T08:46:48.000Z</time>
      </trkpt>
      <trkpt lat="44.34061" lon="1.52729">
        <ele>272.20001220703</ele>
        <time>2022-05-26T08:46:50.000Z</time>
      </trkpt>
      <trkpt lat="44.34074" lon="1.52707">
        <ele>272</ele>
        <time>2022-05-26T08:46:54.000Z</time>
      </trkpt>
      <trkpt lat="44.34095" lon="1.52663">
        <ele>271.39999389648</ele>
        <time>2022-05-26T08:47:00.000Z</time>
      </trkpt>
      <trkpt lat="44.34112" lon="1.52631">
        <ele>270</ele>
        <time>2022-05-26T08:47:04.000Z</time>
      </trkpt>
      <trkpt lat="44.3412" lon="1.52615">
        <ele>269.60000610352</ele>
        <time>2022-05-26T08:47:06.000Z</time>
      </trkpt>
      <trkpt lat="44.34128" lon="1.526">
        <ele>268.79998779297</ele>
        <time>2022-05-26T08:47:08.000Z</time>
      </trkpt>
      <trkpt lat="44.34144" lon="1.52567">
        <ele>267.79998779297</ele>
        <time>2022-05-26T08:47:12.000Z</time>
      </trkpt>
      <trkpt lat="44.34157" lon="1.5254">
        <ele>266.60000610352</ele>
        <time>2022-05-26T08:47:15.000Z</time>
      </trkpt>
      <trkpt lat="44.34169" lon="1.52509">
        <ele>265.79998779297</ele>
        <time>2022-05-26T08:47:18.000Z</time>
      </trkpt>
      <trkpt lat="44.34177" lon="1.5249">
        <ele>265.39999389648</ele>
        <time>2022-05-26T08:47:20.000Z</time>
      </trkpt>
      <trkpt lat="44.34191" lon="1.52463">
        <ele>264.20001220703</ele>
        <time>2022-05-26T08:47:23.000Z</time>
      </trkpt>
      <trkpt lat="44.34195" lon="1.52455">
        <ele>263.60000610352</ele>
        <time>2022-05-26T08:47:24.000Z</time>
      </trkpt>
      <trkpt lat="44.34203" lon="1.52437">
        <ele>262.39999389648</ele>
        <time>2022-05-26T08:47:26.000Z</time>
      </trkpt>
      <trkpt lat="44.34208" lon="1.52428">
        <ele>262.20001220703</ele>
        <time>2022-05-26T08:47:27.000Z</time>
      </trkpt>
      <trkpt lat="44.34217" lon="1.52409">
        <ele>261</ele>
        <time>2022-05-26T08:47:29.000Z</time>
      </trkpt>
      <trkpt lat="44.34226" lon="1.52388">
        <ele>259.39999389648</ele>
        <time>2022-05-26T08:47:31.000Z</time>
      </trkpt>
      <trkpt lat="44.34234" lon="1.52367">
        <ele>257.79998779297</ele>
        <time>2022-05-26T08:47:33.000Z</time>
      </trkpt>
      <trkpt lat="44.34247" lon="1.52336">
        <ele>256.60000610352</ele>
        <time>2022-05-26T08:47:36.000Z</time>
      </trkpt>
      <trkpt lat="44.34262" lon="1.52294">
        <ele>255.39999389648</ele>
        <time>2022-05-26T08:47:40.000Z</time>
      </trkpt>
      <trkpt lat="44.34264" lon="1.52287">
        <ele>255</ele>
        <time>2022-05-26T08:47:41.000Z</time>
      </trkpt>
      <trkpt lat="44.34266" lon="1.52279">
        <ele>254.60000610352</ele>
        <time>2022-05-26T08:47:42.000Z</time>
      </trkpt>
      <trkpt lat="44.34267" lon="1.5227">
        <ele>254.19999694824</ele>
        <time>2022-05-26T08:47:43.000Z</time>
      </trkpt>
      <trkpt lat="44.34267" lon="1.52262">
        <ele>254</ele>
        <time>2022-05-26T08:47:44.000Z</time>
      </trkpt>
      <trkpt lat="44.34267" lon="1.52252">
        <ele>253.60000610352</ele>
        <time>2022-05-26T08:47:45.000Z</time>
      </trkpt>
      <trkpt lat="44.34266" lon="1.52233">
        <ele>252.80000305176</ele>
        <time>2022-05-26T08:47:47.000Z</time>
      </trkpt>
      <trkpt lat="44.34262" lon="1.52202">
        <ele>251.60000610352</ele>
        <time>2022-05-26T08:47:50.000Z</time>
      </trkpt>
      <trkpt lat="44.34261" lon="1.52192">
        <ele>251.39999389648</ele>
        <time>2022-05-26T08:47:51.000Z</time>
      </trkpt>
      <trkpt lat="44.34259" lon="1.52182">
        <ele>250.60000610352</ele>
        <time>2022-05-26T08:47:52.000Z</time>
      </trkpt>
      <trkpt lat="44.34258" lon="1.52164">
        <ele>249.39999389648</ele>
        <time>2022-05-26T08:47:54.000Z</time>
      </trkpt>
      <trkpt lat="44.34257" lon="1.52155">
        <ele>249.19999694824</ele>
        <time>2022-05-26T08:47:55.000Z</time>
      </trkpt>
      <trkpt lat="44.34259" lon="1.5214">
        <ele>249</ele>
        <time>2022-05-26T08:47:57.000Z</time>
      </trkpt>
      <trkpt lat="44.34268" lon="1.52115">
        <ele>248.80000305176</ele>
        <time>2022-05-26T08:48:02.000Z</time>
      </trkpt>
      <trkpt lat="44.34274" lon="1.52102">
        <ele>248.80000305176</ele>
        <time>2022-05-26T08:48:05.000Z</time>
      </trkpt>
      <trkpt lat="44.34281" lon="1.52081">
        <ele>249.19999694824</ele>
        <time>2022-05-26T08:48:10.000Z</time>
      </trkpt>
      <trkpt lat="44.34293" lon="1.52053">
        <ele>250.60000610352</ele>
        <time>2022-05-26T08:48:17.000Z</time>
      </trkpt>
      <trkpt lat="44.34296" lon="1.52046">
        <ele>251.19999694824</ele>
        <time>2022-05-26T08:48:19.000Z</time>
      </trkpt>
      <trkpt lat="44.343" lon="1.5204">
        <ele>251.39999389648</ele>
        <time>2022-05-26T08:48:21.000Z</time>
      </trkpt>
      <trkpt lat="44.34302" lon="1.52036">
        <ele>251.80000305176</ele>
        <time>2022-05-26T08:48:22.000Z</time>
      </trkpt>
      <trkpt lat="44.34308" lon="1.52025">
        <ele>252.80000305176</ele>
        <time>2022-05-26T08:48:25.000Z</time>
      </trkpt>
      <trkpt lat="44.34311" lon="1.52017">
        <ele>253.60000610352</ele>
        <time>2022-05-26T08:48:27.000Z</time>
      </trkpt>
      <trkpt lat="44.34313" lon="1.52013">
        <ele>254.19999694824</ele>
        <time>2022-05-26T08:48:28.000Z</time>
      </trkpt>
      <trkpt lat="44.34317" lon="1.52">
        <ele>255.19999694824</ele>
        <time>2022-05-26T08:48:31.000Z</time>
      </trkpt>
      <trkpt lat="44.34323" lon="1.51982">
        <ele>256.39999389648</ele>
        <time>2022-05-26T08:48:35.000Z</time>
      </trkpt>
      <trkpt lat="44.34325" lon="1.51977">
        <ele>256.39999389648</ele>
        <time>2022-05-26T08:48:36.000Z</time>
      </trkpt>
      <trkpt lat="44.34328" lon="1.51964">
        <ele>257.39999389648</ele>
        <time>2022-05-26T08:48:39.000Z</time>
      </trkpt>
      <trkpt lat="44.34334" lon="1.51943">
        <ele>258.60000610352</ele>
        <time>2022-05-26T08:48:44.000Z</time>
      </trkpt>
      <trkpt lat="44.34339" lon="1.51924">
        <ele>259.60000610352</ele>
        <time>2022-05-26T08:48:49.000Z</time>
      </trkpt>
      <trkpt lat="44.3434" lon="1.5192">
        <ele>259.60000610352</ele>
        <time>2022-05-26T08:48:50.000Z</time>
      </trkpt>
      <trkpt lat="44.34347" lon="1.5189">
        <ele>260.79998779297</ele>
        <time>2022-05-26T08:48:58.000Z</time>
      </trkpt>
      <trkpt lat="44.34349" lon="1.51878">
        <ele>261.20001220703</ele>
        <time>2022-05-26T08:49:01.000Z</time>
      </trkpt>
      <trkpt lat="44.34351" lon="1.51862">
        <ele>261.79998779297</ele>
        <time>2022-05-26T08:49:05.000Z</time>
      </trkpt>
      <trkpt lat="44.34354" lon="1.51846">
        <ele>262</ele>
        <time>2022-05-26T08:49:09.000Z</time>
      </trkpt>
      <trkpt lat="44.34358" lon="1.51819">
        <ele>262.79998779297</ele>
        <time>2022-05-26T08:49:16.000Z</time>
      </trkpt>
      <trkpt lat="44.34359" lon="1.51815">
        <ele>263</ele>
        <time>2022-05-26T08:49:17.000Z</time>
      </trkpt>
      <trkpt lat="44.34363" lon="1.5179">
        <ele>264</ele>
        <time>2022-05-26T08:49:23.000Z</time>
      </trkpt>
      <trkpt lat="44.34366" lon="1.51778">
        <ele>264.39999389648</ele>
        <time>2022-05-26T08:49:26.000Z</time>
      </trkpt>
      <trkpt lat="44.34369" lon="1.51762">
        <ele>265</ele>
        <time>2022-05-26T08:49:30.000Z</time>
      </trkpt>
      <trkpt lat="44.34371" lon="1.51749">
        <ele>265.39999389648</ele>
        <time>2022-05-26T08:49:34.000Z</time>
      </trkpt>
      <trkpt lat="44.34375" lon="1.51719">
        <ele>266</ele>
        <time>2022-05-26T08:49:40.000Z</time>
      </trkpt>
      <trkpt lat="44.34376" lon="1.51714">
        <ele>266</ele>
        <time>2022-05-26T08:49:41.000Z</time>
      </trkpt>
      <trkpt lat="44.34384" lon="1.51676">
        <ele>267</ele>
        <time>2022-05-26T08:49:50.000Z</time>
      </trkpt>
      <trkpt lat="44.34394" lon="1.51624">
        <ele>268</ele>
        <time>2022-05-26T08:50:02.000Z</time>
      </trkpt>
      <trkpt lat="44.34398" lon="1.51604">
        <ele>268</ele>
        <time>2022-05-26T08:50:06.000Z</time>
      </trkpt>
      <trkpt lat="44.34401" lon="1.5159">
        <ele>268.39999389648</ele>
        <time>2022-05-26T08:50:09.000Z</time>
      </trkpt>
      <trkpt lat="44.34407" lon="1.51554">
        <ele>269</ele>
        <time>2022-05-26T08:50:17.000Z</time>
      </trkpt>
      <trkpt lat="44.34407" lon="1.51541">
        <ele>269.20001220703</ele>
        <time>2022-05-26T08:50:20.000Z</time>
      </trkpt>
      <trkpt lat="44.34408" lon="1.5151">
        <ele>269.60000610352</ele>
        <time>2022-05-26T08:50:27.000Z</time>
      </trkpt>
      <trkpt lat="44.34415" lon="1.51476">
        <ele>270.20001220703</ele>
        <time>2022-05-26T08:50:34.000Z</time>
      </trkpt>
      <trkpt lat="44.34416" lon="1.51471">
        <ele>270.20001220703</ele>
        <time>2022-05-26T08:50:35.000Z</time>
      </trkpt>
      <trkpt lat="44.34429" lon="1.5143">
        <ele>270.39999389648</ele>
        <time>2022-05-26T08:50:44.000Z</time>
      </trkpt>
      <trkpt lat="44.34442" lon="1.51394">
        <ele>271</ele>
        <time>2022-05-26T08:50:52.000Z</time>
      </trkpt>
      <trkpt lat="44.34446" lon="1.51385">
        <ele>271.20001220703</ele>
        <time>2022-05-26T08:50:54.000Z</time>
      </trkpt>
      <trkpt lat="44.34457" lon="1.51363">
        <ele>271.60000610352</ele>
        <time>2022-05-26T08:51:00.000Z</time>
      </trkpt>
      <trkpt lat="44.34465" lon="1.51348">
        <ele>272.39999389648</ele>
        <time>2022-05-26T08:51:05.000Z</time>
      </trkpt>
      <trkpt lat="44.34473" lon="1.51322">
        <ele>272.79998779297</ele>
        <time>2022-05-26T08:51:10.000Z</time>
      </trkpt>
      <trkpt lat="44.34486" lon="1.51288">
        <ele>273.20001220703</ele>
        <time>2022-05-26T08:51:16.000Z</time>
      </trkpt>
      <trkpt lat="44.34488" lon="1.51284">
        <ele>273.39999389648</ele>
        <time>2022-05-26T08:51:17.000Z</time>
      </trkpt>
      <trkpt lat="44.34495" lon="1.51264">
        <ele>273.39999389648</ele>
        <time>2022-05-26T08:51:21.000Z</time>
      </trkpt>
      <trkpt lat="44.34503" lon="1.51236">
        <ele>273.39999389648</ele>
        <time>2022-05-26T08:51:27.000Z</time>
      </trkpt>
      <trkpt lat="44.34513" lon="1.51214">
        <ele>273</ele>
        <time>2022-05-26T08:51:32.000Z</time>
      </trkpt>
      <trkpt lat="44.34521" lon="1.51181">
        <ele>273</ele>
        <time>2022-05-26T08:51:37.000Z</time>
      </trkpt>
      <trkpt lat="44.34525" lon="1.51166">
        <ele>273</ele>
        <time>2022-05-26T08:51:39.000Z</time>
      </trkpt>
      <trkpt lat="44.34528" lon="1.5115">
        <ele>273</ele>
        <time>2022-05-26T08:51:42.000Z</time>
      </trkpt>
      <trkpt lat="44.3454" lon="1.51143">
        <ele>273.20001220703</ele>
        <time>2022-05-26T08:51:46.000Z</time>
      </trkpt>
      <trkpt lat="44.34551" lon="1.5113">
        <ele>273.60000610352</ele>
        <time>2022-05-26T08:51:51.000Z</time>
      </trkpt>
      <trkpt lat="44.34568" lon="1.51103">
        <ele>274</ele>
        <time>2022-05-26T08:51:56.000Z</time>
      </trkpt>
      <trkpt lat="44.34572" lon="1.51093">
        <ele>274</ele>
        <time>2022-05-26T08:51:58.000Z</time>
      </trkpt>
      <trkpt lat="44.34577" lon="1.51082">
        <ele>274</ele>
        <time>2022-05-26T08:52:00.000Z</time>
      </trkpt>
      <trkpt lat="44.34587" lon="1.51059">
        <ele>274.20001220703</ele>
        <time>2022-05-26T08:52:04.000Z</time>
      </trkpt>
      <trkpt lat="44.34592" lon="1.51046">
        <ele>274.20001220703</ele>
        <time>2022-05-26T08:52:06.000Z</time>
      </trkpt>
      <trkpt lat="44.34605" lon="1.51015">
        <ele>274.20001220703</ele>
        <time>2022-05-26T08:52:11.000Z</time>
      </trkpt>
      <trkpt lat="44.34611" lon="1.51003">
        <ele>274.20001220703</ele>
        <time>2022-05-26T08:52:13.000Z</time>
      </trkpt>
      <trkpt lat="44.34633" lon="1.50962">
        <ele>274.20001220703</ele>
        <time>2022-05-26T08:52:21.000Z</time>
      </trkpt>
      <trkpt lat="44.34654" lon="1.50922">
        <ele>274</ele>
        <time>2022-05-26T08:52:29.000Z</time>
      </trkpt>
      <trkpt lat="44.3466" lon="1.50909">
        <ele>273.79998779297</ele>
        <time>2022-05-26T08:52:31.000Z</time>
      </trkpt>
      <trkpt lat="44.34669" lon="1.50894">
        <ele>273.79998779297</ele>
        <time>2022-05-26T08:52:34.000Z</time>
      </trkpt>
      <trkpt lat="44.34682" lon="1.50868">
        <ele>273.20001220703</ele>
        <time>2022-05-26T08:52:39.000Z</time>
      </trkpt>
      <trkpt lat="44.34688" lon="1.50845">
        <ele>272.79998779297</ele>
        <time>2022-05-26T08:52:44.000Z</time>
      </trkpt>
      <trkpt lat="44.34697" lon="1.50808">
        <ele>272.60000610352</ele>
        <time>2022-05-26T08:52:50.000Z</time>
      </trkpt>
      <trkpt lat="44.34702" lon="1.50788">
        <ele>272.60000610352</ele>
        <time>2022-05-26T08:52:53.000Z</time>
      </trkpt>
      <trkpt lat="44.34704" lon="1.50776">
        <ele>272.79998779297</ele>
        <time>2022-05-26T08:52:55.000Z</time>
      </trkpt>
      <trkpt lat="44.34707" lon="1.50765">
        <ele>273</ele>
        <time>2022-05-26T08:52:57.000Z</time>
      </trkpt>
      <trkpt lat="44.34715" lon="1.50728">
        <ele>273.20001220703</ele>
        <time>2022-05-26T08:53:03.000Z</time>
      </trkpt>
      <trkpt lat="44.34724" lon="1.50694">
        <ele>273.20001220703</ele>
        <time>2022-05-26T08:53:08.000Z</time>
      </trkpt>
      <trkpt lat="44.34727" lon="1.5067">
        <ele>273</ele>
        <time>2022-05-26T08:53:12.000Z</time>
      </trkpt>
      <trkpt lat="44.34729" lon="1.50664">
        <ele>273</ele>
        <time>2022-05-26T08:53:13.000Z</time>
      </trkpt>
      <trkpt lat="44.34736" lon="1.50648">
        <ele>272.60000610352</ele>
        <time>2022-05-26T08:53:16.000Z</time>
      </trkpt>
      <trkpt lat="44.3474" lon="1.5063">
        <ele>272.20001220703</ele>
        <time>2022-05-26T08:53:19.000Z</time>
      </trkpt>
      <trkpt lat="44.34744" lon="1.50617">
        <ele>272.39999389648</ele>
        <time>2022-05-26T08:53:21.000Z</time>
      </trkpt>
      <trkpt lat="44.34754" lon="1.50589">
        <ele>272.20001220703</ele>
        <time>2022-05-26T08:53:26.000Z</time>
      </trkpt>
      <trkpt lat="44.34759" lon="1.50568">
        <ele>272</ele>
        <time>2022-05-26T08:53:30.000Z</time>
      </trkpt>
      <trkpt lat="44.34766" lon="1.50546">
        <ele>271.79998779297</ele>
        <time>2022-05-26T08:53:35.000Z</time>
      </trkpt>
      <trkpt lat="44.34767" lon="1.50543">
        <ele>271.79998779297</ele>
        <time>2022-05-26T08:53:36.000Z</time>
      </trkpt>
      <trkpt lat="44.3477" lon="1.50529">
        <ele>271.79998779297</ele>
        <time>2022-05-26T08:53:39.000Z</time>
      </trkpt>
      <trkpt lat="44.34773" lon="1.50509">
        <ele>271.39999389648</ele>
        <time>2022-05-26T08:53:43.000Z</time>
      </trkpt>
      <trkpt lat="44.34779" lon="1.50478">
        <ele>271.20001220703</ele>
        <time>2022-05-26T08:53:48.000Z</time>
      </trkpt>
      <trkpt lat="44.34781" lon="1.50461">
        <ele>271</ele>
        <time>2022-05-26T08:53:51.000Z</time>
      </trkpt>
      <trkpt lat="44.34783" lon="1.50452">
        <ele>270.79998779297</ele>
        <time>2022-05-26T08:53:53.000Z</time>
      </trkpt>
      <trkpt lat="44.34788" lon="1.50418">
        <ele>270.60000610352</ele>
        <time>2022-05-26T08:54:00.000Z</time>
      </trkpt>
      <trkpt lat="44.34792" lon="1.50387">
        <ele>270.60000610352</ele>
        <time>2022-05-26T08:54:06.000Z</time>
      </trkpt>
      <trkpt lat="44.34794" lon="1.50362">
        <ele>270</ele>
        <time>2022-05-26T08:54:12.000Z</time>
      </trkpt>
      <trkpt lat="44.34794" lon="1.50358">
        <ele>269.79998779297</ele>
        <time>2022-05-26T08:54:13.000Z</time>
      </trkpt>
      <trkpt lat="44.34794" lon="1.5034">
        <ele>269.60000610352</ele>
        <time>2022-05-26T08:54:17.000Z</time>
      </trkpt>
      <trkpt lat="44.34787" lon="1.50303">
        <ele>269.79998779297</ele>
        <time>2022-05-26T08:54:23.000Z</time>
      </trkpt>
      <trkpt lat="44.34775" lon="1.50269">
        <ele>270</ele>
        <time>2022-05-26T08:54:29.000Z</time>
      </trkpt>
      <trkpt lat="44.34773" lon="1.50264">
        <ele>270</ele>
        <time>2022-05-26T08:54:30.000Z</time>
      </trkpt>
      <trkpt lat="44.34772" lon="1.50258">
        <ele>270</ele>
        <time>2022-05-26T08:54:31.000Z</time>
      </trkpt>
      <trkpt lat="44.34767" lon="1.50236">
        <ele>270.20001220703</ele>
        <time>2022-05-26T08:54:35.000Z</time>
      </trkpt>
      <trkpt lat="44.34765" lon="1.50207">
        <ele>270.39999389648</ele>
        <time>2022-05-26T08:54:40.000Z</time>
      </trkpt>
      <trkpt lat="44.34762" lon="1.50161">
        <ele>270.79998779297</ele>
        <time>2022-05-26T08:54:46.000Z</time>
      </trkpt>
      <trkpt lat="44.34759" lon="1.50138">
        <ele>270.79998779297</ele>
        <time>2022-05-26T08:54:49.000Z</time>
      </trkpt>
      <trkpt lat="44.34758" lon="1.50131">
        <ele>270.79998779297</ele>
        <time>2022-05-26T08:54:50.000Z</time>
      </trkpt>
      <trkpt lat="44.34754" lon="1.501">
        <ele>271.20001220703</ele>
        <time>2022-05-26T08:54:55.000Z</time>
      </trkpt>
      <trkpt lat="44.34749" lon="1.50074">
        <ele>271.79998779297</ele>
        <time>2022-05-26T08:55:01.000Z</time>
      </trkpt>
      <trkpt lat="44.34748" lon="1.5007">
        <ele>272</ele>
        <time>2022-05-26T08:55:02.000Z</time>
      </trkpt>
      <trkpt lat="44.34744" lon="1.50054">
        <ele>273.20001220703</ele>
        <time>2022-05-26T08:55:06.000Z</time>
      </trkpt>
      <trkpt lat="44.34741" lon="1.50037">
        <ele>273.60000610352</ele>
        <time>2022-05-26T08:55:10.000Z</time>
      </trkpt>
      <trkpt lat="44.34738" lon="1.50023">
        <ele>273.60000610352</ele>
        <time>2022-05-26T08:55:15.000Z</time>
      </trkpt>
      <trkpt lat="44.34726" lon="1.5002">
        <ele>273.60000610352</ele>
        <time>2022-05-26T08:55:19.000Z</time>
      </trkpt>
      <trkpt lat="44.34705" lon="1.50021">
        <ele>273.79998779297</ele>
        <time>2022-05-26T08:55:24.000Z</time>
      </trkpt>
      <trkpt lat="44.34677" lon="1.50029">
        <ele>273.79998779297</ele>
        <time>2022-05-26T08:55:30.000Z</time>
      </trkpt>
      <trkpt lat="44.34677" lon="1.50029">
        <ele>273.79998779297</ele>
        <time>2022-05-26T08:55:31.000Z</time>
      </trkpt>
      <trkpt lat="44.34655" lon="1.5004">
        <ele>273.79998779297</ele>
        <time>2022-05-26T08:55:35.000Z</time>
      </trkpt>
      <trkpt lat="44.3464" lon="1.5005">
        <ele>273.39999389648</ele>
        <time>2022-05-26T08:55:38.000Z</time>
      </trkpt>
      <trkpt lat="44.34623" lon="1.50068">
        <ele>272.79998779297</ele>
        <time>2022-05-26T08:55:42.000Z</time>
      </trkpt>
      <trkpt lat="44.34618" lon="1.50074">
        <ele>272.20001220703</ele>
        <time>2022-05-26T08:55:44.000Z</time>
      </trkpt>
      <trkpt lat="44.34612" lon="1.50085">
        <ele>271.79998779297</ele>
        <time>2022-05-26T08:55:45.000Z</time>
      </trkpt>
      <trkpt lat="44.34601" lon="1.50102">
        <ele>270.79998779297</ele>
        <time>2022-05-26T08:55:48.000Z</time>
      </trkpt>
      <trkpt lat="44.34593" lon="1.50109">
        <ele>269</ele>
        <time>2022-05-26T08:55:50.000Z</time>
      </trkpt>
      <trkpt lat="44.34581" lon="1.50113">
        <ele>267.39999389648</ele>
        <time>2022-05-26T08:55:52.000Z</time>
      </trkpt>
      <trkpt lat="44.34574" lon="1.50112">
        <ele>266.79998779297</ele>
        <time>2022-05-26T08:55:53.000Z</time>
      </trkpt>
      <trkpt lat="44.34568" lon="1.5011">
        <ele>265.79998779297</ele>
        <time>2022-05-26T08:55:54.000Z</time>
      </trkpt>
      <trkpt lat="44.34556" lon="1.50105">
        <ele>264.60000610352</ele>
        <time>2022-05-26T08:55:56.000Z</time>
      </trkpt>
      <trkpt lat="44.34551" lon="1.50104">
        <ele>263.79998779297</ele>
        <time>2022-05-26T08:55:57.000Z</time>
      </trkpt>
      <trkpt lat="44.34547" lon="1.50104">
        <ele>263.60000610352</ele>
        <time>2022-05-26T08:55:58.000Z</time>
      </trkpt>
      <trkpt lat="44.34543" lon="1.50107">
        <ele>263</ele>
        <time>2022-05-26T08:55:59.000Z</time>
      </trkpt>
      <trkpt lat="44.34538" lon="1.50117">
        <ele>262.39999389648</ele>
        <time>2022-05-26T08:56:01.000Z</time>
      </trkpt>
      <trkpt lat="44.34536" lon="1.50129">
        <ele>262</ele>
        <time>2022-05-26T08:56:03.000Z</time>
      </trkpt>
      <trkpt lat="44.34535" lon="1.50151">
        <ele>261.60000610352</ele>
        <time>2022-05-26T08:56:06.000Z</time>
      </trkpt>
      <trkpt lat="44.34535" lon="1.50159">
        <ele>261.39999389648</ele>
        <time>2022-05-26T08:56:07.000Z</time>
      </trkpt>
      <trkpt lat="44.34532" lon="1.50194">
        <ele>261</ele>
        <time>2022-05-26T08:56:11.000Z</time>
      </trkpt>
      <trkpt lat="44.34524" lon="1.50229">
        <ele>260</ele>
        <time>2022-05-26T08:56:15.000Z</time>
      </trkpt>
      <trkpt lat="44.34522" lon="1.50237">
        <ele>259.79998779297</ele>
        <time>2022-05-26T08:56:16.000Z</time>
      </trkpt>
      <trkpt lat="44.34511" lon="1.50259">
        <ele>259.39999389648</ele>
        <time>2022-05-26T08:56:19.000Z</time>
      </trkpt>
      <trkpt lat="44.34511" lon="1.50259">
        <ele>259.20001220703</ele>
        <time>2022-05-26T08:56:20.000Z</time>
      </trkpt>
      <trkpt lat="44.34502" lon="1.50266">
        <ele>259</ele>
        <time>2022-05-26T08:56:21.000Z</time>
      </trkpt>
      <trkpt lat="44.34497" lon="1.50268">
        <ele>259</ele>
        <time>2022-05-26T08:56:22.000Z</time>
      </trkpt>
      <trkpt lat="44.34492" lon="1.50268">
        <ele>258.79998779297</ele>
        <time>2022-05-26T08:56:23.000Z</time>
      </trkpt>
      <trkpt lat="44.34487" lon="1.50264">
        <ele>258.79998779297</ele>
        <time>2022-05-26T08:56:25.000Z</time>
      </trkpt>
      <trkpt lat="44.34485" lon="1.50258">
        <ele>258.79998779297</ele>
        <time>2022-05-26T08:56:27.000Z</time>
      </trkpt>
      <trkpt lat="44.34485" lon="1.50254">
        <ele>258.79998779297</ele>
        <time>2022-05-26T08:56:28.000Z</time>
      </trkpt>
      <trkpt lat="44.34487" lon="1.50244">
        <ele>259</ele>
        <time>2022-05-26T08:56:31.000Z</time>
      </trkpt>
      <trkpt lat="44.3449" lon="1.50229">
        <ele>260</ele>
        <time>2022-05-26T08:56:35.000Z</time>
      </trkpt>
      <trkpt lat="44.34494" lon="1.50206">
        <ele>261.20001220703</ele>
        <time>2022-05-26T08:56:40.000Z</time>
      </trkpt>
      <trkpt lat="44.34496" lon="1.50192">
        <ele>261.79998779297</ele>
        <time>2022-05-26T08:56:43.000Z</time>
      </trkpt>
      <trkpt lat="44.34498" lon="1.50179">
        <ele>262.20001220703</ele>
        <time>2022-05-26T08:56:46.000Z</time>
      </trkpt>
      <trkpt lat="44.34503" lon="1.50153">
        <ele>263.20001220703</ele>
        <time>2022-05-26T08:56:52.000Z</time>
      </trkpt>
      <trkpt lat="44.34506" lon="1.5013">
        <ele>264.39999389648</ele>
        <time>2022-05-26T08:56:58.000Z</time>
      </trkpt>
      <trkpt lat="44.34508" lon="1.50118">
        <ele>264.79998779297</ele>
        <time>2022-05-26T08:57:01.000Z</time>
      </trkpt>
      <trkpt lat="44.34509" lon="1.50103">
        <ele>265.39999389648</ele>
        <time>2022-05-26T08:57:05.000Z</time>
      </trkpt>
      <trkpt lat="44.34511" lon="1.50082">
        <ele>266.60000610352</ele>
        <time>2022-05-26T08:57:10.000Z</time>
      </trkpt>
      <trkpt lat="44.34511" lon="1.50074">
        <ele>266.79998779297</ele>
        <time>2022-05-26T08:57:12.000Z</time>
      </trkpt>
      <trkpt lat="44.34511" lon="1.50045">
        <ele>267.60000610352</ele>
        <time>2022-05-26T08:57:19.000Z</time>
      </trkpt>
      <trkpt lat="44.34511" lon="1.50029">
        <ele>268</ele>
        <time>2022-05-26T08:57:23.000Z</time>
      </trkpt>
      <trkpt lat="44.3451" lon="1.50017">
        <ele>269</ele>
        <time>2022-05-26T08:57:26.000Z</time>
      </trkpt>
      <trkpt lat="44.34508" lon="1.49992">
        <ele>270</ele>
        <time>2022-05-26T08:57:32.000Z</time>
      </trkpt>
      <trkpt lat="44.34506" lon="1.49969">
        <ele>270.39999389648</ele>
        <time>2022-05-26T08:57:37.000Z</time>
      </trkpt>
      <trkpt lat="44.34505" lon="1.4995">
        <ele>270.79998779297</ele>
        <time>2022-05-26T08:57:41.000Z</time>
      </trkpt>
      <trkpt lat="44.34504" lon="1.49937">
        <ele>271.20001220703</ele>
        <time>2022-05-26T08:57:44.000Z</time>
      </trkpt>
      <trkpt lat="44.34504" lon="1.49924">
        <ele>271.39999389648</ele>
        <time>2022-05-26T08:57:47.000Z</time>
      </trkpt>
      <trkpt lat="44.34503" lon="1.49914">
        <ele>271.39999389648</ele>
        <time>2022-05-26T08:57:49.000Z</time>
      </trkpt>
      <trkpt lat="44.34503" lon="1.49876">
        <ele>271.39999389648</ele>
        <time>2022-05-26T08:57:55.000Z</time>
      </trkpt>
      <trkpt lat="44.34511" lon="1.49836">
        <ele>271.20001220703</ele>
        <time>2022-05-26T08:58:02.000Z</time>
      </trkpt>
      <trkpt lat="44.34517" lon="1.49818">
        <ele>271.20001220703</ele>
        <time>2022-05-26T08:58:06.000Z</time>
      </trkpt>
      <trkpt lat="44.34523" lon="1.49807">
        <ele>271</ele>
        <time>2022-05-26T08:58:09.000Z</time>
      </trkpt>
      <trkpt lat="44.34546" lon="1.49772">
        <ele>271</ele>
        <time>2022-05-26T08:58:18.000Z</time>
      </trkpt>
      <trkpt lat="44.34552" lon="1.49762">
        <ele>271</ele>
        <time>2022-05-26T08:58:20.000Z</time>
      </trkpt>
      <trkpt lat="44.34571" lon="1.49727">
        <ele>271.39999389648</ele>
        <time>2022-05-26T08:58:27.000Z</time>
      </trkpt>
      <trkpt lat="44.34574" lon="1.49722">
        <ele>271.39999389648</ele>
        <time>2022-05-26T08:58:28.000Z</time>
      </trkpt>
      <trkpt lat="44.34582" lon="1.49698">
        <ele>271.39999389648</ele>
        <time>2022-05-26T08:58:33.000Z</time>
      </trkpt>
      <trkpt lat="44.34593" lon="1.49686">
        <ele>271</ele>
        <time>2022-05-26T08:58:37.000Z</time>
      </trkpt>
      <trkpt lat="44.34608" lon="1.49682">
        <ele>270.60000610352</ele>
        <time>2022-05-26T08:58:41.000Z</time>
      </trkpt>
      <trkpt lat="44.34612" lon="1.4968">
        <ele>270.60000610352</ele>
        <time>2022-05-26T08:58:42.000Z</time>
      </trkpt>
      <trkpt lat="44.34616" lon="1.49676">
        <ele>270.39999389648</ele>
        <time>2022-05-26T08:58:43.000Z</time>
      </trkpt>
      <trkpt lat="44.3462" lon="1.49673">
        <ele>270.20001220703</ele>
        <time>2022-05-26T08:58:44.000Z</time>
      </trkpt>
      <trkpt lat="44.3463" lon="1.49668">
        <ele>269.79998779297</ele>
        <time>2022-05-26T08:58:46.000Z</time>
      </trkpt>
      <trkpt lat="44.3464" lon="1.49663">
        <ele>269.20001220703</ele>
        <time>2022-05-26T08:58:48.000Z</time>
      </trkpt>
      <trkpt lat="44.34645" lon="1.49661">
        <ele>269.20001220703</ele>
        <time>2022-05-26T08:58:49.000Z</time>
      </trkpt>
      <trkpt lat="44.34653" lon="1.49652">
        <ele>268.79998779297</ele>
        <time>2022-05-26T08:58:51.000Z</time>
      </trkpt>
      <trkpt lat="44.34659" lon="1.4964">
        <ele>268.20001220703</ele>
        <time>2022-05-26T08:58:53.000Z</time>
      </trkpt>
      <trkpt lat="44.34672" lon="1.49614">
        <ele>267.60000610352</ele>
        <time>2022-05-26T08:58:57.000Z</time>
      </trkpt>
      <trkpt lat="44.34676" lon="1.49608">
        <ele>267.39999389648</ele>
        <time>2022-05-26T08:58:58.000Z</time>
      </trkpt>
      <trkpt lat="44.34684" lon="1.49595">
        <ele>267.20001220703</ele>
        <time>2022-05-26T08:59:00.000Z</time>
      </trkpt>
      <trkpt lat="44.34697" lon="1.49575">
        <ele>266.20001220703</ele>
        <time>2022-05-26T08:59:03.000Z</time>
      </trkpt>
      <trkpt lat="44.34705" lon="1.49562">
        <ele>265.79998779297</ele>
        <time>2022-05-26T08:59:05.000Z</time>
      </trkpt>
      <trkpt lat="44.34728" lon="1.49531">
        <ele>265</ele>
        <time>2022-05-26T08:59:10.000Z</time>
      </trkpt>
      <trkpt lat="44.34742" lon="1.49513">
        <ele>264</ele>
        <time>2022-05-26T08:59:13.000Z</time>
      </trkpt>
      <trkpt lat="44.34763" lon="1.49491">
        <ele>263</ele>
        <time>2022-05-26T08:59:17.000Z</time>
      </trkpt>
      <trkpt lat="44.34774" lon="1.49479">
        <ele>262.39999389648</ele>
        <time>2022-05-26T08:59:19.000Z</time>
      </trkpt>
      <trkpt lat="44.34789" lon="1.49464">
        <ele>261.79998779297</ele>
        <time>2022-05-26T08:59:22.000Z</time>
      </trkpt>
      <trkpt lat="44.34812" lon="1.49441">
        <ele>260.79998779297</ele>
        <time>2022-05-26T08:59:27.000Z</time>
      </trkpt>
      <trkpt lat="44.34817" lon="1.49436">
        <ele>260.79998779297</ele>
        <time>2022-05-26T08:59:28.000Z</time>
      </trkpt>
      <trkpt lat="44.34817" lon="1.49436">
        <ele>260.60000610352</ele>
        <time>2022-05-26T08:59:29.000Z</time>
      </trkpt>
      <trkpt lat="44.34824" lon="1.49425">
        <ele>260.60000610352</ele>
        <time>2022-05-26T08:59:30.000Z</time>
      </trkpt>
      <trkpt lat="44.3483" lon="1.49411">
        <ele>260</ele>
        <time>2022-05-26T08:59:32.000Z</time>
      </trkpt>
      <trkpt lat="44.34834" lon="1.49398">
        <ele>259.60000610352</ele>
        <time>2022-05-26T08:59:34.000Z</time>
      </trkpt>
      <trkpt lat="44.34843" lon="1.49376">
        <ele>258.79998779297</ele>
        <time>2022-05-26T08:59:37.000Z</time>
      </trkpt>
      <trkpt lat="44.34847" lon="1.49371">
        <ele>258.60000610352</ele>
        <time>2022-05-26T08:59:38.000Z</time>
      </trkpt>
      <trkpt lat="44.34847" lon="1.49371">
        <ele>258.39999389648</ele>
        <time>2022-05-26T08:59:39.000Z</time>
      </trkpt>
      <trkpt lat="44.34867" lon="1.49346">
        <ele>257.60000610352</ele>
        <time>2022-05-26T08:59:45.000Z</time>
      </trkpt>
      <trkpt lat="44.34883" lon="1.49329">
        <ele>257</ele>
        <time>2022-05-26T08:59:50.000Z</time>
      </trkpt>
      <trkpt lat="44.34889" lon="1.49322">
        <ele>257</ele>
        <time>2022-05-26T08:59:52.000Z</time>
      </trkpt>
      <trkpt lat="44.34909" lon="1.49292">
        <ele>257.60000610352</ele>
        <time>2022-05-26T09:00:00.000Z</time>
      </trkpt>
      <trkpt lat="44.34934" lon="1.49251">
        <ele>257.60000610352</ele>
        <time>2022-05-26T09:00:10.000Z</time>
      </trkpt>
      <trkpt lat="44.34939" lon="1.49243">
        <ele>257.60000610352</ele>
        <time>2022-05-26T09:00:11.000Z</time>
      </trkpt>
      <trkpt lat="44.34967" lon="1.49201">
        <ele>256.79998779297</ele>
        <time>2022-05-26T09:00:21.000Z</time>
      </trkpt>
      <trkpt lat="44.34988" lon="1.49173">
        <ele>257</ele>
        <time>2022-05-26T09:00:29.000Z</time>
      </trkpt>
      <trkpt lat="44.34993" lon="1.49166">
        <ele>257.20001220703</ele>
        <time>2022-05-26T09:00:31.000Z</time>
      </trkpt>
      <trkpt lat="44.3501" lon="1.49141">
        <ele>258.39999389648</ele>
        <time>2022-05-26T09:00:38.000Z</time>
      </trkpt>
      <trkpt lat="44.35026" lon="1.49112">
        <ele>259.60000610352</ele>
        <time>2022-05-26T09:00:45.000Z</time>
      </trkpt>
      <trkpt lat="44.35036" lon="1.49089">
        <ele>260.20001220703</ele>
        <time>2022-05-26T09:00:50.000Z</time>
      </trkpt>
      <trkpt lat="44.35038" lon="1.49085">
        <ele>260.60000610352</ele>
        <time>2022-05-26T09:00:51.000Z</time>
      </trkpt>
      <trkpt lat="44.35056" lon="1.49041">
        <ele>260.60000610352</ele>
        <time>2022-05-26T09:01:00.000Z</time>
      </trkpt>
      <trkpt lat="44.35067" lon="1.48995">
        <ele>259.79998779297</ele>
        <time>2022-05-26T09:01:06.000Z</time>
      </trkpt>
      <trkpt lat="44.3507" lon="1.48987">
        <ele>259.39999389648</ele>
        <time>2022-05-26T09:01:07.000Z</time>
      </trkpt>
      <trkpt lat="44.35083" lon="1.48955">
        <ele>258.60000610352</ele>
        <time>2022-05-26T09:01:12.000Z</time>
      </trkpt>
      <trkpt lat="44.35087" lon="1.48944">
        <ele>258.20001220703</ele>
        <time>2022-05-26T09:01:14.000Z</time>
      </trkpt>
      <trkpt lat="44.35097" lon="1.48923">
        <ele>258.20001220703</ele>
        <time>2022-05-26T09:01:18.000Z</time>
      </trkpt>
      <trkpt lat="44.35117" lon="1.48884">
        <ele>259</ele>
        <time>2022-05-26T09:01:27.000Z</time>
      </trkpt>
      <trkpt lat="44.35119" lon="1.48879">
        <ele>259.39999389648</ele>
        <time>2022-05-26T09:01:28.000Z</time>
      </trkpt>
      <trkpt lat="44.35129" lon="1.48859">
        <ele>260.60000610352</ele>
        <time>2022-05-26T09:01:33.000Z</time>
      </trkpt>
      <trkpt lat="44.35134" lon="1.48849">
        <ele>261</ele>
        <time>2022-05-26T09:01:36.000Z</time>
      </trkpt>
      <trkpt lat="44.35139" lon="1.4884">
        <ele>261.79998779297</ele>
        <time>2022-05-26T09:01:39.000Z</time>
      </trkpt>
      <trkpt lat="44.35146" lon="1.48825">
        <ele>262.39999389648</ele>
        <time>2022-05-26T09:01:43.000Z</time>
      </trkpt>
      <trkpt lat="44.35151" lon="1.48815">
        <ele>263</ele>
        <time>2022-05-26T09:01:46.000Z</time>
      </trkpt>
      <trkpt lat="44.3516" lon="1.48798">
        <ele>264.20001220703</ele>
        <time>2022-05-26T09:01:51.000Z</time>
      </trkpt>
      <trkpt lat="44.35162" lon="1.48794">
        <ele>264.39999389648</ele>
        <time>2022-05-26T09:01:52.000Z</time>
      </trkpt>
      <trkpt lat="44.35168" lon="1.48779">
        <ele>265.20001220703</ele>
        <time>2022-05-26T09:01:56.000Z</time>
      </trkpt>
      <trkpt lat="44.3518" lon="1.48755">
        <ele>265.79998779297</ele>
        <time>2022-05-26T09:02:02.000Z</time>
      </trkpt>
      <trkpt lat="44.35193" lon="1.48727">
        <ele>266.20001220703</ele>
        <time>2022-05-26T09:02:08.000Z</time>
      </trkpt>
      <trkpt lat="44.35197" lon="1.48716">
        <ele>266.20001220703</ele>
        <time>2022-05-26T09:02:10.000Z</time>
      </trkpt>
      <trkpt lat="44.35205" lon="1.4869">
        <ele>266.39999389648</ele>
        <time>2022-05-26T09:02:14.000Z</time>
      </trkpt>
      <trkpt lat="44.35219" lon="1.48641">
        <ele>265.39999389648</ele>
        <time>2022-05-26T09:02:21.000Z</time>
      </trkpt>
      <trkpt lat="44.35223" lon="1.48626">
        <ele>265</ele>
        <time>2022-05-26T09:02:23.000Z</time>
      </trkpt>
      <trkpt lat="44.35232" lon="1.48595">
        <ele>263.79998779297</ele>
        <time>2022-05-26T09:02:27.000Z</time>
      </trkpt>
      <trkpt lat="44.35234" lon="1.48587">
        <ele>263.20001220703</ele>
        <time>2022-05-26T09:02:28.000Z</time>
      </trkpt>
      <trkpt lat="44.3524" lon="1.48571">
        <ele>262.20001220703</ele>
        <time>2022-05-26T09:02:30.000Z</time>
      </trkpt>
      <trkpt lat="44.35247" lon="1.48556">
        <ele>261.60000610352</ele>
        <time>2022-05-26T09:02:32.000Z</time>
      </trkpt>
      <trkpt lat="44.35251" lon="1.48549">
        <ele>261.39999389648</ele>
        <time>2022-05-26T09:02:33.000Z</time>
      </trkpt>
      <trkpt lat="44.35255" lon="1.48543">
        <ele>260.79998779297</ele>
        <time>2022-05-26T09:02:34.000Z</time>
      </trkpt>
      <trkpt lat="44.35266" lon="1.48524">
        <ele>260</ele>
        <time>2022-05-26T09:02:37.000Z</time>
      </trkpt>
      <trkpt lat="44.35273" lon="1.48514">
        <ele>259.79998779297</ele>
        <time>2022-05-26T09:02:39.000Z</time>
      </trkpt>
      <trkpt lat="44.35281" lon="1.48501">
        <ele>259.60000610352</ele>
        <time>2022-05-26T09:02:42.000Z</time>
      </trkpt>
      <trkpt lat="44.35287" lon="1.48493">
        <ele>259.39999389648</ele>
        <time>2022-05-26T09:02:44.000Z</time>
      </trkpt>
      <trkpt lat="44.35297" lon="1.48484">
        <ele>259.60000610352</ele>
        <time>2022-05-26T09:02:47.000Z</time>
      </trkpt>
      <trkpt lat="44.3531" lon="1.48477">
        <ele>260</ele>
        <time>2022-05-26T09:02:50.000Z</time>
      </trkpt>
      <trkpt lat="44.3535" lon="1.48461">
        <ele>260.60000610352</ele>
        <time>2022-05-26T09:03:00.000Z</time>
      </trkpt>
      <trkpt lat="44.35376" lon="1.48448">
        <ele>260.79998779297</ele>
        <time>2022-05-26T09:03:07.000Z</time>
      </trkpt>
      <trkpt lat="44.35379" lon="1.48445">
        <ele>260.79998779297</ele>
        <time>2022-05-26T09:03:08.000Z</time>
      </trkpt>
      <trkpt lat="44.35405" lon="1.48416">
        <ele>261.39999389648</ele>
        <time>2022-05-26T09:03:16.000Z</time>
      </trkpt>
      <trkpt lat="44.3543" lon="1.48387">
        <ele>261.60000610352</ele>
        <time>2022-05-26T09:03:24.000Z</time>
      </trkpt>
      <trkpt lat="44.35434" lon="1.48383">
        <ele>261.79998779297</ele>
        <time>2022-05-26T09:03:25.000Z</time>
      </trkpt>
      <trkpt lat="44.35457" lon="1.48354">
        <ele>262.39999389648</ele>
        <time>2022-05-26T09:03:33.000Z</time>
      </trkpt>
      <trkpt lat="44.35464" lon="1.48344">
        <ele>262.79998779297</ele>
        <time>2022-05-26T09:03:36.000Z</time>
      </trkpt>
      <trkpt lat="44.3548" lon="1.48324">
        <ele>263.39999389648</ele>
        <time>2022-05-26T09:03:42.000Z</time>
      </trkpt>
      <trkpt lat="44.35489" lon="1.48313">
        <ele>264</ele>
        <time>2022-05-26T09:03:46.000Z</time>
      </trkpt>
      <trkpt lat="44.35494" lon="1.48308">
        <ele>264.79998779297</ele>
        <time>2022-05-26T09:03:48.000Z</time>
      </trkpt>
      <trkpt lat="44.35505" lon="1.483">
        <ele>265.39999389648</ele>
        <time>2022-05-26T09:03:52.000Z</time>
      </trkpt>
      <trkpt lat="44.35515" lon="1.48293">
        <ele>265.79998779297</ele>
        <time>2022-05-26T09:03:56.000Z</time>
      </trkpt>
      <trkpt lat="44.35526" lon="1.48279">
        <ele>265.79998779297</ele>
        <time>2022-05-26T09:04:01.000Z</time>
      </trkpt>
      <trkpt lat="44.35536" lon="1.48256">
        <ele>266</ele>
        <time>2022-05-26T09:04:07.000Z</time>
      </trkpt>
      <trkpt lat="44.35547" lon="1.48218">
        <ele>265.79998779297</ele>
        <time>2022-05-26T09:04:15.000Z</time>
      </trkpt>
      <trkpt lat="44.35559" lon="1.48172">
        <ele>265.39999389648</ele>
        <time>2022-05-26T09:04:23.000Z</time>
      </trkpt>
      <trkpt lat="44.35565" lon="1.48138">
        <ele>265.39999389648</ele>
        <time>2022-05-26T09:04:28.000Z</time>
      </trkpt>
      <trkpt lat="44.35566" lon="1.48122">
        <ele>265</ele>
        <time>2022-05-26T09:04:30.000Z</time>
      </trkpt>
      <trkpt lat="44.35567" lon="1.48076">
        <ele>264</ele>
        <time>2022-05-26T09:04:35.000Z</time>
      </trkpt>
      <trkpt lat="44.35567" lon="1.48067">
        <ele>263.79998779297</ele>
        <time>2022-05-26T09:04:36.000Z</time>
      </trkpt>
      <trkpt lat="44.35566" lon="1.48036">
        <ele>263.20001220703</ele>
        <time>2022-05-26T09:04:39.000Z</time>
      </trkpt>
      <trkpt lat="44.35567" lon="1.48025">
        <ele>263</ele>
        <time>2022-05-26T09:04:40.000Z</time>
      </trkpt>
      <trkpt lat="44.35569" lon="1.48013">
        <ele>262.79998779297</ele>
        <time>2022-05-26T09:04:41.000Z</time>
      </trkpt>
      <trkpt lat="44.35574" lon="1.4799">
        <ele>261.60000610352</ele>
        <time>2022-05-26T09:04:43.000Z</time>
      </trkpt>
      <trkpt lat="44.35583" lon="1.47954">
        <ele>260.60000610352</ele>
        <time>2022-05-26T09:04:46.000Z</time>
      </trkpt>
      <trkpt lat="44.35586" lon="1.47941">
        <ele>260</ele>
        <time>2022-05-26T09:04:47.000Z</time>
      </trkpt>
      <trkpt lat="44.35591" lon="1.47916">
        <ele>259.20001220703</ele>
        <time>2022-05-26T09:04:49.000Z</time>
      </trkpt>
      <trkpt lat="44.35598" lon="1.47878">
        <ele>258</ele>
        <time>2022-05-26T09:04:52.000Z</time>
      </trkpt>
      <trkpt lat="44.35601" lon="1.47865">
        <ele>257.79998779297</ele>
        <time>2022-05-26T09:04:53.000Z</time>
      </trkpt>
      <trkpt lat="44.35609" lon="1.47844">
        <ele>256.79998779297</ele>
        <time>2022-05-26T09:04:55.000Z</time>
      </trkpt>
      <trkpt lat="44.35615" lon="1.47835">
        <ele>255.80000305176</ele>
        <time>2022-05-26T09:04:56.000Z</time>
      </trkpt>
      <trkpt lat="44.3562" lon="1.47828">
        <ele>255.60000610352</ele>
        <time>2022-05-26T09:04:57.000Z</time>
      </trkpt>
      <trkpt lat="44.3563" lon="1.47817">
        <ele>254.39999389648</ele>
        <time>2022-05-26T09:04:59.000Z</time>
      </trkpt>
      <trkpt lat="44.35635" lon="1.47813">
        <ele>254.19999694824</ele>
        <time>2022-05-26T09:05:00.000Z</time>
      </trkpt>
      <trkpt lat="44.35654" lon="1.47794">
        <ele>253.80000305176</ele>
        <time>2022-05-26T09:05:05.000Z</time>
      </trkpt>
      <trkpt lat="44.35658" lon="1.47791">
        <ele>253.80000305176</ele>
        <time>2022-05-26T09:05:06.000Z</time>
      </trkpt>
      <trkpt lat="44.35665" lon="1.47784">
        <ele>254</ele>
        <time>2022-05-26T09:05:08.000Z</time>
      </trkpt>
      <trkpt lat="44.35674" lon="1.47775">
        <ele>254.60000610352</ele>
        <time>2022-05-26T09:05:11.000Z</time>
      </trkpt>
      <trkpt lat="44.35681" lon="1.47769">
        <ele>255.39999389648</ele>
        <time>2022-05-26T09:05:13.000Z</time>
      </trkpt>
      <trkpt lat="44.35684" lon="1.47766">
        <ele>255.60000610352</ele>
        <time>2022-05-26T09:05:14.000Z</time>
      </trkpt>
      <trkpt lat="44.357" lon="1.47751">
        <ele>256.60000610352</ele>
        <time>2022-05-26T09:05:19.000Z</time>
      </trkpt>
      <trkpt lat="44.35702" lon="1.47748">
        <ele>256.60000610352</ele>
        <time>2022-05-26T09:05:20.000Z</time>
      </trkpt>
      <trkpt lat="44.35724" lon="1.4771">
        <ele>257</ele>
        <time>2022-05-26T09:05:27.000Z</time>
      </trkpt>
      <trkpt lat="44.35748" lon="1.47683">
        <ele>256.39999389648</ele>
        <time>2022-05-26T09:05:32.000Z</time>
      </trkpt>
      <trkpt lat="44.35755" lon="1.47676">
        <ele>256.20001220703</ele>
        <time>2022-05-26T09:05:34.000Z</time>
      </trkpt>
      <trkpt lat="44.35765" lon="1.47665">
        <ele>256</ele>
        <time>2022-05-26T09:05:37.000Z</time>
      </trkpt>
      <trkpt lat="44.35785" lon="1.47651">
        <ele>256.39999389648</ele>
        <time>2022-05-26T09:05:43.000Z</time>
      </trkpt>
      <trkpt lat="44.35798" lon="1.47658">
        <ele>257.20001220703</ele>
        <time>2022-05-26T09:05:47.000Z</time>
      </trkpt>
      <trkpt lat="44.35804" lon="1.47662">
        <ele>257.60000610352</ele>
        <time>2022-05-26T09:05:49.000Z</time>
      </trkpt>
      <trkpt lat="44.35816" lon="1.47671">
        <ele>257.79998779297</ele>
        <time>2022-05-26T09:05:53.000Z</time>
      </trkpt>
      <trkpt lat="44.35833" lon="1.47669">
        <ele>257.60000610352</ele>
        <time>2022-05-26T09:05:58.000Z</time>
      </trkpt>
      <trkpt lat="44.35849" lon="1.47647">
        <ele>257</ele>
        <time>2022-05-26T09:06:04.000Z</time>
      </trkpt>
      <trkpt lat="44.35865" lon="1.47621">
        <ele>256.60000610352</ele>
        <time>2022-05-26T09:06:10.000Z</time>
      </trkpt>
      <trkpt lat="44.35868" lon="1.47616">
        <ele>256.39999389648</ele>
        <time>2022-05-26T09:06:11.000Z</time>
      </trkpt>
      <trkpt lat="44.35885" lon="1.47591">
        <ele>256</ele>
        <time>2022-05-26T09:06:16.000Z</time>
      </trkpt>
      <trkpt lat="44.35891" lon="1.47582">
        <ele>255.80000305176</ele>
        <time>2022-05-26T09:06:18.000Z</time>
      </trkpt>
      <trkpt lat="44.35899" lon="1.47569">
        <ele>255.39999389648</ele>
        <time>2022-05-26T09:06:21.000Z</time>
      </trkpt>
      <trkpt lat="44.35907" lon="1.47555">
        <ele>255.39999389648</ele>
        <time>2022-05-26T09:06:24.000Z</time>
      </trkpt>
      <trkpt lat="44.35919" lon="1.47516">
        <ele>255.19999694824</ele>
        <time>2022-05-26T09:06:30.000Z</time>
      </trkpt>
      <trkpt lat="44.35936" lon="1.47478">
        <ele>255</ele>
        <time>2022-05-26T09:06:36.000Z</time>
      </trkpt>
      <trkpt lat="44.35948" lon="1.47456">
        <ele>255.19999694824</ele>
        <time>2022-05-26T09:06:41.000Z</time>
      </trkpt>
      <trkpt lat="44.35959" lon="1.47433">
        <ele>256.39999389648</ele>
        <time>2022-05-26T09:06:47.000Z</time>
      </trkpt>
      <trkpt lat="44.3596" lon="1.47429">
        <ele>256.60000610352</ele>
        <time>2022-05-26T09:06:48.000Z</time>
      </trkpt>
      <trkpt lat="44.35971" lon="1.47406">
        <ele>257.79998779297</ele>
        <time>2022-05-26T09:06:53.000Z</time>
      </trkpt>
      <trkpt lat="44.35975" lon="1.47396">
        <ele>258.20001220703</ele>
        <time>2022-05-26T09:06:55.000Z</time>
      </trkpt>
      <trkpt lat="44.35984" lon="1.47365">
        <ele>259</ele>
        <time>2022-05-26T09:07:00.000Z</time>
      </trkpt>
      <trkpt lat="44.35986" lon="1.47358">
        <ele>259</ele>
        <time>2022-05-26T09:07:01.000Z</time>
      </trkpt>
      <trkpt lat="44.35991" lon="1.4731">
        <ele>259.20001220703</ele>
        <time>2022-05-26T09:07:09.000Z</time>
      </trkpt>
      <trkpt lat="44.35993" lon="1.47279">
        <ele>259</ele>
        <time>2022-05-26T09:07:14.000Z</time>
      </trkpt>
      <trkpt lat="44.35995" lon="1.47264">
        <ele>259</ele>
        <time>2022-05-26T09:07:16.000Z</time>
      </trkpt>
      <trkpt lat="44.36004" lon="1.47245">
        <ele>258.60000610352</ele>
        <time>2022-05-26T09:07:19.000Z</time>
      </trkpt>
      <trkpt lat="44.36008" lon="1.47239">
        <ele>258.20001220703</ele>
        <time>2022-05-26T09:07:20.000Z</time>
      </trkpt>
      <trkpt lat="44.36012" lon="1.47234">
        <ele>257.79998779297</ele>
        <time>2022-05-26T09:07:21.000Z</time>
      </trkpt>
      <trkpt lat="44.36031" lon="1.47214">
        <ele>256.60000610352</ele>
        <time>2022-05-26T09:07:25.000Z</time>
      </trkpt>
      <trkpt lat="44.36036" lon="1.47208">
        <ele>256.20001220703</ele>
        <time>2022-05-26T09:07:26.000Z</time>
      </trkpt>
      <trkpt lat="44.36046" lon="1.47192">
        <ele>255.19999694824</ele>
        <time>2022-05-26T09:07:28.000Z</time>
      </trkpt>
      <trkpt lat="44.36052" lon="1.47183">
        <ele>254.19999694824</ele>
        <time>2022-05-26T09:07:29.000Z</time>
      </trkpt>
      <trkpt lat="44.36057" lon="1.47174">
        <ele>253.39999389648</ele>
        <time>2022-05-26T09:07:30.000Z</time>
      </trkpt>
      <trkpt lat="44.36063" lon="1.47165">
        <ele>253</ele>
        <time>2022-05-26T09:07:31.000Z</time>
      </trkpt>
      <trkpt lat="44.36081" lon="1.47141">
        <ele>251.60000610352</ele>
        <time>2022-05-26T09:07:34.000Z</time>
      </trkpt>
      <trkpt lat="44.36086" lon="1.47135">
        <ele>251.39999389648</ele>
        <time>2022-05-26T09:07:35.000Z</time>
      </trkpt>
      <trkpt lat="44.36094" lon="1.47125">
        <ele>250.39999389648</ele>
        <time>2022-05-26T09:07:37.000Z</time>
      </trkpt>
      <trkpt lat="44.36101" lon="1.47119">
        <ele>250</ele>
        <time>2022-05-26T09:07:39.000Z</time>
      </trkpt>
      <trkpt lat="44.36115" lon="1.47098">
        <ele>250.39999389648</ele>
        <time>2022-05-26T09:07:45.000Z</time>
      </trkpt>
      <trkpt lat="44.36121" lon="1.47083">
        <ele>251.60000610352</ele>
        <time>2022-05-26T09:07:49.000Z</time>
      </trkpt>
      <trkpt lat="44.36126" lon="1.47078">
        <ele>252.80000305176</ele>
        <time>2022-05-26T09:07:51.000Z</time>
      </trkpt>
      <trkpt lat="44.36131" lon="1.47073">
        <ele>253.80000305176</ele>
        <time>2022-05-26T09:07:53.000Z</time>
      </trkpt>
      <trkpt lat="44.36139" lon="1.47066">
        <ele>254.80000305176</ele>
        <time>2022-05-26T09:07:56.000Z</time>
      </trkpt>
      <trkpt lat="44.36145" lon="1.47062">
        <ele>255.39999389648</ele>
        <time>2022-05-26T09:07:58.000Z</time>
      </trkpt>
      <trkpt lat="44.36151" lon="1.47059">
        <ele>255.80000305176</ele>
        <time>2022-05-26T09:08:00.000Z</time>
      </trkpt>
      <trkpt lat="44.36163" lon="1.47051">
        <ele>257.20001220703</ele>
        <time>2022-05-26T09:08:04.000Z</time>
      </trkpt>
      <trkpt lat="44.36177" lon="1.47042">
        <ele>258.20001220703</ele>
        <time>2022-05-26T09:08:08.000Z</time>
      </trkpt>
      <trkpt lat="44.36181" lon="1.47039">
        <ele>258.60000610352</ele>
        <time>2022-05-26T09:08:09.000Z</time>
      </trkpt>
      <trkpt lat="44.362" lon="1.47021">
        <ele>259</ele>
        <time>2022-05-26T09:08:14.000Z</time>
      </trkpt>
      <trkpt lat="44.36208" lon="1.47014">
        <ele>258.79998779297</ele>
        <time>2022-05-26T09:08:16.000Z</time>
      </trkpt>
      <trkpt lat="44.36222" lon="1.47">
        <ele>258.39999389648</ele>
        <time>2022-05-26T09:08:20.000Z</time>
      </trkpt>
      <trkpt lat="44.3625" lon="1.46981">
        <ele>257.79998779297</ele>
        <time>2022-05-26T09:08:28.000Z</time>
      </trkpt>
      <trkpt lat="44.36273" lon="1.46967">
        <ele>257.60000610352</ele>
        <time>2022-05-26T09:08:34.000Z</time>
      </trkpt>
      <trkpt lat="44.36281" lon="1.46962">
        <ele>257.39999389648</ele>
        <time>2022-05-26T09:08:36.000Z</time>
      </trkpt>
      <trkpt lat="44.36288" lon="1.46958">
        <ele>257.39999389648</ele>
        <time>2022-05-26T09:08:38.000Z</time>
      </trkpt>
      <trkpt lat="44.36296" lon="1.46953">
        <ele>257.39999389648</ele>
        <time>2022-05-26T09:08:41.000Z</time>
      </trkpt>
      <trkpt lat="44.36316" lon="1.46944">
        <ele>258</ele>
        <time>2022-05-26T09:08:48.000Z</time>
      </trkpt>
      <trkpt lat="44.36333" lon="1.46936">
        <ele>258.39999389648</ele>
        <time>2022-05-26T09:08:53.000Z</time>
      </trkpt>
      <trkpt lat="44.36359" lon="1.46922">
        <ele>258.20001220703</ele>
        <time>2022-05-26T09:09:00.000Z</time>
      </trkpt>
      <trkpt lat="44.36363" lon="1.46919">
        <ele>258</ele>
        <time>2022-05-26T09:09:01.000Z</time>
      </trkpt>
      <trkpt lat="44.3637" lon="1.4691">
        <ele>257.39999389648</ele>
        <time>2022-05-26T09:09:03.000Z</time>
      </trkpt>
      <trkpt lat="44.36379" lon="1.46899">
        <ele>257</ele>
        <time>2022-05-26T09:09:06.000Z</time>
      </trkpt>
      <trkpt lat="44.36396" lon="1.46878">
        <ele>256.79998779297</ele>
        <time>2022-05-26T09:09:12.000Z</time>
      </trkpt>
      <trkpt lat="44.36414" lon="1.46849">
        <ele>256.60000610352</ele>
        <time>2022-05-26T09:09:18.000Z</time>
      </trkpt>
      <trkpt lat="44.36432" lon="1.46818">
        <ele>257</ele>
        <time>2022-05-26T09:09:25.000Z</time>
      </trkpt>
      <trkpt lat="44.3645" lon="1.46786">
        <ele>257.39999389648</ele>
        <time>2022-05-26T09:09:31.000Z</time>
      </trkpt>
      <trkpt lat="44.36475" lon="1.46743">
        <ele>257.39999389648</ele>
        <time>2022-05-26T09:09:39.000Z</time>
      </trkpt>
      <trkpt lat="44.36478" lon="1.46737">
        <ele>257.39999389648</ele>
        <time>2022-05-26T09:09:40.000Z</time>
      </trkpt>
      <trkpt lat="44.36494" lon="1.46705">
        <ele>256.60000610352</ele>
        <time>2022-05-26T09:09:45.000Z</time>
      </trkpt>
      <trkpt lat="44.36501" lon="1.46692">
        <ele>256.20001220703</ele>
        <time>2022-05-26T09:09:47.000Z</time>
      </trkpt>
      <trkpt lat="44.36514" lon="1.46667">
        <ele>255.60000610352</ele>
        <time>2022-05-26T09:09:51.000Z</time>
      </trkpt>
      <trkpt lat="44.36522" lon="1.4665">
        <ele>255.19999694824</ele>
        <time>2022-05-26T09:09:54.000Z</time>
      </trkpt>
      <trkpt lat="44.36526" lon="1.46639">
        <ele>254.60000610352</ele>
        <time>2022-05-26T09:09:56.000Z</time>
      </trkpt>
      <trkpt lat="44.36537" lon="1.46613">
        <ele>254.19999694824</ele>
        <time>2022-05-26T09:10:01.000Z</time>
      </trkpt>
      <trkpt lat="44.36553" lon="1.46584">
        <ele>254.60000610352</ele>
        <time>2022-05-26T09:10:07.000Z</time>
      </trkpt>
      <trkpt lat="44.36558" lon="1.46575">
        <ele>254.80000305176</ele>
        <time>2022-05-26T09:10:09.000Z</time>
      </trkpt>
      <trkpt lat="44.36565" lon="1.46561">
        <ele>255.19999694824</ele>
        <time>2022-05-26T09:10:12.000Z</time>
      </trkpt>
      <trkpt lat="44.36575" lon="1.46542">
        <ele>255.80000305176</ele>
        <time>2022-05-26T09:10:16.000Z</time>
      </trkpt>
      <trkpt lat="44.36585" lon="1.46522">
        <ele>256.20001220703</ele>
        <time>2022-05-26T09:10:20.000Z</time>
      </trkpt>
      <trkpt lat="44.36593" lon="1.46502">
        <ele>257</ele>
        <time>2022-05-26T09:10:24.000Z</time>
      </trkpt>
      <trkpt lat="44.36597" lon="1.46496">
        <ele>257.20001220703</ele>
        <time>2022-05-26T09:10:26.000Z</time>
      </trkpt>
      <trkpt lat="44.36601" lon="1.4649">
        <ele>257.39999389648</ele>
        <time>2022-05-26T09:10:28.000Z</time>
      </trkpt>
      <trkpt lat="44.36616" lon="1.46451">
        <ele>257.60000610352</ele>
        <time>2022-05-26T09:10:37.000Z</time>
      </trkpt>
      <trkpt lat="44.36635" lon="1.46401">
        <ele>257.20001220703</ele>
        <time>2022-05-26T09:10:47.000Z</time>
      </trkpt>
      <trkpt lat="44.36653" lon="1.46371">
        <ele>257</ele>
        <time>2022-05-26T09:10:52.000Z</time>
      </trkpt>
      <trkpt lat="44.36668" lon="1.46346">
        <ele>256.20001220703</ele>
        <time>2022-05-26T09:10:55.000Z</time>
      </trkpt>
      <trkpt lat="44.36679" lon="1.46332">
        <ele>255.60000610352</ele>
        <time>2022-05-26T09:10:57.000Z</time>
      </trkpt>
      <trkpt lat="44.36699" lon="1.46305">
        <ele>254.80000305176</ele>
        <time>2022-05-26T09:11:00.000Z</time>
      </trkpt>
      <trkpt lat="44.36717" lon="1.46277">
        <ele>254</ele>
        <time>2022-05-26T09:11:03.000Z</time>
      </trkpt>
      <trkpt lat="44.36721" lon="1.46268">
        <ele>253.39999389648</ele>
        <time>2022-05-26T09:11:04.000Z</time>
      </trkpt>
      <trkpt lat="44.36725" lon="1.46259">
        <ele>252.39999389648</ele>
        <time>2022-05-26T09:11:05.000Z</time>
      </trkpt>
      <trkpt lat="44.36731" lon="1.46243">
        <ele>251.19999694824</ele>
        <time>2022-05-26T09:11:07.000Z</time>
      </trkpt>
      <trkpt lat="44.36739" lon="1.46229">
        <ele>249.60000610352</ele>
        <time>2022-05-26T09:11:09.000Z</time>
      </trkpt>
      <trkpt lat="44.36744" lon="1.46223">
        <ele>248.19999694824</ele>
        <time>2022-05-26T09:11:10.000Z</time>
      </trkpt>
      <trkpt lat="44.3675" lon="1.46217">
        <ele>247.60000610352</ele>
        <time>2022-05-26T09:11:11.000Z</time>
      </trkpt>
      <trkpt lat="44.36756" lon="1.46211">
        <ele>246.39999389648</ele>
        <time>2022-05-26T09:11:12.000Z</time>
      </trkpt>
      <trkpt lat="44.36772" lon="1.462">
        <ele>245</ele>
        <time>2022-05-26T09:11:14.000Z</time>
      </trkpt>
      <trkpt lat="44.36786" lon="1.46192">
        <ele>244</ele>
        <time>2022-05-26T09:11:16.000Z</time>
      </trkpt>
      <trkpt lat="44.36794" lon="1.46187">
        <ele>243.80000305176</ele>
        <time>2022-05-26T09:11:17.000Z</time>
      </trkpt>
      <trkpt lat="44.3682" lon="1.46169">
        <ele>242.80000305176</ele>
        <time>2022-05-26T09:11:20.000Z</time>
      </trkpt>
      <trkpt lat="44.36829" lon="1.46162">
        <ele>242.19999694824</ele>
        <time>2022-05-26T09:11:21.000Z</time>
      </trkpt>
      <trkpt lat="44.36845" lon="1.46147">
        <ele>241.39999389648</ele>
        <time>2022-05-26T09:11:23.000Z</time>
      </trkpt>
      <trkpt lat="44.3686" lon="1.4613">
        <ele>240</ele>
        <time>2022-05-26T09:11:25.000Z</time>
      </trkpt>
      <trkpt lat="44.36867" lon="1.46122">
        <ele>239.39999389648</ele>
        <time>2022-05-26T09:11:26.000Z</time>
      </trkpt>
      <trkpt lat="44.36876" lon="1.46115">
        <ele>239</ele>
        <time>2022-05-26T09:11:27.000Z</time>
      </trkpt>
      <trkpt lat="44.36885" lon="1.46108">
        <ele>237.80000305176</ele>
        <time>2022-05-26T09:11:28.000Z</time>
      </trkpt>
      <trkpt lat="44.36904" lon="1.46096">
        <ele>236.60000610352</ele>
        <time>2022-05-26T09:11:30.000Z</time>
      </trkpt>
      <trkpt lat="44.36924" lon="1.46087">
        <ele>234.60000610352</ele>
        <time>2022-05-26T09:11:32.000Z</time>
      </trkpt>
      <trkpt lat="44.36945" lon="1.46081">
        <ele>233.19999694824</ele>
        <time>2022-05-26T09:11:34.000Z</time>
      </trkpt>
      <trkpt lat="44.36954" lon="1.46078">
        <ele>232.19999694824</ele>
        <time>2022-05-26T09:11:35.000Z</time>
      </trkpt>
      <trkpt lat="44.36964" lon="1.46075">
        <ele>231.80000305176</ele>
        <time>2022-05-26T09:11:36.000Z</time>
      </trkpt>
      <trkpt lat="44.36972" lon="1.46073">
        <ele>230.60000610352</ele>
        <time>2022-05-26T09:11:37.000Z</time>
      </trkpt>
      <trkpt lat="44.3698" lon="1.4607">
        <ele>229.80000305176</ele>
        <time>2022-05-26T09:11:38.000Z</time>
      </trkpt>
      <trkpt lat="44.3698" lon="1.4607">
        <ele>228.80000305176</ele>
        <time>2022-05-26T09:11:39.000Z</time>
      </trkpt>
      <trkpt lat="44.36994" lon="1.46058">
        <ele>228.39999389648</ele>
        <time>2022-05-26T09:11:40.000Z</time>
      </trkpt>
      <trkpt lat="44.37006" lon="1.46043">
        <ele>227</ele>
        <time>2022-05-26T09:11:42.000Z</time>
      </trkpt>
      <trkpt lat="44.37016" lon="1.46027">
        <ele>225.60000610352</ele>
        <time>2022-05-26T09:11:44.000Z</time>
      </trkpt>
      <trkpt lat="44.37034" lon="1.45996">
        <ele>224.19999694824</ele>
        <time>2022-05-26T09:11:48.000Z</time>
      </trkpt>
      <trkpt lat="44.37038" lon="1.45989">
        <ele>224</ele>
        <time>2022-05-26T09:11:49.000Z</time>
      </trkpt>
      <trkpt lat="44.37056" lon="1.45963">
        <ele>223.60000610352</ele>
        <time>2022-05-26T09:11:53.000Z</time>
      </trkpt>
      <trkpt lat="44.37061" lon="1.45958">
        <ele>223.39999389648</ele>
        <time>2022-05-26T09:11:54.000Z</time>
      </trkpt>
      <trkpt lat="44.37065" lon="1.45953">
        <ele>223.19999694824</ele>
        <time>2022-05-26T09:11:55.000Z</time>
      </trkpt>
      <trkpt lat="44.37086" lon="1.4593">
        <ele>222.80000305176</ele>
        <time>2022-05-26T09:12:00.000Z</time>
      </trkpt>
      <trkpt lat="44.37096" lon="1.4592">
        <ele>222.80000305176</ele>
        <time>2022-05-26T09:12:02.000Z</time>
      </trkpt>
      <trkpt lat="44.37123" lon="1.45894">
        <ele>222</ele>
        <time>2022-05-26T09:12:08.000Z</time>
      </trkpt>
      <trkpt lat="44.37151" lon="1.45874">
        <ele>221.80000305176</ele>
        <time>2022-05-26T09:12:14.000Z</time>
      </trkpt>
      <trkpt lat="44.37205" lon="1.45844">
        <ele>221</ele>
        <time>2022-05-26T09:12:24.000Z</time>
      </trkpt>
      <trkpt lat="44.37238" lon="1.45826">
        <ele>220</ele>
        <time>2022-05-26T09:12:29.000Z</time>
      </trkpt>
      <trkpt lat="44.37245" lon="1.45822">
        <ele>219.80000305176</ele>
        <time>2022-05-26T09:12:30.000Z</time>
      </trkpt>
      <trkpt lat="44.37275" lon="1.45802">
        <ele>219</ele>
        <time>2022-05-26T09:12:35.000Z</time>
      </trkpt>
      <trkpt lat="44.37285" lon="1.45794">
        <ele>218.60000610352</ele>
        <time>2022-05-26T09:12:37.000Z</time>
      </trkpt>
      <trkpt lat="44.37292" lon="1.45788">
        <ele>218</ele>
        <time>2022-05-26T09:12:39.000Z</time>
      </trkpt>
      <trkpt lat="44.37295" lon="1.45785">
        <ele>217.60000610352</ele>
        <time>2022-05-26T09:12:40.000Z</time>
      </trkpt>
      <trkpt lat="44.373" lon="1.45776">
        <ele>216</ele>
        <time>2022-05-26T09:12:43.000Z</time>
      </trkpt>
      <trkpt lat="44.37304" lon="1.45759">
        <ele>215</ele>
        <time>2022-05-26T09:12:47.000Z</time>
      </trkpt>
      <trkpt lat="44.37307" lon="1.45749">
        <ele>215</ele>
        <time>2022-05-26T09:12:49.000Z</time>
      </trkpt>
      <trkpt lat="44.37312" lon="1.45732">
        <ele>216</ele>
        <time>2022-05-26T09:12:53.000Z</time>
      </trkpt>
      <trkpt lat="44.37312" lon="1.45726">
        <ele>216</ele>
        <time>2022-05-26T09:12:54.000Z</time>
      </trkpt>
      <trkpt lat="44.37315" lon="1.45716">
        <ele>216.39999389648</ele>
        <time>2022-05-26T09:12:56.000Z</time>
      </trkpt>
      <trkpt lat="44.37318" lon="1.45708">
        <ele>217.19999694824</ele>
        <time>2022-05-26T09:12:58.000Z</time>
      </trkpt>
      <trkpt lat="44.37325" lon="1.45686">
        <ele>218.19999694824</ele>
        <time>2022-05-26T09:13:03.000Z</time>
      </trkpt>
      <trkpt lat="44.37326" lon="1.45682">
        <ele>218.60000610352</ele>
        <time>2022-05-26T09:13:04.000Z</time>
      </trkpt>
      <trkpt lat="44.3733" lon="1.4567">
        <ele>219.39999389648</ele>
        <time>2022-05-26T09:13:07.000Z</time>
      </trkpt>
      <trkpt lat="44.37332" lon="1.45664">
        <ele>220.19999694824</ele>
        <time>2022-05-26T09:13:09.000Z</time>
      </trkpt>
      <trkpt lat="44.37333" lon="1.45663">
        <ele>220.39999389648</ele>
        <time>2022-05-26T09:13:10.000Z</time>
      </trkpt>
      <trkpt lat="44.37334" lon="1.45662">
        <ele>220.60000610352</ele>
        <time>2022-05-26T09:13:11.000Z</time>
      </trkpt>
      <trkpt lat="44.37338" lon="1.4566">
        <ele>220.80000305176</ele>
        <time>2022-05-26T09:13:13.000Z</time>
      </trkpt>
      <trkpt lat="44.37354" lon="1.45648">
        <ele>220.80000305176</ele>
        <time>2022-05-26T09:13:18.000Z</time>
      </trkpt>
      <trkpt lat="44.37379" lon="1.45631">
        <ele>220</ele>
        <time>2022-05-26T09:13:24.000Z</time>
      </trkpt>
      <trkpt lat="44.37384" lon="1.45629">
        <ele>219.39999389648</ele>
        <time>2022-05-26T09:13:25.000Z</time>
      </trkpt>
      <trkpt lat="44.37403" lon="1.4562">
        <ele>218.19999694824</ele>
        <time>2022-05-26T09:13:30.000Z</time>
      </trkpt>
      <trkpt lat="44.37426" lon="1.45611">
        <ele>217.19999694824</ele>
        <time>2022-05-26T09:13:36.000Z</time>
      </trkpt>
      <trkpt lat="44.37436" lon="1.45606">
        <ele>215.80000305176</ele>
        <time>2022-05-26T09:13:39.000Z</time>
      </trkpt>
      <trkpt lat="44.37448" lon="1.45599">
        <ele>214.80000305176</ele>
        <time>2022-05-26T09:13:42.000Z</time>
      </trkpt>
      <trkpt lat="44.37452" lon="1.45596">
        <ele>214</ele>
        <time>2022-05-26T09:13:43.000Z</time>
      </trkpt>
      <trkpt lat="44.3746" lon="1.4559">
        <ele>213.39999389648</ele>
        <time>2022-05-26T09:13:45.000Z</time>
      </trkpt>
      <trkpt lat="44.37472" lon="1.45582">
        <ele>212.39999389648</ele>
        <time>2022-05-26T09:13:48.000Z</time>
      </trkpt>
      <trkpt lat="44.37479" lon="1.45577">
        <ele>211.19999694824</ele>
        <time>2022-05-26T09:13:50.000Z</time>
      </trkpt>
      <trkpt lat="44.37483" lon="1.45575">
        <ele>211</ele>
        <time>2022-05-26T09:13:51.000Z</time>
      </trkpt>
      <trkpt lat="44.37489" lon="1.45569">
        <ele>210</ele>
        <time>2022-05-26T09:13:53.000Z</time>
      </trkpt>
      <trkpt lat="44.37493" lon="1.45559">
        <ele>208.80000305176</ele>
        <time>2022-05-26T09:13:55.000Z</time>
      </trkpt>
      <trkpt lat="44.37493" lon="1.45548">
        <ele>207.19999694824</ele>
        <time>2022-05-26T09:13:57.000Z</time>
      </trkpt>
      <trkpt lat="44.37492" lon="1.45529">
        <ele>206</ele>
        <time>2022-05-26T09:14:00.000Z</time>
      </trkpt>
      <trkpt lat="44.37492" lon="1.45522">
        <ele>205.39999389648</ele>
        <time>2022-05-26T09:14:01.000Z</time>
      </trkpt>
      <trkpt lat="44.37494" lon="1.45513">
        <ele>204.80000305176</ele>
        <time>2022-05-26T09:14:03.000Z</time>
      </trkpt>
      <trkpt lat="44.37502" lon="1.45501">
        <ele>203.39999389648</ele>
        <time>2022-05-26T09:14:06.000Z</time>
      </trkpt>
      <trkpt lat="44.37505" lon="1.45493">
        <ele>202.19999694824</ele>
        <time>2022-05-26T09:14:09.000Z</time>
      </trkpt>
      <trkpt lat="44.37506" lon="1.45492">
        <ele>201.39999389648</ele>
        <time>2022-05-26T09:14:12.000Z</time>
      </trkpt>
      <trkpt lat="44.3752" lon="1.45485">
        <ele>202.19999694824</ele>
        <time>2022-05-26T09:14:50.000Z</time>
      </trkpt>
      <trkpt lat="44.3753" lon="1.45497">
        <ele>202.39999389648</ele>
        <time>2022-05-26T09:14:56.000Z</time>
      </trkpt>
      <trkpt lat="44.37546" lon="1.45517">
        <ele>202.39999389648</ele>
        <time>2022-05-26T09:15:04.000Z</time>
      </trkpt>
      <trkpt lat="44.37566" lon="1.45531">
        <ele>202.60000610352</ele>
        <time>2022-05-26T09:15:11.000Z</time>
      </trkpt>
      <trkpt lat="44.37591" lon="1.4554">
        <ele>202.19999694824</ele>
        <time>2022-05-26T09:15:19.000Z</time>
      </trkpt>
      <trkpt lat="44.37613" lon="1.45538">
        <ele>201.80000305176</ele>
        <time>2022-05-26T09:15:25.000Z</time>
      </trkpt>
      <trkpt lat="44.37627" lon="1.45548">
        <ele>201.80000305176</ele>
        <time>2022-05-26T09:15:30.000Z</time>
      </trkpt>
      <trkpt lat="44.37631" lon="1.45551">
        <ele>201.80000305176</ele>
        <time>2022-05-26T09:15:32.000Z</time>
      </trkpt>
      <trkpt lat="44.37636" lon="1.45549">
        <ele>201.80000305176</ele>
        <time>2022-05-26T09:15:34.000Z</time>
      </trkpt>
      <trkpt lat="44.3765" lon="1.45532">
        <ele>202</ele>
        <time>2022-05-26T09:15:39.000Z</time>
      </trkpt>
      <trkpt lat="44.37666" lon="1.45506">
        <ele>202.60000610352</ele>
        <time>2022-05-26T09:15:46.000Z</time>
      </trkpt>
      <trkpt lat="44.37682" lon="1.4549">
        <ele>202.39999389648</ele>
        <time>2022-05-26T09:15:52.000Z</time>
      </trkpt>
      <trkpt lat="44.37685" lon="1.45479">
        <ele>202.19999694824</ele>
        <time>2022-05-26T09:15:54.000Z</time>
      </trkpt>
      <trkpt lat="44.37685" lon="1.45467">
        <ele>202.19999694824</ele>
        <time>2022-05-26T09:15:56.000Z</time>
      </trkpt>
      <trkpt lat="44.37678" lon="1.4545">
        <ele>202.19999694824</ele>
        <time>2022-05-26T09:15:59.000Z</time>
      </trkpt>
      <trkpt lat="44.37676" lon="1.45446">
        <ele>202.19999694824</ele>
        <time>2022-05-26T09:16:00.000Z</time>
      </trkpt>
      <trkpt lat="44.37674" lon="1.45441">
        <ele>202.19999694824</ele>
        <time>2022-05-26T09:16:01.000Z</time>
      </trkpt>
      <trkpt lat="44.37672" lon="1.45431">
        <ele>202.19999694824</ele>
        <time>2022-05-26T09:16:03.000Z</time>
      </trkpt>
      <trkpt lat="44.37672" lon="1.45424">
        <ele>202</ele>
        <time>2022-05-26T09:16:04.000Z</time>
      </trkpt>
      <trkpt lat="44.3767" lon="1.454">
        <ele>202</ele>
        <time>2022-05-26T09:16:09.000Z</time>
      </trkpt>
      <trkpt lat="44.37669" lon="1.45394">
        <ele>202</ele>
        <time>2022-05-26T09:16:11.000Z</time>
      </trkpt>
      <trkpt lat="44.37668" lon="1.45391">
        <ele>202</ele>
        <time>2022-05-26T09:16:14.000Z</time>
      </trkpt>
      <trkpt lat="44.37668" lon="1.45388">
        <ele>202</ele>
        <time>2022-05-26T09:16:46.000Z</time>
      </trkpt>
      <trkpt lat="44.37662" lon="1.45367">
        <ele>202.19999694824</ele>
        <time>2022-05-26T09:16:52.000Z</time>
      </trkpt>
      <trkpt lat="44.37654" lon="1.45347">
        <ele>202.80000305176</ele>
        <time>2022-05-26T09:16:58.000Z</time>
      </trkpt>
      <trkpt lat="44.37653" lon="1.45344">
        <ele>203</ele>
        <time>2022-05-26T09:16:59.000Z</time>
      </trkpt>
      <trkpt lat="44.37651" lon="1.45341">
        <ele>203</ele>
        <time>2022-05-26T09:17:00.000Z</time>
      </trkpt>
      <trkpt lat="44.3764" lon="1.4532">
        <ele>203.80000305176</ele>
        <time>2022-05-26T09:17:07.000Z</time>
      </trkpt>
      <trkpt lat="44.37636" lon="1.45313">
        <ele>204</ele>
        <time>2022-05-26T09:17:09.000Z</time>
      </trkpt>
      <trkpt lat="44.37619" lon="1.45293">
        <ele>204.60000610352</ele>
        <time>2022-05-26T09:17:16.000Z</time>
      </trkpt>
      <trkpt lat="44.37608" lon="1.45282">
        <ele>204.80000305176</ele>
        <time>2022-05-26T09:17:20.000Z</time>
      </trkpt>
      <trkpt lat="44.37592" lon="1.45263">
        <ele>205</ele>
        <time>2022-05-26T09:17:26.000Z</time>
      </trkpt>
      <trkpt lat="44.37576" lon="1.45234">
        <ele>205.60000610352</ele>
        <time>2022-05-26T09:17:34.000Z</time>
      </trkpt>
      <trkpt lat="44.37559" lon="1.45195">
        <ele>206.60000610352</ele>
        <time>2022-05-26T09:17:44.000Z</time>
      </trkpt>
      <trkpt lat="44.37558" lon="1.45191">
        <ele>206.80000305176</ele>
        <time>2022-05-26T09:17:45.000Z</time>
      </trkpt>
      <trkpt lat="44.3755" lon="1.45163">
        <ele>207.80000305176</ele>
        <time>2022-05-26T09:17:52.000Z</time>
      </trkpt>
      <trkpt lat="44.3755" lon="1.45158">
        <ele>208</ele>
        <time>2022-05-26T09:17:53.000Z</time>
      </trkpt>
      <trkpt lat="44.37546" lon="1.45137">
        <ele>209</ele>
        <time>2022-05-26T09:17:58.000Z</time>
      </trkpt>
      <trkpt lat="44.37541" lon="1.45114">
        <ele>209.60000610352</ele>
        <time>2022-05-26T09:18:04.000Z</time>
      </trkpt>
      <trkpt lat="44.37539" lon="1.45107">
        <ele>209.80000305176</ele>
        <time>2022-05-26T09:18:06.000Z</time>
      </trkpt>
      <trkpt lat="44.3753" lon="1.45083">
        <ele>211.19999694824</ele>
        <time>2022-05-26T09:18:13.000Z</time>
      </trkpt>
      <trkpt lat="44.37512" lon="1.45053">
        <ele>212.19999694824</ele>
        <time>2022-05-26T09:18:23.000Z</time>
      </trkpt>
      <trkpt lat="44.37501" lon="1.45034">
        <ele>212.80000305176</ele>
        <time>2022-05-26T09:18:29.000Z</time>
      </trkpt>
      <trkpt lat="44.37496" lon="1.45026">
        <ele>213.19999694824</ele>
        <time>2022-05-26T09:18:32.000Z</time>
      </trkpt>
      <trkpt lat="44.37495" lon="1.45023">
        <ele>213.39999389648</ele>
        <time>2022-05-26T09:18:33.000Z</time>
      </trkpt>
      <trkpt lat="44.37489" lon="1.45009">
        <ele>214.19999694824</ele>
        <time>2022-05-26T09:18:39.000Z</time>
      </trkpt>
      <trkpt lat="44.37488" lon="1.45002">
        <ele>214.39999389648</ele>
        <time>2022-05-26T09:18:41.000Z</time>
      </trkpt>
      <trkpt lat="44.37483" lon="1.44978">
        <ele>215.19999694824</ele>
        <time>2022-05-26T09:18:48.000Z</time>
      </trkpt>
      <trkpt lat="44.37483" lon="1.44972">
        <ele>215.39999389648</ele>
        <time>2022-05-26T09:18:50.000Z</time>
      </trkpt>
      <trkpt lat="44.37482" lon="1.44967">
        <ele>215.39999389648</ele>
        <time>2022-05-26T09:18:52.000Z</time>
      </trkpt>
      <trkpt lat="44.3748" lon="1.44966">
        <ele>215.60000610352</ele>
        <time>2022-05-26T09:18:53.000Z</time>
      </trkpt>
      <trkpt lat="44.37478" lon="1.44967">
        <ele>215.80000305176</ele>
        <time>2022-05-26T09:18:54.000Z</time>
      </trkpt>
      <trkpt lat="44.37478" lon="1.44973">
        <ele>216</ele>
        <time>2022-05-26T09:18:57.000Z</time>
      </trkpt>
      <trkpt lat="44.37479" lon="1.44975">
        <ele>216</ele>
        <time>2022-05-26T09:18:58.000Z</time>
      </trkpt>
      <trkpt lat="44.37483" lon="1.44974">
        <ele>216</ele>
        <time>2022-05-26T09:19:00.000Z</time>
      </trkpt>
      <trkpt lat="44.37483" lon="1.44964">
        <ele>216</ele>
        <time>2022-05-26T09:19:04.000Z</time>
      </trkpt>
      <trkpt lat="44.37484" lon="1.44953">
        <ele>216.19999694824</ele>
        <time>2022-05-26T09:19:07.000Z</time>
      </trkpt>
      <trkpt lat="44.37485" lon="1.44942">
        <ele>216.39999389648</ele>
        <time>2022-05-26T09:19:10.000Z</time>
      </trkpt>
      <trkpt lat="44.3749" lon="1.44923">
        <ele>217.39999389648</ele>
        <time>2022-05-26T09:19:15.000Z</time>
      </trkpt>
      <trkpt lat="44.37494" lon="1.4491">
        <ele>217.80000305176</ele>
        <time>2022-05-26T09:19:19.000Z</time>
      </trkpt>
      <trkpt lat="44.37499" lon="1.44899">
        <ele>218.39999389648</ele>
        <time>2022-05-26T09:19:22.000Z</time>
      </trkpt>
      <trkpt lat="44.37505" lon="1.44881">
        <ele>219.39999389648</ele>
        <time>2022-05-26T09:19:27.000Z</time>
      </trkpt>
      <trkpt lat="44.3751" lon="1.44861">
        <ele>220.39999389648</ele>
        <time>2022-05-26T09:19:33.000Z</time>
      </trkpt>
      <trkpt lat="44.37515" lon="1.44843">
        <ele>221.19999694824</ele>
        <time>2022-05-26T09:19:38.000Z</time>
      </trkpt>
      <trkpt lat="44.37516" lon="1.44839">
        <ele>221.39999389648</ele>
        <time>2022-05-26T09:19:39.000Z</time>
      </trkpt>
      <trkpt lat="44.37522" lon="1.44817">
        <ele>222.60000610352</ele>
        <time>2022-05-26T09:19:45.000Z</time>
      </trkpt>
      <trkpt lat="44.37525" lon="1.44809">
        <ele>222.80000305176</ele>
        <time>2022-05-26T09:19:47.000Z</time>
      </trkpt>
      <trkpt lat="44.37527" lon="1.44797">
        <ele>223.60000610352</ele>
        <time>2022-05-26T09:19:50.000Z</time>
      </trkpt>
      <trkpt lat="44.37531" lon="1.44778">
        <ele>224.80000305176</ele>
        <time>2022-05-26T09:19:55.000Z</time>
      </trkpt>
      <trkpt lat="44.37531" lon="1.44774">
        <ele>224.80000305176</ele>
        <time>2022-05-26T09:19:56.000Z</time>
      </trkpt>
      <trkpt lat="44.37534" lon="1.44755">
        <ele>225.80000305176</ele>
        <time>2022-05-26T09:20:01.000Z</time>
      </trkpt>
      <trkpt lat="44.37541" lon="1.44739">
        <ele>227</ele>
        <time>2022-05-26T09:20:06.000Z</time>
      </trkpt>
      <trkpt lat="44.37553" lon="1.44733">
        <ele>228.60000610352</ele>
        <time>2022-05-26T09:20:11.000Z</time>
      </trkpt>
      <trkpt lat="44.37555" lon="1.44733">
        <ele>228.80000305176</ele>
        <time>2022-05-26T09:20:12.000Z</time>
      </trkpt>
      <trkpt lat="44.37562" lon="1.44734">
        <ele>230</ele>
        <time>2022-05-26T09:20:15.000Z</time>
      </trkpt>
      <trkpt lat="44.37568" lon="1.44741">
        <ele>231</ele>
        <time>2022-05-26T09:20:18.000Z</time>
      </trkpt>
      <trkpt lat="44.37573" lon="1.44754">
        <ele>232.60000610352</ele>
        <time>2022-05-26T09:20:22.000Z</time>
      </trkpt>
      <trkpt lat="44.37574" lon="1.4476">
        <ele>233.60000610352</ele>
        <time>2022-05-26T09:20:24.000Z</time>
      </trkpt>
      <trkpt lat="44.37574" lon="1.44771">
        <ele>234.80000305176</ele>
        <time>2022-05-26T09:20:27.000Z</time>
      </trkpt>
      <trkpt lat="44.37574" lon="1.4478">
        <ele>235.80000305176</ele>
        <time>2022-05-26T09:20:30.000Z</time>
      </trkpt>
      <trkpt lat="44.37574" lon="1.44784">
        <ele>236.39999389648</ele>
        <time>2022-05-26T09:20:31.000Z</time>
      </trkpt>
      <trkpt lat="44.37574" lon="1.44793">
        <ele>237.39999389648</ele>
        <time>2022-05-26T09:20:34.000Z</time>
      </trkpt>
      <trkpt lat="44.37573" lon="1.44796">
        <ele>237.60000610352</ele>
        <time>2022-05-26T09:20:35.000Z</time>
      </trkpt>
      <trkpt lat="44.37573" lon="1.44807">
        <ele>238.80000305176</ele>
        <time>2022-05-26T09:20:38.000Z</time>
      </trkpt>
      <trkpt lat="44.37573" lon="1.4481">
        <ele>239</ele>
        <time>2022-05-26T09:20:39.000Z</time>
      </trkpt>
      <trkpt lat="44.37573" lon="1.44819">
        <ele>240</ele>
        <time>2022-05-26T09:20:42.000Z</time>
      </trkpt>
      <trkpt lat="44.37574" lon="1.44829">
        <ele>241</ele>
        <time>2022-05-26T09:20:45.000Z</time>
      </trkpt>
      <trkpt lat="44.37576" lon="1.44841">
        <ele>242.19999694824</ele>
        <time>2022-05-26T09:20:49.000Z</time>
      </trkpt>
      <trkpt lat="44.3758" lon="1.44849">
        <ele>243.19999694824</ele>
        <time>2022-05-26T09:20:52.000Z</time>
      </trkpt>
      <trkpt lat="44.37587" lon="1.44857">
        <ele>244.39999389648</ele>
        <time>2022-05-26T09:20:56.000Z</time>
      </trkpt>
      <trkpt lat="44.37596" lon="1.44859">
        <ele>245.60000610352</ele>
        <time>2022-05-26T09:21:00.000Z</time>
      </trkpt>
      <trkpt lat="44.37601" lon="1.44858">
        <ele>246</ele>
        <time>2022-05-26T09:21:02.000Z</time>
      </trkpt>
      <trkpt lat="44.37603" lon="1.44857">
        <ele>246.60000610352</ele>
        <time>2022-05-26T09:21:03.000Z</time>
      </trkpt>
      <trkpt lat="44.37608" lon="1.44853">
        <ele>248</ele>
        <time>2022-05-26T09:21:06.000Z</time>
      </trkpt>
      <trkpt lat="44.3761" lon="1.44851">
        <ele>248.19999694824</ele>
        <time>2022-05-26T09:21:07.000Z</time>
      </trkpt>
      <trkpt lat="44.37616" lon="1.44842">
        <ele>249.19999694824</ele>
        <time>2022-05-26T09:21:11.000Z</time>
      </trkpt>
      <trkpt lat="44.37624" lon="1.44832">
        <ele>250.39999389648</ele>
        <time>2022-05-26T09:21:16.000Z</time>
      </trkpt>
      <trkpt lat="44.37628" lon="1.44828">
        <ele>251.19999694824</ele>
        <time>2022-05-26T09:21:18.000Z</time>
      </trkpt>
      <trkpt lat="44.37631" lon="1.44825">
        <ele>251.80000305176</ele>
        <time>2022-05-26T09:21:20.000Z</time>
      </trkpt>
      <trkpt lat="44.37641" lon="1.44816">
        <ele>253</ele>
        <time>2022-05-26T09:21:25.000Z</time>
      </trkpt>
      <trkpt lat="44.3765" lon="1.44812">
        <ele>253.80000305176</ele>
        <time>2022-05-26T09:21:29.000Z</time>
      </trkpt>
      <trkpt lat="44.37654" lon="1.4481">
        <ele>254.19999694824</ele>
        <time>2022-05-26T09:21:31.000Z</time>
      </trkpt>
      <trkpt lat="44.37667" lon="1.44805">
        <ele>254.80000305176</ele>
        <time>2022-05-26T09:21:36.000Z</time>
      </trkpt>
      <trkpt lat="44.37678" lon="1.44804">
        <ele>255.39999389648</ele>
        <time>2022-05-26T09:21:40.000Z</time>
      </trkpt>
      <trkpt lat="44.37686" lon="1.44803">
        <ele>255.60000610352</ele>
        <time>2022-05-26T09:21:43.000Z</time>
      </trkpt>
      <trkpt lat="44.37708" lon="1.44808">
        <ele>256.39999389648</ele>
        <time>2022-05-26T09:21:50.000Z</time>
      </trkpt>
      <trkpt lat="44.37711" lon="1.44808">
        <ele>256.39999389648</ele>
        <time>2022-05-26T09:21:51.000Z</time>
      </trkpt>
      <trkpt lat="44.37734" lon="1.44821">
        <ele>257.39999389648</ele>
        <time>2022-05-26T09:21:59.000Z</time>
      </trkpt>
      <trkpt lat="44.37737" lon="1.44823">
        <ele>257.60000610352</ele>
        <time>2022-05-26T09:22:00.000Z</time>
      </trkpt>
      <trkpt lat="44.37759" lon="1.44835">
        <ele>258.79998779297</ele>
        <time>2022-05-26T09:22:08.000Z</time>
      </trkpt>
      <trkpt lat="44.37776" lon="1.44834">
        <ele>259.60000610352</ele>
        <time>2022-05-26T09:22:14.000Z</time>
      </trkpt>
      <trkpt lat="44.37779" lon="1.44834">
        <ele>260</ele>
        <time>2022-05-26T09:22:15.000Z</time>
      </trkpt>
      <trkpt lat="44.3779" lon="1.44838">
        <ele>260.60000610352</ele>
        <time>2022-05-26T09:22:19.000Z</time>
      </trkpt>
      <trkpt lat="44.37796" lon="1.44841">
        <ele>261.20001220703</ele>
        <time>2022-05-26T09:22:21.000Z</time>
      </trkpt>
      <trkpt lat="44.37818" lon="1.44852">
        <ele>261.79998779297</ele>
        <time>2022-05-26T09:22:28.000Z</time>
      </trkpt>
      <trkpt lat="44.37832" lon="1.44859">
        <ele>262.20001220703</ele>
        <time>2022-05-26T09:22:32.000Z</time>
      </trkpt>
      <trkpt lat="44.37854" lon="1.4487">
        <ele>262.60000610352</ele>
        <time>2022-05-26T09:22:38.000Z</time>
      </trkpt>
      <trkpt lat="44.37868" lon="1.44877">
        <ele>262.60000610352</ele>
        <time>2022-05-26T09:22:42.000Z</time>
      </trkpt>
      <trkpt lat="44.37879" lon="1.4488">
        <ele>262.39999389648</ele>
        <time>2022-05-26T09:22:45.000Z</time>
      </trkpt>
      <trkpt lat="44.37882" lon="1.44881">
        <ele>262.39999389648</ele>
        <time>2022-05-26T09:22:46.000Z</time>
      </trkpt>
      <trkpt lat="44.37921" lon="1.44882">
        <ele>262</ele>
        <time>2022-05-26T09:22:56.000Z</time>
      </trkpt>
      <trkpt lat="44.37929" lon="1.44882">
        <ele>262</ele>
        <time>2022-05-26T09:22:58.000Z</time>
      </trkpt>
      <trkpt lat="44.37966" lon="1.44883">
        <ele>262.20001220703</ele>
        <time>2022-05-26T09:23:07.000Z</time>
      </trkpt>
      <trkpt lat="44.37979" lon="1.44881">
        <ele>262.39999389648</ele>
        <time>2022-05-26T09:23:11.000Z</time>
      </trkpt>
      <trkpt lat="44.37984" lon="1.4488">
        <ele>262.39999389648</ele>
        <time>2022-05-26T09:23:13.000Z</time>
      </trkpt>
      <trkpt lat="44.37998" lon="1.44874">
        <ele>262.39999389648</ele>
        <time>2022-05-26T09:23:19.000Z</time>
      </trkpt>
      <trkpt lat="44.38017" lon="1.44859">
        <ele>262.39999389648</ele>
        <time>2022-05-26T09:23:27.000Z</time>
      </trkpt>
      <trkpt lat="44.38019" lon="1.44856">
        <ele>262.39999389648</ele>
        <time>2022-05-26T09:23:28.000Z</time>
      </trkpt>
      <trkpt lat="44.38031" lon="1.44843">
        <ele>262.39999389648</ele>
        <time>2022-05-26T09:23:34.000Z</time>
      </trkpt>
      <trkpt lat="44.38034" lon="1.44845">
        <ele>262.39999389648</ele>
        <time>2022-05-26T09:23:35.000Z</time>
      </trkpt>
      <trkpt lat="44.38039" lon="1.44857">
        <ele>262.20001220703</ele>
        <time>2022-05-26T09:23:40.000Z</time>
      </trkpt>
      <trkpt lat="44.38047" lon="1.44864">
        <ele>262.39999389648</ele>
        <time>2022-05-26T09:23:46.000Z</time>
      </trkpt>
      <trkpt lat="44.3805" lon="1.44866">
        <ele>263</ele>
        <time>2022-05-26T09:23:52.000Z</time>
      </trkpt>
      <trkpt lat="44.38049" lon="1.44861">
        <ele>263.60000610352</ele>
        <time>2022-05-26T09:34:44.000Z</time>
      </trkpt>
      <trkpt lat="44.38048" lon="1.44859">
        <ele>263.60000610352</ele>
        <time>2022-05-26T09:34:45.000Z</time>
      </trkpt>
      <trkpt lat="44.38046" lon="1.44853">
        <ele>263.60000610352</ele>
        <time>2022-05-26T09:34:47.000Z</time>
      </trkpt>
      <trkpt lat="44.38038" lon="1.44838">
        <ele>263.20001220703</ele>
        <time>2022-05-26T09:34:51.000Z</time>
      </trkpt>
      <trkpt lat="44.38028" lon="1.44813">
        <ele>262.79998779297</ele>
        <time>2022-05-26T09:34:56.000Z</time>
      </trkpt>
      <trkpt lat="44.38026" lon="1.44806">
        <ele>262.60000610352</ele>
        <time>2022-05-26T09:34:57.000Z</time>
      </trkpt>
      <trkpt lat="44.38013" lon="1.44762">
        <ele>261.79998779297</ele>
        <time>2022-05-26T09:35:02.000Z</time>
      </trkpt>
      <trkpt lat="44.38005" lon="1.44733">
        <ele>261.39999389648</ele>
        <time>2022-05-26T09:35:05.000Z</time>
      </trkpt>
      <trkpt lat="44.37996" lon="1.44701">
        <ele>260.39999389648</ele>
        <time>2022-05-26T09:35:08.000Z</time>
      </trkpt>
      <trkpt lat="44.37993" lon="1.44691">
        <ele>260.20001220703</ele>
        <time>2022-05-26T09:35:09.000Z</time>
      </trkpt>
      <trkpt lat="44.37984" lon="1.44665">
        <ele>258.39999389648</ele>
        <time>2022-05-26T09:35:13.000Z</time>
      </trkpt>
      <trkpt lat="44.37976" lon="1.44652">
        <ele>257.39999389648</ele>
        <time>2022-05-26T09:35:16.000Z</time>
      </trkpt>
      <trkpt lat="44.37971" lon="1.44644">
        <ele>256.60000610352</ele>
        <time>2022-05-26T09:35:18.000Z</time>
      </trkpt>
      <trkpt lat="44.37963" lon="1.44634">
        <ele>256.20001220703</ele>
        <time>2022-05-26T09:35:21.000Z</time>
      </trkpt>
      <trkpt lat="44.37955" lon="1.44625">
        <ele>256.20001220703</ele>
        <time>2022-05-26T09:35:24.000Z</time>
      </trkpt>
      <trkpt lat="44.37952" lon="1.44617">
        <ele>256</ele>
        <time>2022-05-26T09:35:26.000Z</time>
      </trkpt>
      <trkpt lat="44.37952" lon="1.44609">
        <ele>255.80000305176</ele>
        <time>2022-05-26T09:35:28.000Z</time>
      </trkpt>
      <trkpt lat="44.37959" lon="1.44592">
        <ele>255.80000305176</ele>
        <time>2022-05-26T09:35:32.000Z</time>
      </trkpt>
      <trkpt lat="44.37969" lon="1.44588">
        <ele>255.80000305176</ele>
        <time>2022-05-26T09:35:34.000Z</time>
      </trkpt>
      <trkpt lat="44.37973" lon="1.44589">
        <ele>255.60000610352</ele>
        <time>2022-05-26T09:35:35.000Z</time>
      </trkpt>
      <trkpt lat="44.37976" lon="1.44592">
        <ele>255.39999389648</ele>
        <time>2022-05-26T09:35:36.000Z</time>
      </trkpt>
      <trkpt lat="44.37978" lon="1.44596">
        <ele>255.19999694824</ele>
        <time>2022-05-26T09:35:37.000Z</time>
      </trkpt>
      <trkpt lat="44.37979" lon="1.44599">
        <ele>255</ele>
        <time>2022-05-26T09:35:38.000Z</time>
      </trkpt>
      <trkpt lat="44.37979" lon="1.44603">
        <ele>254.19999694824</ele>
        <time>2022-05-26T09:35:40.000Z</time>
      </trkpt>
      <trkpt lat="44.37979" lon="1.44603">
        <ele>254.19999694824</ele>
        <time>2022-05-26T09:35:41.000Z</time>
      </trkpt>
      <trkpt lat="44.3798" lon="1.44608">
        <ele>253.80000305176</ele>
        <time>2022-05-26T09:35:47.000Z</time>
      </trkpt>
      <trkpt lat="44.3798" lon="1.44608">
        <ele>253.80000305176</ele>
        <time>2022-05-26T09:35:48.000Z</time>
      </trkpt>
      <trkpt lat="44.3798" lon="1.44614">
        <ele>254</ele>
        <time>2022-05-26T09:35:56.000Z</time>
      </trkpt>
      <trkpt lat="44.3798" lon="1.44617">
        <ele>254.19999694824</ele>
        <time>2022-05-26T09:36:04.000Z</time>
      </trkpt>
      <trkpt lat="44.37976" lon="1.44623">
        <ele>254.39999389648</ele>
        <time>2022-05-26T10:44:54.000Z</time>
      </trkpt>
      <trkpt lat="44.37977" lon="1.4462">
        <ele>254.39999389648</ele>
        <time>2022-05-26T10:44:55.000Z</time>
      </trkpt>
      <trkpt lat="44.37976" lon="1.44613">
        <ele>254.39999389648</ele>
        <time>2022-05-26T10:44:57.000Z</time>
      </trkpt>
      <trkpt lat="44.37976" lon="1.4461">
        <ele>254.39999389648</ele>
        <time>2022-05-26T10:44:58.000Z</time>
      </trkpt>
      <trkpt lat="44.37976" lon="1.44603">
        <ele>253.80000305176</ele>
        <time>2022-05-26T10:45:03.000Z</time>
      </trkpt>
      <trkpt lat="44.37974" lon="1.44596">
        <ele>253.39999389648</ele>
        <time>2022-05-26T10:46:02.000Z</time>
      </trkpt>
      <trkpt lat="44.37971" lon="1.44591">
        <ele>253.39999389648</ele>
        <time>2022-05-26T10:46:04.000Z</time>
      </trkpt>
      <trkpt lat="44.37966" lon="1.44587">
        <ele>253.19999694824</ele>
        <time>2022-05-26T10:46:06.000Z</time>
      </trkpt>
      <trkpt lat="44.37961" lon="1.44589">
        <ele>253.19999694824</ele>
        <time>2022-05-26T10:46:08.000Z</time>
      </trkpt>
      <trkpt lat="44.37953" lon="1.44601">
        <ele>253.19999694824</ele>
        <time>2022-05-26T10:46:13.000Z</time>
      </trkpt>
      <trkpt lat="44.37949" lon="1.44615">
        <ele>253.60000610352</ele>
        <time>2022-05-26T10:46:18.000Z</time>
      </trkpt>
      <trkpt lat="44.37951" lon="1.44621">
        <ele>254.19999694824</ele>
        <time>2022-05-26T10:46:20.000Z</time>
      </trkpt>
      <trkpt lat="44.37952" lon="1.44624">
        <ele>254.60000610352</ele>
        <time>2022-05-26T10:46:21.000Z</time>
      </trkpt>
      <trkpt lat="44.37963" lon="1.4464">
        <ele>255.39999389648</ele>
        <time>2022-05-26T10:46:26.000Z</time>
      </trkpt>
      <trkpt lat="44.37969" lon="1.44648">
        <ele>255.60000610352</ele>
        <time>2022-05-26T10:46:29.000Z</time>
      </trkpt>
      <trkpt lat="44.3798" lon="1.44669">
        <ele>256</ele>
        <time>2022-05-26T10:46:35.000Z</time>
      </trkpt>
      <trkpt lat="44.37993" lon="1.44705">
        <ele>255.80000305176</ele>
        <time>2022-05-26T10:46:43.000Z</time>
      </trkpt>
      <trkpt lat="44.38008" lon="1.44753">
        <ele>256.39999389648</ele>
        <time>2022-05-26T10:46:54.000Z</time>
      </trkpt>
      <trkpt lat="44.3801" lon="1.44761">
        <ele>256.60000610352</ele>
        <time>2022-05-26T10:46:56.000Z</time>
      </trkpt>
      <trkpt lat="44.38019" lon="1.44789">
        <ele>257.60000610352</ele>
        <time>2022-05-26T10:47:03.000Z</time>
      </trkpt>
      <trkpt lat="44.38019" lon="1.44791">
        <ele>257.79998779297</ele>
        <time>2022-05-26T10:47:04.000Z</time>
      </trkpt>
      <trkpt lat="44.38019" lon="1.44794">
        <ele>258</ele>
        <time>2022-05-26T10:47:05.000Z</time>
      </trkpt>
      <trkpt lat="44.38021" lon="1.44797">
        <ele>258.60000610352</ele>
        <time>2022-05-26T10:47:07.000Z</time>
      </trkpt>
      <trkpt lat="44.38021" lon="1.44797">
        <ele>259</ele>
        <time>2022-05-26T10:47:09.000Z</time>
      </trkpt>
      <trkpt lat="44.38025" lon="1.44802">
        <ele>259.60000610352</ele>
        <time>2022-05-26T10:47:29.000Z</time>
      </trkpt>
      <trkpt lat="44.38025" lon="1.44804">
        <ele>259.79998779297</ele>
        <time>2022-05-26T10:47:30.000Z</time>
      </trkpt>
      <trkpt lat="44.38028" lon="1.44815">
        <ele>260</ele>
        <time>2022-05-26T10:47:35.000Z</time>
      </trkpt>
      <trkpt lat="44.38029" lon="1.4482">
        <ele>260</ele>
        <time>2022-05-26T10:47:36.000Z</time>
      </trkpt>
      <trkpt lat="44.38029" lon="1.44821">
        <ele>260.20001220703</ele>
        <time>2022-05-26T10:47:37.000Z</time>
      </trkpt>
      <trkpt lat="44.38031" lon="1.44825">
        <ele>260.39999389648</ele>
        <time>2022-05-26T10:47:39.000Z</time>
      </trkpt>
      <trkpt lat="44.38031" lon="1.44829">
        <ele>260.79998779297</ele>
        <time>2022-05-26T10:47:42.000Z</time>
      </trkpt>
      <trkpt lat="44.38031" lon="1.44833">
        <ele>261</ele>
        <time>2022-05-26T10:47:44.000Z</time>
      </trkpt>
      <trkpt lat="44.38029" lon="1.44841">
        <ele>261.39999389648</ele>
        <time>2022-05-26T10:47:48.000Z</time>
      </trkpt>
      <trkpt lat="44.38026" lon="1.44848">
        <ele>262</ele>
        <time>2022-05-26T10:47:55.000Z</time>
      </trkpt>
      <trkpt lat="44.3802" lon="1.44853">
        <ele>262.39999389648</ele>
        <time>2022-05-26T10:48:44.000Z</time>
      </trkpt>
      <trkpt lat="44.38018" lon="1.44854">
        <ele>262.20001220703</ele>
        <time>2022-05-26T10:48:45.000Z</time>
      </trkpt>
      <trkpt lat="44.38015" lon="1.44857">
        <ele>262.20001220703</ele>
        <time>2022-05-26T10:48:47.000Z</time>
      </trkpt>
      <trkpt lat="44.38003" lon="1.44868">
        <ele>262.20001220703</ele>
        <time>2022-05-26T10:48:55.000Z</time>
      </trkpt>
      <trkpt lat="44.37997" lon="1.44873">
        <ele>262.39999389648</ele>
        <time>2022-05-26T10:49:00.000Z</time>
      </trkpt>
      <trkpt lat="44.37997" lon="1.44874">
        <ele>262.39999389648</ele>
        <time>2022-05-26T10:49:01.000Z</time>
      </trkpt>
      <trkpt lat="44.37981" lon="1.4488">
        <ele>262.39999389648</ele>
        <time>2022-05-26T10:49:11.000Z</time>
      </trkpt>
      <trkpt lat="44.3796" lon="1.44883">
        <ele>262</ele>
        <time>2022-05-26T10:49:22.000Z</time>
      </trkpt>
      <trkpt lat="44.3795" lon="1.44883">
        <ele>262</ele>
        <time>2022-05-26T10:49:28.000Z</time>
      </trkpt>
      <trkpt lat="44.37942" lon="1.44884">
        <ele>262</ele>
        <time>2022-05-26T10:49:36.000Z</time>
      </trkpt>
      <trkpt lat="44.37929" lon="1.44881">
        <ele>262</ele>
        <time>2022-05-26T10:49:43.000Z</time>
      </trkpt>
      <trkpt lat="44.37912" lon="1.44881">
        <ele>261.79998779297</ele>
        <time>2022-05-26T10:49:50.000Z</time>
      </trkpt>
      <trkpt lat="44.37897" lon="1.44884">
        <ele>261.79998779297</ele>
        <time>2022-05-26T10:49:57.000Z</time>
      </trkpt>
      <trkpt lat="44.37886" lon="1.44877">
        <ele>261.79998779297</ele>
        <time>2022-05-26T10:50:03.000Z</time>
      </trkpt>
      <trkpt lat="44.37878" lon="1.44876">
        <ele>262</ele>
        <time>2022-05-26T10:50:09.000Z</time>
      </trkpt>
      <trkpt lat="44.37875" lon="1.44875">
        <ele>262</ele>
        <time>2022-05-26T10:50:11.000Z</time>
      </trkpt>
      <trkpt lat="44.37874" lon="1.44874">
        <ele>262</ele>
        <time>2022-05-26T10:50:14.000Z</time>
      </trkpt>
      <trkpt lat="44.37874" lon="1.44874">
        <ele>262</ele>
        <time>2022-05-26T10:50:15.000Z</time>
      </trkpt>
      <trkpt lat="44.37872" lon="1.44874">
        <ele>262.20001220703</ele>
        <time>2022-05-26T10:51:12.000Z</time>
      </trkpt>
      <trkpt lat="44.37865" lon="1.44872">
        <ele>262.20001220703</ele>
        <time>2022-05-26T10:51:14.000Z</time>
      </trkpt>
      <trkpt lat="44.37847" lon="1.44865">
        <ele>262.20001220703</ele>
        <time>2022-05-26T10:51:20.000Z</time>
      </trkpt>
      <trkpt lat="44.37831" lon="1.44858">
        <ele>262.39999389648</ele>
        <time>2022-05-26T10:51:26.000Z</time>
      </trkpt>
      <trkpt lat="44.37807" lon="1.44845">
        <ele>262.39999389648</ele>
        <time>2022-05-26T10:51:34.000Z</time>
      </trkpt>
      <trkpt lat="44.37788" lon="1.44835">
        <ele>262.20001220703</ele>
        <time>2022-05-26T10:51:39.000Z</time>
      </trkpt>
      <trkpt lat="44.37771" lon="1.44835">
        <ele>262.20001220703</ele>
        <time>2022-05-26T10:51:44.000Z</time>
      </trkpt>
      <trkpt lat="44.37766" lon="1.44836">
        <ele>262</ele>
        <time>2022-05-26T10:51:45.000Z</time>
      </trkpt>
      <trkpt lat="44.37756" lon="1.44833">
        <ele>261.79998779297</ele>
        <time>2022-05-26T10:51:47.000Z</time>
      </trkpt>
      <trkpt lat="44.37727" lon="1.44814">
        <ele>261.20001220703</ele>
        <time>2022-05-26T10:51:52.000Z</time>
      </trkpt>
      <trkpt lat="44.37706" lon="1.44804">
        <ele>260</ele>
        <time>2022-05-26T10:51:55.000Z</time>
      </trkpt>
      <trkpt lat="44.37693" lon="1.44802">
        <ele>259</ele>
        <time>2022-05-26T10:51:57.000Z</time>
      </trkpt>
      <trkpt lat="44.37669" lon="1.44804">
        <ele>257.60000610352</ele>
        <time>2022-05-26T10:52:00.000Z</time>
      </trkpt>
      <trkpt lat="44.37655" lon="1.44807">
        <ele>257.20001220703</ele>
        <time>2022-05-26T10:52:02.000Z</time>
      </trkpt>
      <trkpt lat="44.37647" lon="1.4481">
        <ele>257</ele>
        <time>2022-05-26T10:52:03.000Z</time>
      </trkpt>
      <trkpt lat="44.37636" lon="1.44818">
        <ele>256.60000610352</ele>
        <time>2022-05-26T10:52:05.000Z</time>
      </trkpt>
      <trkpt lat="44.37629" lon="1.44824">
        <ele>256.39999389648</ele>
        <time>2022-05-26T10:52:06.000Z</time>
      </trkpt>
      <trkpt lat="44.37624" lon="1.44829">
        <ele>256.20001220703</ele>
        <time>2022-05-26T10:52:07.000Z</time>
      </trkpt>
      <trkpt lat="44.37616" lon="1.4484">
        <ele>255.39999389648</ele>
        <time>2022-05-26T10:52:09.000Z</time>
      </trkpt>
      <trkpt lat="44.37606" lon="1.44858">
        <ele>254.19999694824</ele>
        <time>2022-05-26T10:52:12.000Z</time>
      </trkpt>
      <trkpt lat="44.37602" lon="1.44868">
        <ele>252.80000305176</ele>
        <time>2022-05-26T10:52:14.000Z</time>
      </trkpt>
      <trkpt lat="44.37597" lon="1.44876">
        <ele>251.60000610352</ele>
        <time>2022-05-26T10:52:16.000Z</time>
      </trkpt>
      <trkpt lat="44.37595" lon="1.44881">
        <ele>251.19999694824</ele>
        <time>2022-05-26T10:52:17.000Z</time>
      </trkpt>
      <trkpt lat="44.3759" lon="1.44887">
        <ele>249.80000305176</ele>
        <time>2022-05-26T10:52:19.000Z</time>
      </trkpt>
      <trkpt lat="44.37587" lon="1.4489">
        <ele>248.60000610352</ele>
        <time>2022-05-26T10:52:21.000Z</time>
      </trkpt>
      <trkpt lat="44.37586" lon="1.44895">
        <ele>247.39999389648</ele>
        <time>2022-05-26T10:52:23.000Z</time>
      </trkpt>
      <trkpt lat="44.37585" lon="1.44903">
        <ele>246.80000305176</ele>
        <time>2022-05-26T10:52:25.000Z</time>
      </trkpt>
      <trkpt lat="44.37581" lon="1.44909">
        <ele>246</ele>
        <time>2022-05-26T10:52:27.000Z</time>
      </trkpt>
      <trkpt lat="44.37577" lon="1.44916">
        <ele>245.19999694824</ele>
        <time>2022-05-26T10:52:30.000Z</time>
      </trkpt>
      <trkpt lat="44.37575" lon="1.44918">
        <ele>244.80000305176</ele>
        <time>2022-05-26T10:52:31.000Z</time>
      </trkpt>
      <trkpt lat="44.37571" lon="1.44926">
        <ele>243.39999389648</ele>
        <time>2022-05-26T10:52:34.000Z</time>
      </trkpt>
      <trkpt lat="44.37569" lon="1.44931">
        <ele>242.60000610352</ele>
        <time>2022-05-26T10:52:36.000Z</time>
      </trkpt>
      <trkpt lat="44.37566" lon="1.44933">
        <ele>241.80000305176</ele>
        <time>2022-05-26T10:52:38.000Z</time>
      </trkpt>
      <trkpt lat="44.37564" lon="1.44933">
        <ele>241.39999389648</ele>
        <time>2022-05-26T10:52:39.000Z</time>
      </trkpt>
      <trkpt lat="44.37561" lon="1.44931">
        <ele>240.39999389648</ele>
        <time>2022-05-26T10:52:41.000Z</time>
      </trkpt>
      <trkpt lat="44.37555" lon="1.44926">
        <ele>239.19999694824</ele>
        <time>2022-05-26T10:52:44.000Z</time>
      </trkpt>
      <trkpt lat="44.37553" lon="1.44925">
        <ele>238.39999389648</ele>
        <time>2022-05-26T10:52:46.000Z</time>
      </trkpt>
      <trkpt lat="44.37552" lon="1.44924">
        <ele>237.60000610352</ele>
        <time>2022-05-26T10:52:48.000Z</time>
      </trkpt>
      <trkpt lat="44.37549" lon="1.44922">
        <ele>236.19999694824</ele>
        <time>2022-05-26T10:52:52.000Z</time>
      </trkpt>
      <trkpt lat="44.37548" lon="1.44922">
        <ele>235.80000305176</ele>
        <time>2022-05-26T10:52:53.000Z</time>
      </trkpt>
      <trkpt lat="44.37546" lon="1.44922">
        <ele>235.19999694824</ele>
        <time>2022-05-26T10:52:56.000Z</time>
      </trkpt>
      <trkpt lat="44.37545" lon="1.44922">
        <ele>235</ele>
        <time>2022-05-26T10:52:57.000Z</time>
      </trkpt>
      <trkpt lat="44.37544" lon="1.44923">
        <ele>234.80000305176</ele>
        <time>2022-05-26T10:52:58.000Z</time>
      </trkpt>
      <trkpt lat="44.37542" lon="1.44922">
        <ele>234.39999389648</ele>
        <time>2022-05-26T10:52:59.000Z</time>
      </trkpt>
      <trkpt lat="44.37537" lon="1.44918">
        <ele>233.80000305176</ele>
        <time>2022-05-26T10:53:02.000Z</time>
      </trkpt>
      <trkpt lat="44.37529" lon="1.44913">
        <ele>232.60000610352</ele>
        <time>2022-05-26T10:53:05.000Z</time>
      </trkpt>
      <trkpt lat="44.37522" lon="1.44911">
        <ele>231.19999694824</ele>
        <time>2022-05-26T10:53:07.000Z</time>
      </trkpt>
      <trkpt lat="44.37517" lon="1.4491">
        <ele>230.19999694824</ele>
        <time>2022-05-26T10:53:09.000Z</time>
      </trkpt>
      <trkpt lat="44.37511" lon="1.44909">
        <ele>229</ele>
        <time>2022-05-26T10:53:11.000Z</time>
      </trkpt>
      <trkpt lat="44.37507" lon="1.4491">
        <ele>227.39999389648</ele>
        <time>2022-05-26T10:53:13.000Z</time>
      </trkpt>
      <trkpt lat="44.37504" lon="1.44912">
        <ele>226.39999389648</ele>
        <time>2022-05-26T10:53:15.000Z</time>
      </trkpt>
      <trkpt lat="44.37501" lon="1.44916">
        <ele>225</ele>
        <time>2022-05-26T10:53:17.000Z</time>
      </trkpt>
      <trkpt lat="44.37497" lon="1.44924">
        <ele>224</ele>
        <time>2022-05-26T10:53:19.000Z</time>
      </trkpt>
      <trkpt lat="44.37496" lon="1.44929">
        <ele>223.19999694824</ele>
        <time>2022-05-26T10:53:20.000Z</time>
      </trkpt>
      <trkpt lat="44.37495" lon="1.44934">
        <ele>222.60000610352</ele>
        <time>2022-05-26T10:53:21.000Z</time>
      </trkpt>
      <trkpt lat="44.37491" lon="1.44941">
        <ele>221.60000610352</ele>
        <time>2022-05-26T10:53:23.000Z</time>
      </trkpt>
      <trkpt lat="44.37485" lon="1.4495">
        <ele>220.60000610352</ele>
        <time>2022-05-26T10:53:26.000Z</time>
      </trkpt>
      <trkpt lat="44.37483" lon="1.44953">
        <ele>220.19999694824</ele>
        <time>2022-05-26T10:53:27.000Z</time>
      </trkpt>
      <trkpt lat="44.37482" lon="1.44956">
        <ele>219.80000305176</ele>
        <time>2022-05-26T10:53:28.000Z</time>
      </trkpt>
      <trkpt lat="44.37481" lon="1.4496">
        <ele>219</ele>
        <time>2022-05-26T10:53:29.000Z</time>
      </trkpt>
      <trkpt lat="44.3748" lon="1.44965">
        <ele>218.60000610352</ele>
        <time>2022-05-26T10:53:30.000Z</time>
      </trkpt>
      <trkpt lat="44.37476" lon="1.44974">
        <ele>217.60000610352</ele>
        <time>2022-05-26T10:53:32.000Z</time>
      </trkpt>
      <trkpt lat="44.3747" lon="1.44978">
        <ele>217.19999694824</ele>
        <time>2022-05-26T10:53:34.000Z</time>
      </trkpt>
      <trkpt lat="44.37459" lon="1.44973">
        <ele>216.80000305176</ele>
        <time>2022-05-26T10:53:37.000Z</time>
      </trkpt>
      <trkpt lat="44.37441" lon="1.4495">
        <ele>216.60000610352</ele>
        <time>2022-05-26T10:53:43.000Z</time>
      </trkpt>
      <trkpt lat="44.37413" lon="1.44912">
        <ele>217.39999389648</ele>
        <time>2022-05-26T10:53:54.000Z</time>
      </trkpt>
      <trkpt lat="44.37397" lon="1.44892">
        <ele>218.39999389648</ele>
        <time>2022-05-26T10:54:01.000Z</time>
      </trkpt>
      <trkpt lat="44.37395" lon="1.44889">
        <ele>218.60000610352</ele>
        <time>2022-05-26T10:54:02.000Z</time>
      </trkpt>
      <trkpt lat="44.37379" lon="1.44871">
        <ele>220</ele>
        <time>2022-05-26T10:54:09.000Z</time>
      </trkpt>
      <trkpt lat="44.37366" lon="1.4486">
        <ele>221</ele>
        <time>2022-05-26T10:54:15.000Z</time>
      </trkpt>
      <trkpt lat="44.37361" lon="1.44856">
        <ele>221.60000610352</ele>
        <time>2022-05-26T10:54:17.000Z</time>
      </trkpt>
      <trkpt lat="44.37355" lon="1.44853">
        <ele>222.19999694824</ele>
        <time>2022-05-26T10:54:19.000Z</time>
      </trkpt>
      <trkpt lat="44.37344" lon="1.44842">
        <ele>223.19999694824</ele>
        <time>2022-05-26T10:54:24.000Z</time>
      </trkpt>
      <trkpt lat="44.37339" lon="1.44838">
        <ele>223.60000610352</ele>
        <time>2022-05-26T10:54:26.000Z</time>
      </trkpt>
      <trkpt lat="44.37337" lon="1.44836">
        <ele>223.80000305176</ele>
        <time>2022-05-26T10:54:27.000Z</time>
      </trkpt>
      <trkpt lat="44.37333" lon="1.44832">
        <ele>224.60000610352</ele>
        <time>2022-05-26T10:54:29.000Z</time>
      </trkpt>
      <trkpt lat="44.37318" lon="1.4482">
        <ele>225.60000610352</ele>
        <time>2022-05-26T10:54:35.000Z</time>
      </trkpt>
      <trkpt lat="44.37315" lon="1.44818">
        <ele>225.80000305176</ele>
        <time>2022-05-26T10:54:36.000Z</time>
      </trkpt>
      <trkpt lat="44.37305" lon="1.44807">
        <ele>226.60000610352</ele>
        <time>2022-05-26T10:54:41.000Z</time>
      </trkpt>
      <trkpt lat="44.37301" lon="1.44802">
        <ele>226.80000305176</ele>
        <time>2022-05-26T10:54:43.000Z</time>
      </trkpt>
      <trkpt lat="44.37288" lon="1.44793">
        <ele>227.60000610352</ele>
        <time>2022-05-26T10:54:48.000Z</time>
      </trkpt>
      <trkpt lat="44.37285" lon="1.4479">
        <ele>227.60000610352</ele>
        <time>2022-05-26T10:54:49.000Z</time>
      </trkpt>
      <trkpt lat="44.37275" lon="1.44785">
        <ele>228.39999389648</ele>
        <time>2022-05-26T10:54:53.000Z</time>
      </trkpt>
      <trkpt lat="44.37268" lon="1.44781">
        <ele>229</ele>
        <time>2022-05-26T10:54:55.000Z</time>
      </trkpt>
      <trkpt lat="44.37255" lon="1.44771">
        <ele>230.39999389648</ele>
        <time>2022-05-26T10:55:00.000Z</time>
      </trkpt>
      <trkpt lat="44.37253" lon="1.44769">
        <ele>230.60000610352</ele>
        <time>2022-05-26T10:55:01.000Z</time>
      </trkpt>
      <trkpt lat="44.37243" lon="1.44756">
        <ele>231.39999389648</ele>
        <time>2022-05-26T10:55:06.000Z</time>
      </trkpt>
      <trkpt lat="44.37239" lon="1.44749">
        <ele>231.80000305176</ele>
        <time>2022-05-26T10:55:08.000Z</time>
      </trkpt>
      <trkpt lat="44.37226" lon="1.44732">
        <ele>232.39999389648</ele>
        <time>2022-05-26T10:55:14.000Z</time>
      </trkpt>
      <trkpt lat="44.37224" lon="1.44729">
        <ele>232.60000610352</ele>
        <time>2022-05-26T10:55:15.000Z</time>
      </trkpt>
      <trkpt lat="44.37212" lon="1.44718">
        <ele>233.19999694824</ele>
        <time>2022-05-26T10:55:20.000Z</time>
      </trkpt>
      <trkpt lat="44.37205" lon="1.44709">
        <ele>233.39999389648</ele>
        <time>2022-05-26T10:55:23.000Z</time>
      </trkpt>
      <trkpt lat="44.37194" lon="1.44695">
        <ele>234.19999694824</ele>
        <time>2022-05-26T10:55:28.000Z</time>
      </trkpt>
      <trkpt lat="44.37191" lon="1.44694">
        <ele>234.39999389648</ele>
        <time>2022-05-26T10:55:29.000Z</time>
      </trkpt>
      <trkpt lat="44.37177" lon="1.44685">
        <ele>235.39999389648</ele>
        <time>2022-05-26T10:55:34.000Z</time>
      </trkpt>
      <trkpt lat="44.37174" lon="1.44684">
        <ele>235.39999389648</ele>
        <time>2022-05-26T10:55:35.000Z</time>
      </trkpt>
      <trkpt lat="44.37163" lon="1.44674">
        <ele>236.60000610352</ele>
        <time>2022-05-26T10:55:40.000Z</time>
      </trkpt>
      <trkpt lat="44.37152" lon="1.44669">
        <ele>237.80000305176</ele>
        <time>2022-05-26T10:55:45.000Z</time>
      </trkpt>
      <trkpt lat="44.37148" lon="1.44667">
        <ele>238.19999694824</ele>
        <time>2022-05-26T10:55:47.000Z</time>
      </trkpt>
      <trkpt lat="44.37142" lon="1.44663">
        <ele>239</ele>
        <time>2022-05-26T10:55:50.000Z</time>
      </trkpt>
      <trkpt lat="44.37128" lon="1.44654">
        <ele>239.80000305176</ele>
        <time>2022-05-26T10:55:56.000Z</time>
      </trkpt>
      <trkpt lat="44.37126" lon="1.44652">
        <ele>239.80000305176</ele>
        <time>2022-05-26T10:55:57.000Z</time>
      </trkpt>
      <trkpt lat="44.37108" lon="1.44639">
        <ele>240.80000305176</ele>
        <time>2022-05-26T10:56:06.000Z</time>
      </trkpt>
      <trkpt lat="44.37107" lon="1.44639">
        <ele>241</ele>
        <time>2022-05-26T10:56:07.000Z</time>
      </trkpt>
      <trkpt lat="44.37093" lon="1.44631">
        <ele>242.19999694824</ele>
        <time>2022-05-26T10:56:13.000Z</time>
      </trkpt>
      <trkpt lat="44.37088" lon="1.44628">
        <ele>242.80000305176</ele>
        <time>2022-05-26T10:56:15.000Z</time>
      </trkpt>
      <trkpt lat="44.37075" lon="1.44621">
        <ele>243.39999389648</ele>
        <time>2022-05-26T10:56:20.000Z</time>
      </trkpt>
      <trkpt lat="44.3707" lon="1.44619">
        <ele>243.60000610352</ele>
        <time>2022-05-26T10:56:22.000Z</time>
      </trkpt>
      <trkpt lat="44.37053" lon="1.44607">
        <ele>244.39999389648</ele>
        <time>2022-05-26T10:56:29.000Z</time>
      </trkpt>
      <trkpt lat="44.37048" lon="1.44604">
        <ele>244.60000610352</ele>
        <time>2022-05-26T10:56:31.000Z</time>
      </trkpt>
      <trkpt lat="44.3703" lon="1.44591">
        <ele>245</ele>
        <time>2022-05-26T10:56:39.000Z</time>
      </trkpt>
      <trkpt lat="44.37023" lon="1.44585">
        <ele>245.39999389648</ele>
        <time>2022-05-26T10:56:43.000Z</time>
      </trkpt>
      <trkpt lat="44.37015" lon="1.44578">
        <ele>245.80000305176</ele>
        <time>2022-05-26T10:56:47.000Z</time>
      </trkpt>
      <trkpt lat="44.37003" lon="1.44569">
        <ele>246.39999389648</ele>
        <time>2022-05-26T10:56:53.000Z</time>
      </trkpt>
      <trkpt lat="44.36984" lon="1.44557">
        <ele>247</ele>
        <time>2022-05-26T10:57:01.000Z</time>
      </trkpt>
      <trkpt lat="44.36974" lon="1.44552">
        <ele>247.19999694824</ele>
        <time>2022-05-26T10:57:05.000Z</time>
      </trkpt>
      <trkpt lat="44.36968" lon="1.44547">
        <ele>247.60000610352</ele>
        <time>2022-05-26T10:57:08.000Z</time>
      </trkpt>
      <trkpt lat="44.36958" lon="1.44547">
        <ele>248.39999389648</ele>
        <time>2022-05-26T10:57:13.000Z</time>
      </trkpt>
      <trkpt lat="44.36954" lon="1.4455">
        <ele>249</ele>
        <time>2022-05-26T10:57:17.000Z</time>
      </trkpt>
      <trkpt lat="44.3695" lon="1.44553">
        <ele>249.19999694824</ele>
        <time>2022-05-26T10:57:29.000Z</time>
      </trkpt>
      <trkpt lat="44.36947" lon="1.44557">
        <ele>249.19999694824</ele>
        <time>2022-05-26T10:57:31.000Z</time>
      </trkpt>
      <trkpt lat="44.36939" lon="1.44565">
        <ele>249.39999389648</ele>
        <time>2022-05-26T10:57:35.000Z</time>
      </trkpt>
      <trkpt lat="44.36934" lon="1.44568">
        <ele>249.80000305176</ele>
        <time>2022-05-26T10:57:37.000Z</time>
      </trkpt>
      <trkpt lat="44.36919" lon="1.44579">
        <ele>250.19999694824</ele>
        <time>2022-05-26T10:57:44.000Z</time>
      </trkpt>
      <trkpt lat="44.36917" lon="1.4458">
        <ele>250.39999389648</ele>
        <time>2022-05-26T10:57:45.000Z</time>
      </trkpt>
      <trkpt lat="44.36902" lon="1.44595">
        <ele>251.19999694824</ele>
        <time>2022-05-26T10:57:52.000Z</time>
      </trkpt>
      <trkpt lat="44.36894" lon="1.44605">
        <ele>251.60000610352</ele>
        <time>2022-05-26T10:57:56.000Z</time>
      </trkpt>
      <trkpt lat="44.36883" lon="1.44621">
        <ele>252.60000610352</ele>
        <time>2022-05-26T10:58:02.000Z</time>
      </trkpt>
      <trkpt lat="44.36882" lon="1.44624">
        <ele>252.60000610352</ele>
        <time>2022-05-26T10:58:03.000Z</time>
      </trkpt>
      <trkpt lat="44.36869" lon="1.44643">
        <ele>253.80000305176</ele>
        <time>2022-05-26T10:58:10.000Z</time>
      </trkpt>
      <trkpt lat="44.36861" lon="1.44656">
        <ele>254.80000305176</ele>
        <time>2022-05-26T10:58:15.000Z</time>
      </trkpt>
      <trkpt lat="44.36861" lon="1.44656">
        <ele>254.80000305176</ele>
        <time>2022-05-26T10:58:16.000Z</time>
      </trkpt>
      <trkpt lat="44.36851" lon="1.44671">
        <ele>256</ele>
        <time>2022-05-26T10:58:21.000Z</time>
      </trkpt>
      <trkpt lat="44.36844" lon="1.44682">
        <ele>256.79998779297</ele>
        <time>2022-05-26T10:58:26.000Z</time>
      </trkpt>
      <trkpt lat="44.36843" lon="1.44684">
        <ele>257</ele>
        <time>2022-05-26T10:58:27.000Z</time>
      </trkpt>
      <trkpt lat="44.36836" lon="1.44693">
        <ele>258.20001220703</ele>
        <time>2022-05-26T10:58:32.000Z</time>
      </trkpt>
      <trkpt lat="44.36833" lon="1.44698">
        <ele>259</ele>
        <time>2022-05-26T10:58:35.000Z</time>
      </trkpt>
      <trkpt lat="44.3683" lon="1.44702">
        <ele>259.60000610352</ele>
        <time>2022-05-26T10:58:37.000Z</time>
      </trkpt>
      <trkpt lat="44.36825" lon="1.44709">
        <ele>260.60000610352</ele>
        <time>2022-05-26T10:58:41.000Z</time>
      </trkpt>
      <trkpt lat="44.36821" lon="1.44715">
        <ele>261.60000610352</ele>
        <time>2022-05-26T10:58:44.000Z</time>
      </trkpt>
      <trkpt lat="44.3682" lon="1.44717">
        <ele>262</ele>
        <time>2022-05-26T10:58:45.000Z</time>
      </trkpt>
      <trkpt lat="44.36813" lon="1.44727">
        <ele>263</ele>
        <time>2022-05-26T10:58:50.000Z</time>
      </trkpt>
      <trkpt lat="44.36807" lon="1.44734">
        <ele>263.79998779297</ele>
        <time>2022-05-26T10:58:54.000Z</time>
      </trkpt>
      <trkpt lat="44.36806" lon="1.44736">
        <ele>264</ele>
        <time>2022-05-26T10:58:55.000Z</time>
      </trkpt>
      <trkpt lat="44.36793" lon="1.44749">
        <ele>265.20001220703</ele>
        <time>2022-05-26T10:59:03.000Z</time>
      </trkpt>
      <trkpt lat="44.36782" lon="1.44756">
        <ele>265.79998779297</ele>
        <time>2022-05-26T10:59:09.000Z</time>
      </trkpt>
      <trkpt lat="44.36768" lon="1.44756">
        <ele>266</ele>
        <time>2022-05-26T10:59:15.000Z</time>
      </trkpt>
      <trkpt lat="44.36752" lon="1.44757">
        <ele>265.79998779297</ele>
        <time>2022-05-26T10:59:20.000Z</time>
      </trkpt>
      <trkpt lat="44.36724" lon="1.44759">
        <ele>265</ele>
        <time>2022-05-26T10:59:26.000Z</time>
      </trkpt>
      <trkpt lat="44.36719" lon="1.4476">
        <ele>265</ele>
        <time>2022-05-26T10:59:27.000Z</time>
      </trkpt>
      <trkpt lat="44.36703" lon="1.44763">
        <ele>264.39999389648</ele>
        <time>2022-05-26T10:59:30.000Z</time>
      </trkpt>
      <trkpt lat="44.36697" lon="1.44765">
        <ele>264.20001220703</ele>
        <time>2022-05-26T10:59:31.000Z</time>
      </trkpt>
      <trkpt lat="44.36684" lon="1.44768">
        <ele>263.79998779297</ele>
        <time>2022-05-26T10:59:33.000Z</time>
      </trkpt>
      <trkpt lat="44.36671" lon="1.44771">
        <ele>263.20001220703</ele>
        <time>2022-05-26T10:59:35.000Z</time>
      </trkpt>
      <trkpt lat="44.36652" lon="1.44775">
        <ele>261.79998779297</ele>
        <time>2022-05-26T10:59:38.000Z</time>
      </trkpt>
      <trkpt lat="44.36647" lon="1.44775">
        <ele>261.39999389648</ele>
        <time>2022-05-26T10:59:39.000Z</time>
      </trkpt>
      <trkpt lat="44.36642" lon="1.44773">
        <ele>260.60000610352</ele>
        <time>2022-05-26T10:59:40.000Z</time>
      </trkpt>
      <trkpt lat="44.36636" lon="1.44764">
        <ele>259</ele>
        <time>2022-05-26T10:59:42.000Z</time>
      </trkpt>
      <trkpt lat="44.36634" lon="1.44756">
        <ele>258</ele>
        <time>2022-05-26T10:59:44.000Z</time>
      </trkpt>
      <trkpt lat="44.36634" lon="1.44749">
        <ele>257.20001220703</ele>
        <time>2022-05-26T10:59:46.000Z</time>
      </trkpt>
      <trkpt lat="44.36632" lon="1.44732">
        <ele>257</ele>
        <time>2022-05-26T10:59:51.000Z</time>
      </trkpt>
      <trkpt lat="44.36631" lon="1.44721">
        <ele>257.79998779297</ele>
        <time>2022-05-26T10:59:54.000Z</time>
      </trkpt>
      <trkpt lat="44.36628" lon="1.44692">
        <ele>259</ele>
        <time>2022-05-26T11:00:02.000Z</time>
      </trkpt>
      <trkpt lat="44.36628" lon="1.44685">
        <ele>259</ele>
        <time>2022-05-26T11:00:04.000Z</time>
      </trkpt>
      <trkpt lat="44.36625" lon="1.44649">
        <ele>260</ele>
        <time>2022-05-26T11:00:14.000Z</time>
      </trkpt>
      <trkpt lat="44.36625" lon="1.44645">
        <ele>260.20001220703</ele>
        <time>2022-05-26T11:00:15.000Z</time>
      </trkpt>
      <trkpt lat="44.36622" lon="1.44609">
        <ele>260.60000610352</ele>
        <time>2022-05-26T11:00:24.000Z</time>
      </trkpt>
      <trkpt lat="44.36618" lon="1.44568">
        <ele>260.60000610352</ele>
        <time>2022-05-26T11:00:33.000Z</time>
      </trkpt>
      <trkpt lat="44.36615" lon="1.44532">
        <ele>260.39999389648</ele>
        <time>2022-05-26T11:00:41.000Z</time>
      </trkpt>
      <trkpt lat="44.36614" lon="1.44513">
        <ele>260.20001220703</ele>
        <time>2022-05-26T11:00:46.000Z</time>
      </trkpt>
      <trkpt lat="44.36612" lon="1.44502">
        <ele>260.20001220703</ele>
        <time>2022-05-26T11:00:49.000Z</time>
      </trkpt>
      <trkpt lat="44.36606" lon="1.44462">
        <ele>259.79998779297</ele>
        <time>2022-05-26T11:00:58.000Z</time>
      </trkpt>
      <trkpt lat="44.366" lon="1.44431">
        <ele>259.79998779297</ele>
        <time>2022-05-26T11:01:06.000Z</time>
      </trkpt>
      <trkpt lat="44.36591" lon="1.444">
        <ele>260.20001220703</ele>
        <time>2022-05-26T11:01:14.000Z</time>
      </trkpt>
      <trkpt lat="44.36585" lon="1.4438">
        <ele>261.20001220703</ele>
        <time>2022-05-26T11:01:19.000Z</time>
      </trkpt>
      <trkpt lat="44.36579" lon="1.4436">
        <ele>261.79998779297</ele>
        <time>2022-05-26T11:01:24.000Z</time>
      </trkpt>
      <trkpt lat="44.36574" lon="1.44341">
        <ele>262.20001220703</ele>
        <time>2022-05-26T11:01:29.000Z</time>
      </trkpt>
      <trkpt lat="44.36569" lon="1.44323">
        <ele>263</ele>
        <time>2022-05-26T11:01:34.000Z</time>
      </trkpt>
      <trkpt lat="44.36566" lon="1.44315">
        <ele>263.20001220703</ele>
        <time>2022-05-26T11:01:36.000Z</time>
      </trkpt>
      <trkpt lat="44.36556" lon="1.4429">
        <ele>264</ele>
        <time>2022-05-26T11:01:43.000Z</time>
      </trkpt>
      <trkpt lat="44.36548" lon="1.44268">
        <ele>264.20001220703</ele>
        <time>2022-05-26T11:01:49.000Z</time>
      </trkpt>
      <trkpt lat="44.36544" lon="1.44256">
        <ele>264.60000610352</ele>
        <time>2022-05-26T11:01:52.000Z</time>
      </trkpt>
      <trkpt lat="44.36534" lon="1.44226">
        <ele>265.20001220703</ele>
        <time>2022-05-26T11:02:00.000Z</time>
      </trkpt>
      <trkpt lat="44.36531" lon="1.44218">
        <ele>265.20001220703</ele>
        <time>2022-05-26T11:02:02.000Z</time>
      </trkpt>
      <trkpt lat="44.36522" lon="1.44194">
        <ele>265.79998779297</ele>
        <time>2022-05-26T11:02:08.000Z</time>
      </trkpt>
      <trkpt lat="44.36518" lon="1.44181">
        <ele>266.39999389648</ele>
        <time>2022-05-26T11:02:11.000Z</time>
      </trkpt>
      <trkpt lat="44.36514" lon="1.44162">
        <ele>267</ele>
        <time>2022-05-26T11:02:16.000Z</time>
      </trkpt>
      <trkpt lat="44.36513" lon="1.44154">
        <ele>267.39999389648</ele>
        <time>2022-05-26T11:02:18.000Z</time>
      </trkpt>
      <trkpt lat="44.36511" lon="1.44135">
        <ele>268</ele>
        <time>2022-05-26T11:02:23.000Z</time>
      </trkpt>
      <trkpt lat="44.36504" lon="1.44115">
        <ele>268.20001220703</ele>
        <time>2022-05-26T11:02:29.000Z</time>
      </trkpt>
      <trkpt lat="44.36502" lon="1.4411">
        <ele>268.20001220703</ele>
        <time>2022-05-26T11:02:30.000Z</time>
      </trkpt>
      <trkpt lat="44.36495" lon="1.44079">
        <ele>267</ele>
        <time>2022-05-26T11:02:36.000Z</time>
      </trkpt>
      <trkpt lat="44.3649" lon="1.44057">
        <ele>266.20001220703</ele>
        <time>2022-05-26T11:02:40.000Z</time>
      </trkpt>
      <trkpt lat="44.36488" lon="1.44049">
        <ele>265.60000610352</ele>
        <time>2022-05-26T11:02:42.000Z</time>
      </trkpt>
      <trkpt lat="44.36488" lon="1.44043">
        <ele>265</ele>
        <time>2022-05-26T11:02:44.000Z</time>
      </trkpt>
      <trkpt lat="44.36485" lon="1.44033">
        <ele>264.39999389648</ele>
        <time>2022-05-26T11:02:47.000Z</time>
      </trkpt>
      <trkpt lat="44.36484" lon="1.44029">
        <ele>264</ele>
        <time>2022-05-26T11:02:48.000Z</time>
      </trkpt>
      <trkpt lat="44.3648" lon="1.44015">
        <ele>263</ele>
        <time>2022-05-26T11:02:52.000Z</time>
      </trkpt>
      <trkpt lat="44.36479" lon="1.44009">
        <ele>261.79998779297</ele>
        <time>2022-05-26T11:02:54.000Z</time>
      </trkpt>
      <trkpt lat="44.36478" lon="1.44002">
        <ele>260.20001220703</ele>
        <time>2022-05-26T11:02:56.000Z</time>
      </trkpt>
      <trkpt lat="44.36477" lon="1.43986">
        <ele>258.79998779297</ele>
        <time>2022-05-26T11:02:59.000Z</time>
      </trkpt>
      <trkpt lat="44.36475" lon="1.43974">
        <ele>257.39999389648</ele>
        <time>2022-05-26T11:03:01.000Z</time>
      </trkpt>
      <trkpt lat="44.36474" lon="1.43965">
        <ele>255.80000305176</ele>
        <time>2022-05-26T11:03:03.000Z</time>
      </trkpt>
      <trkpt lat="44.36473" lon="1.43962">
        <ele>255.39999389648</ele>
        <time>2022-05-26T11:03:04.000Z</time>
      </trkpt>
      <trkpt lat="44.36471" lon="1.43948">
        <ele>254.60000610352</ele>
        <time>2022-05-26T11:03:07.000Z</time>
      </trkpt>
      <trkpt lat="44.3647" lon="1.43945">
        <ele>254.60000610352</ele>
        <time>2022-05-26T11:03:08.000Z</time>
      </trkpt>
      <trkpt lat="44.36471" lon="1.43944">
        <ele>254.60000610352</ele>
        <time>2022-05-26T11:03:09.000Z</time>
      </trkpt>
      <trkpt lat="44.36471" lon="1.43944">
        <ele>254.60000610352</ele>
        <time>2022-05-26T11:03:12.000Z</time>
      </trkpt>
      <trkpt lat="44.36469" lon="1.43936">
        <ele>256.20001220703</ele>
        <time>2022-05-26T11:03:31.000Z</time>
      </trkpt>
      <trkpt lat="44.36464" lon="1.43921">
        <ele>257.20001220703</ele>
        <time>2022-05-26T11:03:36.000Z</time>
      </trkpt>
      <trkpt lat="44.36462" lon="1.43917">
        <ele>257.60000610352</ele>
        <time>2022-05-26T11:03:37.000Z</time>
      </trkpt>
      <trkpt lat="44.36458" lon="1.43908">
        <ele>258.60000610352</ele>
        <time>2022-05-26T11:03:40.000Z</time>
      </trkpt>
      <trkpt lat="44.36456" lon="1.43901">
        <ele>260.20001220703</ele>
        <time>2022-05-26T11:03:42.000Z</time>
      </trkpt>
      <trkpt lat="44.36455" lon="1.43897">
        <ele>260.60000610352</ele>
        <time>2022-05-26T11:03:43.000Z</time>
      </trkpt>
      <trkpt lat="44.36453" lon="1.43892">
        <ele>261.20001220703</ele>
        <time>2022-05-26T11:03:45.000Z</time>
      </trkpt>
      <trkpt lat="44.36451" lon="1.43886">
        <ele>262.39999389648</ele>
        <time>2022-05-26T11:03:47.000Z</time>
      </trkpt>
      <trkpt lat="44.36448" lon="1.4388">
        <ele>263.60000610352</ele>
        <time>2022-05-26T11:03:49.000Z</time>
      </trkpt>
      <trkpt lat="44.36446" lon="1.43874">
        <ele>264.79998779297</ele>
        <time>2022-05-26T11:03:51.000Z</time>
      </trkpt>
      <trkpt lat="44.36444" lon="1.43869">
        <ele>266</ele>
        <time>2022-05-26T11:03:53.000Z</time>
      </trkpt>
      <trkpt lat="44.36443" lon="1.43868">
        <ele>266.20001220703</ele>
        <time>2022-05-26T11:03:54.000Z</time>
      </trkpt>
      <trkpt lat="44.36439" lon="1.43865">
        <ele>267.20001220703</ele>
        <time>2022-05-26T11:03:56.000Z</time>
      </trkpt>
      <trkpt lat="44.36438" lon="1.43864">
        <ele>267.79998779297</ele>
        <time>2022-05-26T11:03:57.000Z</time>
      </trkpt>
      <trkpt lat="44.36437" lon="1.43863">
        <ele>268.60000610352</ele>
        <time>2022-05-26T11:03:58.000Z</time>
      </trkpt>
      <trkpt lat="44.36437" lon="1.43863">
        <ele>269</ele>
        <time>2022-05-26T11:03:59.000Z</time>
      </trkpt>
      <trkpt lat="44.36435" lon="1.4386">
        <ele>269.79998779297</ele>
        <time>2022-05-26T11:04:01.000Z</time>
      </trkpt>
      <trkpt lat="44.36432" lon="1.4385">
        <ele>270.20001220703</ele>
        <time>2022-05-26T11:04:06.000Z</time>
      </trkpt>
      <trkpt lat="44.36432" lon="1.43841">
        <ele>270.79998779297</ele>
        <time>2022-05-26T11:04:11.000Z</time>
      </trkpt>
      <trkpt lat="44.36432" lon="1.43836">
        <ele>271.20001220703</ele>
        <time>2022-05-26T11:04:13.000Z</time>
      </trkpt>
      <trkpt lat="44.36429" lon="1.43826">
        <ele>272</ele>
        <time>2022-05-26T11:04:19.000Z</time>
      </trkpt>
      <trkpt lat="44.36428" lon="1.4382">
        <ele>272.39999389648</ele>
        <time>2022-05-26T11:04:22.000Z</time>
      </trkpt>
      <trkpt lat="44.36426" lon="1.43804">
        <ele>272.79998779297</ele>
        <time>2022-05-26T11:04:28.000Z</time>
      </trkpt>
      <trkpt lat="44.36423" lon="1.43798">
        <ele>273</ele>
        <time>2022-05-26T11:04:30.000Z</time>
      </trkpt>
      <trkpt lat="44.36422" lon="1.43796">
        <ele>273</ele>
        <time>2022-05-26T11:04:31.000Z</time>
      </trkpt>
      <trkpt lat="44.3642" lon="1.43794">
        <ele>273.20001220703</ele>
        <time>2022-05-26T11:04:33.000Z</time>
      </trkpt>
      <trkpt lat="44.36415" lon="1.4378">
        <ele>274</ele>
        <time>2022-05-26T11:04:39.000Z</time>
      </trkpt>
      <trkpt lat="44.36414" lon="1.43779">
        <ele>274</ele>
        <time>2022-05-26T11:04:40.000Z</time>
      </trkpt>
      <trkpt lat="44.36409" lon="1.43774">
        <ele>274.60000610352</ele>
        <time>2022-05-26T11:04:43.000Z</time>
      </trkpt>
      <trkpt lat="44.36404" lon="1.43769">
        <ele>275.20001220703</ele>
        <time>2022-05-26T11:04:46.000Z</time>
      </trkpt>
      <trkpt lat="44.36402" lon="1.43768">
        <ele>275.20001220703</ele>
        <time>2022-05-26T11:04:47.000Z</time>
      </trkpt>
      <trkpt lat="44.36393" lon="1.43754">
        <ele>276</ele>
        <time>2022-05-26T11:04:54.000Z</time>
      </trkpt>
      <trkpt lat="44.36385" lon="1.43741">
        <ele>276.20001220703</ele>
        <time>2022-05-26T11:05:00.000Z</time>
      </trkpt>
      <trkpt lat="44.36384" lon="1.43739">
        <ele>276.20001220703</ele>
        <time>2022-05-26T11:05:01.000Z</time>
      </trkpt>
      <trkpt lat="44.36371" lon="1.4373">
        <ele>276.39999389648</ele>
        <time>2022-05-26T11:05:08.000Z</time>
      </trkpt>
      <trkpt lat="44.36365" lon="1.43728">
        <ele>276.39999389648</ele>
        <time>2022-05-26T11:05:11.000Z</time>
      </trkpt>
      <trkpt lat="44.36361" lon="1.43724">
        <ele>277</ele>
        <time>2022-05-26T11:05:13.000Z</time>
      </trkpt>
      <trkpt lat="44.36358" lon="1.43723">
        <ele>277.20001220703</ele>
        <time>2022-05-26T11:05:14.000Z</time>
      </trkpt>
      <trkpt lat="44.36347" lon="1.43722">
        <ele>278</ele>
        <time>2022-05-26T11:05:20.000Z</time>
      </trkpt>
      <trkpt lat="44.36345" lon="1.43722">
        <ele>278.20001220703</ele>
        <time>2022-05-26T11:05:21.000Z</time>
      </trkpt>
      <trkpt lat="44.36334" lon="1.43718">
        <ele>278.60000610352</ele>
        <time>2022-05-26T11:05:26.000Z</time>
      </trkpt>
      <trkpt lat="44.36323" lon="1.43706">
        <ele>279.20001220703</ele>
        <time>2022-05-26T11:05:32.000Z</time>
      </trkpt>
      <trkpt lat="44.36322" lon="1.43704">
        <ele>279.39999389648</ele>
        <time>2022-05-26T11:05:33.000Z</time>
      </trkpt>
      <trkpt lat="44.36311" lon="1.4369">
        <ele>280</ele>
        <time>2022-05-26T11:05:40.000Z</time>
      </trkpt>
      <trkpt lat="44.36309" lon="1.43688">
        <ele>280.39999389648</ele>
        <time>2022-05-26T11:05:41.000Z</time>
      </trkpt>
      <trkpt lat="44.36303" lon="1.43678">
        <ele>281.39999389648</ele>
        <time>2022-05-26T11:05:45.000Z</time>
      </trkpt>
      <trkpt lat="44.36299" lon="1.43671">
        <ele>281.60000610352</ele>
        <time>2022-05-26T11:05:47.000Z</time>
      </trkpt>
      <trkpt lat="44.36287" lon="1.43649">
        <ele>281.20001220703</ele>
        <time>2022-05-26T11:05:53.000Z</time>
      </trkpt>
      <trkpt lat="44.36276" lon="1.43632">
        <ele>280.79998779297</ele>
        <time>2022-05-26T11:05:57.000Z</time>
      </trkpt>
      <trkpt lat="44.36273" lon="1.43627">
        <ele>280.60000610352</ele>
        <time>2022-05-26T11:05:58.000Z</time>
      </trkpt>
      <trkpt lat="44.36268" lon="1.43618">
        <ele>280.20001220703</ele>
        <time>2022-05-26T11:06:00.000Z</time>
      </trkpt>
      <trkpt lat="44.36261" lon="1.43606">
        <ele>280</ele>
        <time>2022-05-26T11:06:03.000Z</time>
      </trkpt>
      <trkpt lat="44.36255" lon="1.43597">
        <ele>279.60000610352</ele>
        <time>2022-05-26T11:06:05.000Z</time>
      </trkpt>
      <trkpt lat="44.36247" lon="1.43585">
        <ele>279.20001220703</ele>
        <time>2022-05-26T11:06:08.000Z</time>
      </trkpt>
      <trkpt lat="44.36239" lon="1.4357">
        <ele>277.39999389648</ele>
        <time>2022-05-26T11:06:11.000Z</time>
      </trkpt>
      <trkpt lat="44.36235" lon="1.43565">
        <ele>277</ele>
        <time>2022-05-26T11:06:12.000Z</time>
      </trkpt>
      <trkpt lat="44.36225" lon="1.43556">
        <ele>276.20001220703</ele>
        <time>2022-05-26T11:06:14.000Z</time>
      </trkpt>
      <trkpt lat="44.36217" lon="1.43547">
        <ele>275.79998779297</ele>
        <time>2022-05-26T11:06:16.000Z</time>
      </trkpt>
      <trkpt lat="44.36212" lon="1.43537">
        <ele>275</ele>
        <time>2022-05-26T11:06:18.000Z</time>
      </trkpt>
      <trkpt lat="44.36209" lon="1.43529">
        <ele>274.39999389648</ele>
        <time>2022-05-26T11:06:20.000Z</time>
      </trkpt>
      <trkpt lat="44.36204" lon="1.43517">
        <ele>274</ele>
        <time>2022-05-26T11:06:23.000Z</time>
      </trkpt>
      <trkpt lat="44.362" lon="1.43505">
        <ele>274</ele>
        <time>2022-05-26T11:06:26.000Z</time>
      </trkpt>
      <trkpt lat="44.36195" lon="1.4349">
        <ele>274.79998779297</ele>
        <time>2022-05-26T11:06:30.000Z</time>
      </trkpt>
      <trkpt lat="44.36194" lon="1.43487">
        <ele>275</ele>
        <time>2022-05-26T11:06:31.000Z</time>
      </trkpt>
      <trkpt lat="44.36192" lon="1.43484">
        <ele>275.79998779297</ele>
        <time>2022-05-26T11:06:32.000Z</time>
      </trkpt>
      <trkpt lat="44.36189" lon="1.43477">
        <ele>276.39999389648</ele>
        <time>2022-05-26T11:06:34.000Z</time>
      </trkpt>
      <trkpt lat="44.36185" lon="1.43467">
        <ele>277.39999389648</ele>
        <time>2022-05-26T11:06:37.000Z</time>
      </trkpt>
      <trkpt lat="44.36182" lon="1.43457">
        <ele>278.60000610352</ele>
        <time>2022-05-26T11:06:40.000Z</time>
      </trkpt>
      <trkpt lat="44.36178" lon="1.43445">
        <ele>279.79998779297</ele>
        <time>2022-05-26T11:06:43.000Z</time>
      </trkpt>
      <trkpt lat="44.36174" lon="1.4343">
        <ele>280.20001220703</ele>
        <time>2022-05-26T11:06:46.000Z</time>
      </trkpt>
      <trkpt lat="44.36162" lon="1.43392">
        <ele>279.79998779297</ele>
        <time>2022-05-26T11:06:55.000Z</time>
      </trkpt>
      <trkpt lat="44.3615" lon="1.43364">
        <ele>279.79998779297</ele>
        <time>2022-05-26T11:07:03.000Z</time>
      </trkpt>
      <trkpt lat="44.36142" lon="1.43347">
        <ele>280.60000610352</ele>
        <time>2022-05-26T11:07:10.000Z</time>
      </trkpt>
      <trkpt lat="44.36141" lon="1.43346">
        <ele>281</ele>
        <time>2022-05-26T11:07:11.000Z</time>
      </trkpt>
      <trkpt lat="44.36141" lon="1.43346">
        <ele>281.39999389648</ele>
        <time>2022-05-26T11:07:14.000Z</time>
      </trkpt>
      <trkpt lat="44.36134" lon="1.43334">
        <ele>281.39999389648</ele>
        <time>2022-05-26T11:11:55.000Z</time>
      </trkpt>
      <trkpt lat="44.36133" lon="1.43332">
        <ele>281.39999389648</ele>
        <time>2022-05-26T11:11:56.000Z</time>
      </trkpt>
      <trkpt lat="44.36128" lon="1.43314">
        <ele>281.79998779297</ele>
        <time>2022-05-26T11:12:02.000Z</time>
      </trkpt>
      <trkpt lat="44.3612" lon="1.43293">
        <ele>281.79998779297</ele>
        <time>2022-05-26T11:12:07.000Z</time>
      </trkpt>
      <trkpt lat="44.36103" lon="1.43258">
        <ele>281</ele>
        <time>2022-05-26T11:12:14.000Z</time>
      </trkpt>
      <trkpt lat="44.3609" lon="1.4323">
        <ele>280</ele>
        <time>2022-05-26T11:12:18.000Z</time>
      </trkpt>
      <trkpt lat="44.36087" lon="1.43222">
        <ele>279.60000610352</ele>
        <time>2022-05-26T11:12:19.000Z</time>
      </trkpt>
      <trkpt lat="44.36078" lon="1.43207">
        <ele>279</ele>
        <time>2022-05-26T11:12:21.000Z</time>
      </trkpt>
      <trkpt lat="44.36066" lon="1.4319">
        <ele>278.20001220703</ele>
        <time>2022-05-26T11:12:24.000Z</time>
      </trkpt>
      <trkpt lat="44.36059" lon="1.43182">
        <ele>278</ele>
        <time>2022-05-26T11:12:26.000Z</time>
      </trkpt>
      <trkpt lat="44.36053" lon="1.43177">
        <ele>278</ele>
        <time>2022-05-26T11:12:28.000Z</time>
      </trkpt>
      <trkpt lat="44.36037" lon="1.43166">
        <ele>279</ele>
        <time>2022-05-26T11:12:34.000Z</time>
      </trkpt>
      <trkpt lat="44.36022" lon="1.4316">
        <ele>280.20001220703</ele>
        <time>2022-05-26T11:12:39.000Z</time>
      </trkpt>
      <trkpt lat="44.36007" lon="1.43155">
        <ele>280.79998779297</ele>
        <time>2022-05-26T11:12:43.000Z</time>
      </trkpt>
      <trkpt lat="44.35974" lon="1.43144">
        <ele>281</ele>
        <time>2022-05-26T11:12:51.000Z</time>
      </trkpt>
      <trkpt lat="44.35954" lon="1.43134">
        <ele>280.60000610352</ele>
        <time>2022-05-26T11:12:55.000Z</time>
      </trkpt>
      <trkpt lat="44.35946" lon="1.43127">
        <ele>280.20001220703</ele>
        <time>2022-05-26T11:12:57.000Z</time>
      </trkpt>
      <trkpt lat="44.3593" lon="1.43105">
        <ele>279.60000610352</ele>
        <time>2022-05-26T11:13:01.000Z</time>
      </trkpt>
      <trkpt lat="44.35926" lon="1.43097">
        <ele>279.20001220703</ele>
        <time>2022-05-26T11:13:02.000Z</time>
      </trkpt>
      <trkpt lat="44.35924" lon="1.4309">
        <ele>278.79998779297</ele>
        <time>2022-05-26T11:13:03.000Z</time>
      </trkpt>
      <trkpt lat="44.35914" lon="1.43061">
        <ele>278</ele>
        <time>2022-05-26T11:13:07.000Z</time>
      </trkpt>
      <trkpt lat="44.35911" lon="1.43054">
        <ele>278</ele>
        <time>2022-05-26T11:13:08.000Z</time>
      </trkpt>
      <trkpt lat="44.35907" lon="1.43048">
        <ele>277.79998779297</ele>
        <time>2022-05-26T11:13:09.000Z</time>
      </trkpt>
      <trkpt lat="44.35884" lon="1.43015">
        <ele>277.39999389648</ele>
        <time>2022-05-26T11:13:14.000Z</time>
      </trkpt>
      <trkpt lat="44.35858" lon="1.42984">
        <ele>276.60000610352</ele>
        <time>2022-05-26T11:13:19.000Z</time>
      </trkpt>
      <trkpt lat="44.35854" lon="1.4298">
        <ele>276.20001220703</ele>
        <time>2022-05-26T11:13:20.000Z</time>
      </trkpt>
      <trkpt lat="44.35834" lon="1.42964">
        <ele>275.39999389648</ele>
        <time>2022-05-26T11:13:24.000Z</time>
      </trkpt>
      <trkpt lat="44.3583" lon="1.42961">
        <ele>275.20001220703</ele>
        <time>2022-05-26T11:13:25.000Z</time>
      </trkpt>
      <trkpt lat="44.35812" lon="1.4295">
        <ele>275.60000610352</ele>
        <time>2022-05-26T11:13:30.000Z</time>
      </trkpt>
      <trkpt lat="44.35798" lon="1.42946">
        <ele>276</ele>
        <time>2022-05-26T11:13:34.000Z</time>
      </trkpt>
      <trkpt lat="44.35792" lon="1.42945">
        <ele>276.60000610352</ele>
        <time>2022-05-26T11:13:36.000Z</time>
      </trkpt>
      <trkpt lat="44.35789" lon="1.42945">
        <ele>277.20001220703</ele>
        <time>2022-05-26T11:13:37.000Z</time>
      </trkpt>
      <trkpt lat="44.35784" lon="1.42946">
        <ele>277.79998779297</ele>
        <time>2022-05-26T11:13:39.000Z</time>
      </trkpt>
      <trkpt lat="44.35775" lon="1.42946">
        <ele>279</ele>
        <time>2022-05-26T11:13:42.000Z</time>
      </trkpt>
      <trkpt lat="44.35764" lon="1.42943">
        <ele>280.20001220703</ele>
        <time>2022-05-26T11:13:46.000Z</time>
      </trkpt>
      <trkpt lat="44.35761" lon="1.42942">
        <ele>280.39999389648</ele>
        <time>2022-05-26T11:13:47.000Z</time>
      </trkpt>
      <trkpt lat="44.35757" lon="1.42938">
        <ele>281.39999389648</ele>
        <time>2022-05-26T11:13:49.000Z</time>
      </trkpt>
      <trkpt lat="44.35748" lon="1.42928">
        <ele>282.60000610352</ele>
        <time>2022-05-26T11:13:53.000Z</time>
      </trkpt>
      <trkpt lat="44.35746" lon="1.42925">
        <ele>282.79998779297</ele>
        <time>2022-05-26T11:13:54.000Z</time>
      </trkpt>
      <trkpt lat="44.35742" lon="1.42919">
        <ele>283.60000610352</ele>
        <time>2022-05-26T11:13:56.000Z</time>
      </trkpt>
      <trkpt lat="44.35737" lon="1.4291">
        <ele>284.39999389648</ele>
        <time>2022-05-26T11:13:59.000Z</time>
      </trkpt>
      <trkpt lat="44.35735" lon="1.42908">
        <ele>284.79998779297</ele>
        <time>2022-05-26T11:14:00.000Z</time>
      </trkpt>
      <trkpt lat="44.3573" lon="1.42896">
        <ele>285.60000610352</ele>
        <time>2022-05-26T11:14:04.000Z</time>
      </trkpt>
      <trkpt lat="44.35728" lon="1.42892">
        <ele>285.79998779297</ele>
        <time>2022-05-26T11:14:05.000Z</time>
      </trkpt>
      <trkpt lat="44.35723" lon="1.4288">
        <ele>286.79998779297</ele>
        <time>2022-05-26T11:14:09.000Z</time>
      </trkpt>
      <trkpt lat="44.3572" lon="1.4287">
        <ele>287.39999389648</ele>
        <time>2022-05-26T11:14:12.000Z</time>
      </trkpt>
      <trkpt lat="44.35716" lon="1.42854">
        <ele>287.79998779297</ele>
        <time>2022-05-26T11:14:17.000Z</time>
      </trkpt>
      <trkpt lat="44.35716" lon="1.42851">
        <ele>288</ele>
        <time>2022-05-26T11:14:18.000Z</time>
      </trkpt>
      <trkpt lat="44.35714" lon="1.42836">
        <ele>289</ele>
        <time>2022-05-26T11:14:22.000Z</time>
      </trkpt>
      <trkpt lat="44.35714" lon="1.4283">
        <ele>289.39999389648</ele>
        <time>2022-05-26T11:14:24.000Z</time>
      </trkpt>
      <trkpt lat="44.35712" lon="1.42815">
        <ele>290.20001220703</ele>
        <time>2022-05-26T11:14:28.000Z</time>
      </trkpt>
      <trkpt lat="44.35709" lon="1.42792">
        <ele>291.39999389648</ele>
        <time>2022-05-26T11:14:34.000Z</time>
      </trkpt>
      <trkpt lat="44.35708" lon="1.42788">
        <ele>291.60000610352</ele>
        <time>2022-05-26T11:14:35.000Z</time>
      </trkpt>
      <trkpt lat="44.35699" lon="1.4277">
        <ele>292.39999389648</ele>
        <time>2022-05-26T11:14:41.000Z</time>
      </trkpt>
      <trkpt lat="44.35696" lon="1.42768">
        <ele>292.60000610352</ele>
        <time>2022-05-26T11:14:42.000Z</time>
      </trkpt>
      <trkpt lat="44.35685" lon="1.42759">
        <ele>293.39999389648</ele>
        <time>2022-05-26T11:14:47.000Z</time>
      </trkpt>
      <trkpt lat="44.3568" lon="1.42757">
        <ele>293.79998779297</ele>
        <time>2022-05-26T11:14:49.000Z</time>
      </trkpt>
      <trkpt lat="44.35673" lon="1.42755">
        <ele>294.39999389648</ele>
        <time>2022-05-26T11:14:52.000Z</time>
      </trkpt>
      <trkpt lat="44.35659" lon="1.42754">
        <ele>295.60000610352</ele>
        <time>2022-05-26T11:14:57.000Z</time>
      </trkpt>
      <trkpt lat="44.35646" lon="1.42752">
        <ele>296.79998779297</ele>
        <time>2022-05-26T11:15:02.000Z</time>
      </trkpt>
      <trkpt lat="44.35637" lon="1.42752">
        <ele>297.79998779297</ele>
        <time>2022-05-26T11:15:06.000Z</time>
      </trkpt>
      <trkpt lat="44.35634" lon="1.42751">
        <ele>298</ele>
        <time>2022-05-26T11:15:07.000Z</time>
      </trkpt>
      <trkpt lat="44.35616" lon="1.42747">
        <ele>298</ele>
        <time>2022-05-26T11:15:14.000Z</time>
      </trkpt>
      <trkpt lat="44.35597" lon="1.42743">
        <ele>297.60000610352</ele>
        <time>2022-05-26T11:15:21.000Z</time>
      </trkpt>
      <trkpt lat="44.35575" lon="1.42738">
        <ele>297.60000610352</ele>
        <time>2022-05-26T11:15:29.000Z</time>
      </trkpt>
      <trkpt lat="44.35552" lon="1.42735">
        <ele>298.39999389648</ele>
        <time>2022-05-26T11:15:37.000Z</time>
      </trkpt>
      <trkpt lat="44.3554" lon="1.42734">
        <ele>299</ele>
        <time>2022-05-26T11:15:42.000Z</time>
      </trkpt>
      <trkpt lat="44.35536" lon="1.42731">
        <ele>299.20001220703</ele>
        <time>2022-05-26T11:15:44.000Z</time>
      </trkpt>
      <trkpt lat="44.35521" lon="1.42724">
        <ele>299.20001220703</ele>
        <time>2022-05-26T11:15:49.000Z</time>
      </trkpt>
      <trkpt lat="44.35518" lon="1.42723">
        <ele>299.20001220703</ele>
        <time>2022-05-26T11:15:50.000Z</time>
      </trkpt>
      <trkpt lat="44.35516" lon="1.42721">
        <ele>299.20001220703</ele>
        <time>2022-05-26T11:15:51.000Z</time>
      </trkpt>
      <trkpt lat="44.35515" lon="1.4271">
        <ele>299</ele>
        <time>2022-05-26T11:15:55.000Z</time>
      </trkpt>
      <trkpt lat="44.35516" lon="1.42689">
        <ele>298.79998779297</ele>
        <time>2022-05-26T11:16:02.000Z</time>
      </trkpt>
      <trkpt lat="44.35517" lon="1.42686">
        <ele>298.79998779297</ele>
        <time>2022-05-26T11:16:03.000Z</time>
      </trkpt>
      <trkpt lat="44.35516" lon="1.4266">
        <ele>299</ele>
        <time>2022-05-26T11:16:09.000Z</time>
      </trkpt>
      <trkpt lat="44.35507" lon="1.42649">
        <ele>298.79998779297</ele>
        <time>2022-05-26T11:16:12.000Z</time>
      </trkpt>
      <trkpt lat="44.35504" lon="1.42646">
        <ele>298.60000610352</ele>
        <time>2022-05-26T11:16:13.000Z</time>
      </trkpt>
      <trkpt lat="44.35492" lon="1.42639">
        <ele>297.60000610352</ele>
        <time>2022-05-26T11:16:16.000Z</time>
      </trkpt>
      <trkpt lat="44.35488" lon="1.42636">
        <ele>297.39999389648</ele>
        <time>2022-05-26T11:16:17.000Z</time>
      </trkpt>
      <trkpt lat="44.35482" lon="1.4263">
        <ele>296.60000610352</ele>
        <time>2022-05-26T11:16:19.000Z</time>
      </trkpt>
      <trkpt lat="44.35478" lon="1.42621">
        <ele>296</ele>
        <time>2022-05-26T11:16:21.000Z</time>
      </trkpt>
      <trkpt lat="44.35476" lon="1.42608">
        <ele>295.60000610352</ele>
        <time>2022-05-26T11:16:23.000Z</time>
      </trkpt>
      <trkpt lat="44.35471" lon="1.42559">
        <ele>294.60000610352</ele>
        <time>2022-05-26T11:16:28.000Z</time>
      </trkpt>
      <trkpt lat="44.35469" lon="1.42547">
        <ele>294.39999389648</ele>
        <time>2022-05-26T11:16:29.000Z</time>
      </trkpt>
      <trkpt lat="44.35465" lon="1.4252">
        <ele>292.79998779297</ele>
        <time>2022-05-26T11:16:31.000Z</time>
      </trkpt>
      <trkpt lat="44.3546" lon="1.42493">
        <ele>291.60000610352</ele>
        <time>2022-05-26T11:16:33.000Z</time>
      </trkpt>
      <trkpt lat="44.35458" lon="1.42481">
        <ele>290.60000610352</ele>
        <time>2022-05-26T11:16:34.000Z</time>
      </trkpt>
      <trkpt lat="44.35453" lon="1.42462">
        <ele>289.20001220703</ele>
        <time>2022-05-26T11:16:36.000Z</time>
      </trkpt>
      <trkpt lat="44.35448" lon="1.42446">
        <ele>287.79998779297</ele>
        <time>2022-05-26T11:16:38.000Z</time>
      </trkpt>
      <trkpt lat="44.35443" lon="1.4243">
        <ele>286.79998779297</ele>
        <time>2022-05-26T11:16:40.000Z</time>
      </trkpt>
      <trkpt lat="44.35441" lon="1.42423">
        <ele>286.39999389648</ele>
        <time>2022-05-26T11:16:41.000Z</time>
      </trkpt>
      <trkpt lat="44.35431" lon="1.42386">
        <ele>285.60000610352</ele>
        <time>2022-05-26T11:16:46.000Z</time>
      </trkpt>
      <trkpt lat="44.35428" lon="1.42372">
        <ele>285.39999389648</ele>
        <time>2022-05-26T11:16:48.000Z</time>
      </trkpt>
      <trkpt lat="44.35417" lon="1.4233">
        <ele>284.60000610352</ele>
        <time>2022-05-26T11:16:54.000Z</time>
      </trkpt>
      <trkpt lat="44.35412" lon="1.42312">
        <ele>284.39999389648</ele>
        <time>2022-05-26T11:16:57.000Z</time>
      </trkpt>
      <trkpt lat="44.35394" lon="1.42263">
        <ele>283.60000610352</ele>
        <time>2022-05-26T11:17:05.000Z</time>
      </trkpt>
      <trkpt lat="44.35391" lon="1.42257">
        <ele>283.39999389648</ele>
        <time>2022-05-26T11:17:06.000Z</time>
      </trkpt>
      <trkpt lat="44.35377" lon="1.42227">
        <ele>282.79998779297</ele>
        <time>2022-05-26T11:17:10.000Z</time>
      </trkpt>
      <trkpt lat="44.35373" lon="1.42219">
        <ele>281.79998779297</ele>
        <time>2022-05-26T11:17:11.000Z</time>
      </trkpt>
      <trkpt lat="44.35362" lon="1.42195">
        <ele>280.79998779297</ele>
        <time>2022-05-26T11:17:14.000Z</time>
      </trkpt>
      <trkpt lat="44.35357" lon="1.42178">
        <ele>280.20001220703</ele>
        <time>2022-05-26T11:17:16.000Z</time>
      </trkpt>
      <trkpt lat="44.35352" lon="1.42164">
        <ele>279.60000610352</ele>
        <time>2022-05-26T11:17:18.000Z</time>
      </trkpt>
      <trkpt lat="44.35346" lon="1.42144">
        <ele>278.79998779297</ele>
        <time>2022-05-26T11:17:21.000Z</time>
      </trkpt>
      <trkpt lat="44.35344" lon="1.42139">
        <ele>278.60000610352</ele>
        <time>2022-05-26T11:17:22.000Z</time>
      </trkpt>
      <trkpt lat="44.35335" lon="1.42119">
        <ele>278.20001220703</ele>
        <time>2022-05-26T11:17:26.000Z</time>
      </trkpt>
      <trkpt lat="44.35332" lon="1.42114">
        <ele>278.20001220703</ele>
        <time>2022-05-26T11:17:27.000Z</time>
      </trkpt>
      <trkpt lat="44.35316" lon="1.42079">
        <ele>277.60000610352</ele>
        <time>2022-05-26T11:17:34.000Z</time>
      </trkpt>
      <trkpt lat="44.35315" lon="1.42073">
        <ele>277.39999389648</ele>
        <time>2022-05-26T11:17:35.000Z</time>
      </trkpt>
      <trkpt lat="44.35311" lon="1.42063">
        <ele>277.20001220703</ele>
        <time>2022-05-26T11:17:37.000Z</time>
      </trkpt>
      <trkpt lat="44.35307" lon="1.42035">
        <ele>276.60000610352</ele>
        <time>2022-05-26T11:17:42.000Z</time>
      </trkpt>
      <trkpt lat="44.35305" lon="1.41993">
        <ele>276.39999389648</ele>
        <time>2022-05-26T11:17:48.000Z</time>
      </trkpt>
      <trkpt lat="44.35294" lon="1.41946">
        <ele>275.79998779297</ele>
        <time>2022-05-26T11:17:55.000Z</time>
      </trkpt>
      <trkpt lat="44.35289" lon="1.41927">
        <ele>275.39999389648</ele>
        <time>2022-05-26T11:17:58.000Z</time>
      </trkpt>
      <trkpt lat="44.35283" lon="1.41903">
        <ele>274.39999389648</ele>
        <time>2022-05-26T11:18:02.000Z</time>
      </trkpt>
      <trkpt lat="44.35278" lon="1.41886">
        <ele>274.20001220703</ele>
        <time>2022-05-26T11:18:05.000Z</time>
      </trkpt>
      <trkpt lat="44.35264" lon="1.41845">
        <ele>273.60000610352</ele>
        <time>2022-05-26T11:18:13.000Z</time>
      </trkpt>
      <trkpt lat="44.35251" lon="1.41812">
        <ele>273.39999389648</ele>
        <time>2022-05-26T11:18:21.000Z</time>
      </trkpt>
      <trkpt lat="44.3525" lon="1.41808">
        <ele>273.39999389648</ele>
        <time>2022-05-26T11:18:22.000Z</time>
      </trkpt>
      <trkpt lat="44.35245" lon="1.41792">
        <ele>273.39999389648</ele>
        <time>2022-05-26T11:18:26.000Z</time>
      </trkpt>
      <trkpt lat="44.35238" lon="1.41762">
        <ele>273.20001220703</ele>
        <time>2022-05-26T11:18:31.000Z</time>
      </trkpt>
      <trkpt lat="44.35225" lon="1.41712">
        <ele>273.20001220703</ele>
        <time>2022-05-26T11:18:39.000Z</time>
      </trkpt>
      <trkpt lat="44.35222" lon="1.417">
        <ele>273</ele>
        <time>2022-05-26T11:18:41.000Z</time>
      </trkpt>
      <trkpt lat="44.35213" lon="1.41668">
        <ele>272.60000610352</ele>
        <time>2022-05-26T11:18:46.000Z</time>
      </trkpt>
      <trkpt lat="44.35209" lon="1.41654">
        <ele>272.39999389648</ele>
        <time>2022-05-26T11:18:48.000Z</time>
      </trkpt>
      <trkpt lat="44.352" lon="1.41615">
        <ele>271.60000610352</ele>
        <time>2022-05-26T11:18:54.000Z</time>
      </trkpt>
      <trkpt lat="44.35197" lon="1.41602">
        <ele>271.39999389648</ele>
        <time>2022-05-26T11:18:56.000Z</time>
      </trkpt>
      <trkpt lat="44.35195" lon="1.41596">
        <ele>271.20001220703</ele>
        <time>2022-05-26T11:18:57.000Z</time>
      </trkpt>
      <trkpt lat="44.3519" lon="1.4158">
        <ele>271</ele>
        <time>2022-05-26T11:19:00.000Z</time>
      </trkpt>
      <trkpt lat="44.35177" lon="1.41538">
        <ele>270.39999389648</ele>
        <time>2022-05-26T11:19:07.000Z</time>
      </trkpt>
      <trkpt lat="44.35174" lon="1.41532">
        <ele>270.39999389648</ele>
        <time>2022-05-26T11:19:08.000Z</time>
      </trkpt>
      <trkpt lat="44.35161" lon="1.41491">
        <ele>269.79998779297</ele>
        <time>2022-05-26T11:19:15.000Z</time>
      </trkpt>
      <trkpt lat="44.35159" lon="1.41473">
        <ele>269.39999389648</ele>
        <time>2022-05-26T11:19:18.000Z</time>
      </trkpt>
      <trkpt lat="44.35159" lon="1.41459">
        <ele>269.20001220703</ele>
        <time>2022-05-26T11:19:20.000Z</time>
      </trkpt>
      <trkpt lat="44.35159" lon="1.41445">
        <ele>269.20001220703</ele>
        <time>2022-05-26T11:19:22.000Z</time>
      </trkpt>
      <trkpt lat="44.35163" lon="1.41376">
        <ele>269</ele>
        <time>2022-05-26T11:19:33.000Z</time>
      </trkpt>
      <trkpt lat="44.35167" lon="1.41353">
        <ele>268.60000610352</ele>
        <time>2022-05-26T11:19:37.000Z</time>
      </trkpt>
      <trkpt lat="44.35171" lon="1.41344">
        <ele>268.60000610352</ele>
        <time>2022-05-26T11:19:39.000Z</time>
      </trkpt>
      <trkpt lat="44.35186" lon="1.41333">
        <ele>268.60000610352</ele>
        <time>2022-05-26T11:19:44.000Z</time>
      </trkpt>
      <trkpt lat="44.3521" lon="1.41325">
        <ele>269.79998779297</ele>
        <time>2022-05-26T11:19:50.000Z</time>
      </trkpt>
      <trkpt lat="44.35223" lon="1.41322">
        <ele>269.79998779297</ele>
        <time>2022-05-26T11:19:53.000Z</time>
      </trkpt>
      <trkpt lat="44.35231" lon="1.41321">
        <ele>270.39999389648</ele>
        <time>2022-05-26T11:19:55.000Z</time>
      </trkpt>
      <trkpt lat="44.3525" lon="1.4132">
        <ele>270.79998779297</ele>
        <time>2022-05-26T11:20:00.000Z</time>
      </trkpt>
      <trkpt lat="44.35258" lon="1.41319">
        <ele>271.39999389648</ele>
        <time>2022-05-26T11:20:02.000Z</time>
      </trkpt>
      <trkpt lat="44.35277" lon="1.41316">
        <ele>272.39999389648</ele>
        <time>2022-05-26T11:20:07.000Z</time>
      </trkpt>
      <trkpt lat="44.35281" lon="1.41316">
        <ele>272.79998779297</ele>
        <time>2022-05-26T11:20:08.000Z</time>
      </trkpt>
      <trkpt lat="44.35298" lon="1.41311">
        <ele>273.39999389648</ele>
        <time>2022-05-26T11:20:13.000Z</time>
      </trkpt>
      <trkpt lat="44.35301" lon="1.4131">
        <ele>273.60000610352</ele>
        <time>2022-05-26T11:20:14.000Z</time>
      </trkpt>
      <trkpt lat="44.35314" lon="1.41307">
        <ele>274.60000610352</ele>
        <time>2022-05-26T11:20:18.000Z</time>
      </trkpt>
      <trkpt lat="44.3533" lon="1.41304">
        <ele>275.60000610352</ele>
        <time>2022-05-26T11:20:23.000Z</time>
      </trkpt>
      <trkpt lat="44.35345" lon="1.41302">
        <ele>276.79998779297</ele>
        <time>2022-05-26T11:20:28.000Z</time>
      </trkpt>
      <trkpt lat="44.35356" lon="1.41301">
        <ele>277.60000610352</ele>
        <time>2022-05-26T11:20:32.000Z</time>
      </trkpt>
      <trkpt lat="44.35359" lon="1.413">
        <ele>277.79998779297</ele>
        <time>2022-05-26T11:20:33.000Z</time>
      </trkpt>
      <trkpt lat="44.35377" lon="1.413">
        <ele>279</ele>
        <time>2022-05-26T11:20:39.000Z</time>
      </trkpt>
      <trkpt lat="44.35383" lon="1.413">
        <ele>279.79998779297</ele>
        <time>2022-05-26T11:20:41.000Z</time>
      </trkpt>
      <trkpt lat="44.35392" lon="1.41301">
        <ele>280</ele>
        <time>2022-05-26T11:20:44.000Z</time>
      </trkpt>
      <trkpt lat="44.35413" lon="1.41302">
        <ele>281</ele>
        <time>2022-05-26T11:20:51.000Z</time>
      </trkpt>
      <trkpt lat="44.35416" lon="1.41302">
        <ele>281.20001220703</ele>
        <time>2022-05-26T11:20:52.000Z</time>
      </trkpt>
      <trkpt lat="44.3543" lon="1.41303">
        <ele>282.20001220703</ele>
        <time>2022-05-26T11:20:57.000Z</time>
      </trkpt>
      <trkpt lat="44.35441" lon="1.41305">
        <ele>282.79998779297</ele>
        <time>2022-05-26T11:21:01.000Z</time>
      </trkpt>
      <trkpt lat="44.35451" lon="1.41308">
        <ele>283.20001220703</ele>
        <time>2022-05-26T11:21:05.000Z</time>
      </trkpt>
      <trkpt lat="44.35456" lon="1.41309">
        <ele>283.39999389648</ele>
        <time>2022-05-26T11:21:07.000Z</time>
      </trkpt>
      <trkpt lat="44.35475" lon="1.41313">
        <ele>284.20001220703</ele>
        <time>2022-05-26T11:21:13.000Z</time>
      </trkpt>
      <trkpt lat="44.35491" lon="1.41315">
        <ele>285.39999389648</ele>
        <time>2022-05-26T11:21:18.000Z</time>
      </trkpt>
      <trkpt lat="44.35494" lon="1.41315">
        <ele>285.60000610352</ele>
        <time>2022-05-26T11:21:19.000Z</time>
      </trkpt>
      <trkpt lat="44.35516" lon="1.41316">
        <ele>286.20001220703</ele>
        <time>2022-05-26T11:21:26.000Z</time>
      </trkpt>
      <trkpt lat="44.35535" lon="1.4131">
        <ele>286.39999389648</ele>
        <time>2022-05-26T11:21:32.000Z</time>
      </trkpt>
      <trkpt lat="44.35546" lon="1.41308">
        <ele>286.79998779297</ele>
        <time>2022-05-26T11:21:35.000Z</time>
      </trkpt>
      <trkpt lat="44.35565" lon="1.41305">
        <ele>287.39999389648</ele>
        <time>2022-05-26T11:21:41.000Z</time>
      </trkpt>
      <trkpt lat="44.35572" lon="1.41305">
        <ele>287.79998779297</ele>
        <time>2022-05-26T11:21:43.000Z</time>
      </trkpt>
      <trkpt lat="44.35582" lon="1.41306">
        <ele>288.39999389648</ele>
        <time>2022-05-26T11:21:47.000Z</time>
      </trkpt>
      <trkpt lat="44.35602" lon="1.41311">
        <ele>289</ele>
        <time>2022-05-26T11:21:54.000Z</time>
      </trkpt>
      <trkpt lat="44.35608" lon="1.41313">
        <ele>289.20001220703</ele>
        <time>2022-05-26T11:21:56.000Z</time>
      </trkpt>
      <trkpt lat="44.35621" lon="1.41319">
        <ele>289.79998779297</ele>
        <time>2022-05-26T11:22:01.000Z</time>
      </trkpt>
      <trkpt lat="44.35627" lon="1.41322">
        <ele>290</ele>
        <time>2022-05-26T11:22:03.000Z</time>
      </trkpt>
      <trkpt lat="44.35641" lon="1.41328">
        <ele>290.60000610352</ele>
        <time>2022-05-26T11:22:08.000Z</time>
      </trkpt>
      <trkpt lat="44.35656" lon="1.41335">
        <ele>291</ele>
        <time>2022-05-26T11:22:14.000Z</time>
      </trkpt>
      <trkpt lat="44.35671" lon="1.41342">
        <ele>292.20001220703</ele>
        <time>2022-05-26T11:22:20.000Z</time>
      </trkpt>
      <trkpt lat="44.35694" lon="1.41348">
        <ele>293.20001220703</ele>
        <time>2022-05-26T11:22:29.000Z</time>
      </trkpt>
      <trkpt lat="44.35697" lon="1.41348">
        <ele>293.39999389648</ele>
        <time>2022-05-26T11:22:30.000Z</time>
      </trkpt>
      <trkpt lat="44.35708" lon="1.41347">
        <ele>294.39999389648</ele>
        <time>2022-05-26T11:22:35.000Z</time>
      </trkpt>
      <trkpt lat="44.35713" lon="1.41346">
        <ele>295</ele>
        <time>2022-05-26T11:22:37.000Z</time>
      </trkpt>
      <trkpt lat="44.35726" lon="1.41342">
        <ele>295.60000610352</ele>
        <time>2022-05-26T11:22:42.000Z</time>
      </trkpt>
      <trkpt lat="44.35732" lon="1.41339">
        <ele>296</ele>
        <time>2022-05-26T11:22:44.000Z</time>
      </trkpt>
      <trkpt lat="44.3574" lon="1.41334">
        <ele>296.79998779297</ele>
        <time>2022-05-26T11:22:47.000Z</time>
      </trkpt>
      <trkpt lat="44.35754" lon="1.41326">
        <ele>297.60000610352</ele>
        <time>2022-05-26T11:22:52.000Z</time>
      </trkpt>
      <trkpt lat="44.35757" lon="1.41325">
        <ele>297.79998779297</ele>
        <time>2022-05-26T11:22:53.000Z</time>
      </trkpt>
      <trkpt lat="44.35774" lon="1.41315">
        <ele>299.20001220703</ele>
        <time>2022-05-26T11:22:59.000Z</time>
      </trkpt>
      <trkpt lat="44.35781" lon="1.41311">
        <ele>300</ele>
        <time>2022-05-26T11:23:02.000Z</time>
      </trkpt>
      <trkpt lat="44.35784" lon="1.41309">
        <ele>300.39999389648</ele>
        <time>2022-05-26T11:23:03.000Z</time>
      </trkpt>
      <trkpt lat="44.35792" lon="1.41303">
        <ele>301.60000610352</ele>
        <time>2022-05-26T11:23:07.000Z</time>
      </trkpt>
      <trkpt lat="44.35794" lon="1.41302">
        <ele>302</ele>
        <time>2022-05-26T11:23:08.000Z</time>
      </trkpt>
      <trkpt lat="44.35799" lon="1.41301">
        <ele>302.79998779297</ele>
        <time>2022-05-26T11:23:10.000Z</time>
      </trkpt>
      <trkpt lat="44.3581" lon="1.41298">
        <ele>304</ele>
        <time>2022-05-26T11:23:14.000Z</time>
      </trkpt>
      <trkpt lat="44.35812" lon="1.41297">
        <ele>304.39999389648</ele>
        <time>2022-05-26T11:23:15.000Z</time>
      </trkpt>
      <trkpt lat="44.35828" lon="1.41292">
        <ele>305</ele>
        <time>2022-05-26T11:23:21.000Z</time>
      </trkpt>
      <trkpt lat="44.35836" lon="1.41288">
        <ele>305.39999389648</ele>
        <time>2022-05-26T11:23:24.000Z</time>
      </trkpt>
      <trkpt lat="44.35847" lon="1.41284">
        <ele>306.20001220703</ele>
        <time>2022-05-26T11:23:29.000Z</time>
      </trkpt>
      <trkpt lat="44.35849" lon="1.41281">
        <ele>307</ele>
        <time>2022-05-26T11:23:31.000Z</time>
      </trkpt>
      <trkpt lat="44.35853" lon="1.41273">
        <ele>307.39999389648</ele>
        <time>2022-05-26T11:23:34.000Z</time>
      </trkpt>
      <trkpt lat="44.35855" lon="1.41259">
        <ele>307.79998779297</ele>
        <time>2022-05-26T11:23:37.000Z</time>
      </trkpt>
      <trkpt lat="44.35864" lon="1.41227">
        <ele>307.60000610352</ele>
        <time>2022-05-26T11:23:43.000Z</time>
      </trkpt>
      <trkpt lat="44.35869" lon="1.41209">
        <ele>307.20001220703</ele>
        <time>2022-05-26T11:23:46.000Z</time>
      </trkpt>
      <trkpt lat="44.3588" lon="1.41178">
        <ele>306.39999389648</ele>
        <time>2022-05-26T11:23:51.000Z</time>
      </trkpt>
      <trkpt lat="44.35901" lon="1.41116">
        <ele>305.39999389648</ele>
        <time>2022-05-26T11:24:00.000Z</time>
      </trkpt>
      <trkpt lat="44.35909" lon="1.41088">
        <ele>304.79998779297</ele>
        <time>2022-05-26T11:24:04.000Z</time>
      </trkpt>
      <trkpt lat="44.35914" lon="1.41059">
        <ele>304.39999389648</ele>
        <time>2022-05-26T11:24:08.000Z</time>
      </trkpt>
      <trkpt lat="44.35915" lon="1.41053">
        <ele>304.20001220703</ele>
        <time>2022-05-26T11:24:09.000Z</time>
      </trkpt>
      <trkpt lat="44.35919" lon="1.41009">
        <ele>303.60000610352</ele>
        <time>2022-05-26T11:24:16.000Z</time>
      </trkpt>
      <trkpt lat="44.3592" lon="1.40978">
        <ele>303.20001220703</ele>
        <time>2022-05-26T11:24:21.000Z</time>
      </trkpt>
      <trkpt lat="44.35921" lon="1.4096">
        <ele>303.39999389648</ele>
        <time>2022-05-26T11:24:24.000Z</time>
      </trkpt>
      <trkpt lat="44.35921" lon="1.40944">
        <ele>303.20001220703</ele>
        <time>2022-05-26T11:24:27.000Z</time>
      </trkpt>
      <trkpt lat="44.35922" lon="1.40921">
        <ele>303.20001220703</ele>
        <time>2022-05-26T11:24:31.000Z</time>
      </trkpt>
      <trkpt lat="44.35923" lon="1.40876">
        <ele>302.39999389648</ele>
        <time>2022-05-26T11:24:39.000Z</time>
      </trkpt>
      <trkpt lat="44.35923" lon="1.40854">
        <ele>302.20001220703</ele>
        <time>2022-05-26T11:24:43.000Z</time>
      </trkpt>
      <trkpt lat="44.35924" lon="1.40835">
        <ele>302</ele>
        <time>2022-05-26T11:24:47.000Z</time>
      </trkpt>
      <trkpt lat="44.35926" lon="1.40796">
        <ele>301.79998779297</ele>
        <time>2022-05-26T11:24:55.000Z</time>
      </trkpt>
      <trkpt lat="44.3593" lon="1.40751">
        <ele>301.39999389648</ele>
        <time>2022-05-26T11:25:04.000Z</time>
      </trkpt>
      <trkpt lat="44.35936" lon="1.40726">
        <ele>301.60000610352</ele>
        <time>2022-05-26T11:25:11.000Z</time>
      </trkpt>
      <trkpt lat="44.35936" lon="1.40724">
        <ele>301.39999389648</ele>
        <time>2022-05-26T11:25:12.000Z</time>
      </trkpt>
      <trkpt lat="44.35934" lon="1.40719">
        <ele>301.20001220703</ele>
        <time>2022-05-26T11:25:14.000Z</time>
      </trkpt>
      <trkpt lat="44.35933" lon="1.40712">
        <ele>301</ele>
        <time>2022-05-26T11:25:16.000Z</time>
      </trkpt>
      <trkpt lat="44.35936" lon="1.4069">
        <ele>301</ele>
        <time>2022-05-26T11:25:23.000Z</time>
      </trkpt>
      <trkpt lat="44.35938" lon="1.40687">
        <ele>301</ele>
        <time>2022-05-26T11:25:24.000Z</time>
      </trkpt>
      <trkpt lat="44.3594" lon="1.40678">
        <ele>301.20001220703</ele>
        <time>2022-05-26T11:25:27.000Z</time>
      </trkpt>
      <trkpt lat="44.35943" lon="1.40666">
        <ele>301.60000610352</ele>
        <time>2022-05-26T11:25:31.000Z</time>
      </trkpt>
      <trkpt lat="44.35947" lon="1.40655">
        <ele>302</ele>
        <time>2022-05-26T11:25:35.000Z</time>
      </trkpt>
      <trkpt lat="44.35954" lon="1.40641">
        <ele>302.39999389648</ele>
        <time>2022-05-26T11:25:40.000Z</time>
      </trkpt>
      <trkpt lat="44.35956" lon="1.40638">
        <ele>302.60000610352</ele>
        <time>2022-05-26T11:25:42.000Z</time>
      </trkpt>
      <trkpt lat="44.35958" lon="1.40637">
        <ele>302.79998779297</ele>
        <time>2022-05-26T11:25:44.000Z</time>
      </trkpt>
      <trkpt lat="44.35959" lon="1.4064">
        <ele>302.79998779297</ele>
        <time>2022-05-26T11:25:46.000Z</time>
      </trkpt>
      <trkpt lat="44.35951" lon="1.40648">
        <ele>303</ele>
        <time>2022-05-26T11:25:51.000Z</time>
      </trkpt>
      <trkpt lat="44.35938" lon="1.40676">
        <ele>302.79998779297</ele>
        <time>2022-05-26T11:25:58.000Z</time>
      </trkpt>
      <trkpt lat="44.35932" lon="1.40696">
        <ele>302.20001220703</ele>
        <time>2022-05-26T11:26:03.000Z</time>
      </trkpt>
      <trkpt lat="44.35931" lon="1.40714">
        <ele>301.60000610352</ele>
        <time>2022-05-26T11:26:08.000Z</time>
      </trkpt>
      <trkpt lat="44.35933" lon="1.4072">
        <ele>301.39999389648</ele>
        <time>2022-05-26T11:26:10.000Z</time>
      </trkpt>
      <trkpt lat="44.35937" lon="1.40724">
        <ele>301.20001220703</ele>
        <time>2022-05-26T11:26:12.000Z</time>
      </trkpt>
      <trkpt lat="44.35959" lon="1.40735">
        <ele>300.79998779297</ele>
        <time>2022-05-26T11:26:20.000Z</time>
      </trkpt>
      <trkpt lat="44.35979" lon="1.40742">
        <ele>300.39999389648</ele>
        <time>2022-05-26T11:26:25.000Z</time>
      </trkpt>
      <trkpt lat="44.35984" lon="1.40743">
        <ele>300.20001220703</ele>
        <time>2022-05-26T11:26:26.000Z</time>
      </trkpt>
      <trkpt lat="44.3599" lon="1.40745">
        <ele>300.20001220703</ele>
        <time>2022-05-26T11:26:27.000Z</time>
      </trkpt>
      <trkpt lat="44.36008" lon="1.40747">
        <ele>300</ele>
        <time>2022-05-26T11:26:30.000Z</time>
      </trkpt>
      <trkpt lat="44.36032" lon="1.40748">
        <ele>298.79998779297</ele>
        <time>2022-05-26T11:26:33.000Z</time>
      </trkpt>
      <trkpt lat="44.36039" lon="1.40749">
        <ele>298.39999389648</ele>
        <time>2022-05-26T11:26:34.000Z</time>
      </trkpt>
      <trkpt lat="44.36047" lon="1.40751">
        <ele>297.79998779297</ele>
        <time>2022-05-26T11:26:35.000Z</time>
      </trkpt>
      <trkpt lat="44.36066" lon="1.40757">
        <ele>296.60000610352</ele>
        <time>2022-05-26T11:26:37.000Z</time>
      </trkpt>
      <trkpt lat="44.36082" lon="1.40765">
        <ele>295.60000610352</ele>
        <time>2022-05-26T11:26:39.000Z</time>
      </trkpt>
      <trkpt lat="44.36098" lon="1.40776">
        <ele>294.20001220703</ele>
        <time>2022-05-26T11:26:41.000Z</time>
      </trkpt>
      <trkpt lat="44.36109" lon="1.40784">
        <ele>293.60000610352</ele>
        <time>2022-05-26T11:26:43.000Z</time>
      </trkpt>
      <trkpt lat="44.36116" lon="1.40788">
        <ele>293</ele>
        <time>2022-05-26T11:26:44.000Z</time>
      </trkpt>
      <trkpt lat="44.36123" lon="1.4079">
        <ele>292.39999389648</ele>
        <time>2022-05-26T11:26:45.000Z</time>
      </trkpt>
      <trkpt lat="44.36134" lon="1.40792">
        <ele>291.79998779297</ele>
        <time>2022-05-26T11:26:47.000Z</time>
      </trkpt>
      <trkpt lat="44.36141" lon="1.40794">
        <ele>291</ele>
        <time>2022-05-26T11:26:50.000Z</time>
      </trkpt>
      <trkpt lat="44.36142" lon="1.40794">
        <ele>290.60000610352</ele>
        <time>2022-05-26T11:26:51.000Z</time>
      </trkpt>
      <trkpt lat="44.36143" lon="1.40794">
        <ele>290.39999389648</ele>
        <time>2022-05-26T11:26:52.000Z</time>
      </trkpt>
      <trkpt lat="44.36144" lon="1.40792">
        <ele>290.39999389648</ele>
        <time>2022-05-26T11:26:54.000Z</time>
      </trkpt>
      <trkpt lat="44.36142" lon="1.40792">
        <ele>290</ele>
        <time>2022-05-26T11:26:58.000Z</time>
      </trkpt>
      <trkpt lat="44.36141" lon="1.40792">
        <ele>290</ele>
        <time>2022-05-26T11:26:59.000Z</time>
      </trkpt>
      <trkpt lat="44.36137" lon="1.40791">
        <ele>289.79998779297</ele>
        <time>2022-05-26T11:27:03.000Z</time>
      </trkpt>
      <trkpt lat="44.36136" lon="1.40791">
        <ele>289.79998779297</ele>
        <time>2022-05-26T11:27:04.000Z</time>
      </trkpt>
      <trkpt lat="44.36124" lon="1.40789">
        <ele>290</ele>
        <time>2022-05-26T11:27:09.000Z</time>
      </trkpt>
      <trkpt lat="44.36121" lon="1.40786">
        <ele>290.20001220703</ele>
        <time>2022-05-26T11:27:10.000Z</time>
      </trkpt>
      <trkpt lat="44.36121" lon="1.40779">
        <ele>290.20001220703</ele>
        <time>2022-05-26T11:27:12.000Z</time>
      </trkpt>
      <trkpt lat="44.36125" lon="1.40744">
        <ele>290.39999389648</ele>
        <time>2022-05-26T11:27:21.000Z</time>
      </trkpt>
      <trkpt lat="44.36129" lon="1.40709">
        <ele>290.39999389648</ele>
        <time>2022-05-26T11:27:29.000Z</time>
      </trkpt>
      <trkpt lat="44.36132" lon="1.40669">
        <ele>290.39999389648</ele>
        <time>2022-05-26T11:27:36.000Z</time>
      </trkpt>
      <trkpt lat="44.36138" lon="1.4061">
        <ele>290.20001220703</ele>
        <time>2022-05-26T11:27:46.000Z</time>
      </trkpt>
      <trkpt lat="44.36146" lon="1.4056">
        <ele>291.39999389648</ele>
        <time>2022-05-26T11:27:55.000Z</time>
      </trkpt>
      <trkpt lat="44.36148" lon="1.40551">
        <ele>291.79998779297</ele>
        <time>2022-05-26T11:27:57.000Z</time>
      </trkpt>
      <trkpt lat="44.36151" lon="1.40534">
        <ele>293</ele>
        <time>2022-05-26T11:28:01.000Z</time>
      </trkpt>
      <trkpt lat="44.36151" lon="1.4053">
        <ele>293</ele>
        <time>2022-05-26T11:28:02.000Z</time>
      </trkpt>
      <trkpt lat="44.36153" lon="1.40517">
        <ele>294.39999389648</ele>
        <time>2022-05-26T11:28:05.000Z</time>
      </trkpt>
      <trkpt lat="44.36154" lon="1.40506">
        <ele>295.39999389648</ele>
        <time>2022-05-26T11:28:08.000Z</time>
      </trkpt>
      <trkpt lat="44.36154" lon="1.40503">
        <ele>295.60000610352</ele>
        <time>2022-05-26T11:28:09.000Z</time>
      </trkpt>
      <trkpt lat="44.36154" lon="1.40493">
        <ele>296.79998779297</ele>
        <time>2022-05-26T11:28:12.000Z</time>
      </trkpt>
      <trkpt lat="44.36154" lon="1.4049">
        <ele>297.20001220703</ele>
        <time>2022-05-26T11:28:13.000Z</time>
      </trkpt>
      <trkpt lat="44.36155" lon="1.40482">
        <ele>297.79998779297</ele>
        <time>2022-05-26T11:28:15.000Z</time>
      </trkpt>
      <trkpt lat="44.36159" lon="1.40463">
        <ele>298.60000610352</ele>
        <time>2022-05-26T11:28:20.000Z</time>
      </trkpt>
      <trkpt lat="44.36165" lon="1.40439">
        <ele>298.60000610352</ele>
        <time>2022-05-26T11:28:25.000Z</time>
      </trkpt>
      <trkpt lat="44.36172" lon="1.40409">
        <ele>298.20001220703</ele>
        <time>2022-05-26T11:28:30.000Z</time>
      </trkpt>
      <trkpt lat="44.36179" lon="1.40389">
        <ele>297.60000610352</ele>
        <time>2022-05-26T11:28:33.000Z</time>
      </trkpt>
      <trkpt lat="44.36185" lon="1.40379">
        <ele>297.39999389648</ele>
        <time>2022-05-26T11:28:35.000Z</time>
      </trkpt>
      <trkpt lat="44.36188" lon="1.40374">
        <ele>297.20001220703</ele>
        <time>2022-05-26T11:28:36.000Z</time>
      </trkpt>
      <trkpt lat="44.36197" lon="1.40348">
        <ele>297.20001220703</ele>
        <time>2022-05-26T11:28:41.000Z</time>
      </trkpt>
      <trkpt lat="44.36202" lon="1.40334">
        <ele>297</ele>
        <time>2022-05-26T11:28:44.000Z</time>
      </trkpt>
      <trkpt lat="44.36208" lon="1.40314">
        <ele>297</ele>
        <time>2022-05-26T11:28:48.000Z</time>
      </trkpt>
      <trkpt lat="44.36218" lon="1.40291">
        <ele>297</ele>
        <time>2022-05-26T11:28:53.000Z</time>
      </trkpt>
      <trkpt lat="44.36221" lon="1.40282">
        <ele>297</ele>
        <time>2022-05-26T11:28:55.000Z</time>
      </trkpt>
      <trkpt lat="44.36233" lon="1.40253">
        <ele>297</ele>
        <time>2022-05-26T11:29:01.000Z</time>
      </trkpt>
      <trkpt lat="44.36245" lon="1.4023">
        <ele>296.79998779297</ele>
        <time>2022-05-26T11:29:06.000Z</time>
      </trkpt>
      <trkpt lat="44.36255" lon="1.40211">
        <ele>296.60000610352</ele>
        <time>2022-05-26T11:29:10.000Z</time>
      </trkpt>
      <trkpt lat="44.36269" lon="1.40183">
        <ele>296.39999389648</ele>
        <time>2022-05-26T11:29:15.000Z</time>
      </trkpt>
      <trkpt lat="44.36274" lon="1.4017">
        <ele>296</ele>
        <time>2022-05-26T11:29:17.000Z</time>
      </trkpt>
      <trkpt lat="44.36284" lon="1.40141">
        <ele>295.20001220703</ele>
        <time>2022-05-26T11:29:21.000Z</time>
      </trkpt>
      <trkpt lat="44.36285" lon="1.40135">
        <ele>295</ele>
        <time>2022-05-26T11:29:22.000Z</time>
      </trkpt>
      <trkpt lat="44.36292" lon="1.40102">
        <ele>294.20001220703</ele>
        <time>2022-05-26T11:29:27.000Z</time>
      </trkpt>
      <trkpt lat="44.36292" lon="1.40095">
        <ele>294</ele>
        <time>2022-05-26T11:29:28.000Z</time>
      </trkpt>
      <trkpt lat="44.36292" lon="1.40088">
        <ele>293.79998779297</ele>
        <time>2022-05-26T11:29:29.000Z</time>
      </trkpt>
      <trkpt lat="44.36297" lon="1.40026">
        <ele>293.39999389648</ele>
        <time>2022-05-26T11:29:37.000Z</time>
      </trkpt>
      <trkpt lat="44.36302" lon="1.40002">
        <ele>292.79998779297</ele>
        <time>2022-05-26T11:29:40.000Z</time>
      </trkpt>
      <trkpt lat="44.3631" lon="1.39964">
        <ele>291.79998779297</ele>
        <time>2022-05-26T11:29:44.000Z</time>
      </trkpt>
      <trkpt lat="44.36318" lon="1.39916">
        <ele>290.79998779297</ele>
        <time>2022-05-26T11:29:49.000Z</time>
      </trkpt>
      <trkpt lat="44.36317" lon="1.3988">
        <ele>289.60000610352</ele>
        <time>2022-05-26T11:29:53.000Z</time>
      </trkpt>
      <trkpt lat="44.36316" lon="1.39872">
        <ele>289.39999389648</ele>
        <time>2022-05-26T11:29:54.000Z</time>
      </trkpt>
      <trkpt lat="44.36311" lon="1.39825">
        <ele>288.60000610352</ele>
        <time>2022-05-26T11:30:00.000Z</time>
      </trkpt>
      <trkpt lat="44.36307" lon="1.39791">
        <ele>288.39999389648</ele>
        <time>2022-05-26T11:30:05.000Z</time>
      </trkpt>
      <trkpt lat="44.36305" lon="1.39747">
        <ele>288</ele>
        <time>2022-05-26T11:30:11.000Z</time>
      </trkpt>
      <trkpt lat="44.36305" lon="1.39726">
        <ele>288.20001220703</ele>
        <time>2022-05-26T11:30:14.000Z</time>
      </trkpt>
      <trkpt lat="44.36308" lon="1.39685">
        <ele>287.79998779297</ele>
        <time>2022-05-26T11:30:20.000Z</time>
      </trkpt>
      <trkpt lat="44.36312" lon="1.39664">
        <ele>287.79998779297</ele>
        <time>2022-05-26T11:30:24.000Z</time>
      </trkpt>
      <trkpt lat="44.36312" lon="1.39661">
        <ele>287.60000610352</ele>
        <time>2022-05-26T11:30:27.000Z</time>
      </trkpt>
      <trkpt lat="44.36312" lon="1.39661">
        <ele>287.60000610352</ele>
        <time>2022-05-26T11:30:28.000Z</time>
      </trkpt>
      <trkpt lat="44.36313" lon="1.39651">
        <ele>287.60000610352</ele>
        <time>2022-05-26T11:34:13.000Z</time>
      </trkpt>
      <trkpt lat="44.36313" lon="1.39646">
        <ele>287.60000610352</ele>
        <time>2022-05-26T11:34:15.000Z</time>
      </trkpt>
      <trkpt lat="44.36316" lon="1.39626">
        <ele>287.60000610352</ele>
        <time>2022-05-26T11:34:21.000Z</time>
      </trkpt>
      <trkpt lat="44.36317" lon="1.3961">
        <ele>287.60000610352</ele>
        <time>2022-05-26T11:34:27.000Z</time>
      </trkpt>
      <trkpt lat="44.36322" lon="1.39594">
        <ele>287.60000610352</ele>
        <time>2022-05-26T11:34:34.000Z</time>
      </trkpt>
      <trkpt lat="44.36322" lon="1.39584">
        <ele>287.79998779297</ele>
        <time>2022-05-26T11:34:39.000Z</time>
      </trkpt>
      <trkpt lat="44.36323" lon="1.39582">
        <ele>287.79998779297</ele>
        <time>2022-05-26T11:34:40.000Z</time>
      </trkpt>
      <trkpt lat="44.36325" lon="1.39567">
        <ele>287.79998779297</ele>
        <time>2022-05-26T11:34:46.000Z</time>
      </trkpt>
      <trkpt lat="44.36328" lon="1.39547">
        <ele>288</ele>
        <time>2022-05-26T11:34:53.000Z</time>
      </trkpt>
      <trkpt lat="44.36329" lon="1.39534">
        <ele>288.20001220703</ele>
        <time>2022-05-26T11:34:58.000Z</time>
      </trkpt>
      <trkpt lat="44.36332" lon="1.39509">
        <ele>288.39999389648</ele>
        <time>2022-05-26T11:35:06.000Z</time>
      </trkpt>
      <trkpt lat="44.36334" lon="1.39486">
        <ele>288.60000610352</ele>
        <time>2022-05-26T11:35:13.000Z</time>
      </trkpt>
      <trkpt lat="44.36336" lon="1.39453">
        <ele>288.60000610352</ele>
        <time>2022-05-26T11:35:22.000Z</time>
      </trkpt>
      <trkpt lat="44.36338" lon="1.3942">
        <ele>288.60000610352</ele>
        <time>2022-05-26T11:35:31.000Z</time>
      </trkpt>
      <trkpt lat="44.36339" lon="1.39379">
        <ele>288.39999389648</ele>
        <time>2022-05-26T11:35:41.000Z</time>
      </trkpt>
      <trkpt lat="44.36341" lon="1.39354">
        <ele>288.39999389648</ele>
        <time>2022-05-26T11:35:47.000Z</time>
      </trkpt>
      <trkpt lat="44.36343" lon="1.39328">
        <ele>288.39999389648</ele>
        <time>2022-05-26T11:35:53.000Z</time>
      </trkpt>
      <trkpt lat="44.36343" lon="1.39304">
        <ele>288.39999389648</ele>
        <time>2022-05-26T11:35:58.000Z</time>
      </trkpt>
      <trkpt lat="44.36343" lon="1.39295">
        <ele>288.60000610352</ele>
        <time>2022-05-26T11:36:00.000Z</time>
      </trkpt>
      <trkpt lat="44.36342" lon="1.39248">
        <ele>289</ele>
        <time>2022-05-26T11:36:10.000Z</time>
      </trkpt>
      <trkpt lat="44.36341" lon="1.39222">
        <ele>289.20001220703</ele>
        <time>2022-05-26T11:36:16.000Z</time>
      </trkpt>
      <trkpt lat="44.36339" lon="1.39188">
        <ele>289.20001220703</ele>
        <time>2022-05-26T11:36:23.000Z</time>
      </trkpt>
      <trkpt lat="44.36341" lon="1.39143">
        <ele>288.39999389648</ele>
        <time>2022-05-26T11:36:29.000Z</time>
      </trkpt>
      <trkpt lat="44.36343" lon="1.39108">
        <ele>287.20001220703</ele>
        <time>2022-05-26T11:36:33.000Z</time>
      </trkpt>
      <trkpt lat="44.36344" lon="1.39091">
        <ele>287</ele>
        <time>2022-05-26T11:36:35.000Z</time>
      </trkpt>
      <trkpt lat="44.36345" lon="1.39071">
        <ele>286.79998779297</ele>
        <time>2022-05-26T11:36:37.000Z</time>
      </trkpt>
      <trkpt lat="44.36346" lon="1.39042">
        <ele>286.20001220703</ele>
        <time>2022-05-26T11:36:40.000Z</time>
      </trkpt>
      <trkpt lat="44.36345" lon="1.39022">
        <ele>286</ele>
        <time>2022-05-26T11:36:42.000Z</time>
      </trkpt>
      <trkpt lat="44.36344" lon="1.38992">
        <ele>285.20001220703</ele>
        <time>2022-05-26T11:36:45.000Z</time>
      </trkpt>
      <trkpt lat="44.36339" lon="1.38955">
        <ele>283.79998779297</ele>
        <time>2022-05-26T11:36:49.000Z</time>
      </trkpt>
      <trkpt lat="44.36334" lon="1.38912">
        <ele>283</ele>
        <time>2022-05-26T11:36:54.000Z</time>
      </trkpt>
      <trkpt lat="44.36333" lon="1.38897">
        <ele>283</ele>
        <time>2022-05-26T11:36:56.000Z</time>
      </trkpt>
      <trkpt lat="44.36332" lon="1.38883">
        <ele>282.79998779297</ele>
        <time>2022-05-26T11:36:58.000Z</time>
      </trkpt>
      <trkpt lat="44.36329" lon="1.38865">
        <ele>282.60000610352</ele>
        <time>2022-05-26T11:37:01.000Z</time>
      </trkpt>
      <trkpt lat="44.36324" lon="1.38847">
        <ele>282.39999389648</ele>
        <time>2022-05-26T11:37:06.000Z</time>
      </trkpt>
      <trkpt lat="44.36317" lon="1.38825">
        <ele>282.39999389648</ele>
        <time>2022-05-26T11:37:12.000Z</time>
      </trkpt>
      <trkpt lat="44.36314" lon="1.38817">
        <ele>282.39999389648</ele>
        <time>2022-05-26T11:37:14.000Z</time>
      </trkpt>
      <trkpt lat="44.36306" lon="1.38793">
        <ele>282.60000610352</ele>
        <time>2022-05-26T11:37:20.000Z</time>
      </trkpt>
      <trkpt lat="44.36301" lon="1.38781">
        <ele>282.79998779297</ele>
        <time>2022-05-26T11:37:23.000Z</time>
      </trkpt>
      <trkpt lat="44.3629" lon="1.38754">
        <ele>283.39999389648</ele>
        <time>2022-05-26T11:37:29.000Z</time>
      </trkpt>
      <trkpt lat="44.36284" lon="1.38738">
        <ele>283.60000610352</ele>
        <time>2022-05-26T11:37:32.000Z</time>
      </trkpt>
      <trkpt lat="44.36269" lon="1.38694">
        <ele>283.39999389648</ele>
        <time>2022-05-26T11:37:40.000Z</time>
      </trkpt>
      <trkpt lat="44.36262" lon="1.38675">
        <ele>282.79998779297</ele>
        <time>2022-05-26T11:37:44.000Z</time>
      </trkpt>
      <trkpt lat="44.36257" lon="1.3866">
        <ele>282.79998779297</ele>
        <time>2022-05-26T11:37:47.000Z</time>
      </trkpt>
      <trkpt lat="44.36239" lon="1.3861">
        <ele>283.20001220703</ele>
        <time>2022-05-26T11:37:57.000Z</time>
      </trkpt>
      <trkpt lat="44.36223" lon="1.38562">
        <ele>283.79998779297</ele>
        <time>2022-05-26T11:38:07.000Z</time>
      </trkpt>
      <trkpt lat="44.36219" lon="1.38551">
        <ele>284</ele>
        <time>2022-05-26T11:38:09.000Z</time>
      </trkpt>
      <trkpt lat="44.3621" lon="1.38507">
        <ele>284.60000610352</ele>
        <time>2022-05-26T11:38:17.000Z</time>
      </trkpt>
      <trkpt lat="44.36202" lon="1.38464">
        <ele>284.79998779297</ele>
        <time>2022-05-26T11:38:25.000Z</time>
      </trkpt>
      <trkpt lat="44.36196" lon="1.38426">
        <ele>284.79998779297</ele>
        <time>2022-05-26T11:38:33.000Z</time>
      </trkpt>
      <trkpt lat="44.36189" lon="1.38382">
        <ele>285</ele>
        <time>2022-05-26T11:38:42.000Z</time>
      </trkpt>
      <trkpt lat="44.36187" lon="1.38372">
        <ele>285.20001220703</ele>
        <time>2022-05-26T11:38:44.000Z</time>
      </trkpt>
      <trkpt lat="44.36184" lon="1.38353">
        <ele>285.20001220703</ele>
        <time>2022-05-26T11:38:48.000Z</time>
      </trkpt>
      <trkpt lat="44.36181" lon="1.38333">
        <ele>285.39999389648</ele>
        <time>2022-05-26T11:38:52.000Z</time>
      </trkpt>
      <trkpt lat="44.36173" lon="1.38279">
        <ele>285.39999389648</ele>
        <time>2022-05-26T11:39:01.000Z</time>
      </trkpt>
      <trkpt lat="44.36173" lon="1.38273">
        <ele>285.39999389648</ele>
        <time>2022-05-26T11:39:02.000Z</time>
      </trkpt>
      <trkpt lat="44.36168" lon="1.38239">
        <ele>285.39999389648</ele>
        <time>2022-05-26T11:39:08.000Z</time>
      </trkpt>
      <trkpt lat="44.36161" lon="1.38199">
        <ele>284.79998779297</ele>
        <time>2022-05-26T11:39:15.000Z</time>
      </trkpt>
      <trkpt lat="44.3616" lon="1.38192">
        <ele>284.60000610352</ele>
        <time>2022-05-26T11:39:16.000Z</time>
      </trkpt>
      <trkpt lat="44.36155" lon="1.38166">
        <ele>284.39999389648</ele>
        <time>2022-05-26T11:39:20.000Z</time>
      </trkpt>
      <trkpt lat="44.36151" lon="1.3814">
        <ele>284.20001220703</ele>
        <time>2022-05-26T11:39:24.000Z</time>
      </trkpt>
      <trkpt lat="44.36149" lon="1.38127">
        <ele>284</ele>
        <time>2022-05-26T11:39:26.000Z</time>
      </trkpt>
      <trkpt lat="44.36145" lon="1.38101">
        <ele>283.39999389648</ele>
        <time>2022-05-26T11:39:30.000Z</time>
      </trkpt>
      <trkpt lat="44.36144" lon="1.38095">
        <ele>283.20001220703</ele>
        <time>2022-05-26T11:39:31.000Z</time>
      </trkpt>
      <trkpt lat="44.36144" lon="1.38091">
        <ele>283.20001220703</ele>
        <time>2022-05-26T11:39:32.000Z</time>
      </trkpt>
      <trkpt lat="44.36141" lon="1.38074">
        <ele>282.79998779297</ele>
        <time>2022-05-26T11:39:35.000Z</time>
      </trkpt>
      <trkpt lat="44.3614" lon="1.38064">
        <ele>282.79998779297</ele>
        <time>2022-05-26T11:39:37.000Z</time>
      </trkpt>
      <trkpt lat="44.36138" lon="1.38044">
        <ele>283</ele>
        <time>2022-05-26T11:39:42.000Z</time>
      </trkpt>
      <trkpt lat="44.36133" lon="1.38023">
        <ele>283.20001220703</ele>
        <time>2022-05-26T11:39:47.000Z</time>
      </trkpt>
      <trkpt lat="44.3613" lon="1.38014">
        <ele>283.20001220703</ele>
        <time>2022-05-26T11:39:49.000Z</time>
      </trkpt>
      <trkpt lat="44.36116" lon="1.37984">
        <ele>283.20001220703</ele>
        <time>2022-05-26T11:39:55.000Z</time>
      </trkpt>
      <trkpt lat="44.36104" lon="1.37956">
        <ele>282.79998779297</ele>
        <time>2022-05-26T11:40:00.000Z</time>
      </trkpt>
      <trkpt lat="44.36101" lon="1.37949">
        <ele>282.60000610352</ele>
        <time>2022-05-26T11:40:01.000Z</time>
      </trkpt>
      <trkpt lat="44.36095" lon="1.37936">
        <ele>282.60000610352</ele>
        <time>2022-05-26T11:40:03.000Z</time>
      </trkpt>
      <trkpt lat="44.36085" lon="1.37916">
        <ele>282</ele>
        <time>2022-05-26T11:40:06.000Z</time>
      </trkpt>
      <trkpt lat="44.36085" lon="1.37916">
        <ele>281.60000610352</ele>
        <time>2022-05-26T11:40:07.000Z</time>
      </trkpt>
      <trkpt lat="44.36069" lon="1.37884">
        <ele>280.79998779297</ele>
        <time>2022-05-26T11:40:11.000Z</time>
      </trkpt>
      <trkpt lat="44.36066" lon="1.37876">
        <ele>280.79998779297</ele>
        <time>2022-05-26T11:40:12.000Z</time>
      </trkpt>
      <trkpt lat="44.36061" lon="1.37864">
        <ele>280.79998779297</ele>
        <time>2022-05-26T11:40:14.000Z</time>
      </trkpt>
      <trkpt lat="44.36057" lon="1.37854">
        <ele>280.60000610352</ele>
        <time>2022-05-26T11:40:16.000Z</time>
      </trkpt>
      <trkpt lat="44.36051" lon="1.37833">
        <ele>280.60000610352</ele>
        <time>2022-05-26T11:40:19.000Z</time>
      </trkpt>
      <trkpt lat="44.36039" lon="1.37775">
        <ele>280.20001220703</ele>
        <time>2022-05-26T11:40:28.000Z</time>
      </trkpt>
      <trkpt lat="44.36036" lon="1.37754">
        <ele>279.79998779297</ele>
        <time>2022-05-26T11:40:32.000Z</time>
      </trkpt>
      <trkpt lat="44.36034" lon="1.37747">
        <ele>279.79998779297</ele>
        <time>2022-05-26T11:40:33.000Z</time>
      </trkpt>
      <trkpt lat="44.36024" lon="1.37699">
        <ele>279.60000610352</ele>
        <time>2022-05-26T11:40:41.000Z</time>
      </trkpt>
      <trkpt lat="44.36022" lon="1.37685">
        <ele>279.60000610352</ele>
        <time>2022-05-26T11:40:43.000Z</time>
      </trkpt>
      <trkpt lat="44.36021" lon="1.37678">
        <ele>279.60000610352</ele>
        <time>2022-05-26T11:40:44.000Z</time>
      </trkpt>
      <trkpt lat="44.36019" lon="1.37651">
        <ele>279.60000610352</ele>
        <time>2022-05-26T11:40:48.000Z</time>
      </trkpt>
      <trkpt lat="44.3601" lon="1.37613">
        <ele>279.60000610352</ele>
        <time>2022-05-26T11:40:54.000Z</time>
      </trkpt>
      <trkpt lat="44.36" lon="1.37571">
        <ele>279.39999389648</ele>
        <time>2022-05-26T11:41:01.000Z</time>
      </trkpt>
      <trkpt lat="44.35999" lon="1.37567">
        <ele>279.39999389648</ele>
        <time>2022-05-26T11:41:02.000Z</time>
      </trkpt>
      <trkpt lat="44.35986" lon="1.37522">
        <ele>279.79998779297</ele>
        <time>2022-05-26T11:41:10.000Z</time>
      </trkpt>
      <trkpt lat="44.35972" lon="1.37478">
        <ele>280</ele>
        <time>2022-05-26T11:41:18.000Z</time>
      </trkpt>
      <trkpt lat="44.35971" lon="1.37474">
        <ele>280</ele>
        <time>2022-05-26T11:41:19.000Z</time>
      </trkpt>
      <trkpt lat="44.35965" lon="1.37461">
        <ele>280.39999389648</ele>
        <time>2022-05-26T11:41:22.000Z</time>
      </trkpt>
      <trkpt lat="44.3596" lon="1.37452">
        <ele>280.60000610352</ele>
        <time>2022-05-26T11:41:24.000Z</time>
      </trkpt>
      <trkpt lat="44.35944" lon="1.37419">
        <ele>280.79998779297</ele>
        <time>2022-05-26T11:41:30.000Z</time>
      </trkpt>
      <trkpt lat="44.3592" lon="1.37374">
        <ele>280.60000610352</ele>
        <time>2022-05-26T11:41:39.000Z</time>
      </trkpt>
      <trkpt lat="44.35891" lon="1.37324">
        <ele>280</ele>
        <time>2022-05-26T11:41:48.000Z</time>
      </trkpt>
      <trkpt lat="44.35887" lon="1.37313">
        <ele>279.79998779297</ele>
        <time>2022-05-26T11:41:50.000Z</time>
      </trkpt>
      <trkpt lat="44.35885" lon="1.37306">
        <ele>279.79998779297</ele>
        <time>2022-05-26T11:41:51.000Z</time>
      </trkpt>
      <trkpt lat="44.35881" lon="1.37288">
        <ele>279.60000610352</ele>
        <time>2022-05-26T11:41:54.000Z</time>
      </trkpt>
      <trkpt lat="44.3588" lon="1.37282">
        <ele>279.60000610352</ele>
        <time>2022-05-26T11:41:55.000Z</time>
      </trkpt>
      <trkpt lat="44.35867" lon="1.37254">
        <ele>279.39999389648</ele>
        <time>2022-05-26T11:42:00.000Z</time>
      </trkpt>
      <trkpt lat="44.35843" lon="1.37212">
        <ele>279.20001220703</ele>
        <time>2022-05-26T11:42:08.000Z</time>
      </trkpt>
      <trkpt lat="44.35841" lon="1.37208">
        <ele>279.20001220703</ele>
        <time>2022-05-26T11:42:09.000Z</time>
      </trkpt>
      <trkpt lat="44.35831" lon="1.37188">
        <ele>279.39999389648</ele>
        <time>2022-05-26T11:42:13.000Z</time>
      </trkpt>
      <trkpt lat="44.35818" lon="1.37161">
        <ele>279.60000610352</ele>
        <time>2022-05-26T11:42:18.000Z</time>
      </trkpt>
      <trkpt lat="44.35811" lon="1.37148">
        <ele>279.39999389648</ele>
        <time>2022-05-26T11:42:20.000Z</time>
      </trkpt>
      <trkpt lat="44.35801" lon="1.37131">
        <ele>278.60000610352</ele>
        <time>2022-05-26T11:42:23.000Z</time>
      </trkpt>
      <trkpt lat="44.35791" lon="1.3711">
        <ele>277.60000610352</ele>
        <time>2022-05-26T11:42:26.000Z</time>
      </trkpt>
      <trkpt lat="44.35789" lon="1.37105">
        <ele>277.60000610352</ele>
        <time>2022-05-26T11:42:27.000Z</time>
      </trkpt>
      <trkpt lat="44.35778" lon="1.37076">
        <ele>277</ele>
        <time>2022-05-26T11:42:31.000Z</time>
      </trkpt>
      <trkpt lat="44.35772" lon="1.37058">
        <ele>276.79998779297</ele>
        <time>2022-05-26T11:42:34.000Z</time>
      </trkpt>
      <trkpt lat="44.35757" lon="1.37023">
        <ele>276.60000610352</ele>
        <time>2022-05-26T11:42:39.000Z</time>
      </trkpt>
      <trkpt lat="44.35752" lon="1.37014">
        <ele>276.39999389648</ele>
        <time>2022-05-26T11:42:40.000Z</time>
      </trkpt>
      <trkpt lat="44.35741" lon="1.36993">
        <ele>275.39999389648</ele>
        <time>2022-05-26T11:42:43.000Z</time>
      </trkpt>
      <trkpt lat="44.35734" lon="1.36977">
        <ele>274.60000610352</ele>
        <time>2022-05-26T11:42:45.000Z</time>
      </trkpt>
      <trkpt lat="44.35732" lon="1.36972">
        <ele>274.20001220703</ele>
        <time>2022-05-26T11:42:46.000Z</time>
      </trkpt>
      <trkpt lat="44.35718" lon="1.36934">
        <ele>273.20001220703</ele>
        <time>2022-05-26T11:42:52.000Z</time>
      </trkpt>
      <trkpt lat="44.35707" lon="1.36902">
        <ele>273.20001220703</ele>
        <time>2022-05-26T11:42:57.000Z</time>
      </trkpt>
      <trkpt lat="44.35703" lon="1.36891">
        <ele>273.20001220703</ele>
        <time>2022-05-26T11:42:59.000Z</time>
      </trkpt>
      <trkpt lat="44.35698" lon="1.36871">
        <ele>274</ele>
        <time>2022-05-26T11:43:04.000Z</time>
      </trkpt>
      <trkpt lat="44.35697" lon="1.36867">
        <ele>274.39999389648</ele>
        <time>2022-05-26T11:43:05.000Z</time>
      </trkpt>
      <trkpt lat="44.35694" lon="1.36846">
        <ele>275.60000610352</ele>
        <time>2022-05-26T11:43:09.000Z</time>
      </trkpt>
      <trkpt lat="44.35693" lon="1.36841">
        <ele>275.60000610352</ele>
        <time>2022-05-26T11:43:10.000Z</time>
      </trkpt>
      <trkpt lat="44.35692" lon="1.36814">
        <ele>276.20001220703</ele>
        <time>2022-05-26T11:43:15.000Z</time>
      </trkpt>
      <trkpt lat="44.35688" lon="1.36786">
        <ele>276.60000610352</ele>
        <time>2022-05-26T11:43:20.000Z</time>
      </trkpt>
      <trkpt lat="44.35686" lon="1.3678">
        <ele>276.79998779297</ele>
        <time>2022-05-26T11:43:21.000Z</time>
      </trkpt>
      <trkpt lat="44.3568" lon="1.36765">
        <ele>276.60000610352</ele>
        <time>2022-05-26T11:43:24.000Z</time>
      </trkpt>
      <trkpt lat="44.35679" lon="1.36757">
        <ele>276.39999389648</ele>
        <time>2022-05-26T11:43:25.000Z</time>
      </trkpt>
      <trkpt lat="44.35674" lon="1.36729">
        <ele>275.60000610352</ele>
        <time>2022-05-26T11:43:29.000Z</time>
      </trkpt>
      <trkpt lat="44.35672" lon="1.36722">
        <ele>275.20001220703</ele>
        <time>2022-05-26T11:43:30.000Z</time>
      </trkpt>
      <trkpt lat="44.35671" lon="1.36707">
        <ele>274.79998779297</ele>
        <time>2022-05-26T11:43:32.000Z</time>
      </trkpt>
      <trkpt lat="44.35671" lon="1.367">
        <ele>274.60000610352</ele>
        <time>2022-05-26T11:43:33.000Z</time>
      </trkpt>
      <trkpt lat="44.35672" lon="1.36685">
        <ele>274.20001220703</ele>
        <time>2022-05-26T11:43:35.000Z</time>
      </trkpt>
      <trkpt lat="44.3567" lon="1.36651">
        <ele>274</ele>
        <time>2022-05-26T11:43:41.000Z</time>
      </trkpt>
      <trkpt lat="44.35667" lon="1.36617">
        <ele>273.60000610352</ele>
        <time>2022-05-26T11:43:46.000Z</time>
      </trkpt>
      <trkpt lat="44.35667" lon="1.36611">
        <ele>273.39999389648</ele>
        <time>2022-05-26T11:43:47.000Z</time>
      </trkpt>
      <trkpt lat="44.35667" lon="1.36595">
        <ele>273.20001220703</ele>
        <time>2022-05-26T11:43:49.000Z</time>
      </trkpt>
      <trkpt lat="44.35667" lon="1.36542">
        <ele>272.39999389648</ele>
        <time>2022-05-26T11:43:57.000Z</time>
      </trkpt>
      <trkpt lat="44.35669" lon="1.36523">
        <ele>272.20001220703</ele>
        <time>2022-05-26T11:44:00.000Z</time>
      </trkpt>
      <trkpt lat="44.3567" lon="1.365">
        <ele>272</ele>
        <time>2022-05-26T11:44:04.000Z</time>
      </trkpt>
      <trkpt lat="44.35671" lon="1.36462">
        <ele>271.20001220703</ele>
        <time>2022-05-26T11:44:11.000Z</time>
      </trkpt>
      <trkpt lat="44.35666" lon="1.36428">
        <ele>270.39999389648</ele>
        <time>2022-05-26T11:44:17.000Z</time>
      </trkpt>
      <trkpt lat="44.35665" lon="1.36415">
        <ele>270.20001220703</ele>
        <time>2022-05-26T11:44:19.000Z</time>
      </trkpt>
      <trkpt lat="44.35664" lon="1.36402">
        <ele>270</ele>
        <time>2022-05-26T11:44:21.000Z</time>
      </trkpt>
      <trkpt lat="44.35665" lon="1.36387">
        <ele>269.20001220703</ele>
        <time>2022-05-26T11:44:24.000Z</time>
      </trkpt>
      <trkpt lat="44.35665" lon="1.36383">
        <ele>269</ele>
        <time>2022-05-26T11:44:25.000Z</time>
      </trkpt>
      <trkpt lat="44.35662" lon="1.36366">
        <ele>268.39999389648</ele>
        <time>2022-05-26T11:44:29.000Z</time>
      </trkpt>
      <trkpt lat="44.35662" lon="1.36353">
        <ele>267.79998779297</ele>
        <time>2022-05-26T11:44:32.000Z</time>
      </trkpt>
      <trkpt lat="44.35662" lon="1.36331">
        <ele>267.20001220703</ele>
        <time>2022-05-26T11:44:36.000Z</time>
      </trkpt>
      <trkpt lat="44.35662" lon="1.36325">
        <ele>266.79998779297</ele>
        <time>2022-05-26T11:44:37.000Z</time>
      </trkpt>
      <trkpt lat="44.35663" lon="1.36314">
        <ele>266.39999389648</ele>
        <time>2022-05-26T11:44:39.000Z</time>
      </trkpt>
      <trkpt lat="44.35665" lon="1.36302">
        <ele>266.39999389648</ele>
        <time>2022-05-26T11:44:41.000Z</time>
      </trkpt>
      <trkpt lat="44.35674" lon="1.36265">
        <ele>265.79998779297</ele>
        <time>2022-05-26T11:44:47.000Z</time>
      </trkpt>
      <trkpt lat="44.35678" lon="1.36254">
        <ele>265.60000610352</ele>
        <time>2022-05-26T11:44:49.000Z</time>
      </trkpt>
      <trkpt lat="44.35693" lon="1.3621">
        <ele>264.79998779297</ele>
        <time>2022-05-26T11:44:57.000Z</time>
      </trkpt>
      <trkpt lat="44.35698" lon="1.36201">
        <ele>264.60000610352</ele>
        <time>2022-05-26T11:44:59.000Z</time>
      </trkpt>
      <trkpt lat="44.35706" lon="1.36191">
        <ele>264.60000610352</ele>
        <time>2022-05-26T11:45:02.000Z</time>
      </trkpt>
      <trkpt lat="44.35726" lon="1.36174">
        <ele>264.60000610352</ele>
        <time>2022-05-26T11:45:07.000Z</time>
      </trkpt>
      <trkpt lat="44.3573" lon="1.36171">
        <ele>264.60000610352</ele>
        <time>2022-05-26T11:45:08.000Z</time>
      </trkpt>
      <trkpt lat="44.35735" lon="1.36162">
        <ele>264.20001220703</ele>
        <time>2022-05-26T11:45:10.000Z</time>
      </trkpt>
      <trkpt lat="44.35737" lon="1.36149">
        <ele>264</ele>
        <time>2022-05-26T11:45:13.000Z</time>
      </trkpt>
      <trkpt lat="44.35729" lon="1.36137">
        <ele>263.79998779297</ele>
        <time>2022-05-26T11:45:17.000Z</time>
      </trkpt>
      <trkpt lat="44.35724" lon="1.36134">
        <ele>263.60000610352</ele>
        <time>2022-05-26T11:45:19.000Z</time>
      </trkpt>
      <trkpt lat="44.35709" lon="1.36128">
        <ele>263.79998779297</ele>
        <time>2022-05-26T11:45:24.000Z</time>
      </trkpt>
      <trkpt lat="44.35689" lon="1.36125">
        <ele>264.20001220703</ele>
        <time>2022-05-26T11:45:30.000Z</time>
      </trkpt>
      <trkpt lat="44.35671" lon="1.3614">
        <ele>263.79998779297</ele>
        <time>2022-05-26T11:45:36.000Z</time>
      </trkpt>
      <trkpt lat="44.35652" lon="1.36154">
        <ele>263.60000610352</ele>
        <time>2022-05-26T11:45:42.000Z</time>
      </trkpt>
      <trkpt lat="44.35638" lon="1.36165">
        <ele>263.60000610352</ele>
        <time>2022-05-26T11:45:46.000Z</time>
      </trkpt>
      <trkpt lat="44.3563" lon="1.36168">
        <ele>263.39999389648</ele>
        <time>2022-05-26T11:45:48.000Z</time>
      </trkpt>
      <trkpt lat="44.35625" lon="1.36168">
        <ele>263.60000610352</ele>
        <time>2022-05-26T11:45:49.000Z</time>
      </trkpt>
      <trkpt lat="44.35597" lon="1.3617">
        <ele>263.20001220703</ele>
        <time>2022-05-26T11:45:56.000Z</time>
      </trkpt>
      <trkpt lat="44.35573" lon="1.36162">
        <ele>263.20001220703</ele>
        <time>2022-05-26T11:46:02.000Z</time>
      </trkpt>
      <trkpt lat="44.3554" lon="1.36142">
        <ele>262.79998779297</ele>
        <time>2022-05-26T11:46:10.000Z</time>
      </trkpt>
      <trkpt lat="44.35533" lon="1.36138">
        <ele>262.60000610352</ele>
        <time>2022-05-26T11:46:12.000Z</time>
      </trkpt>
      <trkpt lat="44.35523" lon="1.36133">
        <ele>262.39999389648</ele>
        <time>2022-05-26T11:46:14.000Z</time>
      </trkpt>
      <trkpt lat="44.3551" lon="1.36127">
        <ele>262.39999389648</ele>
        <time>2022-05-26T11:46:17.000Z</time>
      </trkpt>
      <trkpt lat="44.35489" lon="1.36117">
        <ele>262.20001220703</ele>
        <time>2022-05-26T11:46:22.000Z</time>
      </trkpt>
      <trkpt lat="44.35482" lon="1.36111">
        <ele>262.39999389648</ele>
        <time>2022-05-26T11:46:24.000Z</time>
      </trkpt>
      <trkpt lat="44.35476" lon="1.36102">
        <ele>262.39999389648</ele>
        <time>2022-05-26T11:46:26.000Z</time>
      </trkpt>
      <trkpt lat="44.35462" lon="1.36081">
        <ele>262.60000610352</ele>
        <time>2022-05-26T11:46:31.000Z</time>
      </trkpt>
      <trkpt lat="44.35452" lon="1.3607">
        <ele>263.20001220703</ele>
        <time>2022-05-26T11:46:34.000Z</time>
      </trkpt>
      <trkpt lat="44.35445" lon="1.36064">
        <ele>263.39999389648</ele>
        <time>2022-05-26T11:46:36.000Z</time>
      </trkpt>
      <trkpt lat="44.35443" lon="1.3606">
        <ele>263.60000610352</ele>
        <time>2022-05-26T11:46:37.000Z</time>
      </trkpt>
      <trkpt lat="44.35439" lon="1.36053">
        <ele>263.79998779297</ele>
        <time>2022-05-26T11:46:39.000Z</time>
      </trkpt>
      <trkpt lat="44.35434" lon="1.36039">
        <ele>265</ele>
        <time>2022-05-26T11:46:42.000Z</time>
      </trkpt>
      <trkpt lat="44.35432" lon="1.36034">
        <ele>265.20001220703</ele>
        <time>2022-05-26T11:46:43.000Z</time>
      </trkpt>
      <trkpt lat="44.35425" lon="1.36013">
        <ele>266</ele>
        <time>2022-05-26T11:46:47.000Z</time>
      </trkpt>
      <trkpt lat="44.3542" lon="1.35999">
        <ele>266.60000610352</ele>
        <time>2022-05-26T11:46:50.000Z</time>
      </trkpt>
      <trkpt lat="44.35418" lon="1.35994">
        <ele>267</ele>
        <time>2022-05-26T11:46:51.000Z</time>
      </trkpt>
      <trkpt lat="44.35413" lon="1.35978">
        <ele>267.79998779297</ele>
        <time>2022-05-26T11:46:54.000Z</time>
      </trkpt>
      <trkpt lat="44.35411" lon="1.35973">
        <ele>268.20001220703</ele>
        <time>2022-05-26T11:46:55.000Z</time>
      </trkpt>
      <trkpt lat="44.35409" lon="1.35968">
        <ele>268.39999389648</ele>
        <time>2022-05-26T11:46:56.000Z</time>
      </trkpt>
      <trkpt lat="44.354" lon="1.35945">
        <ele>269.39999389648</ele>
        <time>2022-05-26T11:47:02.000Z</time>
      </trkpt>
      <trkpt lat="44.35399" lon="1.35942">
        <ele>269.60000610352</ele>
        <time>2022-05-26T11:47:03.000Z</time>
      </trkpt>
      <trkpt lat="44.35389" lon="1.3591">
        <ele>269.79998779297</ele>
        <time>2022-05-26T11:47:11.000Z</time>
      </trkpt>
      <trkpt lat="44.3538" lon="1.35888">
        <ele>269.79998779297</ele>
        <time>2022-05-26T11:47:16.000Z</time>
      </trkpt>
      <trkpt lat="44.3537" lon="1.35858">
        <ele>269.79998779297</ele>
        <time>2022-05-26T11:47:22.000Z</time>
      </trkpt>
      <trkpt lat="44.35363" lon="1.35825">
        <ele>270.20001220703</ele>
        <time>2022-05-26T11:47:29.000Z</time>
      </trkpt>
      <trkpt lat="44.35362" lon="1.35816">
        <ele>270.39999389648</ele>
        <time>2022-05-26T11:47:31.000Z</time>
      </trkpt>
      <trkpt lat="44.3536" lon="1.35797">
        <ele>271.20001220703</ele>
        <time>2022-05-26T11:47:35.000Z</time>
      </trkpt>
      <trkpt lat="44.35359" lon="1.35787">
        <ele>271.79998779297</ele>
        <time>2022-05-26T11:47:37.000Z</time>
      </trkpt>
      <trkpt lat="44.35355" lon="1.35752">
        <ele>272</ele>
        <time>2022-05-26T11:47:43.000Z</time>
      </trkpt>
      <trkpt lat="44.35349" lon="1.35705">
        <ele>271.79998779297</ele>
        <time>2022-05-26T11:47:50.000Z</time>
      </trkpt>
      <trkpt lat="44.3535" lon="1.35693">
        <ele>271.60000610352</ele>
        <time>2022-05-26T11:47:52.000Z</time>
      </trkpt>
      <trkpt lat="44.35353" lon="1.35682">
        <ele>271.20001220703</ele>
        <time>2022-05-26T11:47:54.000Z</time>
      </trkpt>
      <trkpt lat="44.3536" lon="1.35664">
        <ele>270.79998779297</ele>
        <time>2022-05-26T11:47:57.000Z</time>
      </trkpt>
      <trkpt lat="44.35363" lon="1.35652">
        <ele>270.79998779297</ele>
        <time>2022-05-26T11:47:59.000Z</time>
      </trkpt>
      <trkpt lat="44.35364" lon="1.35646">
        <ele>270.60000610352</ele>
        <time>2022-05-26T11:48:00.000Z</time>
      </trkpt>
      <trkpt lat="44.35374" lon="1.35587">
        <ele>270.39999389648</ele>
        <time>2022-05-26T11:48:09.000Z</time>
      </trkpt>
      <trkpt lat="44.35377" lon="1.35575">
        <ele>270.20001220703</ele>
        <time>2022-05-26T11:48:11.000Z</time>
      </trkpt>
      <trkpt lat="44.35378" lon="1.35556">
        <ele>270.20001220703</ele>
        <time>2022-05-26T11:48:14.000Z</time>
      </trkpt>
      <trkpt lat="44.35378" lon="1.35505">
        <ele>270</ele>
        <time>2022-05-26T11:48:22.000Z</time>
      </trkpt>
      <trkpt lat="44.35378" lon="1.35475">
        <ele>270.20001220703</ele>
        <time>2022-05-26T11:48:27.000Z</time>
      </trkpt>
      <trkpt lat="44.35379" lon="1.35466">
        <ele>270.20001220703</ele>
        <time>2022-05-26T11:48:29.000Z</time>
      </trkpt>
      <trkpt lat="44.35378" lon="1.35449">
        <ele>270.39999389648</ele>
        <time>2022-05-26T11:48:33.000Z</time>
      </trkpt>
      <trkpt lat="44.35376" lon="1.35441">
        <ele>270.39999389648</ele>
        <time>2022-05-26T11:48:35.000Z</time>
      </trkpt>
      <trkpt lat="44.3537" lon="1.35432">
        <ele>270.60000610352</ele>
        <time>2022-05-26T11:48:39.000Z</time>
      </trkpt>
      <trkpt lat="44.35363" lon="1.35418">
        <ele>270.39999389648</ele>
        <time>2022-05-26T11:48:44.000Z</time>
      </trkpt>
      <trkpt lat="44.35356" lon="1.35397">
        <ele>270.20001220703</ele>
        <time>2022-05-26T11:48:50.000Z</time>
      </trkpt>
      <trkpt lat="44.35341" lon="1.3538">
        <ele>270</ele>
        <time>2022-05-26T11:48:55.000Z</time>
      </trkpt>
      <trkpt lat="44.35319" lon="1.35365">
        <ele>270.20001220703</ele>
        <time>2022-05-26T11:49:02.000Z</time>
      </trkpt>
      <trkpt lat="44.35301" lon="1.35356">
        <ele>270.39999389648</ele>
        <time>2022-05-26T11:49:08.000Z</time>
      </trkpt>
      <trkpt lat="44.35284" lon="1.35347">
        <ele>271.20001220703</ele>
        <time>2022-05-26T11:49:14.000Z</time>
      </trkpt>
      <trkpt lat="44.35278" lon="1.35345">
        <ele>271.39999389648</ele>
        <time>2022-05-26T11:49:16.000Z</time>
      </trkpt>
      <trkpt lat="44.3527" lon="1.35347">
        <ele>271.60000610352</ele>
        <time>2022-05-26T11:49:19.000Z</time>
      </trkpt>
      <trkpt lat="44.35255" lon="1.35349">
        <ele>271.79998779297</ele>
        <time>2022-05-26T11:49:23.000Z</time>
      </trkpt>
      <trkpt lat="44.35231" lon="1.35348">
        <ele>271.79998779297</ele>
        <time>2022-05-26T11:49:29.000Z</time>
      </trkpt>
      <trkpt lat="44.35194" lon="1.35348">
        <ele>271.39999389648</ele>
        <time>2022-05-26T11:49:38.000Z</time>
      </trkpt>
      <trkpt lat="44.35169" lon="1.35342">
        <ele>270.79998779297</ele>
        <time>2022-05-26T11:49:45.000Z</time>
      </trkpt>
      <trkpt lat="44.35168" lon="1.35341">
        <ele>270.79998779297</ele>
        <time>2022-05-26T11:49:46.000Z</time>
      </trkpt>
      <trkpt lat="44.35168" lon="1.3534">
        <ele>270.60000610352</ele>
        <time>2022-05-26T11:49:48.000Z</time>
      </trkpt>
      <trkpt lat="44.35168" lon="1.3534">
        <ele>270.60000610352</ele>
        <time>2022-05-26T11:49:49.000Z</time>
      </trkpt>
      <trkpt lat="44.35162" lon="1.35329">
        <ele>270.39999389648</ele>
        <time>2022-05-26T11:50:02.000Z</time>
      </trkpt>
      <trkpt lat="44.35161" lon="1.35327">
        <ele>270.20001220703</ele>
        <time>2022-05-26T11:50:03.000Z</time>
      </trkpt>
      <trkpt lat="44.35159" lon="1.35325">
        <ele>270.20001220703</ele>
        <time>2022-05-26T11:50:04.000Z</time>
      </trkpt>
      <trkpt lat="44.35147" lon="1.35304">
        <ele>270.20001220703</ele>
        <time>2022-05-26T11:50:10.000Z</time>
      </trkpt>
      <trkpt lat="44.35135" lon="1.35281">
        <ele>270</ele>
        <time>2022-05-26T11:50:15.000Z</time>
      </trkpt>
      <trkpt lat="44.35117" lon="1.35253">
        <ele>270.39999389648</ele>
        <time>2022-05-26T11:50:22.000Z</time>
      </trkpt>
      <trkpt lat="44.351" lon="1.35232">
        <ele>270.39999389648</ele>
        <time>2022-05-26T11:50:28.000Z</time>
      </trkpt>
      <trkpt lat="44.35079" lon="1.35208">
        <ele>270.20001220703</ele>
        <time>2022-05-26T11:50:33.000Z</time>
      </trkpt>
      <trkpt lat="44.35072" lon="1.35198">
        <ele>269.79998779297</ele>
        <time>2022-05-26T11:50:35.000Z</time>
      </trkpt>
      <trkpt lat="44.35064" lon="1.35186">
        <ele>269.20001220703</ele>
        <time>2022-05-26T11:50:37.000Z</time>
      </trkpt>
      <trkpt lat="44.35061" lon="1.3518">
        <ele>269</ele>
        <time>2022-05-26T11:50:38.000Z</time>
      </trkpt>
      <trkpt lat="44.35055" lon="1.3517">
        <ele>268.79998779297</ele>
        <time>2022-05-26T11:50:40.000Z</time>
      </trkpt>
      <trkpt lat="44.35043" lon="1.35143">
        <ele>268.79998779297</ele>
        <time>2022-05-26T11:50:45.000Z</time>
      </trkpt>
      <trkpt lat="44.35033" lon="1.3511">
        <ele>269</ele>
        <time>2022-05-26T11:50:52.000Z</time>
      </trkpt>
      <trkpt lat="44.35027" lon="1.35088">
        <ele>269.79998779297</ele>
        <time>2022-05-26T11:50:57.000Z</time>
      </trkpt>
      <trkpt lat="44.35025" lon="1.35079">
        <ele>270.39999389648</ele>
        <time>2022-05-26T11:50:59.000Z</time>
      </trkpt>
      <trkpt lat="44.35024" lon="1.35071">
        <ele>271</ele>
        <time>2022-05-26T11:51:01.000Z</time>
      </trkpt>
      <trkpt lat="44.35018" lon="1.35053">
        <ele>272</ele>
        <time>2022-05-26T11:51:05.000Z</time>
      </trkpt>
      <trkpt lat="44.35012" lon="1.35034">
        <ele>273</ele>
        <time>2022-05-26T11:51:09.000Z</time>
      </trkpt>
      <trkpt lat="44.35007" lon="1.3502">
        <ele>273.79998779297</ele>
        <time>2022-05-26T11:51:12.000Z</time>
      </trkpt>
      <trkpt lat="44.34999" lon="1.35001">
        <ele>274.20001220703</ele>
        <time>2022-05-26T11:51:17.000Z</time>
      </trkpt>
      <trkpt lat="44.34997" lon="1.34996">
        <ele>274.20001220703</ele>
        <time>2022-05-26T11:51:18.000Z</time>
      </trkpt>
      <trkpt lat="44.34989" lon="1.34976">
        <ele>275.20001220703</ele>
        <time>2022-05-26T11:51:22.000Z</time>
      </trkpt>
      <trkpt lat="44.34983" lon="1.34956">
        <ele>275.60000610352</ele>
        <time>2022-05-26T11:51:26.000Z</time>
      </trkpt>
      <trkpt lat="44.34976" lon="1.34932">
        <ele>275.60000610352</ele>
        <time>2022-05-26T11:51:31.000Z</time>
      </trkpt>
      <trkpt lat="44.3497" lon="1.34907">
        <ele>276</ele>
        <time>2022-05-26T11:51:36.000Z</time>
      </trkpt>
      <trkpt lat="44.34966" lon="1.34898">
        <ele>276.39999389648</ele>
        <time>2022-05-26T11:51:38.000Z</time>
      </trkpt>
      <trkpt lat="44.34961" lon="1.34882">
        <ele>276.60000610352</ele>
        <time>2022-05-26T11:51:41.000Z</time>
      </trkpt>
      <trkpt lat="44.34949" lon="1.34848">
        <ele>276.79998779297</ele>
        <time>2022-05-26T11:51:48.000Z</time>
      </trkpt>
      <trkpt lat="44.34937" lon="1.34809">
        <ele>276.39999389648</ele>
        <time>2022-05-26T11:51:55.000Z</time>
      </trkpt>
      <trkpt lat="44.34925" lon="1.34772">
        <ele>275.39999389648</ele>
        <time>2022-05-26T11:52:02.000Z</time>
      </trkpt>
      <trkpt lat="44.34924" lon="1.34767">
        <ele>275.39999389648</ele>
        <time>2022-05-26T11:52:03.000Z</time>
      </trkpt>
      <trkpt lat="44.3492" lon="1.34746">
        <ele>275.20001220703</ele>
        <time>2022-05-26T11:52:08.000Z</time>
      </trkpt>
      <trkpt lat="44.34914" lon="1.34717">
        <ele>275</ele>
        <time>2022-05-26T11:52:14.000Z</time>
      </trkpt>
      <trkpt lat="44.34899" lon="1.34676">
        <ele>275.20001220703</ele>
        <time>2022-05-26T11:52:21.000Z</time>
      </trkpt>
      <trkpt lat="44.34895" lon="1.34664">
        <ele>275.20001220703</ele>
        <time>2022-05-26T11:52:23.000Z</time>
      </trkpt>
      <trkpt lat="44.34885" lon="1.34639">
        <ele>275</ele>
        <time>2022-05-26T11:52:28.000Z</time>
      </trkpt>
      <trkpt lat="44.34874" lon="1.34609">
        <ele>274.79998779297</ele>
        <time>2022-05-26T11:52:35.000Z</time>
      </trkpt>
      <trkpt lat="44.34863" lon="1.34576">
        <ele>274.60000610352</ele>
        <time>2022-05-26T11:52:41.000Z</time>
      </trkpt>
      <trkpt lat="44.34853" lon="1.34541">
        <ele>274.20001220703</ele>
        <time>2022-05-26T11:52:46.000Z</time>
      </trkpt>
      <trkpt lat="44.34847" lon="1.34519">
        <ele>273.79998779297</ele>
        <time>2022-05-26T11:52:49.000Z</time>
      </trkpt>
      <trkpt lat="44.34844" lon="1.34505">
        <ele>273.60000610352</ele>
        <time>2022-05-26T11:52:51.000Z</time>
      </trkpt>
      <trkpt lat="44.34843" lon="1.34498">
        <ele>273.20001220703</ele>
        <time>2022-05-26T11:52:52.000Z</time>
      </trkpt>
      <trkpt lat="44.34838" lon="1.34484">
        <ele>272.79998779297</ele>
        <time>2022-05-26T11:52:55.000Z</time>
      </trkpt>
      <trkpt lat="44.34831" lon="1.34448">
        <ele>272.79998779297</ele>
        <time>2022-05-26T11:53:02.000Z</time>
      </trkpt>
      <trkpt lat="44.34825" lon="1.34405">
        <ele>273</ele>
        <time>2022-05-26T11:53:09.000Z</time>
      </trkpt>
      <trkpt lat="44.34824" lon="1.34398">
        <ele>273</ele>
        <time>2022-05-26T11:53:10.000Z</time>
      </trkpt>
      <trkpt lat="44.34823" lon="1.34392">
        <ele>273</ele>
        <time>2022-05-26T11:53:11.000Z</time>
      </trkpt>
      <trkpt lat="44.34817" lon="1.34367">
        <ele>273.39999389648</ele>
        <time>2022-05-26T11:53:16.000Z</time>
      </trkpt>
      <trkpt lat="44.34813" lon="1.34347">
        <ele>274.20001220703</ele>
        <time>2022-05-26T11:53:21.000Z</time>
      </trkpt>
      <trkpt lat="44.34812" lon="1.34342">
        <ele>274.60000610352</ele>
        <time>2022-05-26T11:53:22.000Z</time>
      </trkpt>
      <trkpt lat="44.34808" lon="1.34324">
        <ele>275.39999389648</ele>
        <time>2022-05-26T11:53:26.000Z</time>
      </trkpt>
      <trkpt lat="44.34802" lon="1.34299">
        <ele>276</ele>
        <time>2022-05-26T11:53:31.000Z</time>
      </trkpt>
      <trkpt lat="44.34796" lon="1.34253">
        <ele>275.79998779297</ele>
        <time>2022-05-26T11:53:39.000Z</time>
      </trkpt>
      <trkpt lat="44.34796" lon="1.34224">
        <ele>275</ele>
        <time>2022-05-26T11:53:43.000Z</time>
      </trkpt>
      <trkpt lat="44.34797" lon="1.3421">
        <ele>274.79998779297</ele>
        <time>2022-05-26T11:53:45.000Z</time>
      </trkpt>
      <trkpt lat="44.34797" lon="1.34179">
        <ele>274.20001220703</ele>
        <time>2022-05-26T11:53:49.000Z</time>
      </trkpt>
      <trkpt lat="44.34797" lon="1.34157">
        <ele>273.60000610352</ele>
        <time>2022-05-26T11:53:52.000Z</time>
      </trkpt>
      <trkpt lat="44.34798" lon="1.3413">
        <ele>273.20001220703</ele>
        <time>2022-05-26T11:53:55.000Z</time>
      </trkpt>
      <trkpt lat="44.348" lon="1.34095">
        <ele>272</ele>
        <time>2022-05-26T11:53:59.000Z</time>
      </trkpt>
      <trkpt lat="44.34803" lon="1.34067">
        <ele>270.79998779297</ele>
        <time>2022-05-26T11:54:02.000Z</time>
      </trkpt>
      <trkpt lat="44.34806" lon="1.34048">
        <ele>270</ele>
        <time>2022-05-26T11:54:04.000Z</time>
      </trkpt>
      <trkpt lat="44.34806" lon="1.34037">
        <ele>269.79998779297</ele>
        <time>2022-05-26T11:54:05.000Z</time>
      </trkpt>
      <trkpt lat="44.34805" lon="1.34018">
        <ele>269.39999389648</ele>
        <time>2022-05-26T11:54:07.000Z</time>
      </trkpt>
      <trkpt lat="44.34803" lon="1.34009">
        <ele>269</ele>
        <time>2022-05-26T11:54:08.000Z</time>
      </trkpt>
      <trkpt lat="44.348" lon="1.33993">
        <ele>268.79998779297</ele>
        <time>2022-05-26T11:54:10.000Z</time>
      </trkpt>
      <trkpt lat="44.34797" lon="1.33975">
        <ele>268.39999389648</ele>
        <time>2022-05-26T11:54:12.000Z</time>
      </trkpt>
      <trkpt lat="44.34791" lon="1.3395">
        <ele>267.60000610352</ele>
        <time>2022-05-26T11:54:15.000Z</time>
      </trkpt>
      <trkpt lat="44.34788" lon="1.33928">
        <ele>267.39999389648</ele>
        <time>2022-05-26T11:54:18.000Z</time>
      </trkpt>
      <trkpt lat="44.3478" lon="1.33876">
        <ele>266.79998779297</ele>
        <time>2022-05-26T11:54:26.000Z</time>
      </trkpt>
      <trkpt lat="44.34777" lon="1.33853">
        <ele>266.79998779297</ele>
        <time>2022-05-26T11:54:30.000Z</time>
      </trkpt>
      <trkpt lat="44.34774" lon="1.33836">
        <ele>267</ele>
        <time>2022-05-26T11:54:33.000Z</time>
      </trkpt>
      <trkpt lat="44.34773" lon="1.33831">
        <ele>266.79998779297</ele>
        <time>2022-05-26T11:54:34.000Z</time>
      </trkpt>
      <trkpt lat="44.34772" lon="1.3381">
        <ele>267</ele>
        <time>2022-05-26T11:54:38.000Z</time>
      </trkpt>
      <trkpt lat="44.3477" lon="1.33765">
        <ele>267.79998779297</ele>
        <time>2022-05-26T11:54:46.000Z</time>
      </trkpt>
      <trkpt lat="44.34768" lon="1.33753">
        <ele>268.39999389648</ele>
        <time>2022-05-26T11:54:48.000Z</time>
      </trkpt>
      <trkpt lat="44.34767" lon="1.33742">
        <ele>269</ele>
        <time>2022-05-26T11:54:50.000Z</time>
      </trkpt>
      <trkpt lat="44.34762" lon="1.33726">
        <ele>269.79998779297</ele>
        <time>2022-05-26T11:54:53.000Z</time>
      </trkpt>
      <trkpt lat="44.34759" lon="1.33721">
        <ele>269.79998779297</ele>
        <time>2022-05-26T11:54:54.000Z</time>
      </trkpt>
      <trkpt lat="44.34756" lon="1.33716">
        <ele>269.79998779297</ele>
        <time>2022-05-26T11:54:55.000Z</time>
      </trkpt>
      <trkpt lat="44.34742" lon="1.33701">
        <ele>269.79998779297</ele>
        <time>2022-05-26T11:54:58.000Z</time>
      </trkpt>
      <trkpt lat="44.34709" lon="1.33667">
        <ele>268.20001220703</ele>
        <time>2022-05-26T11:55:05.000Z</time>
      </trkpt>
      <trkpt lat="44.347" lon="1.33651">
        <ele>267.79998779297</ele>
        <time>2022-05-26T11:55:08.000Z</time>
      </trkpt>
      <trkpt lat="44.34691" lon="1.33633">
        <ele>267.60000610352</ele>
        <time>2022-05-26T11:55:11.000Z</time>
      </trkpt>
      <trkpt lat="44.34689" lon="1.33628">
        <ele>267.60000610352</ele>
        <time>2022-05-26T11:55:12.000Z</time>
      </trkpt>
      <trkpt lat="44.34681" lon="1.33606">
        <ele>267.20001220703</ele>
        <time>2022-05-26T11:55:16.000Z</time>
      </trkpt>
      <trkpt lat="44.34676" lon="1.33574">
        <ele>267</ele>
        <time>2022-05-26T11:55:22.000Z</time>
      </trkpt>
      <trkpt lat="44.34675" lon="1.33531">
        <ele>266.79998779297</ele>
        <time>2022-05-26T11:55:29.000Z</time>
      </trkpt>
      <trkpt lat="44.34674" lon="1.33524">
        <ele>266.79998779297</ele>
        <time>2022-05-26T11:55:30.000Z</time>
      </trkpt>
      <trkpt lat="44.34667" lon="1.33492">
        <ele>266.60000610352</ele>
        <time>2022-05-26T11:55:35.000Z</time>
      </trkpt>
      <trkpt lat="44.34664" lon="1.33477">
        <ele>266.20001220703</ele>
        <time>2022-05-26T11:55:37.000Z</time>
      </trkpt>
      <trkpt lat="44.34662" lon="1.33469">
        <ele>265.39999389648</ele>
        <time>2022-05-26T11:55:38.000Z</time>
      </trkpt>
      <trkpt lat="44.3465" lon="1.33439">
        <ele>264</ele>
        <time>2022-05-26T11:55:42.000Z</time>
      </trkpt>
      <trkpt lat="44.34637" lon="1.33408">
        <ele>262.79998779297</ele>
        <time>2022-05-26T11:55:46.000Z</time>
      </trkpt>
      <trkpt lat="44.34624" lon="1.33379">
        <ele>262.39999389648</ele>
        <time>2022-05-26T11:55:50.000Z</time>
      </trkpt>
      <trkpt lat="44.34606" lon="1.33351">
        <ele>261.79998779297</ele>
        <time>2022-05-26T11:55:55.000Z</time>
      </trkpt>
      <trkpt lat="44.34586" lon="1.33316">
        <ele>261.39999389648</ele>
        <time>2022-05-26T11:56:01.000Z</time>
      </trkpt>
      <trkpt lat="44.34582" lon="1.3331">
        <ele>261.39999389648</ele>
        <time>2022-05-26T11:56:02.000Z</time>
      </trkpt>
      <trkpt lat="44.3456" lon="1.33271">
        <ele>260.79998779297</ele>
        <time>2022-05-26T11:56:08.000Z</time>
      </trkpt>
      <trkpt lat="44.34552" lon="1.33258">
        <ele>260.39999389648</ele>
        <time>2022-05-26T11:56:10.000Z</time>
      </trkpt>
      <trkpt lat="44.3453" lon="1.33222">
        <ele>259.60000610352</ele>
        <time>2022-05-26T11:56:16.000Z</time>
      </trkpt>
      <trkpt lat="44.34523" lon="1.33212">
        <ele>259.39999389648</ele>
        <time>2022-05-26T11:56:18.000Z</time>
      </trkpt>
      <trkpt lat="44.34502" lon="1.33174">
        <ele>259.39999389648</ele>
        <time>2022-05-26T11:56:25.000Z</time>
      </trkpt>
      <trkpt lat="44.34481" lon="1.33136">
        <ele>259</ele>
        <time>2022-05-26T11:56:31.000Z</time>
      </trkpt>
      <trkpt lat="44.34477" lon="1.3313">
        <ele>259</ele>
        <time>2022-05-26T11:56:32.000Z</time>
      </trkpt>
      <trkpt lat="44.34465" lon="1.33115">
        <ele>258.60000610352</ele>
        <time>2022-05-26T11:56:35.000Z</time>
      </trkpt>
      <trkpt lat="44.34453" lon="1.33102">
        <ele>258.20001220703</ele>
        <time>2022-05-26T11:56:38.000Z</time>
      </trkpt>
      <trkpt lat="44.34421" lon="1.33077">
        <ele>258</ele>
        <time>2022-05-26T11:56:45.000Z</time>
      </trkpt>
      <trkpt lat="44.34399" lon="1.3307">
        <ele>258.20001220703</ele>
        <time>2022-05-26T11:56:50.000Z</time>
      </trkpt>
      <trkpt lat="44.34373" lon="1.33066">
        <ele>258.39999389648</ele>
        <time>2022-05-26T11:56:56.000Z</time>
      </trkpt>
      <trkpt lat="44.34353" lon="1.33068">
        <ele>258.39999389648</ele>
        <time>2022-05-26T11:57:02.000Z</time>
      </trkpt>
      <trkpt lat="44.34331" lon="1.33076">
        <ele>258.79998779297</ele>
        <time>2022-05-26T11:57:08.000Z</time>
      </trkpt>
      <trkpt lat="44.34302" lon="1.33074">
        <ele>259.20001220703</ele>
        <time>2022-05-26T11:57:15.000Z</time>
      </trkpt>
      <trkpt lat="44.34298" lon="1.33073">
        <ele>259.39999389648</ele>
        <time>2022-05-26T11:57:16.000Z</time>
      </trkpt>
      <trkpt lat="44.34294" lon="1.33072">
        <ele>259.60000610352</ele>
        <time>2022-05-26T11:57:17.000Z</time>
      </trkpt>
      <trkpt lat="44.3429" lon="1.33071">
        <ele>259.60000610352</ele>
        <time>2022-05-26T11:57:18.000Z</time>
      </trkpt>
      <trkpt lat="44.34275" lon="1.33065">
        <ele>260.79998779297</ele>
        <time>2022-05-26T11:57:22.000Z</time>
      </trkpt>
      <trkpt lat="44.34268" lon="1.33062">
        <ele>261</ele>
        <time>2022-05-26T11:57:24.000Z</time>
      </trkpt>
      <trkpt lat="44.3424" lon="1.33042">
        <ele>261.39999389648</ele>
        <time>2022-05-26T11:57:32.000Z</time>
      </trkpt>
      <trkpt lat="44.34217" lon="1.33018">
        <ele>261.79998779297</ele>
        <time>2022-05-26T11:57:39.000Z</time>
      </trkpt>
      <trkpt lat="44.34205" lon="1.33002">
        <ele>261.79998779297</ele>
        <time>2022-05-26T11:57:45.000Z</time>
      </trkpt>
      <trkpt lat="44.34203" lon="1.32999">
        <ele>261.79998779297</ele>
        <time>2022-05-26T11:57:46.000Z</time>
      </trkpt>
      <trkpt lat="44.34176" lon="1.32959">
        <ele>262.60000610352</ele>
        <time>2022-05-26T11:57:57.000Z</time>
      </trkpt>
      <trkpt lat="44.34171" lon="1.32952">
        <ele>263</ele>
        <time>2022-05-26T11:57:59.000Z</time>
      </trkpt>
      <trkpt lat="44.34151" lon="1.32923">
        <ele>263.39999389648</ele>
        <time>2022-05-26T11:58:06.000Z</time>
      </trkpt>
      <trkpt lat="44.34135" lon="1.32901">
        <ele>264</ele>
        <time>2022-05-26T11:58:11.000Z</time>
      </trkpt>
      <trkpt lat="44.34129" lon="1.32894">
        <ele>264.39999389648</ele>
        <time>2022-05-26T11:58:13.000Z</time>
      </trkpt>
      <trkpt lat="44.34108" lon="1.32863">
        <ele>264.79998779297</ele>
        <time>2022-05-26T11:58:20.000Z</time>
      </trkpt>
      <trkpt lat="44.34104" lon="1.3286">
        <ele>264.79998779297</ele>
        <time>2022-05-26T11:58:21.000Z</time>
      </trkpt>
      <trkpt lat="44.34097" lon="1.32856">
        <ele>265</ele>
        <time>2022-05-26T11:58:23.000Z</time>
      </trkpt>
      <trkpt lat="44.34093" lon="1.32854">
        <ele>265</ele>
        <time>2022-05-26T11:58:24.000Z</time>
      </trkpt>
      <trkpt lat="44.34082" lon="1.32852">
        <ele>265.79998779297</ele>
        <time>2022-05-26T11:58:27.000Z</time>
      </trkpt>
      <trkpt lat="44.34074" lon="1.32849">
        <ele>266.39999389648</ele>
        <time>2022-05-26T11:58:29.000Z</time>
      </trkpt>
      <trkpt lat="44.34061" lon="1.32838">
        <ele>267.39999389648</ele>
        <time>2022-05-26T11:58:33.000Z</time>
      </trkpt>
      <trkpt lat="44.34048" lon="1.3281">
        <ele>268.39999389648</ele>
        <time>2022-05-26T11:58:39.000Z</time>
      </trkpt>
      <trkpt lat="44.34046" lon="1.32798">
        <ele>268.39999389648</ele>
        <time>2022-05-26T11:58:41.000Z</time>
      </trkpt>
      <trkpt lat="44.34045" lon="1.32792">
        <ele>268.39999389648</ele>
        <time>2022-05-26T11:58:42.000Z</time>
      </trkpt>
      <trkpt lat="44.34045" lon="1.32775">
        <ele>268.39999389648</ele>
        <time>2022-05-26T11:58:44.000Z</time>
      </trkpt>
      <trkpt lat="44.34045" lon="1.32749">
        <ele>268.20001220703</ele>
        <time>2022-05-26T11:58:47.000Z</time>
      </trkpt>
      <trkpt lat="44.34045" lon="1.32731">
        <ele>267.79998779297</ele>
        <time>2022-05-26T11:58:49.000Z</time>
      </trkpt>
      <trkpt lat="44.34045" lon="1.32722">
        <ele>267.20001220703</ele>
        <time>2022-05-26T11:58:50.000Z</time>
      </trkpt>
      <trkpt lat="44.3404" lon="1.32677">
        <ele>266</ele>
        <time>2022-05-26T11:58:55.000Z</time>
      </trkpt>
      <trkpt lat="44.34033" lon="1.3264">
        <ele>264.79998779297</ele>
        <time>2022-05-26T11:58:59.000Z</time>
      </trkpt>
      <trkpt lat="44.34027" lon="1.32606">
        <ele>263.79998779297</ele>
        <time>2022-05-26T11:59:03.000Z</time>
      </trkpt>
      <trkpt lat="44.3402" lon="1.32565">
        <ele>262.79998779297</ele>
        <time>2022-05-26T11:59:08.000Z</time>
      </trkpt>
      <trkpt lat="44.34018" lon="1.32549">
        <ele>262.60000610352</ele>
        <time>2022-05-26T11:59:10.000Z</time>
      </trkpt>
      <trkpt lat="44.34011" lon="1.32511">
        <ele>262.20001220703</ele>
        <time>2022-05-26T11:59:15.000Z</time>
      </trkpt>
      <trkpt lat="44.34005" lon="1.32485">
        <ele>262</ele>
        <time>2022-05-26T11:59:19.000Z</time>
      </trkpt>
      <trkpt lat="44.34" lon="1.32469">
        <ele>261.79998779297</ele>
        <time>2022-05-26T11:59:22.000Z</time>
      </trkpt>
      <trkpt lat="44.33994" lon="1.32451">
        <ele>261.60000610352</ele>
        <time>2022-05-26T11:59:25.000Z</time>
      </trkpt>
      <trkpt lat="44.33983" lon="1.32428">
        <ele>261.60000610352</ele>
        <time>2022-05-26T11:59:30.000Z</time>
      </trkpt>
      <trkpt lat="44.3397" lon="1.32402">
        <ele>262.20001220703</ele>
        <time>2022-05-26T11:59:36.000Z</time>
      </trkpt>
      <trkpt lat="44.33966" lon="1.32394">
        <ele>262.20001220703</ele>
        <time>2022-05-26T11:59:38.000Z</time>
      </trkpt>
      <trkpt lat="44.33955" lon="1.32376">
        <ele>262.60000610352</ele>
        <time>2022-05-26T11:59:43.000Z</time>
      </trkpt>
      <trkpt lat="44.33951" lon="1.3237">
        <ele>262.60000610352</ele>
        <time>2022-05-26T11:59:45.000Z</time>
      </trkpt>
      <trkpt lat="44.33946" lon="1.32364">
        <ele>263.60000610352</ele>
        <time>2022-05-26T11:59:47.000Z</time>
      </trkpt>
      <trkpt lat="44.33943" lon="1.3236">
        <ele>264.20001220703</ele>
        <time>2022-05-26T11:59:48.000Z</time>
      </trkpt>
      <trkpt lat="44.3394" lon="1.32349">
        <ele>264.79998779297</ele>
        <time>2022-05-26T11:59:51.000Z</time>
      </trkpt>
      <trkpt lat="44.33941" lon="1.32338">
        <ele>265.39999389648</ele>
        <time>2022-05-26T11:59:53.000Z</time>
      </trkpt>
      <trkpt lat="44.33945" lon="1.32324">
        <ele>265.60000610352</ele>
        <time>2022-05-26T11:59:56.000Z</time>
      </trkpt>
      <trkpt lat="44.33946" lon="1.323">
        <ele>266</ele>
        <time>2022-05-26T12:00:01.000Z</time>
      </trkpt>
      <trkpt lat="44.33942" lon="1.32258">
        <ele>266</ele>
        <time>2022-05-26T12:00:08.000Z</time>
      </trkpt>
      <trkpt lat="44.33939" lon="1.32203">
        <ele>264.79998779297</ele>
        <time>2022-05-26T12:00:15.000Z</time>
      </trkpt>
      <trkpt lat="44.33937" lon="1.32179">
        <ele>264.20001220703</ele>
        <time>2022-05-26T12:00:18.000Z</time>
      </trkpt>
      <trkpt lat="44.33934" lon="1.32152">
        <ele>263.60000610352</ele>
        <time>2022-05-26T12:00:21.000Z</time>
      </trkpt>
      <trkpt lat="44.33934" lon="1.32146">
        <ele>263.39999389648</ele>
        <time>2022-05-26T12:00:22.000Z</time>
      </trkpt>
      <trkpt lat="44.33936" lon="1.32138">
        <ele>263.39999389648</ele>
        <time>2022-05-26T12:00:23.000Z</time>
      </trkpt>
      <trkpt lat="44.33941" lon="1.32123">
        <ele>262.60000610352</ele>
        <time>2022-05-26T12:00:25.000Z</time>
      </trkpt>
      <trkpt lat="44.33942" lon="1.32117">
        <ele>262.60000610352</ele>
        <time>2022-05-26T12:00:26.000Z</time>
      </trkpt>
      <trkpt lat="44.33943" lon="1.32112">
        <ele>262.60000610352</ele>
        <time>2022-05-26T12:00:27.000Z</time>
      </trkpt>
      <trkpt lat="44.33948" lon="1.32097">
        <ele>261.79998779297</ele>
        <time>2022-05-26T12:00:30.000Z</time>
      </trkpt>
      <trkpt lat="44.3395" lon="1.32092">
        <ele>261.39999389648</ele>
        <time>2022-05-26T12:00:31.000Z</time>
      </trkpt>
      <trkpt lat="44.33955" lon="1.32079">
        <ele>260</ele>
        <time>2022-05-26T12:00:34.000Z</time>
      </trkpt>
      <trkpt lat="44.33959" lon="1.32071">
        <ele>259.20001220703</ele>
        <time>2022-05-26T12:00:36.000Z</time>
      </trkpt>
      <trkpt lat="44.33964" lon="1.32054">
        <ele>258.60000610352</ele>
        <time>2022-05-26T12:00:39.000Z</time>
      </trkpt>
      <trkpt lat="44.3397" lon="1.32044">
        <ele>258.39999389648</ele>
        <time>2022-05-26T12:00:41.000Z</time>
      </trkpt>
      <trkpt lat="44.33974" lon="1.3204">
        <ele>258.20001220703</ele>
        <time>2022-05-26T12:00:42.000Z</time>
      </trkpt>
      <trkpt lat="44.3398" lon="1.32033">
        <ele>257.60000610352</ele>
        <time>2022-05-26T12:00:44.000Z</time>
      </trkpt>
      <trkpt lat="44.33988" lon="1.32022">
        <ele>256.60000610352</ele>
        <time>2022-05-26T12:00:47.000Z</time>
      </trkpt>
      <trkpt lat="44.33993" lon="1.32011">
        <ele>255.19999694824</ele>
        <time>2022-05-26T12:00:50.000Z</time>
      </trkpt>
      <trkpt lat="44.33998" lon="1.32003">
        <ele>254</ele>
        <time>2022-05-26T12:00:52.000Z</time>
      </trkpt>
      <trkpt lat="44.34003" lon="1.3199">
        <ele>252.60000610352</ele>
        <time>2022-05-26T12:00:55.000Z</time>
      </trkpt>
      <trkpt lat="44.3401" lon="1.31976">
        <ele>251.60000610352</ele>
        <time>2022-05-26T12:00:58.000Z</time>
      </trkpt>
      <trkpt lat="44.34014" lon="1.3197">
        <ele>251</ele>
        <time>2022-05-26T12:00:59.000Z</time>
      </trkpt>
      <trkpt lat="44.34017" lon="1.31965">
        <ele>250.39999389648</ele>
        <time>2022-05-26T12:01:00.000Z</time>
      </trkpt>
      <trkpt lat="44.34029" lon="1.31944">
        <ele>249.39999389648</ele>
        <time>2022-05-26T12:01:04.000Z</time>
      </trkpt>
      <trkpt lat="44.34036" lon="1.31932">
        <ele>248.19999694824</ele>
        <time>2022-05-26T12:01:06.000Z</time>
      </trkpt>
      <trkpt lat="44.34039" lon="1.31927">
        <ele>247</ele>
        <time>2022-05-26T12:01:07.000Z</time>
      </trkpt>
      <trkpt lat="44.34047" lon="1.31917">
        <ele>245.60000610352</ele>
        <time>2022-05-26T12:01:09.000Z</time>
      </trkpt>
      <trkpt lat="44.3406" lon="1.31904">
        <ele>244.19999694824</ele>
        <time>2022-05-26T12:01:12.000Z</time>
      </trkpt>
      <trkpt lat="44.34064" lon="1.319">
        <ele>243.60000610352</ele>
        <time>2022-05-26T12:01:13.000Z</time>
      </trkpt>
      <trkpt lat="44.34069" lon="1.31896">
        <ele>242.19999694824</ele>
        <time>2022-05-26T12:01:14.000Z</time>
      </trkpt>
      <trkpt lat="44.34079" lon="1.31888">
        <ele>241.19999694824</ele>
        <time>2022-05-26T12:01:16.000Z</time>
      </trkpt>
      <trkpt lat="44.34085" lon="1.31884">
        <ele>241.19999694824</ele>
        <time>2022-05-26T12:01:17.000Z</time>
      </trkpt>
      <trkpt lat="44.341" lon="1.31873">
        <ele>238.60000610352</ele>
        <time>2022-05-26T12:01:20.000Z</time>
      </trkpt>
      <trkpt lat="44.34113" lon="1.31865">
        <ele>237.39999389648</ele>
        <time>2022-05-26T12:01:22.000Z</time>
      </trkpt>
      <trkpt lat="44.34124" lon="1.31859">
        <ele>236.39999389648</ele>
        <time>2022-05-26T12:01:24.000Z</time>
      </trkpt>
      <trkpt lat="44.34138" lon="1.31853">
        <ele>235.19999694824</ele>
        <time>2022-05-26T12:01:26.000Z</time>
      </trkpt>
      <trkpt lat="44.34147" lon="1.31849">
        <ele>233.60000610352</ele>
        <time>2022-05-26T12:01:28.000Z</time>
      </trkpt>
      <trkpt lat="44.34152" lon="1.31847">
        <ele>233.19999694824</ele>
        <time>2022-05-26T12:01:29.000Z</time>
      </trkpt>
      <trkpt lat="44.34163" lon="1.31845">
        <ele>232.60000610352</ele>
        <time>2022-05-26T12:01:31.000Z</time>
      </trkpt>
      <trkpt lat="44.34174" lon="1.31845">
        <ele>231.19999694824</ele>
        <time>2022-05-26T12:01:33.000Z</time>
      </trkpt>
      <trkpt lat="44.34184" lon="1.31844">
        <ele>230</ele>
        <time>2022-05-26T12:01:35.000Z</time>
      </trkpt>
      <trkpt lat="44.34191" lon="1.31841">
        <ele>228.80000305176</ele>
        <time>2022-05-26T12:01:37.000Z</time>
      </trkpt>
      <trkpt lat="44.34198" lon="1.31836">
        <ele>227.19999694824</ele>
        <time>2022-05-26T12:01:39.000Z</time>
      </trkpt>
      <trkpt lat="44.34201" lon="1.31833">
        <ele>227</ele>
        <time>2022-05-26T12:01:40.000Z</time>
      </trkpt>
      <trkpt lat="44.34204" lon="1.3183">
        <ele>226</ele>
        <time>2022-05-26T12:01:41.000Z</time>
      </trkpt>
      <trkpt lat="44.34209" lon="1.3182">
        <ele>224.60000610352</ele>
        <time>2022-05-26T12:01:43.000Z</time>
      </trkpt>
      <trkpt lat="44.34214" lon="1.3181">
        <ele>223.60000610352</ele>
        <time>2022-05-26T12:01:45.000Z</time>
      </trkpt>
      <trkpt lat="44.34217" lon="1.31804">
        <ele>222.60000610352</ele>
        <time>2022-05-26T12:01:46.000Z</time>
      </trkpt>
      <trkpt lat="44.34218" lon="1.31792">
        <ele>221.80000305176</ele>
        <time>2022-05-26T12:01:48.000Z</time>
      </trkpt>
      <trkpt lat="44.34217" lon="1.31785">
        <ele>221.60000610352</ele>
        <time>2022-05-26T12:01:49.000Z</time>
      </trkpt>
      <trkpt lat="44.34216" lon="1.31779">
        <ele>220.80000305176</ele>
        <time>2022-05-26T12:01:50.000Z</time>
      </trkpt>
      <trkpt lat="44.34214" lon="1.31773">
        <ele>219.80000305176</ele>
        <time>2022-05-26T12:01:51.000Z</time>
      </trkpt>
      <trkpt lat="44.34207" lon="1.31756">
        <ele>218.80000305176</ele>
        <time>2022-05-26T12:01:54.000Z</time>
      </trkpt>
      <trkpt lat="44.34205" lon="1.31752">
        <ele>218.39999389648</ele>
        <time>2022-05-26T12:01:55.000Z</time>
      </trkpt>
      <trkpt lat="44.34195" lon="1.31725">
        <ele>217.19999694824</ele>
        <time>2022-05-26T12:01:59.000Z</time>
      </trkpt>
      <trkpt lat="44.34193" lon="1.31717">
        <ele>216.80000305176</ele>
        <time>2022-05-26T12:02:00.000Z</time>
      </trkpt>
      <trkpt lat="44.34184" lon="1.31686">
        <ele>216.19999694824</ele>
        <time>2022-05-26T12:02:04.000Z</time>
      </trkpt>
      <trkpt lat="44.3418" lon="1.31673">
        <ele>215.39999389648</ele>
        <time>2022-05-26T12:02:06.000Z</time>
      </trkpt>
      <trkpt lat="44.3418" lon="1.31667">
        <ele>214.39999389648</ele>
        <time>2022-05-26T12:02:07.000Z</time>
      </trkpt>
      <trkpt lat="44.34178" lon="1.31652">
        <ele>213.19999694824</ele>
        <time>2022-05-26T12:02:09.000Z</time>
      </trkpt>
      <trkpt lat="44.34177" lon="1.31647">
        <ele>213</ele>
        <time>2022-05-26T12:02:10.000Z</time>
      </trkpt>
      <trkpt lat="44.34176" lon="1.31643">
        <ele>211.80000305176</ele>
        <time>2022-05-26T12:02:11.000Z</time>
      </trkpt>
      <trkpt lat="44.34168" lon="1.31636">
        <ele>210.19999694824</ele>
        <time>2022-05-26T12:02:13.000Z</time>
      </trkpt>
      <trkpt lat="44.34163" lon="1.31635">
        <ele>209.19999694824</ele>
        <time>2022-05-26T12:02:14.000Z</time>
      </trkpt>
      <trkpt lat="44.34152" lon="1.31636">
        <ele>208</ele>
        <time>2022-05-26T12:02:16.000Z</time>
      </trkpt>
      <trkpt lat="44.34141" lon="1.31632">
        <ele>207.39999389648</ele>
        <time>2022-05-26T12:02:18.000Z</time>
      </trkpt>
      <trkpt lat="44.34135" lon="1.31627">
        <ele>206.80000305176</ele>
        <time>2022-05-26T12:02:19.000Z</time>
      </trkpt>
      <trkpt lat="44.3413" lon="1.31622">
        <ele>206.39999389648</ele>
        <time>2022-05-26T12:02:20.000Z</time>
      </trkpt>
      <trkpt lat="44.34124" lon="1.31609">
        <ele>205.60000610352</ele>
        <time>2022-05-26T12:02:22.000Z</time>
      </trkpt>
      <trkpt lat="44.34118" lon="1.31596">
        <ele>204.39999389648</ele>
        <time>2022-05-26T12:02:24.000Z</time>
      </trkpt>
      <trkpt lat="44.34115" lon="1.3159">
        <ele>203.39999389648</ele>
        <time>2022-05-26T12:02:25.000Z</time>
      </trkpt>
      <trkpt lat="44.34112" lon="1.31583">
        <ele>202.39999389648</ele>
        <time>2022-05-26T12:02:26.000Z</time>
      </trkpt>
      <trkpt lat="44.34109" lon="1.31576">
        <ele>201.80000305176</ele>
        <time>2022-05-26T12:02:27.000Z</time>
      </trkpt>
      <trkpt lat="44.34109" lon="1.3157">
        <ele>201.39999389648</ele>
        <time>2022-05-26T12:02:28.000Z</time>
      </trkpt>
      <trkpt lat="44.3411" lon="1.31564">
        <ele>201.19999694824</ele>
        <time>2022-05-26T12:02:29.000Z</time>
      </trkpt>
      <trkpt lat="44.34118" lon="1.31555">
        <ele>200.60000610352</ele>
        <time>2022-05-26T12:02:31.000Z</time>
      </trkpt>
      <trkpt lat="44.34128" lon="1.31549">
        <ele>199.80000305176</ele>
        <time>2022-05-26T12:02:33.000Z</time>
      </trkpt>
      <trkpt lat="44.34134" lon="1.31546">
        <ele>199.80000305176</ele>
        <time>2022-05-26T12:02:34.000Z</time>
      </trkpt>
      <trkpt lat="44.34149" lon="1.31544">
        <ele>199</ele>
        <time>2022-05-26T12:02:36.000Z</time>
      </trkpt>
      <trkpt lat="44.34154" lon="1.31542">
        <ele>198.60000610352</ele>
        <time>2022-05-26T12:02:37.000Z</time>
      </trkpt>
      <trkpt lat="44.34168" lon="1.31533">
        <ele>198</ele>
        <time>2022-05-26T12:02:39.000Z</time>
      </trkpt>
      <trkpt lat="44.34181" lon="1.31521">
        <ele>197.60000610352</ele>
        <time>2022-05-26T12:02:41.000Z</time>
      </trkpt>
      <trkpt lat="44.34201" lon="1.31496">
        <ele>196</ele>
        <time>2022-05-26T12:02:44.000Z</time>
      </trkpt>
      <trkpt lat="44.34215" lon="1.31475">
        <ele>194.39999389648</ele>
        <time>2022-05-26T12:02:46.000Z</time>
      </trkpt>
      <trkpt lat="44.34222" lon="1.31465">
        <ele>193.39999389648</ele>
        <time>2022-05-26T12:02:47.000Z</time>
      </trkpt>
      <trkpt lat="44.34229" lon="1.31456">
        <ele>192.60000610352</ele>
        <time>2022-05-26T12:02:48.000Z</time>
      </trkpt>
      <trkpt lat="44.34236" lon="1.31448">
        <ele>190.80000305176</ele>
        <time>2022-05-26T12:02:49.000Z</time>
      </trkpt>
      <trkpt lat="44.3425" lon="1.31438">
        <ele>188.19999694824</ele>
        <time>2022-05-26T12:02:51.000Z</time>
      </trkpt>
      <trkpt lat="44.34262" lon="1.31433">
        <ele>186.60000610352</ele>
        <time>2022-05-26T12:02:53.000Z</time>
      </trkpt>
      <trkpt lat="44.34266" lon="1.31431">
        <ele>185.60000610352</ele>
        <time>2022-05-26T12:02:54.000Z</time>
      </trkpt>
      <trkpt lat="44.34268" lon="1.31427">
        <ele>184.60000610352</ele>
        <time>2022-05-26T12:02:55.000Z</time>
      </trkpt>
      <trkpt lat="44.34269" lon="1.31423">
        <ele>183.80000305176</ele>
        <time>2022-05-26T12:02:56.000Z</time>
      </trkpt>
      <trkpt lat="44.34268" lon="1.31417">
        <ele>183.39999389648</ele>
        <time>2022-05-26T12:02:57.000Z</time>
      </trkpt>
      <trkpt lat="44.34265" lon="1.31401">
        <ele>182.39999389648</ele>
        <time>2022-05-26T12:03:00.000Z</time>
      </trkpt>
      <trkpt lat="44.34257" lon="1.31373">
        <ele>181.19999694824</ele>
        <time>2022-05-26T12:03:05.000Z</time>
      </trkpt>
      <trkpt lat="44.34256" lon="1.31367">
        <ele>181.19999694824</ele>
        <time>2022-05-26T12:03:06.000Z</time>
      </trkpt>
      <trkpt lat="44.34243" lon="1.31312">
        <ele>180.19999694824</ele>
        <time>2022-05-26T12:03:16.000Z</time>
      </trkpt>
      <trkpt lat="44.34242" lon="1.31307">
        <ele>180.19999694824</ele>
        <time>2022-05-26T12:03:17.000Z</time>
      </trkpt>
      <trkpt lat="44.34236" lon="1.31282">
        <ele>180</ele>
        <time>2022-05-26T12:03:22.000Z</time>
      </trkpt>
      <trkpt lat="44.34235" lon="1.31277">
        <ele>180</ele>
        <time>2022-05-26T12:03:23.000Z</time>
      </trkpt>
      <trkpt lat="44.3422" lon="1.31212">
        <ele>179.60000610352</ele>
        <time>2022-05-26T12:03:34.000Z</time>
      </trkpt>
      <trkpt lat="44.34218" lon="1.31196">
        <ele>179.39999389648</ele>
        <time>2022-05-26T12:03:37.000Z</time>
      </trkpt>
      <trkpt lat="44.34212" lon="1.31159">
        <ele>179</ele>
        <time>2022-05-26T12:03:43.000Z</time>
      </trkpt>
      <trkpt lat="44.3421" lon="1.31152">
        <ele>179</ele>
        <time>2022-05-26T12:03:44.000Z</time>
      </trkpt>
      <trkpt lat="44.34209" lon="1.31147">
        <ele>178.80000305176</ele>
        <time>2022-05-26T12:03:45.000Z</time>
      </trkpt>
      <trkpt lat="44.34205" lon="1.31124">
        <ele>178.60000610352</ele>
        <time>2022-05-26T12:03:49.000Z</time>
      </trkpt>
      <trkpt lat="44.34199" lon="1.31104">
        <ele>178.39999389648</ele>
        <time>2022-05-26T12:03:53.000Z</time>
      </trkpt>
      <trkpt lat="44.34198" lon="1.31098">
        <ele>178.39999389648</ele>
        <time>2022-05-26T12:03:54.000Z</time>
      </trkpt>
      <trkpt lat="44.34187" lon="1.31062">
        <ele>178.39999389648</ele>
        <time>2022-05-26T12:04:01.000Z</time>
      </trkpt>
      <trkpt lat="44.3418" lon="1.31039">
        <ele>178.39999389648</ele>
        <time>2022-05-26T12:04:05.000Z</time>
      </trkpt>
      <trkpt lat="44.34176" lon="1.3102">
        <ele>178.19999694824</ele>
        <time>2022-05-26T12:04:08.000Z</time>
      </trkpt>
      <trkpt lat="44.34168" lon="1.30998">
        <ele>178</ele>
        <time>2022-05-26T12:04:12.000Z</time>
      </trkpt>
      <trkpt lat="44.3416" lon="1.30987">
        <ele>178</ele>
        <time>2022-05-26T12:04:15.000Z</time>
      </trkpt>
      <trkpt lat="44.34148" lon="1.30974">
        <ele>177.80000305176</ele>
        <time>2022-05-26T12:04:19.000Z</time>
      </trkpt>
      <trkpt lat="44.34146" lon="1.30974">
        <ele>177.80000305176</ele>
        <time>2022-05-26T12:04:20.000Z</time>
      </trkpt>
      <trkpt lat="44.34129" lon="1.30982">
        <ele>178.19999694824</ele>
        <time>2022-05-26T12:04:25.000Z</time>
      </trkpt>
      <trkpt lat="44.34125" lon="1.30983">
        <ele>178.19999694824</ele>
        <time>2022-05-26T12:04:26.000Z</time>
      </trkpt>
      <trkpt lat="44.34091" lon="1.30985">
        <ele>178.19999694824</ele>
        <time>2022-05-26T12:04:33.000Z</time>
      </trkpt>
      <trkpt lat="44.34044" lon="1.30994">
        <ele>178.39999389648</ele>
        <time>2022-05-26T12:04:44.000Z</time>
      </trkpt>
      <trkpt lat="44.34014" lon="1.30994">
        <ele>178</ele>
        <time>2022-05-26T12:04:51.000Z</time>
      </trkpt>
      <trkpt lat="44.33969" lon="1.30994">
        <ele>177.39999389648</ele>
        <time>2022-05-26T12:05:01.000Z</time>
      </trkpt>
      <trkpt lat="44.33941" lon="1.30988">
        <ele>177.19999694824</ele>
        <time>2022-05-26T12:05:08.000Z</time>
      </trkpt>
      <trkpt lat="44.33915" lon="1.30975">
        <ele>177.19999694824</ele>
        <time>2022-05-26T12:05:15.000Z</time>
      </trkpt>
      <trkpt lat="44.33909" lon="1.3097">
        <ele>177.19999694824</ele>
        <time>2022-05-26T12:05:17.000Z</time>
      </trkpt>
      <trkpt lat="44.33907" lon="1.30962">
        <ele>177.19999694824</ele>
        <time>2022-05-26T12:05:19.000Z</time>
      </trkpt>
      <trkpt lat="44.33916" lon="1.30932">
        <ele>176.60000610352</ele>
        <time>2022-05-26T12:05:25.000Z</time>
      </trkpt>
      <trkpt lat="44.33923" lon="1.30908">
        <ele>176.60000610352</ele>
        <time>2022-05-26T12:05:30.000Z</time>
      </trkpt>
      <trkpt lat="44.33928" lon="1.30895">
        <ele>176.60000610352</ele>
        <time>2022-05-26T12:05:33.000Z</time>
      </trkpt>
      <trkpt lat="44.33937" lon="1.30877">
        <ele>176.60000610352</ele>
        <time>2022-05-26T12:05:37.000Z</time>
      </trkpt>
      <trkpt lat="44.3395" lon="1.30855">
        <ele>176.60000610352</ele>
        <time>2022-05-26T12:05:42.000Z</time>
      </trkpt>
      <trkpt lat="44.33958" lon="1.30834">
        <ele>176.60000610352</ele>
        <time>2022-05-26T12:05:46.000Z</time>
      </trkpt>
      <trkpt lat="44.33963" lon="1.30817">
        <ele>176.60000610352</ele>
        <time>2022-05-26T12:05:49.000Z</time>
      </trkpt>
      <trkpt lat="44.33969" lon="1.30792">
        <ele>177.19999694824</ele>
        <time>2022-05-26T12:05:54.000Z</time>
      </trkpt>
      <trkpt lat="44.33973" lon="1.30773">
        <ele>177.80000305176</ele>
        <time>2022-05-26T12:05:58.000Z</time>
      </trkpt>
      <trkpt lat="44.33974" lon="1.30769">
        <ele>178.39999389648</ele>
        <time>2022-05-26T12:05:59.000Z</time>
      </trkpt>
      <trkpt lat="44.33975" lon="1.30758">
        <ele>179.39999389648</ele>
        <time>2022-05-26T12:06:02.000Z</time>
      </trkpt>
      <trkpt lat="44.33975" lon="1.30755">
        <ele>179.80000305176</ele>
        <time>2022-05-26T12:06:03.000Z</time>
      </trkpt>
      <trkpt lat="44.33972" lon="1.30746">
        <ele>180.60000610352</ele>
        <time>2022-05-26T12:06:05.000Z</time>
      </trkpt>
      <trkpt lat="44.33968" lon="1.30735">
        <ele>181.39999389648</ele>
        <time>2022-05-26T12:06:08.000Z</time>
      </trkpt>
      <trkpt lat="44.33966" lon="1.3073">
        <ele>181.80000305176</ele>
        <time>2022-05-26T12:06:10.000Z</time>
      </trkpt>
      <trkpt lat="44.3396" lon="1.30713">
        <ele>182.80000305176</ele>
        <time>2022-05-26T12:06:15.000Z</time>
      </trkpt>
      <trkpt lat="44.33956" lon="1.30706">
        <ele>183</ele>
        <time>2022-05-26T12:06:17.000Z</time>
      </trkpt>
      <trkpt lat="44.33946" lon="1.30691">
        <ele>183.39999389648</ele>
        <time>2022-05-26T12:06:21.000Z</time>
      </trkpt>
      <trkpt lat="44.33936" lon="1.30675">
        <ele>183.80000305176</ele>
        <time>2022-05-26T12:06:26.000Z</time>
      </trkpt>
      <trkpt lat="44.33915" lon="1.30644">
        <ele>184</ele>
        <time>2022-05-26T12:06:34.000Z</time>
      </trkpt>
      <trkpt lat="44.33911" lon="1.30626">
        <ele>184</ele>
        <time>2022-05-26T12:06:38.000Z</time>
      </trkpt>
      <trkpt lat="44.33919" lon="1.30595">
        <ele>185.39999389648</ele>
        <time>2022-05-26T12:06:45.000Z</time>
      </trkpt>
      <trkpt lat="44.33923" lon="1.30579">
        <ele>186.39999389648</ele>
        <time>2022-05-26T12:06:49.000Z</time>
      </trkpt>
      <trkpt lat="44.33926" lon="1.30572">
        <ele>186.80000305176</ele>
        <time>2022-05-26T12:06:51.000Z</time>
      </trkpt>
      <trkpt lat="44.33931" lon="1.3056">
        <ele>187.80000305176</ele>
        <time>2022-05-26T12:06:54.000Z</time>
      </trkpt>
      <trkpt lat="44.33938" lon="1.30546">
        <ele>188.80000305176</ele>
        <time>2022-05-26T12:06:58.000Z</time>
      </trkpt>
      <trkpt lat="44.33942" lon="1.30535">
        <ele>189.60000610352</ele>
        <time>2022-05-26T12:07:01.000Z</time>
      </trkpt>
      <trkpt lat="44.33945" lon="1.30529">
        <ele>190</ele>
        <time>2022-05-26T12:07:03.000Z</time>
      </trkpt>
      <trkpt lat="44.33952" lon="1.30523">
        <ele>190.19999694824</ele>
        <time>2022-05-26T12:07:06.000Z</time>
      </trkpt>
      <trkpt lat="44.33955" lon="1.30524">
        <ele>190.39999389648</ele>
        <time>2022-05-26T12:07:07.000Z</time>
      </trkpt>
      <trkpt lat="44.3396" lon="1.30529">
        <ele>190.60000610352</ele>
        <time>2022-05-26T12:07:09.000Z</time>
      </trkpt>
      <trkpt lat="44.33969" lon="1.30541">
        <ele>191.19999694824</ele>
        <time>2022-05-26T12:07:13.000Z</time>
      </trkpt>
      <trkpt lat="44.33986" lon="1.30564">
        <ele>191.60000610352</ele>
        <time>2022-05-26T12:07:20.000Z</time>
      </trkpt>
      <trkpt lat="44.33993" lon="1.30566">
        <ele>191.60000610352</ele>
        <time>2022-05-26T12:07:23.000Z</time>
      </trkpt>
      <trkpt lat="44.34011" lon="1.30559">
        <ele>191.60000610352</ele>
        <time>2022-05-26T12:07:28.000Z</time>
      </trkpt>
      <trkpt lat="44.34031" lon="1.30559">
        <ele>190.60000610352</ele>
        <time>2022-05-26T12:07:32.000Z</time>
      </trkpt>
      <trkpt lat="44.34036" lon="1.30558">
        <ele>190.39999389648</ele>
        <time>2022-05-26T12:07:33.000Z</time>
      </trkpt>
      <trkpt lat="44.34042" lon="1.30555">
        <ele>190.19999694824</ele>
        <time>2022-05-26T12:07:34.000Z</time>
      </trkpt>
      <trkpt lat="44.34052" lon="1.30544">
        <ele>189.80000305176</ele>
        <time>2022-05-26T12:07:36.000Z</time>
      </trkpt>
      <trkpt lat="44.34065" lon="1.30524">
        <ele>188.60000610352</ele>
        <time>2022-05-26T12:07:39.000Z</time>
      </trkpt>
      <trkpt lat="44.34073" lon="1.30512">
        <ele>187.39999389648</ele>
        <time>2022-05-26T12:07:41.000Z</time>
      </trkpt>
      <trkpt lat="44.34077" lon="1.30508">
        <ele>187.19999694824</ele>
        <time>2022-05-26T12:07:42.000Z</time>
      </trkpt>
      <trkpt lat="44.34083" lon="1.30505">
        <ele>187.19999694824</ele>
        <time>2022-05-26T12:07:43.000Z</time>
      </trkpt>
      <trkpt lat="44.34094" lon="1.30502">
        <ele>187</ele>
        <time>2022-05-26T12:07:45.000Z</time>
      </trkpt>
      <trkpt lat="44.34102" lon="1.30501">
        <ele>186.80000305176</ele>
        <time>2022-05-26T12:07:47.000Z</time>
      </trkpt>
      <trkpt lat="44.3411" lon="1.30497">
        <ele>187</ele>
        <time>2022-05-26T12:07:49.000Z</time>
      </trkpt>
      <trkpt lat="44.34117" lon="1.30478">
        <ele>186.60000610352</ele>
        <time>2022-05-26T12:07:53.000Z</time>
      </trkpt>
      <trkpt lat="44.34129" lon="1.30432">
        <ele>186.80000305176</ele>
        <time>2022-05-26T12:08:01.000Z</time>
      </trkpt>
      <trkpt lat="44.34134" lon="1.30407">
        <ele>187.19999694824</ele>
        <time>2022-05-26T12:08:05.000Z</time>
      </trkpt>
      <trkpt lat="44.34138" lon="1.3039">
        <ele>187.60000610352</ele>
        <time>2022-05-26T12:08:08.000Z</time>
      </trkpt>
      <trkpt lat="44.34142" lon="1.3038">
        <ele>187.80000305176</ele>
        <time>2022-05-26T12:08:10.000Z</time>
      </trkpt>
      <trkpt lat="44.34144" lon="1.3037">
        <ele>188.19999694824</ele>
        <time>2022-05-26T12:08:12.000Z</time>
      </trkpt>
      <trkpt lat="44.34145" lon="1.30365">
        <ele>188</ele>
        <time>2022-05-26T12:08:13.000Z</time>
      </trkpt>
      <trkpt lat="44.34147" lon="1.30349">
        <ele>188.60000610352</ele>
        <time>2022-05-26T12:08:16.000Z</time>
      </trkpt>
      <trkpt lat="44.34152" lon="1.30322">
        <ele>190.19999694824</ele>
        <time>2022-05-26T12:08:22.000Z</time>
      </trkpt>
      <trkpt lat="44.34155" lon="1.30307">
        <ele>191.19999694824</ele>
        <time>2022-05-26T12:08:26.000Z</time>
      </trkpt>
      <trkpt lat="44.34158" lon="1.30297">
        <ele>191.80000305176</ele>
        <time>2022-05-26T12:08:29.000Z</time>
      </trkpt>
      <trkpt lat="44.34162" lon="1.3028">
        <ele>192.39999389648</ele>
        <time>2022-05-26T12:08:33.000Z</time>
      </trkpt>
      <trkpt lat="44.34165" lon="1.30263">
        <ele>193</ele>
        <time>2022-05-26T12:08:37.000Z</time>
      </trkpt>
      <trkpt lat="44.34166" lon="1.30255">
        <ele>193.60000610352</ele>
        <time>2022-05-26T12:08:39.000Z</time>
      </trkpt>
      <trkpt lat="44.34168" lon="1.30231">
        <ele>194.60000610352</ele>
        <time>2022-05-26T12:08:45.000Z</time>
      </trkpt>
      <trkpt lat="44.34169" lon="1.30227">
        <ele>194.80000305176</ele>
        <time>2022-05-26T12:08:46.000Z</time>
      </trkpt>
      <trkpt lat="44.34169" lon="1.30203">
        <ele>195.80000305176</ele>
        <time>2022-05-26T12:08:52.000Z</time>
      </trkpt>
      <trkpt lat="44.34169" lon="1.30199">
        <ele>196.19999694824</ele>
        <time>2022-05-26T12:08:53.000Z</time>
      </trkpt>
      <trkpt lat="44.3417" lon="1.30188">
        <ele>196.80000305176</ele>
        <time>2022-05-26T12:08:56.000Z</time>
      </trkpt>
      <trkpt lat="44.3417" lon="1.30171">
        <ele>197.39999389648</ele>
        <time>2022-05-26T12:09:00.000Z</time>
      </trkpt>
      <trkpt lat="44.34172" lon="1.30159">
        <ele>197.80000305176</ele>
        <time>2022-05-26T12:09:03.000Z</time>
      </trkpt>
      <trkpt lat="44.34176" lon="1.30148">
        <ele>198.80000305176</ele>
        <time>2022-05-26T12:09:06.000Z</time>
      </trkpt>
      <trkpt lat="44.34178" lon="1.30146">
        <ele>199</ele>
        <time>2022-05-26T12:09:07.000Z</time>
      </trkpt>
      <trkpt lat="44.34192" lon="1.30138">
        <ele>199.80000305176</ele>
        <time>2022-05-26T12:09:12.000Z</time>
      </trkpt>
      <trkpt lat="44.34195" lon="1.30138">
        <ele>200.19999694824</ele>
        <time>2022-05-26T12:09:13.000Z</time>
      </trkpt>
      <trkpt lat="44.34207" lon="1.30137">
        <ele>201.19999694824</ele>
        <time>2022-05-26T12:09:17.000Z</time>
      </trkpt>
      <trkpt lat="44.34215" lon="1.30136">
        <ele>201.80000305176</ele>
        <time>2022-05-26T12:09:20.000Z</time>
      </trkpt>
      <trkpt lat="44.34221" lon="1.30134">
        <ele>202.80000305176</ele>
        <time>2022-05-26T12:09:23.000Z</time>
      </trkpt>
      <trkpt lat="44.34229" lon="1.3013">
        <ele>203.80000305176</ele>
        <time>2022-05-26T12:09:27.000Z</time>
      </trkpt>
      <trkpt lat="44.3423" lon="1.30129">
        <ele>203.80000305176</ele>
        <time>2022-05-26T12:09:28.000Z</time>
      </trkpt>
      <trkpt lat="44.34234" lon="1.30127">
        <ele>205</ele>
        <time>2022-05-26T12:09:30.000Z</time>
      </trkpt>
      <trkpt lat="44.3424" lon="1.30125">
        <ele>206.19999694824</ele>
        <time>2022-05-26T12:09:33.000Z</time>
      </trkpt>
      <trkpt lat="44.34243" lon="1.30122">
        <ele>206.80000305176</ele>
        <time>2022-05-26T12:09:35.000Z</time>
      </trkpt>
      <trkpt lat="44.34245" lon="1.3012">
        <ele>207.19999694824</ele>
        <time>2022-05-26T12:09:36.000Z</time>
      </trkpt>
      <trkpt lat="44.34252" lon="1.30115">
        <ele>208.19999694824</ele>
        <time>2022-05-26T12:09:40.000Z</time>
      </trkpt>
      <trkpt lat="44.34257" lon="1.3011">
        <ele>209.19999694824</ele>
        <time>2022-05-26T12:09:43.000Z</time>
      </trkpt>
      <trkpt lat="44.34259" lon="1.30109">
        <ele>209.39999389648</ele>
        <time>2022-05-26T12:09:44.000Z</time>
      </trkpt>
      <trkpt lat="44.34272" lon="1.30095">
        <ele>210.19999694824</ele>
        <time>2022-05-26T12:09:52.000Z</time>
      </trkpt>
      <trkpt lat="44.34274" lon="1.30094">
        <ele>210.39999389648</ele>
        <time>2022-05-26T12:09:53.000Z</time>
      </trkpt>
      <trkpt lat="44.34284" lon="1.30084">
        <ele>210.60000610352</ele>
        <time>2022-05-26T12:09:58.000Z</time>
      </trkpt>
      <trkpt lat="44.34292" lon="1.30077">
        <ele>211.60000610352</ele>
        <time>2022-05-26T12:10:02.000Z</time>
      </trkpt>
      <trkpt lat="44.34302" lon="1.30069">
        <ele>212.39999389648</ele>
        <time>2022-05-26T12:10:07.000Z</time>
      </trkpt>
      <trkpt lat="44.34306" lon="1.30067">
        <ele>212.80000305176</ele>
        <time>2022-05-26T12:10:09.000Z</time>
      </trkpt>
      <trkpt lat="44.34318" lon="1.30059">
        <ele>213.80000305176</ele>
        <time>2022-05-26T12:10:14.000Z</time>
      </trkpt>
      <trkpt lat="44.34322" lon="1.30057">
        <ele>214</ele>
        <time>2022-05-26T12:10:16.000Z</time>
      </trkpt>
      <trkpt lat="44.34331" lon="1.30053">
        <ele>215</ele>
        <time>2022-05-26T12:10:21.000Z</time>
      </trkpt>
      <trkpt lat="44.34339" lon="1.3005">
        <ele>216</ele>
        <time>2022-05-26T12:10:25.000Z</time>
      </trkpt>
      <trkpt lat="44.3434" lon="1.30049">
        <ele>216.19999694824</ele>
        <time>2022-05-26T12:10:26.000Z</time>
      </trkpt>
      <trkpt lat="44.34345" lon="1.30046">
        <ele>217.19999694824</ele>
        <time>2022-05-26T12:10:29.000Z</time>
      </trkpt>
      <trkpt lat="44.3435" lon="1.30043">
        <ele>218</ele>
        <time>2022-05-26T12:10:32.000Z</time>
      </trkpt>
      <trkpt lat="44.34353" lon="1.3004">
        <ele>218.39999389648</ele>
        <time>2022-05-26T12:10:34.000Z</time>
      </trkpt>
      <trkpt lat="44.34356" lon="1.30038">
        <ele>219.60000610352</ele>
        <time>2022-05-26T12:10:37.000Z</time>
      </trkpt>
      <trkpt lat="44.34357" lon="1.30035">
        <ele>219.80000305176</ele>
        <time>2022-05-26T12:10:38.000Z</time>
      </trkpt>
      <trkpt lat="44.34359" lon="1.30031">
        <ele>220.80000305176</ele>
        <time>2022-05-26T12:10:40.000Z</time>
      </trkpt>
      <trkpt lat="44.34366" lon="1.30023">
        <ele>222</ele>
        <time>2022-05-26T12:10:44.000Z</time>
      </trkpt>
      <trkpt lat="44.3437" lon="1.30018">
        <ele>222.39999389648</ele>
        <time>2022-05-26T12:10:47.000Z</time>
      </trkpt>
      <trkpt lat="44.34373" lon="1.30014">
        <ele>223</ele>
        <time>2022-05-26T12:10:49.000Z</time>
      </trkpt>
      <trkpt lat="44.34377" lon="1.30008">
        <ele>224.19999694824</ele>
        <time>2022-05-26T12:10:52.000Z</time>
      </trkpt>
      <trkpt lat="44.34381" lon="1.30002">
        <ele>225.60000610352</ele>
        <time>2022-05-26T12:10:55.000Z</time>
      </trkpt>
      <trkpt lat="44.34384" lon="1.29998">
        <ele>226.39999389648</ele>
        <time>2022-05-26T12:10:57.000Z</time>
      </trkpt>
      <trkpt lat="44.34388" lon="1.29994">
        <ele>226.80000305176</ele>
        <time>2022-05-26T12:10:59.000Z</time>
      </trkpt>
      <trkpt lat="44.34394" lon="1.2999">
        <ele>228.19999694824</ele>
        <time>2022-05-26T12:11:02.000Z</time>
      </trkpt>
      <trkpt lat="44.34398" lon="1.29987">
        <ele>229.19999694824</ele>
        <time>2022-05-26T12:11:04.000Z</time>
      </trkpt>
      <trkpt lat="44.34403" lon="1.29982">
        <ele>230.19999694824</ele>
        <time>2022-05-26T12:11:07.000Z</time>
      </trkpt>
      <trkpt lat="44.34408" lon="1.29978">
        <ele>231.19999694824</ele>
        <time>2022-05-26T12:11:10.000Z</time>
      </trkpt>
      <trkpt lat="44.34409" lon="1.29977">
        <ele>231.60000610352</ele>
        <time>2022-05-26T12:11:11.000Z</time>
      </trkpt>
      <trkpt lat="44.34418" lon="1.29969">
        <ele>233.60000610352</ele>
        <time>2022-05-26T12:11:16.000Z</time>
      </trkpt>
      <trkpt lat="44.34422" lon="1.29964">
        <ele>234.60000610352</ele>
        <time>2022-05-26T12:11:19.000Z</time>
      </trkpt>
      <trkpt lat="44.34428" lon="1.29959">
        <ele>235.80000305176</ele>
        <time>2022-05-26T12:11:22.000Z</time>
      </trkpt>
      <trkpt lat="44.34431" lon="1.29956">
        <ele>236.80000305176</ele>
        <time>2022-05-26T12:11:24.000Z</time>
      </trkpt>
      <trkpt lat="44.34436" lon="1.2995">
        <ele>237.80000305176</ele>
        <time>2022-05-26T12:11:28.000Z</time>
      </trkpt>
      <trkpt lat="44.34439" lon="1.29948">
        <ele>238</ele>
        <time>2022-05-26T12:11:30.000Z</time>
      </trkpt>
      <trkpt lat="44.34442" lon="1.29944">
        <ele>238.39999389648</ele>
        <time>2022-05-26T12:11:32.000Z</time>
      </trkpt>
      <trkpt lat="44.34445" lon="1.2994">
        <ele>239.19999694824</ele>
        <time>2022-05-26T12:11:35.000Z</time>
      </trkpt>
      <trkpt lat="44.34446" lon="1.29935">
        <ele>239.80000305176</ele>
        <time>2022-05-26T12:11:37.000Z</time>
      </trkpt>
      <trkpt lat="44.34447" lon="1.2993">
        <ele>240.39999389648</ele>
        <time>2022-05-26T12:11:39.000Z</time>
      </trkpt>
      <trkpt lat="44.34447" lon="1.29927">
        <ele>240.39999389648</ele>
        <time>2022-05-26T12:11:40.000Z</time>
      </trkpt>
      <trkpt lat="44.34446" lon="1.29918">
        <ele>241</ele>
        <time>2022-05-26T12:11:44.000Z</time>
      </trkpt>
      <trkpt lat="44.34445" lon="1.29912">
        <ele>241.60000610352</ele>
        <time>2022-05-26T12:11:46.000Z</time>
      </trkpt>
      <trkpt lat="44.34445" lon="1.29909">
        <ele>241.60000610352</ele>
        <time>2022-05-26T12:11:47.000Z</time>
      </trkpt>
      <trkpt lat="44.34444" lon="1.29898">
        <ele>242.39999389648</ele>
        <time>2022-05-26T12:11:51.000Z</time>
      </trkpt>
      <trkpt lat="44.34443" lon="1.29888">
        <ele>243</ele>
        <time>2022-05-26T12:11:55.000Z</time>
      </trkpt>
      <trkpt lat="44.34442" lon="1.29879">
        <ele>243.39999389648</ele>
        <time>2022-05-26T12:11:58.000Z</time>
      </trkpt>
      <trkpt lat="44.34441" lon="1.29875">
        <ele>243.39999389648</ele>
        <time>2022-05-26T12:11:59.000Z</time>
      </trkpt>
      <trkpt lat="44.34441" lon="1.29867">
        <ele>243.80000305176</ele>
        <time>2022-05-26T12:12:02.000Z</time>
      </trkpt>
      <trkpt lat="44.34442" lon="1.29861">
        <ele>244.19999694824</ele>
        <time>2022-05-26T12:12:04.000Z</time>
      </trkpt>
      <trkpt lat="44.34442" lon="1.29849">
        <ele>244.60000610352</ele>
        <time>2022-05-26T12:12:09.000Z</time>
      </trkpt>
      <trkpt lat="44.34443" lon="1.29846">
        <ele>244.80000305176</ele>
        <time>2022-05-26T12:12:10.000Z</time>
      </trkpt>
      <trkpt lat="44.34444" lon="1.2984">
        <ele>245.39999389648</ele>
        <time>2022-05-26T12:12:13.000Z</time>
      </trkpt>
      <trkpt lat="44.34446" lon="1.29823">
        <ele>246.39999389648</ele>
        <time>2022-05-26T12:12:19.000Z</time>
      </trkpt>
      <trkpt lat="44.34446" lon="1.29821">
        <ele>246.60000610352</ele>
        <time>2022-05-26T12:12:20.000Z</time>
      </trkpt>
      <trkpt lat="44.34442" lon="1.29805">
        <ele>247.60000610352</ele>
        <time>2022-05-26T12:12:27.000Z</time>
      </trkpt>
      <trkpt lat="44.34437" lon="1.29791">
        <ele>248.60000610352</ele>
        <time>2022-05-26T12:12:33.000Z</time>
      </trkpt>
      <trkpt lat="44.34435" lon="1.29781">
        <ele>249.80000305176</ele>
        <time>2022-05-26T12:12:37.000Z</time>
      </trkpt>
      <trkpt lat="44.34436" lon="1.29772">
        <ele>251</ele>
        <time>2022-05-26T12:12:41.000Z</time>
      </trkpt>
      <trkpt lat="44.34439" lon="1.29765">
        <ele>251.60000610352</ele>
        <time>2022-05-26T12:12:44.000Z</time>
      </trkpt>
      <trkpt lat="44.3444" lon="1.2976">
        <ele>252</ele>
        <time>2022-05-26T12:12:46.000Z</time>
      </trkpt>
      <trkpt lat="44.3444" lon="1.29755">
        <ele>252.19999694824</ele>
        <time>2022-05-26T12:12:48.000Z</time>
      </trkpt>
      <trkpt lat="44.34441" lon="1.29751">
        <ele>252.19999694824</ele>
        <time>2022-05-26T12:12:50.000Z</time>
      </trkpt>
      <trkpt lat="44.34443" lon="1.29734">
        <ele>253.19999694824</ele>
        <time>2022-05-26T12:12:56.000Z</time>
      </trkpt>
      <trkpt lat="44.34444" lon="1.29732">
        <ele>253.19999694824</ele>
        <time>2022-05-26T12:12:57.000Z</time>
      </trkpt>
      <trkpt lat="44.34445" lon="1.29714">
        <ele>253.80000305176</ele>
        <time>2022-05-26T12:13:03.000Z</time>
      </trkpt>
      <trkpt lat="44.34445" lon="1.29702">
        <ele>254.39999389648</ele>
        <time>2022-05-26T12:13:07.000Z</time>
      </trkpt>
      <trkpt lat="44.34445" lon="1.29698">
        <ele>254.60000610352</ele>
        <time>2022-05-26T12:13:08.000Z</time>
      </trkpt>
      <trkpt lat="44.34445" lon="1.29692">
        <ele>254.80000305176</ele>
        <time>2022-05-26T12:13:10.000Z</time>
      </trkpt>
      <trkpt lat="44.34444" lon="1.29686">
        <ele>255.39999389648</ele>
        <time>2022-05-26T12:13:12.000Z</time>
      </trkpt>
      <trkpt lat="44.34445" lon="1.29683">
        <ele>255.60000610352</ele>
        <time>2022-05-26T12:13:13.000Z</time>
      </trkpt>
      <trkpt lat="44.34445" lon="1.29664">
        <ele>256.39999389648</ele>
        <time>2022-05-26T12:13:19.000Z</time>
      </trkpt>
      <trkpt lat="44.34445" lon="1.29662">
        <ele>256.60000610352</ele>
        <time>2022-05-26T12:13:20.000Z</time>
      </trkpt>
      <trkpt lat="44.34447" lon="1.29651">
        <ele>257.20001220703</ele>
        <time>2022-05-26T12:13:24.000Z</time>
      </trkpt>
      <trkpt lat="44.34447" lon="1.29651">
        <ele>257.39999389648</ele>
        <time>2022-05-26T12:13:25.000Z</time>
      </trkpt>
      <trkpt lat="44.34447" lon="1.29646">
        <ele>257.39999389648</ele>
        <time>2022-05-26T12:13:35.000Z</time>
      </trkpt>
      <trkpt lat="44.34449" lon="1.29635">
        <ele>257.20001220703</ele>
        <time>2022-05-26T12:13:40.000Z</time>
      </trkpt>
      <trkpt lat="44.34449" lon="1.29632">
        <ele>257.20001220703</ele>
        <time>2022-05-26T12:13:41.000Z</time>
      </trkpt>
      <trkpt lat="44.34451" lon="1.29615">
        <ele>256.39999389648</ele>
        <time>2022-05-26T12:13:46.000Z</time>
      </trkpt>
      <trkpt lat="44.34451" lon="1.2961">
        <ele>256.39999389648</ele>
        <time>2022-05-26T12:13:47.000Z</time>
      </trkpt>
      <trkpt lat="44.34452" lon="1.29588">
        <ele>256.20001220703</ele>
        <time>2022-05-26T12:13:52.000Z</time>
      </trkpt>
      <trkpt lat="44.34453" lon="1.29582">
        <ele>256.20001220703</ele>
        <time>2022-05-26T12:13:53.000Z</time>
      </trkpt>
      <trkpt lat="44.34454" lon="1.29561">
        <ele>256.39999389648</ele>
        <time>2022-05-26T12:13:57.000Z</time>
      </trkpt>
      <trkpt lat="44.34457" lon="1.29535">
        <ele>256.79998779297</ele>
        <time>2022-05-26T12:14:02.000Z</time>
      </trkpt>
      <trkpt lat="44.34452" lon="1.29502">
        <ele>257</ele>
        <time>2022-05-26T12:14:08.000Z</time>
      </trkpt>
      <trkpt lat="44.34445" lon="1.2948">
        <ele>257.79998779297</ele>
        <time>2022-05-26T12:14:14.000Z</time>
      </trkpt>
      <trkpt lat="44.34443" lon="1.29477">
        <ele>257.79998779297</ele>
        <time>2022-05-26T12:14:15.000Z</time>
      </trkpt>
      <trkpt lat="44.34434" lon="1.29461">
        <ele>258.79998779297</ele>
        <time>2022-05-26T12:14:19.000Z</time>
      </trkpt>
      <trkpt lat="44.34425" lon="1.29448">
        <ele>260.20001220703</ele>
        <time>2022-05-26T12:14:23.000Z</time>
      </trkpt>
      <trkpt lat="44.34417" lon="1.29438">
        <ele>261.20001220703</ele>
        <time>2022-05-26T12:14:27.000Z</time>
      </trkpt>
      <trkpt lat="44.34415" lon="1.29436">
        <ele>261.60000610352</ele>
        <time>2022-05-26T12:14:28.000Z</time>
      </trkpt>
      <trkpt lat="44.34415" lon="1.29435">
        <ele>261.60000610352</ele>
        <time>2022-05-26T12:14:29.000Z</time>
      </trkpt>
      <trkpt lat="44.34415" lon="1.29434">
        <ele>262.39999389648</ele>
        <time>2022-05-26T12:14:31.000Z</time>
      </trkpt>
      <trkpt lat="44.34415" lon="1.29434">
        <ele>262.39999389648</ele>
        <time>2022-05-26T12:14:32.000Z</time>
      </trkpt>
      <trkpt lat="44.34409" lon="1.29429">
        <ele>263.60000610352</ele>
        <time>2022-05-26T12:22:45.000Z</time>
      </trkpt>
      <trkpt lat="44.34408" lon="1.29426">
        <ele>263.60000610352</ele>
        <time>2022-05-26T12:22:46.000Z</time>
      </trkpt>
      <trkpt lat="44.34405" lon="1.29424">
        <ele>263.60000610352</ele>
        <time>2022-05-26T12:22:47.000Z</time>
      </trkpt>
      <trkpt lat="44.34389" lon="1.29405">
        <ele>264.20001220703</ele>
        <time>2022-05-26T12:22:55.000Z</time>
      </trkpt>
      <trkpt lat="44.34374" lon="1.29388">
        <ele>264.39999389648</ele>
        <time>2022-05-26T12:23:03.000Z</time>
      </trkpt>
      <trkpt lat="44.34373" lon="1.29385">
        <ele>264.39999389648</ele>
        <time>2022-05-26T12:23:04.000Z</time>
      </trkpt>
      <trkpt lat="44.34373" lon="1.29379">
        <ele>264.60000610352</ele>
        <time>2022-05-26T12:23:06.000Z</time>
      </trkpt>
      <trkpt lat="44.34377" lon="1.29371">
        <ele>264.60000610352</ele>
        <time>2022-05-26T12:23:08.000Z</time>
      </trkpt>
      <trkpt lat="44.34385" lon="1.29356">
        <ele>264.60000610352</ele>
        <time>2022-05-26T12:23:12.000Z</time>
      </trkpt>
      <trkpt lat="44.34405" lon="1.29318">
        <ele>264.39999389648</ele>
        <time>2022-05-26T12:23:21.000Z</time>
      </trkpt>
      <trkpt lat="44.34414" lon="1.29299">
        <ele>263.60000610352</ele>
        <time>2022-05-26T12:23:25.000Z</time>
      </trkpt>
      <trkpt lat="44.34423" lon="1.29282">
        <ele>263.39999389648</ele>
        <time>2022-05-26T12:23:29.000Z</time>
      </trkpt>
      <trkpt lat="44.3445" lon="1.29248">
        <ele>263.39999389648</ele>
        <time>2022-05-26T12:23:38.000Z</time>
      </trkpt>
      <trkpt lat="44.34462" lon="1.29234">
        <ele>263.20001220703</ele>
        <time>2022-05-26T12:23:42.000Z</time>
      </trkpt>
      <trkpt lat="44.34475" lon="1.29221">
        <ele>262.79998779297</ele>
        <time>2022-05-26T12:23:46.000Z</time>
      </trkpt>
      <trkpt lat="44.34481" lon="1.29213">
        <ele>262.60000610352</ele>
        <time>2022-05-26T12:23:48.000Z</time>
      </trkpt>
      <trkpt lat="44.34503" lon="1.29195">
        <ele>262</ele>
        <time>2022-05-26T12:23:54.000Z</time>
      </trkpt>
      <trkpt lat="44.34528" lon="1.29175">
        <ele>261.79998779297</ele>
        <time>2022-05-26T12:24:00.000Z</time>
      </trkpt>
      <trkpt lat="44.34532" lon="1.2917">
        <ele>261.60000610352</ele>
        <time>2022-05-26T12:24:01.000Z</time>
      </trkpt>
      <trkpt lat="44.34547" lon="1.29137">
        <ele>260.60000610352</ele>
        <time>2022-05-26T12:24:07.000Z</time>
      </trkpt>
      <trkpt lat="44.34549" lon="1.29131">
        <ele>260.60000610352</ele>
        <time>2022-05-26T12:24:08.000Z</time>
      </trkpt>
      <trkpt lat="44.34558" lon="1.29108">
        <ele>260</ele>
        <time>2022-05-26T12:24:12.000Z</time>
      </trkpt>
      <trkpt lat="44.34565" lon="1.29097">
        <ele>259.79998779297</ele>
        <time>2022-05-26T12:24:14.000Z</time>
      </trkpt>
      <trkpt lat="44.34572" lon="1.29088">
        <ele>259.39999389648</ele>
        <time>2022-05-26T12:24:16.000Z</time>
      </trkpt>
      <trkpt lat="44.34589" lon="1.29077">
        <ele>259.20001220703</ele>
        <time>2022-05-26T12:24:20.000Z</time>
      </trkpt>
      <trkpt lat="44.34613" lon="1.29063">
        <ele>259.39999389648</ele>
        <time>2022-05-26T12:24:27.000Z</time>
      </trkpt>
      <trkpt lat="44.34617" lon="1.29059">
        <ele>259.39999389648</ele>
        <time>2022-05-26T12:24:28.000Z</time>
      </trkpt>
      <trkpt lat="44.3464" lon="1.29032">
        <ele>260.20001220703</ele>
        <time>2022-05-26T12:24:36.000Z</time>
      </trkpt>
      <trkpt lat="44.34655" lon="1.29007">
        <ele>260.39999389648</ele>
        <time>2022-05-26T12:24:41.000Z</time>
      </trkpt>
      <trkpt lat="44.34658" lon="1.29002">
        <ele>260.60000610352</ele>
        <time>2022-05-26T12:24:42.000Z</time>
      </trkpt>
      <trkpt lat="44.34666" lon="1.2899">
        <ele>260.60000610352</ele>
        <time>2022-05-26T12:24:45.000Z</time>
      </trkpt>
      <trkpt lat="44.34685" lon="1.28966">
        <ele>261.20001220703</ele>
        <time>2022-05-26T12:24:51.000Z</time>
      </trkpt>
      <trkpt lat="44.34688" lon="1.2896">
        <ele>261.39999389648</ele>
        <time>2022-05-26T12:24:52.000Z</time>
      </trkpt>
      <trkpt lat="44.3469" lon="1.28956">
        <ele>261.60000610352</ele>
        <time>2022-05-26T12:24:53.000Z</time>
      </trkpt>
      <trkpt lat="44.34693" lon="1.28951">
        <ele>261.60000610352</ele>
        <time>2022-05-26T12:24:54.000Z</time>
      </trkpt>
      <trkpt lat="44.34704" lon="1.28926">
        <ele>262.20001220703</ele>
        <time>2022-05-26T12:24:59.000Z</time>
      </trkpt>
      <trkpt lat="44.3472" lon="1.28886">
        <ele>262.39999389648</ele>
        <time>2022-05-26T12:25:06.000Z</time>
      </trkpt>
      <trkpt lat="44.34738" lon="1.28842">
        <ele>262.39999389648</ele>
        <time>2022-05-26T12:25:14.000Z</time>
      </trkpt>
      <trkpt lat="44.34743" lon="1.28831">
        <ele>262.60000610352</ele>
        <time>2022-05-26T12:25:16.000Z</time>
      </trkpt>
      <trkpt lat="44.34753" lon="1.2881">
        <ele>263</ele>
        <time>2022-05-26T12:25:20.000Z</time>
      </trkpt>
      <trkpt lat="44.34772" lon="1.28762">
        <ele>262.79998779297</ele>
        <time>2022-05-26T12:25:28.000Z</time>
      </trkpt>
      <trkpt lat="44.34774" lon="1.28757">
        <ele>262.79998779297</ele>
        <time>2022-05-26T12:25:29.000Z</time>
      </trkpt>
      <trkpt lat="44.34776" lon="1.28752">
        <ele>262.79998779297</ele>
        <time>2022-05-26T12:25:30.000Z</time>
      </trkpt>
      <trkpt lat="44.34783" lon="1.28727">
        <ele>262.79998779297</ele>
        <time>2022-05-26T12:25:34.000Z</time>
      </trkpt>
      <trkpt lat="44.34785" lon="1.28723">
        <ele>262.79998779297</ele>
        <time>2022-05-26T12:25:35.000Z</time>
      </trkpt>
      <trkpt lat="44.34786" lon="1.28718">
        <ele>262.79998779297</ele>
        <time>2022-05-26T12:25:36.000Z</time>
      </trkpt>
      <trkpt lat="44.34788" lon="1.28693">
        <ele>262.60000610352</ele>
        <time>2022-05-26T12:25:40.000Z</time>
      </trkpt>
      <trkpt lat="44.34791" lon="1.28674">
        <ele>262.39999389648</ele>
        <time>2022-05-26T12:25:44.000Z</time>
      </trkpt>
      <trkpt lat="44.34786" lon="1.28662">
        <ele>262</ele>
        <time>2022-05-26T12:25:48.000Z</time>
      </trkpt>
      <trkpt lat="44.3477" lon="1.28649">
        <ele>261.60000610352</ele>
        <time>2022-05-26T12:25:54.000Z</time>
      </trkpt>
      <trkpt lat="44.34756" lon="1.28635">
        <ele>261.60000610352</ele>
        <time>2022-05-26T12:26:00.000Z</time>
      </trkpt>
      <trkpt lat="44.34743" lon="1.28618">
        <ele>261.39999389648</ele>
        <time>2022-05-26T12:26:06.000Z</time>
      </trkpt>
      <trkpt lat="44.34734" lon="1.28592">
        <ele>261</ele>
        <time>2022-05-26T12:26:10.000Z</time>
      </trkpt>
      <trkpt lat="44.34731" lon="1.28572">
        <ele>260.60000610352</ele>
        <time>2022-05-26T12:26:12.000Z</time>
      </trkpt>
      <trkpt lat="44.34728" lon="1.28565">
        <ele>260.39999389648</ele>
        <time>2022-05-26T12:26:13.000Z</time>
      </trkpt>
      <trkpt lat="44.34725" lon="1.28557">
        <ele>259.79998779297</ele>
        <time>2022-05-26T12:26:14.000Z</time>
      </trkpt>
      <trkpt lat="44.34719" lon="1.28539">
        <ele>259</ele>
        <time>2022-05-26T12:26:16.000Z</time>
      </trkpt>
      <trkpt lat="44.34717" lon="1.28527">
        <ele>258.60000610352</ele>
        <time>2022-05-26T12:26:18.000Z</time>
      </trkpt>
      <trkpt lat="44.34715" lon="1.28515">
        <ele>258.39999389648</ele>
        <time>2022-05-26T12:26:20.000Z</time>
      </trkpt>
      <trkpt lat="44.34709" lon="1.28498">
        <ele>258.79998779297</ele>
        <time>2022-05-26T12:26:23.000Z</time>
      </trkpt>
      <trkpt lat="44.34699" lon="1.28484">
        <ele>258.79998779297</ele>
        <time>2022-05-26T12:26:26.000Z</time>
      </trkpt>
      <trkpt lat="44.34694" lon="1.28477">
        <ele>259.20001220703</ele>
        <time>2022-05-26T12:26:28.000Z</time>
      </trkpt>
      <trkpt lat="44.34682" lon="1.28462">
        <ele>260.39999389648</ele>
        <time>2022-05-26T12:26:32.000Z</time>
      </trkpt>
      <trkpt lat="44.34669" lon="1.28445">
        <ele>261.60000610352</ele>
        <time>2022-05-26T12:26:37.000Z</time>
      </trkpt>
      <trkpt lat="44.34666" lon="1.28442">
        <ele>261.79998779297</ele>
        <time>2022-05-26T12:26:38.000Z</time>
      </trkpt>
      <trkpt lat="44.34649" lon="1.2842">
        <ele>262.79998779297</ele>
        <time>2022-05-26T12:26:45.000Z</time>
      </trkpt>
      <trkpt lat="44.34647" lon="1.28418">
        <ele>263.20001220703</ele>
        <time>2022-05-26T12:26:46.000Z</time>
      </trkpt>
      <trkpt lat="44.34637" lon="1.28406">
        <ele>263.79998779297</ele>
        <time>2022-05-26T12:26:50.000Z</time>
      </trkpt>
      <trkpt lat="44.34626" lon="1.28393">
        <ele>265</ele>
        <time>2022-05-26T12:26:54.000Z</time>
      </trkpt>
      <trkpt lat="44.34623" lon="1.2839">
        <ele>265</ele>
        <time>2022-05-26T12:26:55.000Z</time>
      </trkpt>
      <trkpt lat="44.34617" lon="1.2838">
        <ele>266</ele>
        <time>2022-05-26T12:26:58.000Z</time>
      </trkpt>
      <trkpt lat="44.34612" lon="1.28372">
        <ele>267</ele>
        <time>2022-05-26T12:27:01.000Z</time>
      </trkpt>
      <trkpt lat="44.3461" lon="1.28369">
        <ele>267.39999389648</ele>
        <time>2022-05-26T12:27:02.000Z</time>
      </trkpt>
      <trkpt lat="44.34608" lon="1.28362">
        <ele>268.60000610352</ele>
        <time>2022-05-26T12:27:04.000Z</time>
      </trkpt>
      <trkpt lat="44.34606" lon="1.28357">
        <ele>269.60000610352</ele>
        <time>2022-05-26T12:27:06.000Z</time>
      </trkpt>
      <trkpt lat="44.34604" lon="1.2835">
        <ele>270.39999389648</ele>
        <time>2022-05-26T12:27:08.000Z</time>
      </trkpt>
      <trkpt lat="44.34603" lon="1.28347">
        <ele>270.79998779297</ele>
        <time>2022-05-26T12:27:09.000Z</time>
      </trkpt>
      <trkpt lat="44.34601" lon="1.28339">
        <ele>272</ele>
        <time>2022-05-26T12:27:12.000Z</time>
      </trkpt>
      <trkpt lat="44.34598" lon="1.28327">
        <ele>273.20001220703</ele>
        <time>2022-05-26T12:27:16.000Z</time>
      </trkpt>
      <trkpt lat="44.34592" lon="1.2831">
        <ele>274.20001220703</ele>
        <time>2022-05-26T12:27:22.000Z</time>
      </trkpt>
      <trkpt lat="44.34588" lon="1.28304">
        <ele>274.39999389648</ele>
        <time>2022-05-26T12:27:25.000Z</time>
      </trkpt>
      <trkpt lat="44.3458" lon="1.28286">
        <ele>274.79998779297</ele>
        <time>2022-05-26T12:27:30.000Z</time>
      </trkpt>
      <trkpt lat="44.34571" lon="1.28272">
        <ele>274.39999389648</ele>
        <time>2022-05-26T12:27:33.000Z</time>
      </trkpt>
      <trkpt lat="44.34562" lon="1.28257">
        <ele>274</ele>
        <time>2022-05-26T12:27:36.000Z</time>
      </trkpt>
      <trkpt lat="44.34549" lon="1.28228">
        <ele>273</ele>
        <time>2022-05-26T12:27:41.000Z</time>
      </trkpt>
      <trkpt lat="44.34543" lon="1.28218">
        <ele>272.79998779297</ele>
        <time>2022-05-26T12:27:43.000Z</time>
      </trkpt>
      <trkpt lat="44.34537" lon="1.28208">
        <ele>272.39999389648</ele>
        <time>2022-05-26T12:27:45.000Z</time>
      </trkpt>
      <trkpt lat="44.34524" lon="1.28191">
        <ele>272</ele>
        <time>2022-05-26T12:27:49.000Z</time>
      </trkpt>
      <trkpt lat="44.34513" lon="1.28173">
        <ele>272</ele>
        <time>2022-05-26T12:27:54.000Z</time>
      </trkpt>
      <trkpt lat="44.34507" lon="1.28156">
        <ele>272.39999389648</ele>
        <time>2022-05-26T12:27:59.000Z</time>
      </trkpt>
      <trkpt lat="44.34499" lon="1.28127">
        <ele>273.39999389648</ele>
        <time>2022-05-26T12:28:06.000Z</time>
      </trkpt>
      <trkpt lat="44.34494" lon="1.28102">
        <ele>273.79998779297</ele>
        <time>2022-05-26T12:28:11.000Z</time>
      </trkpt>
      <trkpt lat="44.34492" lon="1.28065">
        <ele>274</ele>
        <time>2022-05-26T12:28:19.000Z</time>
      </trkpt>
      <trkpt lat="44.34491" lon="1.28048">
        <ele>274.39999389648</ele>
        <time>2022-05-26T12:28:24.000Z</time>
      </trkpt>
      <trkpt lat="44.34491" lon="1.28044">
        <ele>274.79998779297</ele>
        <time>2022-05-26T12:28:25.000Z</time>
      </trkpt>
      <trkpt lat="44.34491" lon="1.28027">
        <ele>275.60000610352</ele>
        <time>2022-05-26T12:28:29.000Z</time>
      </trkpt>
      <trkpt lat="44.34489" lon="1.28">
        <ele>276.39999389648</ele>
        <time>2022-05-26T12:28:35.000Z</time>
      </trkpt>
      <trkpt lat="44.34488" lon="1.27983">
        <ele>276.60000610352</ele>
        <time>2022-05-26T12:28:39.000Z</time>
      </trkpt>
      <trkpt lat="44.34487" lon="1.27965">
        <ele>277</ele>
        <time>2022-05-26T12:28:43.000Z</time>
      </trkpt>
      <trkpt lat="44.34483" lon="1.27917">
        <ele>277.60000610352</ele>
        <time>2022-05-26T12:28:53.000Z</time>
      </trkpt>
      <trkpt lat="44.34482" lon="1.27876">
        <ele>277.20001220703</ele>
        <time>2022-05-26T12:29:02.000Z</time>
      </trkpt>
      <trkpt lat="44.34483" lon="1.27874">
        <ele>276.60000610352</ele>
        <time>2022-05-26T12:29:05.000Z</time>
      </trkpt>
      <trkpt lat="44.34483" lon="1.2787">
        <ele>275.20001220703</ele>
        <time>2022-05-26T12:30:32.000Z</time>
      </trkpt>
      <trkpt lat="44.34484" lon="1.27861">
        <ele>275.20001220703</ele>
        <time>2022-05-26T12:30:34.000Z</time>
      </trkpt>
      <trkpt lat="44.34488" lon="1.27833">
        <ele>275.20001220703</ele>
        <time>2022-05-26T12:30:38.000Z</time>
      </trkpt>
      <trkpt lat="44.3449" lon="1.27805">
        <ele>274.39999389648</ele>
        <time>2022-05-26T12:30:41.000Z</time>
      </trkpt>
      <trkpt lat="44.3449" lon="1.27796">
        <ele>273.79998779297</ele>
        <time>2022-05-26T12:30:42.000Z</time>
      </trkpt>
      <trkpt lat="44.34488" lon="1.27789">
        <ele>273.39999389648</ele>
        <time>2022-05-26T12:30:43.000Z</time>
      </trkpt>
      <trkpt lat="44.34486" lon="1.27781">
        <ele>272.79998779297</ele>
        <time>2022-05-26T12:30:44.000Z</time>
      </trkpt>
      <trkpt lat="44.3448" lon="1.27763">
        <ele>271.60000610352</ele>
        <time>2022-05-26T12:30:46.000Z</time>
      </trkpt>
      <trkpt lat="44.34472" lon="1.2774">
        <ele>270.39999389648</ele>
        <time>2022-05-26T12:30:49.000Z</time>
      </trkpt>
      <trkpt lat="44.34467" lon="1.27722">
        <ele>269.60000610352</ele>
        <time>2022-05-26T12:30:52.000Z</time>
      </trkpt>
      <trkpt lat="44.34461" lon="1.27686">
        <ele>269.79998779297</ele>
        <time>2022-05-26T12:30:58.000Z</time>
      </trkpt>
      <trkpt lat="44.3446" lon="1.27656">
        <ele>271.20001220703</ele>
        <time>2022-05-26T12:31:04.000Z</time>
      </trkpt>
      <trkpt lat="44.34459" lon="1.27651">
        <ele>271.79998779297</ele>
        <time>2022-05-26T12:31:05.000Z</time>
      </trkpt>
      <trkpt lat="44.34458" lon="1.27632">
        <ele>272.79998779297</ele>
        <time>2022-05-26T12:31:09.000Z</time>
      </trkpt>
      <trkpt lat="44.34457" lon="1.27617">
        <ele>273.79998779297</ele>
        <time>2022-05-26T12:31:12.000Z</time>
      </trkpt>
      <trkpt lat="44.34455" lon="1.276">
        <ele>274.20001220703</ele>
        <time>2022-05-26T12:31:15.000Z</time>
      </trkpt>
      <trkpt lat="44.34452" lon="1.27583">
        <ele>274.79998779297</ele>
        <time>2022-05-26T12:31:18.000Z</time>
      </trkpt>
      <trkpt lat="44.34452" lon="1.27577">
        <ele>274.79998779297</ele>
        <time>2022-05-26T12:31:19.000Z</time>
      </trkpt>
      <trkpt lat="44.34451" lon="1.27561">
        <ele>275</ele>
        <time>2022-05-26T12:31:22.000Z</time>
      </trkpt>
      <trkpt lat="44.3445" lon="1.27544">
        <ele>275.20001220703</ele>
        <time>2022-05-26T12:31:25.000Z</time>
      </trkpt>
      <trkpt lat="44.3445" lon="1.27533">
        <ele>275.39999389648</ele>
        <time>2022-05-26T12:31:27.000Z</time>
      </trkpt>
      <trkpt lat="44.34451" lon="1.27506">
        <ele>276</ele>
        <time>2022-05-26T12:31:32.000Z</time>
      </trkpt>
      <trkpt lat="44.34451" lon="1.27498">
        <ele>276</ele>
        <time>2022-05-26T12:31:34.000Z</time>
      </trkpt>
      <trkpt lat="44.34445" lon="1.27479">
        <ele>277</ele>
        <time>2022-05-26T12:31:39.000Z</time>
      </trkpt>
      <trkpt lat="44.34444" lon="1.27474">
        <ele>277</ele>
        <time>2022-05-26T12:31:40.000Z</time>
      </trkpt>
      <trkpt lat="44.34443" lon="1.27468">
        <ele>277</ele>
        <time>2022-05-26T12:31:41.000Z</time>
      </trkpt>
      <trkpt lat="44.34444" lon="1.27454">
        <ele>277</ele>
        <time>2022-05-26T12:31:43.000Z</time>
      </trkpt>
      <trkpt lat="44.34454" lon="1.27421">
        <ele>275</ele>
        <time>2022-05-26T12:31:48.000Z</time>
      </trkpt>
      <trkpt lat="44.34455" lon="1.27414">
        <ele>273.79998779297</ele>
        <time>2022-05-26T12:31:49.000Z</time>
      </trkpt>
      <trkpt lat="44.34454" lon="1.27402">
        <ele>272.79998779297</ele>
        <time>2022-05-26T12:31:51.000Z</time>
      </trkpt>
      <trkpt lat="44.34452" lon="1.27395">
        <ele>272.60000610352</ele>
        <time>2022-05-26T12:31:52.000Z</time>
      </trkpt>
      <trkpt lat="44.34451" lon="1.2739">
        <ele>272.39999389648</ele>
        <time>2022-05-26T12:31:53.000Z</time>
      </trkpt>
      <trkpt lat="44.34449" lon="1.27369">
        <ele>271.39999389648</ele>
        <time>2022-05-26T12:31:56.000Z</time>
      </trkpt>
      <trkpt lat="44.34449" lon="1.27355">
        <ele>270.60000610352</ele>
        <time>2022-05-26T12:31:58.000Z</time>
      </trkpt>
      <trkpt lat="44.34451" lon="1.27341">
        <ele>270</ele>
        <time>2022-05-26T12:32:00.000Z</time>
      </trkpt>
      <trkpt lat="44.34454" lon="1.27328">
        <ele>268.79998779297</ele>
        <time>2022-05-26T12:32:02.000Z</time>
      </trkpt>
      <trkpt lat="44.34455" lon="1.2732">
        <ele>268.20001220703</ele>
        <time>2022-05-26T12:32:03.000Z</time>
      </trkpt>
      <trkpt lat="44.34458" lon="1.27301">
        <ele>267.39999389648</ele>
        <time>2022-05-26T12:32:05.000Z</time>
      </trkpt>
      <trkpt lat="44.34459" lon="1.27291">
        <ele>267.39999389648</ele>
        <time>2022-05-26T12:32:06.000Z</time>
      </trkpt>
      <trkpt lat="44.3446" lon="1.27281">
        <ele>266.79998779297</ele>
        <time>2022-05-26T12:32:07.000Z</time>
      </trkpt>
      <trkpt lat="44.34462" lon="1.27258">
        <ele>265.79998779297</ele>
        <time>2022-05-26T12:32:09.000Z</time>
      </trkpt>
      <trkpt lat="44.34467" lon="1.2722">
        <ele>264.79998779297</ele>
        <time>2022-05-26T12:32:13.000Z</time>
      </trkpt>
      <trkpt lat="44.34467" lon="1.27211">
        <ele>264.39999389648</ele>
        <time>2022-05-26T12:32:14.000Z</time>
      </trkpt>
      <trkpt lat="44.34465" lon="1.27194">
        <ele>263.79998779297</ele>
        <time>2022-05-26T12:32:16.000Z</time>
      </trkpt>
      <trkpt lat="44.34464" lon="1.27189">
        <ele>263.79998779297</ele>
        <time>2022-05-26T12:32:17.000Z</time>
      </trkpt>
      <trkpt lat="44.34462" lon="1.27183">
        <ele>263.39999389648</ele>
        <time>2022-05-26T12:32:18.000Z</time>
      </trkpt>
      <trkpt lat="44.34461" lon="1.27177">
        <ele>263.39999389648</ele>
        <time>2022-05-26T12:32:19.000Z</time>
      </trkpt>
      <trkpt lat="44.34455" lon="1.27158">
        <ele>263.20001220703</ele>
        <time>2022-05-26T12:32:22.000Z</time>
      </trkpt>
      <trkpt lat="44.34452" lon="1.27151">
        <ele>263.20001220703</ele>
        <time>2022-05-26T12:32:23.000Z</time>
      </trkpt>
      <trkpt lat="44.34446" lon="1.27141">
        <ele>263.20001220703</ele>
        <time>2022-05-26T12:32:25.000Z</time>
      </trkpt>
      <trkpt lat="44.3444" lon="1.2713">
        <ele>263.20001220703</ele>
        <time>2022-05-26T12:32:27.000Z</time>
      </trkpt>
      <trkpt lat="44.34434" lon="1.27117">
        <ele>263.20001220703</ele>
        <time>2022-05-26T12:32:29.000Z</time>
      </trkpt>
      <trkpt lat="44.34429" lon="1.27097">
        <ele>263.20001220703</ele>
        <time>2022-05-26T12:32:32.000Z</time>
      </trkpt>
      <trkpt lat="44.34423" lon="1.27065">
        <ele>263</ele>
        <time>2022-05-26T12:32:37.000Z</time>
      </trkpt>
      <trkpt lat="44.34422" lon="1.27054">
        <ele>263.20001220703</ele>
        <time>2022-05-26T12:32:39.000Z</time>
      </trkpt>
      <trkpt lat="44.34422" lon="1.27036">
        <ele>263.20001220703</ele>
        <time>2022-05-26T12:32:42.000Z</time>
      </trkpt>
      <trkpt lat="44.3442" lon="1.27021">
        <ele>263.39999389648</ele>
        <time>2022-05-26T12:32:45.000Z</time>
      </trkpt>
      <trkpt lat="44.34415" lon="1.27004">
        <ele>264.39999389648</ele>
        <time>2022-05-26T12:32:48.000Z</time>
      </trkpt>
      <trkpt lat="44.34411" lon="1.26989">
        <ele>265.20001220703</ele>
        <time>2022-05-26T12:32:51.000Z</time>
      </trkpt>
      <trkpt lat="44.34409" lon="1.26979">
        <ele>265.79998779297</ele>
        <time>2022-05-26T12:32:53.000Z</time>
      </trkpt>
      <trkpt lat="44.34405" lon="1.26961">
        <ele>267.20001220703</ele>
        <time>2022-05-26T12:32:57.000Z</time>
      </trkpt>
      <trkpt lat="44.34404" lon="1.26956">
        <ele>267.60000610352</ele>
        <time>2022-05-26T12:32:58.000Z</time>
      </trkpt>
      <trkpt lat="44.344" lon="1.26941">
        <ele>268.20001220703</ele>
        <time>2022-05-26T12:33:01.000Z</time>
      </trkpt>
      <trkpt lat="44.34395" lon="1.26919">
        <ele>269.20001220703</ele>
        <time>2022-05-26T12:33:05.000Z</time>
      </trkpt>
      <trkpt lat="44.34386" lon="1.26873">
        <ele>270</ele>
        <time>2022-05-26T12:33:14.000Z</time>
      </trkpt>
      <trkpt lat="44.34384" lon="1.26845">
        <ele>270.39999389648</ele>
        <time>2022-05-26T12:33:19.000Z</time>
      </trkpt>
      <trkpt lat="44.34384" lon="1.26834">
        <ele>270.60000610352</ele>
        <time>2022-05-26T12:33:21.000Z</time>
      </trkpt>
      <trkpt lat="44.34386" lon="1.2681">
        <ele>271</ele>
        <time>2022-05-26T12:33:25.000Z</time>
      </trkpt>
      <trkpt lat="44.34389" lon="1.26795">
        <ele>271.39999389648</ele>
        <time>2022-05-26T12:33:28.000Z</time>
      </trkpt>
      <trkpt lat="44.34394" lon="1.26745">
        <ele>272</ele>
        <time>2022-05-26T12:33:38.000Z</time>
      </trkpt>
      <trkpt lat="44.34394" lon="1.26734">
        <ele>272.79998779297</ele>
        <time>2022-05-26T12:33:40.000Z</time>
      </trkpt>
      <trkpt lat="44.34396" lon="1.26708">
        <ele>274</ele>
        <time>2022-05-26T12:33:46.000Z</time>
      </trkpt>
      <trkpt lat="44.34399" lon="1.26683">
        <ele>275</ele>
        <time>2022-05-26T12:33:52.000Z</time>
      </trkpt>
      <trkpt lat="44.34401" lon="1.26674">
        <ele>275.20001220703</ele>
        <time>2022-05-26T12:33:54.000Z</time>
      </trkpt>
      <trkpt lat="44.34408" lon="1.26652">
        <ele>276.20001220703</ele>
        <time>2022-05-26T12:34:00.000Z</time>
      </trkpt>
      <trkpt lat="44.3441" lon="1.26649">
        <ele>276</ele>
        <time>2022-05-26T12:34:01.000Z</time>
      </trkpt>
      <trkpt lat="44.34424" lon="1.26629">
        <ele>277</ele>
        <time>2022-05-26T12:34:08.000Z</time>
      </trkpt>
      <trkpt lat="44.34443" lon="1.26623">
        <ele>277.39999389648</ele>
        <time>2022-05-26T12:34:15.000Z</time>
      </trkpt>
      <trkpt lat="44.34452" lon="1.26621">
        <ele>278</ele>
        <time>2022-05-26T12:34:19.000Z</time>
      </trkpt>
      <trkpt lat="44.34453" lon="1.2662">
        <ele>278</ele>
        <time>2022-05-26T12:34:20.000Z</time>
      </trkpt>
      <trkpt lat="44.34455" lon="1.26615">
        <ele>278</ele>
        <time>2022-05-26T12:34:22.000Z</time>
      </trkpt>
      <trkpt lat="44.34454" lon="1.26612">
        <ele>278.20001220703</ele>
        <time>2022-05-26T12:34:24.000Z</time>
      </trkpt>
      <trkpt lat="44.34445" lon="1.26611">
        <ele>278.60000610352</ele>
        <time>2022-05-26T12:34:28.000Z</time>
      </trkpt>
      <trkpt lat="44.3443" lon="1.26614">
        <ele>279.20001220703</ele>
        <time>2022-05-26T12:34:33.000Z</time>
      </trkpt>
      <trkpt lat="44.34425" lon="1.26616">
        <ele>279.60000610352</ele>
        <time>2022-05-26T12:34:35.000Z</time>
      </trkpt>
      <trkpt lat="44.34413" lon="1.26624">
        <ele>280.39999389648</ele>
        <time>2022-05-26T12:34:40.000Z</time>
      </trkpt>
      <trkpt lat="44.34409" lon="1.26627">
        <ele>280.79998779297</ele>
        <time>2022-05-26T12:34:42.000Z</time>
      </trkpt>
      <trkpt lat="44.34404" lon="1.26634">
        <ele>281.39999389648</ele>
        <time>2022-05-26T12:34:45.000Z</time>
      </trkpt>
      <trkpt lat="44.34402" lon="1.26636">
        <ele>281.60000610352</ele>
        <time>2022-05-26T12:34:46.000Z</time>
      </trkpt>
      <trkpt lat="44.34397" lon="1.26636">
        <ele>281.79998779297</ele>
        <time>2022-05-26T12:34:48.000Z</time>
      </trkpt>
      <trkpt lat="44.34396" lon="1.26628">
        <ele>282</ele>
        <time>2022-05-26T12:34:51.000Z</time>
      </trkpt>
      <trkpt lat="44.344" lon="1.26601">
        <ele>282.20001220703</ele>
        <time>2022-05-26T12:34:58.000Z</time>
      </trkpt>
      <trkpt lat="44.34401" lon="1.2659">
        <ele>282.79998779297</ele>
        <time>2022-05-26T12:35:01.000Z</time>
      </trkpt>
      <trkpt lat="44.34402" lon="1.26564">
        <ele>283.39999389648</ele>
        <time>2022-05-26T12:35:07.000Z</time>
      </trkpt>
      <trkpt lat="44.34404" lon="1.26545">
        <ele>283.20001220703</ele>
        <time>2022-05-26T12:35:12.000Z</time>
      </trkpt>
      <trkpt lat="44.34405" lon="1.26541">
        <ele>283</ele>
        <time>2022-05-26T12:35:16.000Z</time>
      </trkpt>
      <trkpt lat="44.34406" lon="1.26532">
        <ele>282.20001220703</ele>
        <time>2022-05-26T12:36:54.000Z</time>
      </trkpt>
      <trkpt lat="44.34407" lon="1.26528">
        <ele>282.20001220703</ele>
        <time>2022-05-26T12:36:55.000Z</time>
      </trkpt>
      <trkpt lat="44.34408" lon="1.26523">
        <ele>282.20001220703</ele>
        <time>2022-05-26T12:36:56.000Z</time>
      </trkpt>
      <trkpt lat="44.34414" lon="1.26486">
        <ele>282</ele>
        <time>2022-05-26T12:37:03.000Z</time>
      </trkpt>
      <trkpt lat="44.34418" lon="1.26469">
        <ele>281.60000610352</ele>
        <time>2022-05-26T12:37:06.000Z</time>
      </trkpt>
      <trkpt lat="44.34423" lon="1.26445">
        <ele>281.20001220703</ele>
        <time>2022-05-26T12:37:10.000Z</time>
      </trkpt>
      <trkpt lat="44.34426" lon="1.26428">
        <ele>280.60000610352</ele>
        <time>2022-05-26T12:37:13.000Z</time>
      </trkpt>
      <trkpt lat="44.3443" lon="1.26408">
        <ele>280.20001220703</ele>
        <time>2022-05-26T12:37:16.000Z</time>
      </trkpt>
      <trkpt lat="44.34432" lon="1.26397">
        <ele>279.79998779297</ele>
        <time>2022-05-26T12:37:18.000Z</time>
      </trkpt>
      <trkpt lat="44.34432" lon="1.26391">
        <ele>279.79998779297</ele>
        <time>2022-05-26T12:37:19.000Z</time>
      </trkpt>
      <trkpt lat="44.34432" lon="1.26378">
        <ele>279.79998779297</ele>
        <time>2022-05-26T12:37:21.000Z</time>
      </trkpt>
      <trkpt lat="44.34434" lon="1.26366">
        <ele>279.60000610352</ele>
        <time>2022-05-26T12:37:23.000Z</time>
      </trkpt>
      <trkpt lat="44.34436" lon="1.2636">
        <ele>279.39999389648</ele>
        <time>2022-05-26T12:37:24.000Z</time>
      </trkpt>
      <trkpt lat="44.34439" lon="1.26356">
        <ele>279.20001220703</ele>
        <time>2022-05-26T12:37:25.000Z</time>
      </trkpt>
      <trkpt lat="44.34442" lon="1.26345">
        <ele>278.79998779297</ele>
        <time>2022-05-26T12:37:28.000Z</time>
      </trkpt>
      <trkpt lat="44.34445" lon="1.26337">
        <ele>278.39999389648</ele>
        <time>2022-05-26T12:37:30.000Z</time>
      </trkpt>
      <trkpt lat="44.34448" lon="1.26326">
        <ele>278</ele>
        <time>2022-05-26T12:37:33.000Z</time>
      </trkpt>
      <trkpt lat="44.34448" lon="1.26303">
        <ele>277.39999389648</ele>
        <time>2022-05-26T12:37:38.000Z</time>
      </trkpt>
      <trkpt lat="44.34451" lon="1.26279">
        <ele>276.20001220703</ele>
        <time>2022-05-26T12:37:43.000Z</time>
      </trkpt>
      <trkpt lat="44.34452" lon="1.26268">
        <ele>276</ele>
        <time>2022-05-26T12:37:45.000Z</time>
      </trkpt>
      <trkpt lat="44.34454" lon="1.26249">
        <ele>275.79998779297</ele>
        <time>2022-05-26T12:37:48.000Z</time>
      </trkpt>
      <trkpt lat="44.34454" lon="1.26238">
        <ele>275.39999389648</ele>
        <time>2022-05-26T12:37:50.000Z</time>
      </trkpt>
      <trkpt lat="44.34455" lon="1.26232">
        <ele>275.20001220703</ele>
        <time>2022-05-26T12:37:51.000Z</time>
      </trkpt>
      <trkpt lat="44.34456" lon="1.26225">
        <ele>275</ele>
        <time>2022-05-26T12:37:52.000Z</time>
      </trkpt>
      <trkpt lat="44.34458" lon="1.26212">
        <ele>274</ele>
        <time>2022-05-26T12:37:55.000Z</time>
      </trkpt>
      <trkpt lat="44.34459" lon="1.26189">
        <ele>272.79998779297</ele>
        <time>2022-05-26T12:37:59.000Z</time>
      </trkpt>
      <trkpt lat="44.34459" lon="1.26185">
        <ele>272</ele>
        <time>2022-05-26T12:38:00.000Z</time>
      </trkpt>
      <trkpt lat="44.3446" lon="1.2618">
        <ele>271.60000610352</ele>
        <time>2022-05-26T12:38:01.000Z</time>
      </trkpt>
      <trkpt lat="44.34464" lon="1.26149">
        <ele>270.39999389648</ele>
        <time>2022-05-26T12:38:06.000Z</time>
      </trkpt>
      <trkpt lat="44.34471" lon="1.26113">
        <ele>269.60000610352</ele>
        <time>2022-05-26T12:38:12.000Z</time>
      </trkpt>
      <trkpt lat="44.34472" lon="1.26106">
        <ele>269.39999389648</ele>
        <time>2022-05-26T12:38:13.000Z</time>
      </trkpt>
      <trkpt lat="44.34478" lon="1.26067">
        <ele>268.79998779297</ele>
        <time>2022-05-26T12:38:19.000Z</time>
      </trkpt>
      <trkpt lat="44.34485" lon="1.26027">
        <ele>268.20001220703</ele>
        <time>2022-05-26T12:38:25.000Z</time>
      </trkpt>
      <trkpt lat="44.34486" lon="1.26013">
        <ele>268</ele>
        <time>2022-05-26T12:38:27.000Z</time>
      </trkpt>
      <trkpt lat="44.34488" lon="1.26">
        <ele>267.79998779297</ele>
        <time>2022-05-26T12:38:29.000Z</time>
      </trkpt>
      <trkpt lat="44.34492" lon="1.2598">
        <ele>267.60000610352</ele>
        <time>2022-05-26T12:38:32.000Z</time>
      </trkpt>
      <trkpt lat="44.34496" lon="1.25955">
        <ele>267.20001220703</ele>
        <time>2022-05-26T12:38:36.000Z</time>
      </trkpt>
      <trkpt lat="44.34498" lon="1.25943">
        <ele>266.79998779297</ele>
        <time>2022-05-26T12:38:38.000Z</time>
      </trkpt>
      <trkpt lat="44.34501" lon="1.25924">
        <ele>266.39999389648</ele>
        <time>2022-05-26T12:38:41.000Z</time>
      </trkpt>
      <trkpt lat="44.34505" lon="1.25913">
        <ele>266.20001220703</ele>
        <time>2022-05-26T12:38:43.000Z</time>
      </trkpt>
      <trkpt lat="44.34506" lon="1.25907">
        <ele>266.20001220703</ele>
        <time>2022-05-26T12:38:44.000Z</time>
      </trkpt>
      <trkpt lat="44.34508" lon="1.25895">
        <ele>266</ele>
        <time>2022-05-26T12:38:46.000Z</time>
      </trkpt>
      <trkpt lat="44.34517" lon="1.2587">
        <ele>265.79998779297</ele>
        <time>2022-05-26T12:38:51.000Z</time>
      </trkpt>
      <trkpt lat="44.34518" lon="1.25865">
        <ele>265.79998779297</ele>
        <time>2022-05-26T12:38:52.000Z</time>
      </trkpt>
      <trkpt lat="44.34524" lon="1.25848">
        <ele>265.20001220703</ele>
        <time>2022-05-26T12:38:55.000Z</time>
      </trkpt>
      <trkpt lat="44.34525" lon="1.25843">
        <ele>265.20001220703</ele>
        <time>2022-05-26T12:38:56.000Z</time>
      </trkpt>
      <trkpt lat="44.34527" lon="1.25835">
        <ele>265</ele>
        <time>2022-05-26T12:38:57.000Z</time>
      </trkpt>
      <trkpt lat="44.34531" lon="1.25823">
        <ele>265</ele>
        <time>2022-05-26T12:38:59.000Z</time>
      </trkpt>
      <trkpt lat="44.34534" lon="1.25813">
        <ele>264.79998779297</ele>
        <time>2022-05-26T12:39:01.000Z</time>
      </trkpt>
      <trkpt lat="44.34538" lon="1.25801">
        <ele>264.79998779297</ele>
        <time>2022-05-26T12:39:03.000Z</time>
      </trkpt>
      <trkpt lat="44.34543" lon="1.25776">
        <ele>264.39999389648</ele>
        <time>2022-05-26T12:39:07.000Z</time>
      </trkpt>
      <trkpt lat="44.34545" lon="1.2576">
        <ele>264.39999389648</ele>
        <time>2022-05-26T12:39:10.000Z</time>
      </trkpt>
      <trkpt lat="44.34546" lon="1.25749">
        <ele>264.20001220703</ele>
        <time>2022-05-26T12:39:12.000Z</time>
      </trkpt>
      <trkpt lat="44.34552" lon="1.25729">
        <ele>264</ele>
        <time>2022-05-26T12:39:17.000Z</time>
      </trkpt>
      <trkpt lat="44.34557" lon="1.25704">
        <ele>263.79998779297</ele>
        <time>2022-05-26T12:39:22.000Z</time>
      </trkpt>
      <trkpt lat="44.34565" lon="1.25674">
        <ele>264.20001220703</ele>
        <time>2022-05-26T12:39:28.000Z</time>
      </trkpt>
      <trkpt lat="44.34569" lon="1.25652">
        <ele>264.20001220703</ele>
        <time>2022-05-26T12:39:33.000Z</time>
      </trkpt>
      <trkpt lat="44.34575" lon="1.25618">
        <ele>263.60000610352</ele>
        <time>2022-05-26T12:39:39.000Z</time>
      </trkpt>
      <trkpt lat="44.34578" lon="1.25606">
        <ele>263</ele>
        <time>2022-05-26T12:39:41.000Z</time>
      </trkpt>
      <trkpt lat="44.34584" lon="1.25585">
        <ele>262.20001220703</ele>
        <time>2022-05-26T12:39:44.000Z</time>
      </trkpt>
      <trkpt lat="44.34585" lon="1.25565">
        <ele>262</ele>
        <time>2022-05-26T12:39:47.000Z</time>
      </trkpt>
      <trkpt lat="44.34587" lon="1.25542">
        <ele>261.39999389648</ele>
        <time>2022-05-26T12:39:50.000Z</time>
      </trkpt>
      <trkpt lat="44.34588" lon="1.25536">
        <ele>261</ele>
        <time>2022-05-26T12:39:51.000Z</time>
      </trkpt>
      <trkpt lat="44.34588" lon="1.2553">
        <ele>260.79998779297</ele>
        <time>2022-05-26T12:39:52.000Z</time>
      </trkpt>
      <trkpt lat="44.34589" lon="1.25511">
        <ele>260.20001220703</ele>
        <time>2022-05-26T12:39:55.000Z</time>
      </trkpt>
      <trkpt lat="44.34589" lon="1.2549">
        <ele>259.79998779297</ele>
        <time>2022-05-26T12:39:59.000Z</time>
      </trkpt>
      <trkpt lat="44.34589" lon="1.25476">
        <ele>259.60000610352</ele>
        <time>2022-05-26T12:40:01.000Z</time>
      </trkpt>
      <trkpt lat="44.34588" lon="1.25447">
        <ele>258.79998779297</ele>
        <time>2022-05-26T12:40:06.000Z</time>
      </trkpt>
      <trkpt lat="44.34587" lon="1.25435">
        <ele>258.60000610352</ele>
        <time>2022-05-26T12:40:08.000Z</time>
      </trkpt>
      <trkpt lat="44.34584" lon="1.25397">
        <ele>257.79998779297</ele>
        <time>2022-05-26T12:40:15.000Z</time>
      </trkpt>
      <trkpt lat="44.34581" lon="1.2538">
        <ele>257.39999389648</ele>
        <time>2022-05-26T12:40:19.000Z</time>
      </trkpt>
      <trkpt lat="44.34579" lon="1.25377">
        <ele>257.39999389648</ele>
        <time>2022-05-26T12:40:20.000Z</time>
      </trkpt>
      <trkpt lat="44.3457" lon="1.25375">
        <ele>257.20001220703</ele>
        <time>2022-05-26T12:40:22.000Z</time>
      </trkpt>
      <trkpt lat="44.34548" lon="1.25382">
        <ele>256.79998779297</ele>
        <time>2022-05-26T12:40:26.000Z</time>
      </trkpt>
      <trkpt lat="44.34517" lon="1.25388">
        <ele>256</ele>
        <time>2022-05-26T12:40:32.000Z</time>
      </trkpt>
      <trkpt lat="44.34498" lon="1.25387">
        <ele>256</ele>
        <time>2022-05-26T12:40:37.000Z</time>
      </trkpt>
      <trkpt lat="44.3449" lon="1.25385">
        <ele>256.20001220703</ele>
        <time>2022-05-26T12:40:39.000Z</time>
      </trkpt>
      <trkpt lat="44.3446" lon="1.25375">
        <ele>256.60000610352</ele>
        <time>2022-05-26T12:40:46.000Z</time>
      </trkpt>
      <trkpt lat="44.34428" lon="1.25363">
        <ele>256.60000610352</ele>
        <time>2022-05-26T12:40:54.000Z</time>
      </trkpt>
      <trkpt lat="44.34397" lon="1.25349">
        <ele>256.60000610352</ele>
        <time>2022-05-26T12:41:02.000Z</time>
      </trkpt>
      <trkpt lat="44.34376" lon="1.25339">
        <ele>257.20001220703</ele>
        <time>2022-05-26T12:41:08.000Z</time>
      </trkpt>
      <trkpt lat="44.34371" lon="1.25338">
        <ele>258</ele>
        <time>2022-05-26T12:41:10.000Z</time>
      </trkpt>
      <trkpt lat="44.34363" lon="1.25338">
        <ele>259</ele>
        <time>2022-05-26T12:41:13.000Z</time>
      </trkpt>
      <trkpt lat="44.34361" lon="1.25339">
        <ele>259.39999389648</ele>
        <time>2022-05-26T12:41:14.000Z</time>
      </trkpt>
      <trkpt lat="44.34353" lon="1.25341">
        <ele>260.79998779297</ele>
        <time>2022-05-26T12:41:17.000Z</time>
      </trkpt>
      <trkpt lat="44.34344" lon="1.25344">
        <ele>261.79998779297</ele>
        <time>2022-05-26T12:41:20.000Z</time>
      </trkpt>
      <trkpt lat="44.34341" lon="1.25345">
        <ele>262</ele>
        <time>2022-05-26T12:41:21.000Z</time>
      </trkpt>
      <trkpt lat="44.34324" lon="1.25356">
        <ele>262.60000610352</ele>
        <time>2022-05-26T12:41:26.000Z</time>
      </trkpt>
      <trkpt lat="44.34319" lon="1.25361">
        <ele>262.60000610352</ele>
        <time>2022-05-26T12:41:27.000Z</time>
      </trkpt>
      <trkpt lat="44.34302" lon="1.25381">
        <ele>262.20001220703</ele>
        <time>2022-05-26T12:41:32.000Z</time>
      </trkpt>
      <trkpt lat="44.34292" lon="1.25388">
        <ele>261</ele>
        <time>2022-05-26T12:41:36.000Z</time>
      </trkpt>
      <trkpt lat="44.34291" lon="1.25388">
        <ele>260.60000610352</ele>
        <time>2022-05-26T12:41:37.000Z</time>
      </trkpt>
      <trkpt lat="44.34285" lon="1.25393">
        <ele>259.60000610352</ele>
        <time>2022-05-26T12:41:40.000Z</time>
      </trkpt>
      <trkpt lat="44.34283" lon="1.25393">
        <ele>259.39999389648</ele>
        <time>2022-05-26T12:41:41.000Z</time>
      </trkpt>
      <trkpt lat="44.3428" lon="1.2539">
        <ele>259</ele>
        <time>2022-05-26T12:41:43.000Z</time>
      </trkpt>
      <trkpt lat="44.3428" lon="1.25384">
        <ele>258.20001220703</ele>
        <time>2022-05-26T12:41:45.000Z</time>
      </trkpt>
      <trkpt lat="44.34284" lon="1.25373">
        <ele>258</ele>
        <time>2022-05-26T12:41:47.000Z</time>
      </trkpt>
      <trkpt lat="44.34291" lon="1.25349">
        <ele>257.20001220703</ele>
        <time>2022-05-26T12:41:51.000Z</time>
      </trkpt>
      <trkpt lat="44.34293" lon="1.25342">
        <ele>257</ele>
        <time>2022-05-26T12:41:52.000Z</time>
      </trkpt>
      <trkpt lat="44.34293" lon="1.25337">
        <ele>256.79998779297</ele>
        <time>2022-05-26T12:41:53.000Z</time>
      </trkpt>
      <trkpt lat="44.34293" lon="1.25332">
        <ele>256.79998779297</ele>
        <time>2022-05-26T12:41:54.000Z</time>
      </trkpt>
      <trkpt lat="44.34289" lon="1.25321">
        <ele>256.60000610352</ele>
        <time>2022-05-26T12:41:56.000Z</time>
      </trkpt>
      <trkpt lat="44.34277" lon="1.2531">
        <ele>256</ele>
        <time>2022-05-26T12:42:00.000Z</time>
      </trkpt>
      <trkpt lat="44.3427" lon="1.25296">
        <ele>254.60000610352</ele>
        <time>2022-05-26T12:42:03.000Z</time>
      </trkpt>
      <trkpt lat="44.34268" lon="1.25289">
        <ele>254.19999694824</ele>
        <time>2022-05-26T12:42:04.000Z</time>
      </trkpt>
      <trkpt lat="44.34268" lon="1.25283">
        <ele>253.60000610352</ele>
        <time>2022-05-26T12:42:05.000Z</time>
      </trkpt>
      <trkpt lat="44.3427" lon="1.25277">
        <ele>253.39999389648</ele>
        <time>2022-05-26T12:42:06.000Z</time>
      </trkpt>
      <trkpt lat="44.34272" lon="1.25273">
        <ele>252.19999694824</ele>
        <time>2022-05-26T12:42:07.000Z</time>
      </trkpt>
      <trkpt lat="44.34275" lon="1.25267">
        <ele>251</ele>
        <time>2022-05-26T12:42:08.000Z</time>
      </trkpt>
      <trkpt lat="44.34281" lon="1.25251">
        <ele>249.80000305176</ele>
        <time>2022-05-26T12:42:10.000Z</time>
      </trkpt>
      <trkpt lat="44.34283" lon="1.25245">
        <ele>249.60000610352</ele>
        <time>2022-05-26T12:42:11.000Z</time>
      </trkpt>
      <trkpt lat="44.34285" lon="1.25236">
        <ele>249.19999694824</ele>
        <time>2022-05-26T12:42:12.000Z</time>
      </trkpt>
      <trkpt lat="44.34287" lon="1.25228">
        <ele>249</ele>
        <time>2022-05-26T12:42:13.000Z</time>
      </trkpt>
      <trkpt lat="44.3429" lon="1.25219">
        <ele>248.19999694824</ele>
        <time>2022-05-26T12:42:14.000Z</time>
      </trkpt>
      <trkpt lat="44.34294" lon="1.25201">
        <ele>247.19999694824</ele>
        <time>2022-05-26T12:42:16.000Z</time>
      </trkpt>
      <trkpt lat="44.34296" lon="1.25193">
        <ele>245.80000305176</ele>
        <time>2022-05-26T12:42:17.000Z</time>
      </trkpt>
      <trkpt lat="44.343" lon="1.25174">
        <ele>243.80000305176</ele>
        <time>2022-05-26T12:42:19.000Z</time>
      </trkpt>
      <trkpt lat="44.34306" lon="1.25153">
        <ele>241.80000305176</ele>
        <time>2022-05-26T12:42:21.000Z</time>
      </trkpt>
      <trkpt lat="44.34309" lon="1.25145">
        <ele>240.19999694824</ele>
        <time>2022-05-26T12:42:22.000Z</time>
      </trkpt>
      <trkpt lat="44.34313" lon="1.2513">
        <ele>238.60000610352</ele>
        <time>2022-05-26T12:42:24.000Z</time>
      </trkpt>
      <trkpt lat="44.34314" lon="1.25125">
        <ele>237.80000305176</ele>
        <time>2022-05-26T12:42:25.000Z</time>
      </trkpt>
      <trkpt lat="44.34314" lon="1.25121">
        <ele>236.39999389648</ele>
        <time>2022-05-26T12:42:26.000Z</time>
      </trkpt>
      <trkpt lat="44.34314" lon="1.25115">
        <ele>234.60000610352</ele>
        <time>2022-05-26T12:42:28.000Z</time>
      </trkpt>
      <trkpt lat="44.34313" lon="1.25111">
        <ele>232.80000305176</ele>
        <time>2022-05-26T12:42:29.000Z</time>
      </trkpt>
      <trkpt lat="44.34314" lon="1.25107">
        <ele>231</ele>
        <time>2022-05-26T12:42:31.000Z</time>
      </trkpt>
      <trkpt lat="44.34318" lon="1.251">
        <ele>230.39999389648</ele>
        <time>2022-05-26T12:42:33.000Z</time>
      </trkpt>
      <trkpt lat="44.34322" lon="1.25082">
        <ele>230.19999694824</ele>
        <time>2022-05-26T12:42:36.000Z</time>
      </trkpt>
      <trkpt lat="44.34323" lon="1.25073">
        <ele>230</ele>
        <time>2022-05-26T12:42:37.000Z</time>
      </trkpt>
      <trkpt lat="44.34323" lon="1.25066">
        <ele>229.60000610352</ele>
        <time>2022-05-26T12:42:38.000Z</time>
      </trkpt>
      <trkpt lat="44.34322" lon="1.25054">
        <ele>229.39999389648</ele>
        <time>2022-05-26T12:42:40.000Z</time>
      </trkpt>
      <trkpt lat="44.34317" lon="1.25041">
        <ele>229</ele>
        <time>2022-05-26T12:42:42.000Z</time>
      </trkpt>
      <trkpt lat="44.34316" lon="1.25035">
        <ele>228.80000305176</ele>
        <time>2022-05-26T12:42:43.000Z</time>
      </trkpt>
      <trkpt lat="44.34313" lon="1.25023">
        <ele>228.39999389648</ele>
        <time>2022-05-26T12:42:45.000Z</time>
      </trkpt>
      <trkpt lat="44.34307" lon="1.24988">
        <ele>228.19999694824</ele>
        <time>2022-05-26T12:42:51.000Z</time>
      </trkpt>
      <trkpt lat="44.34299" lon="1.24971">
        <ele>228.39999389648</ele>
        <time>2022-05-26T12:42:55.000Z</time>
      </trkpt>
      <trkpt lat="44.34283" lon="1.24955">
        <ele>228.60000610352</ele>
        <time>2022-05-26T12:42:59.000Z</time>
      </trkpt>
      <trkpt lat="44.34274" lon="1.24945">
        <ele>228.39999389648</ele>
        <time>2022-05-26T12:43:01.000Z</time>
      </trkpt>
      <trkpt lat="44.34264" lon="1.24934">
        <ele>228</ele>
        <time>2022-05-26T12:43:03.000Z</time>
      </trkpt>
      <trkpt lat="44.34254" lon="1.24925">
        <ele>227.60000610352</ele>
        <time>2022-05-26T12:43:05.000Z</time>
      </trkpt>
      <trkpt lat="44.34239" lon="1.24909">
        <ele>226.60000610352</ele>
        <time>2022-05-26T12:43:08.000Z</time>
      </trkpt>
      <trkpt lat="44.34234" lon="1.24903">
        <ele>226.39999389648</ele>
        <time>2022-05-26T12:43:09.000Z</time>
      </trkpt>
      <trkpt lat="44.34225" lon="1.24892">
        <ele>226</ele>
        <time>2022-05-26T12:43:11.000Z</time>
      </trkpt>
      <trkpt lat="44.34214" lon="1.24874">
        <ele>225</ele>
        <time>2022-05-26T12:43:14.000Z</time>
      </trkpt>
      <trkpt lat="44.34211" lon="1.24868">
        <ele>224.60000610352</ele>
        <time>2022-05-26T12:43:15.000Z</time>
      </trkpt>
      <trkpt lat="44.34207" lon="1.24864">
        <ele>224.60000610352</ele>
        <time>2022-05-26T12:43:16.000Z</time>
      </trkpt>
      <trkpt lat="44.34204" lon="1.2486">
        <ele>224.39999389648</ele>
        <time>2022-05-26T12:43:17.000Z</time>
      </trkpt>
      <trkpt lat="44.34192" lon="1.24852">
        <ele>224.39999389648</ele>
        <time>2022-05-26T12:43:20.000Z</time>
      </trkpt>
      <trkpt lat="44.34187" lon="1.24849">
        <ele>224.39999389648</ele>
        <time>2022-05-26T12:43:21.000Z</time>
      </trkpt>
      <trkpt lat="44.34174" lon="1.24843">
        <ele>224.60000610352</ele>
        <time>2022-05-26T12:43:24.000Z</time>
      </trkpt>
      <trkpt lat="44.34166" lon="1.24839">
        <ele>224.60000610352</ele>
        <time>2022-05-26T12:43:26.000Z</time>
      </trkpt>
      <trkpt lat="44.34158" lon="1.24833">
        <ele>224.80000305176</ele>
        <time>2022-05-26T12:43:28.000Z</time>
      </trkpt>
      <trkpt lat="44.34152" lon="1.24831">
        <ele>224.80000305176</ele>
        <time>2022-05-26T12:43:29.000Z</time>
      </trkpt>
      <trkpt lat="44.34141" lon="1.24824">
        <ele>224.80000305176</ele>
        <time>2022-05-26T12:43:32.000Z</time>
      </trkpt>
      <trkpt lat="44.34131" lon="1.24819">
        <ele>224.60000610352</ele>
        <time>2022-05-26T12:43:34.000Z</time>
      </trkpt>
      <trkpt lat="44.34118" lon="1.24812">
        <ele>224.19999694824</ele>
        <time>2022-05-26T12:43:36.000Z</time>
      </trkpt>
      <trkpt lat="44.34105" lon="1.24804">
        <ele>223.60000610352</ele>
        <time>2022-05-26T12:43:38.000Z</time>
      </trkpt>
      <trkpt lat="44.34093" lon="1.24794">
        <ele>222.39999389648</ele>
        <time>2022-05-26T12:43:40.000Z</time>
      </trkpt>
      <trkpt lat="44.34083" lon="1.24782">
        <ele>221.60000610352</ele>
        <time>2022-05-26T12:43:42.000Z</time>
      </trkpt>
      <trkpt lat="44.34079" lon="1.24774">
        <ele>221.19999694824</ele>
        <time>2022-05-26T12:43:43.000Z</time>
      </trkpt>
      <trkpt lat="44.34073" lon="1.24766">
        <ele>221</ele>
        <time>2022-05-26T12:43:44.000Z</time>
      </trkpt>
      <trkpt lat="44.34061" lon="1.24745">
        <ele>220</ele>
        <time>2022-05-26T12:43:47.000Z</time>
      </trkpt>
      <trkpt lat="44.34057" lon="1.24738">
        <ele>220.19999694824</ele>
        <time>2022-05-26T12:43:48.000Z</time>
      </trkpt>
      <trkpt lat="44.34047" lon="1.24721">
        <ele>219.60000610352</ele>
        <time>2022-05-26T12:43:51.000Z</time>
      </trkpt>
      <trkpt lat="44.34043" lon="1.24714">
        <ele>219.19999694824</ele>
        <time>2022-05-26T12:43:52.000Z</time>
      </trkpt>
      <trkpt lat="44.34036" lon="1.24693">
        <ele>219.39999389648</ele>
        <time>2022-05-26T12:43:55.000Z</time>
      </trkpt>
      <trkpt lat="44.3403" lon="1.24671">
        <ele>219.60000610352</ele>
        <time>2022-05-26T12:43:58.000Z</time>
      </trkpt>
      <trkpt lat="44.34023" lon="1.24646">
        <ele>220.19999694824</ele>
        <time>2022-05-26T12:44:02.000Z</time>
      </trkpt>
      <trkpt lat="44.34018" lon="1.24636">
        <ele>220.60000610352</ele>
        <time>2022-05-26T12:44:04.000Z</time>
      </trkpt>
      <trkpt lat="44.34015" lon="1.24628">
        <ele>221</ele>
        <time>2022-05-26T12:44:06.000Z</time>
      </trkpt>
      <trkpt lat="44.34012" lon="1.24625">
        <ele>221.19999694824</ele>
        <time>2022-05-26T12:44:07.000Z</time>
      </trkpt>
      <trkpt lat="44.34009" lon="1.24623">
        <ele>221.19999694824</ele>
        <time>2022-05-26T12:44:08.000Z</time>
      </trkpt>
      <trkpt lat="44.33995" lon="1.24611">
        <ele>222</ele>
        <time>2022-05-26T12:44:13.000Z</time>
      </trkpt>
      <trkpt lat="44.33991" lon="1.24608">
        <ele>222</ele>
        <time>2022-05-26T12:44:14.000Z</time>
      </trkpt>
      <trkpt lat="44.3398" lon="1.24595">
        <ele>222.19999694824</ele>
        <time>2022-05-26T12:44:18.000Z</time>
      </trkpt>
      <trkpt lat="44.33966" lon="1.2458">
        <ele>223</ele>
        <time>2022-05-26T12:44:23.000Z</time>
      </trkpt>
      <trkpt lat="44.33963" lon="1.24578">
        <ele>223</ele>
        <time>2022-05-26T12:44:24.000Z</time>
      </trkpt>
      <trkpt lat="44.3396" lon="1.24576">
        <ele>223</ele>
        <time>2022-05-26T12:44:25.000Z</time>
      </trkpt>
      <trkpt lat="44.33952" lon="1.24569">
        <ele>223</ele>
        <time>2022-05-26T12:44:28.000Z</time>
      </trkpt>
      <trkpt lat="44.3395" lon="1.24568">
        <ele>223</ele>
        <time>2022-05-26T12:44:29.000Z</time>
      </trkpt>
      <trkpt lat="44.3395" lon="1.24567">
        <ele>222.60000610352</ele>
        <time>2022-05-26T12:44:31.000Z</time>
      </trkpt>
      <trkpt lat="44.33944" lon="1.24563">
        <ele>221.39999389648</ele>
        <time>2022-05-26T12:48:14.000Z</time>
      </trkpt>
      <trkpt lat="44.33941" lon="1.2456">
        <ele>221.39999389648</ele>
        <time>2022-05-26T12:48:15.000Z</time>
      </trkpt>
      <trkpt lat="44.33937" lon="1.24558">
        <ele>221.39999389648</ele>
        <time>2022-05-26T12:48:16.000Z</time>
      </trkpt>
      <trkpt lat="44.33921" lon="1.24548">
        <ele>221</ele>
        <time>2022-05-26T12:48:20.000Z</time>
      </trkpt>
      <trkpt lat="44.33911" lon="1.24542">
        <ele>220.19999694824</ele>
        <time>2022-05-26T12:48:22.000Z</time>
      </trkpt>
      <trkpt lat="44.33907" lon="1.24538">
        <ele>219.80000305176</ele>
        <time>2022-05-26T12:48:23.000Z</time>
      </trkpt>
      <trkpt lat="44.33903" lon="1.24534">
        <ele>219.19999694824</ele>
        <time>2022-05-26T12:48:24.000Z</time>
      </trkpt>
      <trkpt lat="44.33899" lon="1.24531">
        <ele>219</ele>
        <time>2022-05-26T12:48:25.000Z</time>
      </trkpt>
      <trkpt lat="44.33893" lon="1.24527">
        <ele>218.80000305176</ele>
        <time>2022-05-26T12:48:26.000Z</time>
      </trkpt>
      <trkpt lat="44.33885" lon="1.24522">
        <ele>218.19999694824</ele>
        <time>2022-05-26T12:48:28.000Z</time>
      </trkpt>
      <trkpt lat="44.33875" lon="1.24517">
        <ele>217.60000610352</ele>
        <time>2022-05-26T12:48:31.000Z</time>
      </trkpt>
      <trkpt lat="44.33869" lon="1.24517">
        <ele>217.60000610352</ele>
        <time>2022-05-26T12:48:33.000Z</time>
      </trkpt>
      <trkpt lat="44.33853" lon="1.24515">
        <ele>219</ele>
        <time>2022-05-26T12:48:38.000Z</time>
      </trkpt>
      <trkpt lat="44.33849" lon="1.24514">
        <ele>219.80000305176</ele>
        <time>2022-05-26T12:48:40.000Z</time>
      </trkpt>
      <trkpt lat="44.33849" lon="1.24514">
        <ele>220</ele>
        <time>2022-05-26T12:48:41.000Z</time>
      </trkpt>
      <trkpt lat="44.33849" lon="1.24514">
        <ele>221.19999694824</ele>
        <time>2022-05-26T12:48:43.000Z</time>
      </trkpt>
      <trkpt lat="44.33844" lon="1.24512">
        <ele>222.39999389648</ele>
        <time>2022-05-26T12:49:02.000Z</time>
      </trkpt>
      <trkpt lat="44.33836" lon="1.2451">
        <ele>222.60000610352</ele>
        <time>2022-05-26T12:49:06.000Z</time>
      </trkpt>
      <trkpt lat="44.33829" lon="1.24509">
        <ele>223.19999694824</ele>
        <time>2022-05-26T12:49:09.000Z</time>
      </trkpt>
      <trkpt lat="44.33821" lon="1.24509">
        <ele>224.19999694824</ele>
        <time>2022-05-26T12:49:13.000Z</time>
      </trkpt>
      <trkpt lat="44.33816" lon="1.24508">
        <ele>225.39999389648</ele>
        <time>2022-05-26T12:49:16.000Z</time>
      </trkpt>
      <trkpt lat="44.3381" lon="1.24507">
        <ele>226.80000305176</ele>
        <time>2022-05-26T12:49:19.000Z</time>
      </trkpt>
      <trkpt lat="44.33804" lon="1.24505">
        <ele>228</ele>
        <time>2022-05-26T12:49:22.000Z</time>
      </trkpt>
      <trkpt lat="44.338" lon="1.24503">
        <ele>229</ele>
        <time>2022-05-26T12:49:25.000Z</time>
      </trkpt>
      <trkpt lat="44.33797" lon="1.245">
        <ele>230.19999694824</ele>
        <time>2022-05-26T12:49:28.000Z</time>
      </trkpt>
      <trkpt lat="44.33792" lon="1.24496">
        <ele>231.19999694824</ele>
        <time>2022-05-26T12:49:32.000Z</time>
      </trkpt>
      <trkpt lat="44.33788" lon="1.24491">
        <ele>232.39999389648</ele>
        <time>2022-05-26T12:49:36.000Z</time>
      </trkpt>
      <trkpt lat="44.33787" lon="1.2449">
        <ele>232.39999389648</ele>
        <time>2022-05-26T12:49:37.000Z</time>
      </trkpt>
      <trkpt lat="44.33786" lon="1.24489">
        <ele>232.60000610352</ele>
        <time>2022-05-26T12:49:38.000Z</time>
      </trkpt>
      <trkpt lat="44.33784" lon="1.24485">
        <ele>233.39999389648</ele>
        <time>2022-05-26T12:49:41.000Z</time>
      </trkpt>
      <trkpt lat="44.33782" lon="1.24474">
        <ele>234.60000610352</ele>
        <time>2022-05-26T12:49:48.000Z</time>
      </trkpt>
      <trkpt lat="44.33782" lon="1.24474">
        <ele>234.80000305176</ele>
        <time>2022-05-26T12:49:49.000Z</time>
      </trkpt>
      <trkpt lat="44.33782" lon="1.24474">
        <ele>235.39999389648</ele>
        <time>2022-05-26T12:49:51.000Z</time>
      </trkpt>
      <trkpt lat="44.33782" lon="1.24447">
        <ele>237.80000305176</ele>
        <time>2022-05-26T12:50:27.000Z</time>
      </trkpt>
      <trkpt lat="44.33782" lon="1.24444">
        <ele>238</ele>
        <time>2022-05-26T12:50:28.000Z</time>
      </trkpt>
      <trkpt lat="44.33782" lon="1.24436">
        <ele>239.19999694824</ele>
        <time>2022-05-26T12:50:31.000Z</time>
      </trkpt>
      <trkpt lat="44.3378" lon="1.2443">
        <ele>240.39999389648</ele>
        <time>2022-05-26T12:50:34.000Z</time>
      </trkpt>
      <trkpt lat="44.3378" lon="1.24426">
        <ele>240.80000305176</ele>
        <time>2022-05-26T12:50:36.000Z</time>
      </trkpt>
      <trkpt lat="44.33779" lon="1.24421">
        <ele>241.39999389648</ele>
        <time>2022-05-26T12:50:39.000Z</time>
      </trkpt>
      <trkpt lat="44.33778" lon="1.24413">
        <ele>242.60000610352</ele>
        <time>2022-05-26T12:50:43.000Z</time>
      </trkpt>
      <trkpt lat="44.33778" lon="1.24401">
        <ele>243.60000610352</ele>
        <time>2022-05-26T12:50:48.000Z</time>
      </trkpt>
      <trkpt lat="44.33777" lon="1.24399">
        <ele>244</ele>
        <time>2022-05-26T12:50:49.000Z</time>
      </trkpt>
      <trkpt lat="44.33777" lon="1.24395">
        <ele>244.80000305176</ele>
        <time>2022-05-26T12:50:51.000Z</time>
      </trkpt>
      <trkpt lat="44.33773" lon="1.24392">
        <ele>245.19999694824</ele>
        <time>2022-05-26T12:50:54.000Z</time>
      </trkpt>
      <trkpt lat="44.33768" lon="1.24389">
        <ele>246</ele>
        <time>2022-05-26T12:50:57.000Z</time>
      </trkpt>
      <trkpt lat="44.33767" lon="1.24389">
        <ele>246.39999389648</ele>
        <time>2022-05-26T12:50:58.000Z</time>
      </trkpt>
      <trkpt lat="44.33764" lon="1.2439">
        <ele>246.80000305176</ele>
        <time>2022-05-26T12:51:00.000Z</time>
      </trkpt>
      <trkpt lat="44.33762" lon="1.2439">
        <ele>246.80000305176</ele>
        <time>2022-05-26T12:51:01.000Z</time>
      </trkpt>
      <trkpt lat="44.33762" lon="1.2439">
        <ele>247</ele>
        <time>2022-05-26T12:51:03.000Z</time>
      </trkpt>
      <trkpt lat="44.33762" lon="1.2439">
        <ele>247</ele>
        <time>2022-05-26T12:51:04.000Z</time>
      </trkpt>
      <trkpt lat="44.3377" lon="1.2439">
        <ele>247.60000610352</ele>
        <time>2022-05-26T12:51:36.000Z</time>
      </trkpt>
      <trkpt lat="44.33772" lon="1.24393">
        <ele>247.60000610352</ele>
        <time>2022-05-26T12:51:37.000Z</time>
      </trkpt>
      <trkpt lat="44.33778" lon="1.24401">
        <ele>247.60000610352</ele>
        <time>2022-05-26T12:51:40.000Z</time>
      </trkpt>
      <trkpt lat="44.33785" lon="1.24412">
        <ele>247.39999389648</ele>
        <time>2022-05-26T12:51:45.000Z</time>
      </trkpt>
      <trkpt lat="44.33788" lon="1.24415">
        <ele>247.39999389648</ele>
        <time>2022-05-26T12:51:47.000Z</time>
      </trkpt>
      <trkpt lat="44.33796" lon="1.24419">
        <ele>247.60000610352</ele>
        <time>2022-05-26T12:51:51.000Z</time>
      </trkpt>
      <trkpt lat="44.33797" lon="1.24418">
        <ele>247.80000305176</ele>
        <time>2022-05-26T12:51:52.000Z</time>
      </trkpt>
      <trkpt lat="44.33801" lon="1.24417">
        <ele>248.19999694824</ele>
        <time>2022-05-26T12:51:54.000Z</time>
      </trkpt>
      <trkpt lat="44.33806" lon="1.24414">
        <ele>249.39999389648</ele>
        <time>2022-05-26T12:51:57.000Z</time>
      </trkpt>
      <trkpt lat="44.33809" lon="1.24413">
        <ele>250.19999694824</ele>
        <time>2022-05-26T12:51:59.000Z</time>
      </trkpt>
      <trkpt lat="44.33811" lon="1.24412">
        <ele>250.39999389648</ele>
        <time>2022-05-26T12:52:00.000Z</time>
      </trkpt>
      <trkpt lat="44.33815" lon="1.24411">
        <ele>251</ele>
        <time>2022-05-26T12:52:03.000Z</time>
      </trkpt>
      <trkpt lat="44.33816" lon="1.2441">
        <ele>251</ele>
        <time>2022-05-26T12:52:04.000Z</time>
      </trkpt>
      <trkpt lat="44.33821" lon="1.24403">
        <ele>251.60000610352</ele>
        <time>2022-05-26T12:52:08.000Z</time>
      </trkpt>
      <trkpt lat="44.33826" lon="1.24395">
        <ele>252.39999389648</ele>
        <time>2022-05-26T12:52:12.000Z</time>
      </trkpt>
      <trkpt lat="44.33829" lon="1.24392">
        <ele>252.80000305176</ele>
        <time>2022-05-26T12:52:14.000Z</time>
      </trkpt>
      <trkpt lat="44.33838" lon="1.24379">
        <ele>253.39999389648</ele>
        <time>2022-05-26T12:52:20.000Z</time>
      </trkpt>
      <trkpt lat="44.33844" lon="1.2437">
        <ele>254.19999694824</ele>
        <time>2022-05-26T12:52:25.000Z</time>
      </trkpt>
      <trkpt lat="44.33847" lon="1.24363">
        <ele>255</ele>
        <time>2022-05-26T12:52:28.000Z</time>
      </trkpt>
      <trkpt lat="44.33858" lon="1.24343">
        <ele>254.80000305176</ele>
        <time>2022-05-26T12:52:37.000Z</time>
      </trkpt>
      <trkpt lat="44.33865" lon="1.24335">
        <ele>255.19999694824</ele>
        <time>2022-05-26T12:52:42.000Z</time>
      </trkpt>
      <trkpt lat="44.33868" lon="1.24333">
        <ele>255.19999694824</ele>
        <time>2022-05-26T12:52:44.000Z</time>
      </trkpt>
      <trkpt lat="44.33874" lon="1.24325">
        <ele>255.60000610352</ele>
        <time>2022-05-26T12:52:49.000Z</time>
      </trkpt>
      <trkpt lat="44.33883" lon="1.24315">
        <ele>256.20001220703</ele>
        <time>2022-05-26T12:52:54.000Z</time>
      </trkpt>
      <trkpt lat="44.33889" lon="1.2431">
        <ele>256.39999389648</ele>
        <time>2022-05-26T12:52:57.000Z</time>
      </trkpt>
      <trkpt lat="44.33904" lon="1.24292">
        <ele>257</ele>
        <time>2022-05-26T12:53:05.000Z</time>
      </trkpt>
      <trkpt lat="44.33908" lon="1.24288">
        <ele>257.20001220703</ele>
        <time>2022-05-26T12:53:07.000Z</time>
      </trkpt>
      <trkpt lat="44.33923" lon="1.24272">
        <ele>258.39999389648</ele>
        <time>2022-05-26T12:53:14.000Z</time>
      </trkpt>
      <trkpt lat="44.33935" lon="1.24263">
        <ele>259.39999389648</ele>
        <time>2022-05-26T12:53:19.000Z</time>
      </trkpt>
      <trkpt lat="44.33944" lon="1.24259">
        <ele>260.20001220703</ele>
        <time>2022-05-26T12:53:23.000Z</time>
      </trkpt>
      <trkpt lat="44.33946" lon="1.24258">
        <ele>260.60000610352</ele>
        <time>2022-05-26T12:53:24.000Z</time>
      </trkpt>
      <trkpt lat="44.33963" lon="1.24252">
        <ele>261.60000610352</ele>
        <time>2022-05-26T12:53:31.000Z</time>
      </trkpt>
      <trkpt lat="44.3397" lon="1.2425">
        <ele>262</ele>
        <time>2022-05-26T12:53:34.000Z</time>
      </trkpt>
      <trkpt lat="44.33986" lon="1.24242">
        <ele>262.79998779297</ele>
        <time>2022-05-26T12:53:41.000Z</time>
      </trkpt>
      <trkpt lat="44.33989" lon="1.2424">
        <ele>262.79998779297</ele>
        <time>2022-05-26T12:53:42.000Z</time>
      </trkpt>
      <trkpt lat="44.34002" lon="1.24231">
        <ele>263.79998779297</ele>
        <time>2022-05-26T12:53:47.000Z</time>
      </trkpt>
      <trkpt lat="44.34016" lon="1.2422">
        <ele>264.79998779297</ele>
        <time>2022-05-26T12:53:53.000Z</time>
      </trkpt>
      <trkpt lat="44.34018" lon="1.24218">
        <ele>265</ele>
        <time>2022-05-26T12:53:54.000Z</time>
      </trkpt>
      <trkpt lat="44.34035" lon="1.24203">
        <ele>266</ele>
        <time>2022-05-26T12:54:02.000Z</time>
      </trkpt>
      <trkpt lat="44.34037" lon="1.24201">
        <ele>266.20001220703</ele>
        <time>2022-05-26T12:54:03.000Z</time>
      </trkpt>
      <trkpt lat="44.34046" lon="1.24193">
        <ele>267</ele>
        <time>2022-05-26T12:54:07.000Z</time>
      </trkpt>
      <trkpt lat="44.34054" lon="1.24187">
        <ele>268.20001220703</ele>
        <time>2022-05-26T12:54:11.000Z</time>
      </trkpt>
      <trkpt lat="44.34075" lon="1.24169">
        <ele>269.39999389648</ele>
        <time>2022-05-26T12:54:20.000Z</time>
      </trkpt>
      <trkpt lat="44.34077" lon="1.24165">
        <ele>269.60000610352</ele>
        <time>2022-05-26T12:54:21.000Z</time>
      </trkpt>
      <trkpt lat="44.34077" lon="1.24146">
        <ele>269.79998779297</ele>
        <time>2022-05-26T12:54:26.000Z</time>
      </trkpt>
      <trkpt lat="44.34068" lon="1.24127">
        <ele>270.39999389648</ele>
        <time>2022-05-26T12:54:32.000Z</time>
      </trkpt>
      <trkpt lat="44.34067" lon="1.24118">
        <ele>270.60000610352</ele>
        <time>2022-05-26T12:54:34.000Z</time>
      </trkpt>
      <trkpt lat="44.34065" lon="1.24087">
        <ele>270.79998779297</ele>
        <time>2022-05-26T12:54:41.000Z</time>
      </trkpt>
      <trkpt lat="44.34059" lon="1.24057">
        <ele>270.60000610352</ele>
        <time>2022-05-26T12:54:47.000Z</time>
      </trkpt>
      <trkpt lat="44.34053" lon="1.24022">
        <ele>270.60000610352</ele>
        <time>2022-05-26T12:54:54.000Z</time>
      </trkpt>
      <trkpt lat="44.34053" lon="1.24017">
        <ele>270.60000610352</ele>
        <time>2022-05-26T12:54:55.000Z</time>
      </trkpt>
      <trkpt lat="44.34058" lon="1.23982">
        <ele>270.39999389648</ele>
        <time>2022-05-26T12:55:01.000Z</time>
      </trkpt>
      <trkpt lat="44.34064" lon="1.23955">
        <ele>270.39999389648</ele>
        <time>2022-05-26T12:55:06.000Z</time>
      </trkpt>
      <trkpt lat="44.34069" lon="1.23937">
        <ele>270.20001220703</ele>
        <time>2022-05-26T12:55:09.000Z</time>
      </trkpt>
      <trkpt lat="44.34082" lon="1.23906">
        <ele>270</ele>
        <time>2022-05-26T12:55:14.000Z</time>
      </trkpt>
      <trkpt lat="44.34085" lon="1.23899">
        <ele>269.79998779297</ele>
        <time>2022-05-26T12:55:15.000Z</time>
      </trkpt>
      <trkpt lat="44.3409" lon="1.23885">
        <ele>269.20001220703</ele>
        <time>2022-05-26T12:55:17.000Z</time>
      </trkpt>
      <trkpt lat="44.34095" lon="1.23865">
        <ele>268.20001220703</ele>
        <time>2022-05-26T12:55:20.000Z</time>
      </trkpt>
      <trkpt lat="44.34097" lon="1.23858">
        <ele>268.20001220703</ele>
        <time>2022-05-26T12:55:21.000Z</time>
      </trkpt>
      <trkpt lat="44.34109" lon="1.23814">
        <ele>267.60000610352</ele>
        <time>2022-05-26T12:55:28.000Z</time>
      </trkpt>
      <trkpt lat="44.34134" lon="1.23744">
        <ele>267.60000610352</ele>
        <time>2022-05-26T12:55:39.000Z</time>
      </trkpt>
      <trkpt lat="44.34159" lon="1.23679">
        <ele>267.79998779297</ele>
        <time>2022-05-26T12:55:49.000Z</time>
      </trkpt>
      <trkpt lat="44.34185" lon="1.23611">
        <ele>267.79998779297</ele>
        <time>2022-05-26T12:56:00.000Z</time>
      </trkpt>
      <trkpt lat="44.34191" lon="1.23594">
        <ele>267.60000610352</ele>
        <time>2022-05-26T12:56:03.000Z</time>
      </trkpt>
      <trkpt lat="44.34197" lon="1.23584">
        <ele>267.39999389648</ele>
        <time>2022-05-26T12:56:05.000Z</time>
      </trkpt>
      <trkpt lat="44.342" lon="1.23579">
        <ele>267.20001220703</ele>
        <time>2022-05-26T12:56:06.000Z</time>
      </trkpt>
      <trkpt lat="44.34216" lon="1.23541">
        <ele>267.20001220703</ele>
        <time>2022-05-26T12:56:13.000Z</time>
      </trkpt>
      <trkpt lat="44.34227" lon="1.23511">
        <ele>267</ele>
        <time>2022-05-26T12:56:19.000Z</time>
      </trkpt>
      <trkpt lat="44.34235" lon="1.23489">
        <ele>267.20001220703</ele>
        <time>2022-05-26T12:56:24.000Z</time>
      </trkpt>
      <trkpt lat="44.34258" lon="1.23445">
        <ele>267.20001220703</ele>
        <time>2022-05-26T12:56:34.000Z</time>
      </trkpt>
      <trkpt lat="44.34278" lon="1.234">
        <ele>268.20001220703</ele>
        <time>2022-05-26T12:56:44.000Z</time>
      </trkpt>
      <trkpt lat="44.34285" lon="1.23377">
        <ele>268.60000610352</ele>
        <time>2022-05-26T12:56:50.000Z</time>
      </trkpt>
      <trkpt lat="44.34286" lon="1.23374">
        <ele>268.60000610352</ele>
        <time>2022-05-26T12:56:51.000Z</time>
      </trkpt>
      <trkpt lat="44.34287" lon="1.23369">
        <ele>268.79998779297</ele>
        <time>2022-05-26T12:56:56.000Z</time>
      </trkpt>
      <trkpt lat="44.34287" lon="1.23364">
        <ele>268.20001220703</ele>
        <time>2022-05-26T13:01:06.000Z</time>
      </trkpt>
      <trkpt lat="44.34287" lon="1.23361">
        <ele>268.20001220703</ele>
        <time>2022-05-26T13:01:07.000Z</time>
      </trkpt>
      <trkpt lat="44.34286" lon="1.23356">
        <ele>268.20001220703</ele>
        <time>2022-05-26T13:01:08.000Z</time>
      </trkpt>
      <trkpt lat="44.34284" lon="1.23346">
        <ele>268.20001220703</ele>
        <time>2022-05-26T13:01:11.000Z</time>
      </trkpt>
      <trkpt lat="44.34285" lon="1.23335">
        <ele>268</ele>
        <time>2022-05-26T13:01:13.000Z</time>
      </trkpt>
      <trkpt lat="44.34286" lon="1.23303">
        <ele>268</ele>
        <time>2022-05-26T13:01:19.000Z</time>
      </trkpt>
      <trkpt lat="44.34293" lon="1.23261">
        <ele>268.60000610352</ele>
        <time>2022-05-26T13:01:27.000Z</time>
      </trkpt>
      <trkpt lat="44.34294" lon="1.23234">
        <ele>268.79998779297</ele>
        <time>2022-05-26T13:01:33.000Z</time>
      </trkpt>
      <trkpt lat="44.34296" lon="1.23199">
        <ele>268.79998779297</ele>
        <time>2022-05-26T13:01:40.000Z</time>
      </trkpt>
      <trkpt lat="44.34303" lon="1.2315">
        <ele>268.39999389648</ele>
        <time>2022-05-26T13:01:49.000Z</time>
      </trkpt>
      <trkpt lat="44.34309" lon="1.23113">
        <ele>268.20001220703</ele>
        <time>2022-05-26T13:01:55.000Z</time>
      </trkpt>
      <trkpt lat="44.34313" lon="1.23062">
        <ele>267.60000610352</ele>
        <time>2022-05-26T13:02:03.000Z</time>
      </trkpt>
      <trkpt lat="44.34313" lon="1.23056">
        <ele>267.60000610352</ele>
        <time>2022-05-26T13:02:04.000Z</time>
      </trkpt>
      <trkpt lat="44.34312" lon="1.23042">
        <ele>267.20001220703</ele>
        <time>2022-05-26T13:02:06.000Z</time>
      </trkpt>
      <trkpt lat="44.34311" lon="1.23008">
        <ele>266.60000610352</ele>
        <time>2022-05-26T13:02:11.000Z</time>
      </trkpt>
      <trkpt lat="44.3431" lon="1.2299">
        <ele>266</ele>
        <time>2022-05-26T13:02:14.000Z</time>
      </trkpt>
      <trkpt lat="44.34307" lon="1.22964">
        <ele>265.39999389648</ele>
        <time>2022-05-26T13:02:18.000Z</time>
      </trkpt>
      <trkpt lat="44.34304" lon="1.22939">
        <ele>264.79998779297</ele>
        <time>2022-05-26T13:02:22.000Z</time>
      </trkpt>
      <trkpt lat="44.343" lon="1.22916">
        <ele>264.79998779297</ele>
        <time>2022-05-26T13:02:26.000Z</time>
      </trkpt>
      <trkpt lat="44.34288" lon="1.22865">
        <ele>264.60000610352</ele>
        <time>2022-05-26T13:02:36.000Z</time>
      </trkpt>
      <trkpt lat="44.3428" lon="1.22827">
        <ele>264.39999389648</ele>
        <time>2022-05-26T13:02:42.000Z</time>
      </trkpt>
      <trkpt lat="44.34265" lon="1.22769">
        <ele>264</ele>
        <time>2022-05-26T13:02:50.000Z</time>
      </trkpt>
      <trkpt lat="44.34263" lon="1.22763">
        <ele>263.79998779297</ele>
        <time>2022-05-26T13:02:51.000Z</time>
      </trkpt>
      <trkpt lat="44.34255" lon="1.22736">
        <ele>262.79998779297</ele>
        <time>2022-05-26T13:02:54.000Z</time>
      </trkpt>
      <trkpt lat="44.34251" lon="1.2272">
        <ele>261.79998779297</ele>
        <time>2022-05-26T13:02:56.000Z</time>
      </trkpt>
      <trkpt lat="44.34245" lon="1.2269">
        <ele>260.39999389648</ele>
        <time>2022-05-26T13:02:59.000Z</time>
      </trkpt>
      <trkpt lat="44.34239" lon="1.22661">
        <ele>259</ele>
        <time>2022-05-26T13:03:02.000Z</time>
      </trkpt>
      <trkpt lat="44.34235" lon="1.22635">
        <ele>257.79998779297</ele>
        <time>2022-05-26T13:03:05.000Z</time>
      </trkpt>
      <trkpt lat="44.34229" lon="1.22605">
        <ele>256.60000610352</ele>
        <time>2022-05-26T13:03:08.000Z</time>
      </trkpt>
      <trkpt lat="44.34221" lon="1.2257">
        <ele>255.39999389648</ele>
        <time>2022-05-26T13:03:12.000Z</time>
      </trkpt>
      <trkpt lat="44.34218" lon="1.22562">
        <ele>255.39999389648</ele>
        <time>2022-05-26T13:03:13.000Z</time>
      </trkpt>
      <trkpt lat="44.34207" lon="1.22525">
        <ele>254.80000305176</ele>
        <time>2022-05-26T13:03:18.000Z</time>
      </trkpt>
      <trkpt lat="44.34197" lon="1.22484">
        <ele>254.39999389648</ele>
        <time>2022-05-26T13:03:24.000Z</time>
      </trkpt>
      <trkpt lat="44.34195" lon="1.22477">
        <ele>254.39999389648</ele>
        <time>2022-05-26T13:03:25.000Z</time>
      </trkpt>
      <trkpt lat="44.34185" lon="1.22434">
        <ele>253.19999694824</ele>
        <time>2022-05-26T13:03:31.000Z</time>
      </trkpt>
      <trkpt lat="44.34182" lon="1.22419">
        <ele>253.19999694824</ele>
        <time>2022-05-26T13:03:33.000Z</time>
      </trkpt>
      <trkpt lat="44.34167" lon="1.22353">
        <ele>252.39999389648</ele>
        <time>2022-05-26T13:03:41.000Z</time>
      </trkpt>
      <trkpt lat="44.34166" lon="1.22345">
        <ele>252.19999694824</ele>
        <time>2022-05-26T13:03:42.000Z</time>
      </trkpt>
      <trkpt lat="44.34156" lon="1.22306">
        <ele>251</ele>
        <time>2022-05-26T13:03:47.000Z</time>
      </trkpt>
      <trkpt lat="44.34151" lon="1.22292">
        <ele>250.80000305176</ele>
        <time>2022-05-26T13:03:49.000Z</time>
      </trkpt>
      <trkpt lat="44.34134" lon="1.22255">
        <ele>250.39999389648</ele>
        <time>2022-05-26T13:03:55.000Z</time>
      </trkpt>
      <trkpt lat="44.34123" lon="1.22234">
        <ele>250.19999694824</ele>
        <time>2022-05-26T13:03:59.000Z</time>
      </trkpt>
      <trkpt lat="44.34121" lon="1.22229">
        <ele>250.19999694824</ele>
        <time>2022-05-26T13:04:00.000Z</time>
      </trkpt>
      <trkpt lat="44.34101" lon="1.22186">
        <ele>251.19999694824</ele>
        <time>2022-05-26T13:04:09.000Z</time>
      </trkpt>
      <trkpt lat="44.34087" lon="1.22152">
        <ele>251.60000610352</ele>
        <time>2022-05-26T13:04:16.000Z</time>
      </trkpt>
      <trkpt lat="44.34083" lon="1.2214">
        <ele>251.80000305176</ele>
        <time>2022-05-26T13:04:18.000Z</time>
      </trkpt>
      <trkpt lat="44.34075" lon="1.22119">
        <ele>252.19999694824</ele>
        <time>2022-05-26T13:04:22.000Z</time>
      </trkpt>
      <trkpt lat="44.34063" lon="1.22092">
        <ele>252.39999389648</ele>
        <time>2022-05-26T13:04:27.000Z</time>
      </trkpt>
      <trkpt lat="44.34044" lon="1.22053">
        <ele>252.80000305176</ele>
        <time>2022-05-26T13:04:35.000Z</time>
      </trkpt>
      <trkpt lat="44.34013" lon="1.21992">
        <ele>252.80000305176</ele>
        <time>2022-05-26T13:04:46.000Z</time>
      </trkpt>
      <trkpt lat="44.33984" lon="1.21938">
        <ele>252.39999389648</ele>
        <time>2022-05-26T13:04:56.000Z</time>
      </trkpt>
      <trkpt lat="44.33966" lon="1.21888">
        <ele>251.60000610352</ele>
        <time>2022-05-26T13:05:04.000Z</time>
      </trkpt>
      <trkpt lat="44.33964" lon="1.21879">
        <ele>251.39999389648</ele>
        <time>2022-05-26T13:05:05.000Z</time>
      </trkpt>
      <trkpt lat="44.33956" lon="1.2184">
        <ele>250.19999694824</ele>
        <time>2022-05-26T13:05:10.000Z</time>
      </trkpt>
      <trkpt lat="44.33953" lon="1.21825">
        <ele>250</ele>
        <time>2022-05-26T13:05:12.000Z</time>
      </trkpt>
      <trkpt lat="44.33942" lon="1.21771">
        <ele>249.19999694824</ele>
        <time>2022-05-26T13:05:18.000Z</time>
      </trkpt>
      <trkpt lat="44.33941" lon="1.21762">
        <ele>248.60000610352</ele>
        <time>2022-05-26T13:05:19.000Z</time>
      </trkpt>
      <trkpt lat="44.33938" lon="1.21744">
        <ele>248</ele>
        <time>2022-05-26T13:05:21.000Z</time>
      </trkpt>
      <trkpt lat="44.33936" lon="1.21721">
        <ele>247</ele>
        <time>2022-05-26T13:05:24.000Z</time>
      </trkpt>
      <trkpt lat="44.33935" lon="1.21716">
        <ele>246.80000305176</ele>
        <time>2022-05-26T13:05:25.000Z</time>
      </trkpt>
      <trkpt lat="44.33932" lon="1.21704">
        <ele>246.39999389648</ele>
        <time>2022-05-26T13:05:26.000Z</time>
      </trkpt>
      <trkpt lat="44.33929" lon="1.21692">
        <ele>245.60000610352</ele>
        <time>2022-05-26T13:05:29.000Z</time>
      </trkpt>
      <trkpt lat="44.33925" lon="1.21678">
        <ele>245</ele>
        <time>2022-05-26T13:05:31.000Z</time>
      </trkpt>
      <trkpt lat="44.33922" lon="1.21662">
        <ele>244.39999389648</ele>
        <time>2022-05-26T13:05:33.000Z</time>
      </trkpt>
      <trkpt lat="44.33919" lon="1.21648">
        <ele>243.19999694824</ele>
        <time>2022-05-26T13:05:35.000Z</time>
      </trkpt>
      <trkpt lat="44.33916" lon="1.2164">
        <ele>242.60000610352</ele>
        <time>2022-05-26T13:05:36.000Z</time>
      </trkpt>
      <trkpt lat="44.33914" lon="1.21634">
        <ele>242.19999694824</ele>
        <time>2022-05-26T13:05:37.000Z</time>
      </trkpt>
      <trkpt lat="44.33911" lon="1.21621">
        <ele>240.80000305176</ele>
        <time>2022-05-26T13:05:39.000Z</time>
      </trkpt>
      <trkpt lat="44.33904" lon="1.21595">
        <ele>239.19999694824</ele>
        <time>2022-05-26T13:05:42.000Z</time>
      </trkpt>
      <trkpt lat="44.33899" lon="1.21571">
        <ele>236.80000305176</ele>
        <time>2022-05-26T13:05:45.000Z</time>
      </trkpt>
      <trkpt lat="44.33896" lon="1.21558">
        <ele>236</ele>
        <time>2022-05-26T13:05:46.000Z</time>
      </trkpt>
      <trkpt lat="44.33894" lon="1.21551">
        <ele>235.19999694824</ele>
        <time>2022-05-26T13:05:47.000Z</time>
      </trkpt>
      <trkpt lat="44.33888" lon="1.21532">
        <ele>233.39999389648</ele>
        <time>2022-05-26T13:05:50.000Z</time>
      </trkpt>
      <trkpt lat="44.33883" lon="1.21517">
        <ele>232.39999389648</ele>
        <time>2022-05-26T13:05:53.000Z</time>
      </trkpt>
      <trkpt lat="44.33879" lon="1.21504">
        <ele>231</ele>
        <time>2022-05-26T13:05:56.000Z</time>
      </trkpt>
      <trkpt lat="44.33875" lon="1.21493">
        <ele>230.60000610352</ele>
        <time>2022-05-26T13:05:57.000Z</time>
      </trkpt>
      <trkpt lat="44.33872" lon="1.21486">
        <ele>229.80000305176</ele>
        <time>2022-05-26T13:05:58.000Z</time>
      </trkpt>
      <trkpt lat="44.3387" lon="1.21475">
        <ele>228.39999389648</ele>
        <time>2022-05-26T13:06:00.000Z</time>
      </trkpt>
      <trkpt lat="44.33868" lon="1.21463">
        <ele>227</ele>
        <time>2022-05-26T13:06:03.000Z</time>
      </trkpt>
      <trkpt lat="44.33868" lon="1.21449">
        <ele>225.39999389648</ele>
        <time>2022-05-26T13:06:05.000Z</time>
      </trkpt>
      <trkpt lat="44.33868" lon="1.21445">
        <ele>224.19999694824</ele>
        <time>2022-05-26T13:06:07.000Z</time>
      </trkpt>
      <trkpt lat="44.33867" lon="1.21434">
        <ele>223.19999694824</ele>
        <time>2022-05-26T13:06:08.000Z</time>
      </trkpt>
      <trkpt lat="44.33867" lon="1.2142">
        <ele>222</ele>
        <time>2022-05-26T13:06:11.000Z</time>
      </trkpt>
      <trkpt lat="44.33867" lon="1.2142">
        <ele>221.39999389648</ele>
        <time>2022-05-26T13:06:12.000Z</time>
      </trkpt>
      <trkpt lat="44.33866" lon="1.2141">
        <ele>220.19999694824</ele>
        <time>2022-05-26T13:06:13.000Z</time>
      </trkpt>
      <trkpt lat="44.33864" lon="1.21393">
        <ele>219.19999694824</ele>
        <time>2022-05-26T13:06:16.000Z</time>
      </trkpt>
      <trkpt lat="44.33864" lon="1.21393">
        <ele>218</ele>
        <time>2022-05-26T13:06:17.000Z</time>
      </trkpt>
      <trkpt lat="44.33863" lon="1.2138">
        <ele>217.60000610352</ele>
        <time>2022-05-26T13:06:18.000Z</time>
      </trkpt>
      <trkpt lat="44.33863" lon="1.21372">
        <ele>216.80000305176</ele>
        <time>2022-05-26T13:06:19.000Z</time>
      </trkpt>
      <trkpt lat="44.33864" lon="1.21366">
        <ele>215.80000305176</ele>
        <time>2022-05-26T13:06:21.000Z</time>
      </trkpt>
      <trkpt lat="44.33866" lon="1.21341">
        <ele>214.60000610352</ele>
        <time>2022-05-26T13:06:23.000Z</time>
      </trkpt>
      <trkpt lat="44.33867" lon="1.21333">
        <ele>213.60000610352</ele>
        <time>2022-05-26T13:06:25.000Z</time>
      </trkpt>
      <trkpt lat="44.33868" lon="1.21318">
        <ele>212.39999389648</ele>
        <time>2022-05-26T13:06:27.000Z</time>
      </trkpt>
      <trkpt lat="44.3387" lon="1.21304">
        <ele>211.39999389648</ele>
        <time>2022-05-26T13:06:28.000Z</time>
      </trkpt>
      <trkpt lat="44.33872" lon="1.21291">
        <ele>210.19999694824</ele>
        <time>2022-05-26T13:06:30.000Z</time>
      </trkpt>
      <trkpt lat="44.33873" lon="1.21285">
        <ele>209.39999389648</ele>
        <time>2022-05-26T13:06:31.000Z</time>
      </trkpt>
      <trkpt lat="44.33873" lon="1.21279">
        <ele>208.80000305176</ele>
        <time>2022-05-26T13:06:32.000Z</time>
      </trkpt>
      <trkpt lat="44.33874" lon="1.21274">
        <ele>207.60000610352</ele>
        <time>2022-05-26T13:06:33.000Z</time>
      </trkpt>
      <trkpt lat="44.33877" lon="1.21258">
        <ele>205.80000305176</ele>
        <time>2022-05-26T13:06:36.000Z</time>
      </trkpt>
      <trkpt lat="44.33877" lon="1.21253">
        <ele>205.39999389648</ele>
        <time>2022-05-26T13:06:37.000Z</time>
      </trkpt>
      <trkpt lat="44.33876" lon="1.21247">
        <ele>204.60000610352</ele>
        <time>2022-05-26T13:06:38.000Z</time>
      </trkpt>
      <trkpt lat="44.33876" lon="1.21247">
        <ele>204.39999389648</ele>
        <time>2022-05-26T13:06:39.000Z</time>
      </trkpt>
      <trkpt lat="44.3387" lon="1.2124">
        <ele>203.80000305176</ele>
        <time>2022-05-26T13:06:40.000Z</time>
      </trkpt>
      <trkpt lat="44.33867" lon="1.21237">
        <ele>203</ele>
        <time>2022-05-26T13:06:41.000Z</time>
      </trkpt>
      <trkpt lat="44.33864" lon="1.21234">
        <ele>201.19999694824</ele>
        <time>2022-05-26T13:06:43.000Z</time>
      </trkpt>
      <trkpt lat="44.33859" lon="1.21225">
        <ele>200.80000305176</ele>
        <time>2022-05-26T13:06:44.000Z</time>
      </trkpt>
      <trkpt lat="44.33856" lon="1.21219">
        <ele>199.80000305176</ele>
        <time>2022-05-26T13:06:45.000Z</time>
      </trkpt>
      <trkpt lat="44.33856" lon="1.21215">
        <ele>199.60000610352</ele>
        <time>2022-05-26T13:06:46.000Z</time>
      </trkpt>
      <trkpt lat="44.33855" lon="1.21204">
        <ele>198.60000610352</ele>
        <time>2022-05-26T13:06:49.000Z</time>
      </trkpt>
      <trkpt lat="44.33855" lon="1.2119">
        <ele>197.19999694824</ele>
        <time>2022-05-26T13:06:51.000Z</time>
      </trkpt>
      <trkpt lat="44.33855" lon="1.21188">
        <ele>196</ele>
        <time>2022-05-26T13:06:53.000Z</time>
      </trkpt>
      <trkpt lat="44.33857" lon="1.21184">
        <ele>194.60000610352</ele>
        <time>2022-05-26T13:06:55.000Z</time>
      </trkpt>
      <trkpt lat="44.33857" lon="1.21181">
        <ele>193.60000610352</ele>
        <time>2022-05-26T13:06:56.000Z</time>
      </trkpt>
      <trkpt lat="44.33858" lon="1.21165">
        <ele>192.60000610352</ele>
        <time>2022-05-26T13:06:59.000Z</time>
      </trkpt>
      <trkpt lat="44.33859" lon="1.21159">
        <ele>192.60000610352</ele>
        <time>2022-05-26T13:07:00.000Z</time>
      </trkpt>
      <trkpt lat="44.33862" lon="1.21133">
        <ele>191.80000305176</ele>
        <time>2022-05-26T13:07:04.000Z</time>
      </trkpt>
      <trkpt lat="44.33863" lon="1.21117">
        <ele>191.39999389648</ele>
        <time>2022-05-26T13:07:06.000Z</time>
      </trkpt>
      <trkpt lat="44.33862" lon="1.21109">
        <ele>191.39999389648</ele>
        <time>2022-05-26T13:07:07.000Z</time>
      </trkpt>
      <trkpt lat="44.33861" lon="1.21093">
        <ele>191</ele>
        <time>2022-05-26T13:07:09.000Z</time>
      </trkpt>
      <trkpt lat="44.33858" lon="1.21079">
        <ele>190.19999694824</ele>
        <time>2022-05-26T13:07:11.000Z</time>
      </trkpt>
      <trkpt lat="44.33856" lon="1.21068">
        <ele>189.80000305176</ele>
        <time>2022-05-26T13:07:13.000Z</time>
      </trkpt>
      <trkpt lat="44.33854" lon="1.21063">
        <ele>189.80000305176</ele>
        <time>2022-05-26T13:07:14.000Z</time>
      </trkpt>
      <trkpt lat="44.33846" lon="1.21044">
        <ele>190</ele>
        <time>2022-05-26T13:07:19.000Z</time>
      </trkpt>
      <trkpt lat="44.33843" lon="1.21034">
        <ele>190.19999694824</ele>
        <time>2022-05-26T13:07:23.000Z</time>
      </trkpt>
      <trkpt lat="44.33843" lon="1.21034">
        <ele>190.39999389648</ele>
        <time>2022-05-26T13:07:24.000Z</time>
      </trkpt>
      <trkpt lat="44.33829" lon="1.2103">
        <ele>191.19999694824</ele>
        <time>2022-05-26T13:07:29.000Z</time>
      </trkpt>
      <trkpt lat="44.3381" lon="1.21018">
        <ele>191.60000610352</ele>
        <time>2022-05-26T13:07:37.000Z</time>
      </trkpt>
      <trkpt lat="44.33802" lon="1.21012">
        <ele>191.60000610352</ele>
        <time>2022-05-26T13:07:43.000Z</time>
      </trkpt>
      <trkpt lat="44.33801" lon="1.2101">
        <ele>191.60000610352</ele>
        <time>2022-05-26T13:07:44.000Z</time>
      </trkpt>
      <trkpt lat="44.33801" lon="1.2101">
        <ele>191.60000610352</ele>
        <time>2022-05-26T13:07:47.000Z</time>
      </trkpt>
      <trkpt lat="44.33811" lon="1.21011">
        <ele>195.19999694824</ele>
        <time>2022-05-26T14:19:58.000Z</time>
      </trkpt>
      <trkpt lat="44.33811" lon="1.21009">
        <ele>195.19999694824</ele>
        <time>2022-05-26T14:19:59.000Z</time>
      </trkpt>
      <trkpt lat="44.33808" lon="1.20996">
        <ele>195.39999389648</ele>
        <time>2022-05-26T14:20:03.000Z</time>
      </trkpt>
      <trkpt lat="44.33796" lon="1.20974">
        <ele>195.80000305176</ele>
        <time>2022-05-26T14:20:09.000Z</time>
      </trkpt>
      <trkpt lat="44.3379" lon="1.20963">
        <ele>196.39999389648</ele>
        <time>2022-05-26T14:20:13.000Z</time>
      </trkpt>
      <trkpt lat="44.33786" lon="1.20955">
        <ele>196.60000610352</ele>
        <time>2022-05-26T14:20:16.000Z</time>
      </trkpt>
      <trkpt lat="44.33775" lon="1.20925">
        <ele>196.80000305176</ele>
        <time>2022-05-26T14:20:26.000Z</time>
      </trkpt>
      <trkpt lat="44.33771" lon="1.20903">
        <ele>197</ele>
        <time>2022-05-26T14:20:32.000Z</time>
      </trkpt>
      <trkpt lat="44.33768" lon="1.20878">
        <ele>197.39999389648</ele>
        <time>2022-05-26T14:20:39.000Z</time>
      </trkpt>
      <trkpt lat="44.33768" lon="1.20875">
        <ele>197.39999389648</ele>
        <time>2022-05-26T14:20:40.000Z</time>
      </trkpt>
      <trkpt lat="44.33767" lon="1.20844">
        <ele>198</ele>
        <time>2022-05-26T14:20:48.000Z</time>
      </trkpt>
      <trkpt lat="44.33767" lon="1.20822">
        <ele>198.19999694824</ele>
        <time>2022-05-26T14:20:55.000Z</time>
      </trkpt>
      <trkpt lat="44.33767" lon="1.20809">
        <ele>198.39999389648</ele>
        <time>2022-05-26T14:21:01.000Z</time>
      </trkpt>
      <trkpt lat="44.33767" lon="1.20804">
        <ele>198.39999389648</ele>
        <time>2022-05-26T14:21:03.000Z</time>
      </trkpt>
      <trkpt lat="44.33767" lon="1.20788">
        <ele>198.39999389648</ele>
        <time>2022-05-26T14:21:08.000Z</time>
      </trkpt>
      <trkpt lat="44.33765" lon="1.20766">
        <ele>198.39999389648</ele>
        <time>2022-05-26T14:21:13.000Z</time>
      </trkpt>
      <trkpt lat="44.33764" lon="1.20744">
        <ele>198</ele>
        <time>2022-05-26T14:21:18.000Z</time>
      </trkpt>
      <trkpt lat="44.33763" lon="1.20741">
        <ele>198</ele>
        <time>2022-05-26T14:21:19.000Z</time>
      </trkpt>
      <trkpt lat="44.3376" lon="1.20726">
        <ele>197.80000305176</ele>
        <time>2022-05-26T14:21:24.000Z</time>
      </trkpt>
      <trkpt lat="44.33759" lon="1.20709">
        <ele>197.39999389648</ele>
        <time>2022-05-26T14:21:27.000Z</time>
      </trkpt>
      <trkpt lat="44.33761" lon="1.20697">
        <ele>197.39999389648</ele>
        <time>2022-05-26T14:21:29.000Z</time>
      </trkpt>
      <trkpt lat="44.33763" lon="1.20689">
        <ele>196.80000305176</ele>
        <time>2022-05-26T14:21:30.000Z</time>
      </trkpt>
      <trkpt lat="44.33769" lon="1.20672">
        <ele>195.39999389648</ele>
        <time>2022-05-26T14:21:33.000Z</time>
      </trkpt>
      <trkpt lat="44.33774" lon="1.20657">
        <ele>194.60000610352</ele>
        <time>2022-05-26T14:21:36.000Z</time>
      </trkpt>
      <trkpt lat="44.33775" lon="1.20654">
        <ele>193.39999389648</ele>
        <time>2022-05-26T14:21:37.000Z</time>
      </trkpt>
      <trkpt lat="44.33777" lon="1.20651">
        <ele>192.19999694824</ele>
        <time>2022-05-26T14:21:39.000Z</time>
      </trkpt>
      <trkpt lat="44.33777" lon="1.20649">
        <ele>191.60000610352</ele>
        <time>2022-05-26T14:21:40.000Z</time>
      </trkpt>
      <trkpt lat="44.33777" lon="1.20647">
        <ele>191.39999389648</ele>
        <time>2022-05-26T14:21:41.000Z</time>
      </trkpt>
      <trkpt lat="44.33776" lon="1.20646">
        <ele>191</ele>
        <time>2022-05-26T14:21:42.000Z</time>
      </trkpt>
      <trkpt lat="44.33772" lon="1.20645">
        <ele>190.19999694824</ele>
        <time>2022-05-26T14:21:45.000Z</time>
      </trkpt>
      <trkpt lat="44.3377" lon="1.20644">
        <ele>190.19999694824</ele>
        <time>2022-05-26T14:21:46.000Z</time>
      </trkpt>
      <trkpt lat="44.33771" lon="1.20639">
        <ele>190</ele>
        <time>2022-05-26T14:21:49.000Z</time>
      </trkpt>
      <trkpt lat="44.33772" lon="1.20637">
        <ele>189.80000305176</ele>
        <time>2022-05-26T14:21:50.000Z</time>
      </trkpt>
      <trkpt lat="44.33773" lon="1.20635">
        <ele>189.60000610352</ele>
        <time>2022-05-26T14:21:53.000Z</time>
      </trkpt>
      <trkpt lat="44.33773" lon="1.20635">
        <ele>189.39999389648</ele>
        <time>2022-05-26T14:21:55.000Z</time>
      </trkpt>
      <trkpt lat="44.33776" lon="1.20628">
        <ele>188.39999389648</ele>
        <time>2022-05-26T14:22:08.000Z</time>
      </trkpt>
      <trkpt lat="44.33778" lon="1.20623">
        <ele>188.19999694824</ele>
        <time>2022-05-26T14:22:09.000Z</time>
      </trkpt>
      <trkpt lat="44.33786" lon="1.20596">
        <ele>187.39999389648</ele>
        <time>2022-05-26T14:22:14.000Z</time>
      </trkpt>
      <trkpt lat="44.33786" lon="1.2059">
        <ele>187</ele>
        <time>2022-05-26T14:22:15.000Z</time>
      </trkpt>
      <trkpt lat="44.33783" lon="1.20572">
        <ele>185.39999389648</ele>
        <time>2022-05-26T14:22:18.000Z</time>
      </trkpt>
      <trkpt lat="44.33782" lon="1.20563">
        <ele>185.19999694824</ele>
        <time>2022-05-26T14:22:19.000Z</time>
      </trkpt>
      <trkpt lat="44.3378" lon="1.20548">
        <ele>184.19999694824</ele>
        <time>2022-05-26T14:22:21.000Z</time>
      </trkpt>
      <trkpt lat="44.33779" lon="1.20542">
        <ele>183.60000610352</ele>
        <time>2022-05-26T14:22:22.000Z</time>
      </trkpt>
      <trkpt lat="44.33776" lon="1.20524">
        <ele>182.39999389648</ele>
        <time>2022-05-26T14:22:24.000Z</time>
      </trkpt>
      <trkpt lat="44.33772" lon="1.20507">
        <ele>181.60000610352</ele>
        <time>2022-05-26T14:22:26.000Z</time>
      </trkpt>
      <trkpt lat="44.3377" lon="1.205">
        <ele>181.19999694824</ele>
        <time>2022-05-26T14:22:27.000Z</time>
      </trkpt>
      <trkpt lat="44.33763" lon="1.20481">
        <ele>180.39999389648</ele>
        <time>2022-05-26T14:22:29.000Z</time>
      </trkpt>
      <trkpt lat="44.33758" lon="1.20465">
        <ele>179.60000610352</ele>
        <time>2022-05-26T14:22:31.000Z</time>
      </trkpt>
      <trkpt lat="44.33752" lon="1.20439">
        <ele>178.19999694824</ele>
        <time>2022-05-26T14:22:34.000Z</time>
      </trkpt>
      <trkpt lat="44.33748" lon="1.20412">
        <ele>177</ele>
        <time>2022-05-26T14:22:37.000Z</time>
      </trkpt>
      <trkpt lat="44.33748" lon="1.20389">
        <ele>175.39999389648</ele>
        <time>2022-05-26T14:22:39.000Z</time>
      </trkpt>
      <trkpt lat="44.33752" lon="1.20367">
        <ele>173.80000305176</ele>
        <time>2022-05-26T14:22:41.000Z</time>
      </trkpt>
      <trkpt lat="44.33759" lon="1.20344">
        <ele>171.60000610352</ele>
        <time>2022-05-26T14:22:43.000Z</time>
      </trkpt>
      <trkpt lat="44.33768" lon="1.2032">
        <ele>170.39999389648</ele>
        <time>2022-05-26T14:22:45.000Z</time>
      </trkpt>
      <trkpt lat="44.33772" lon="1.20309">
        <ele>169.19999694824</ele>
        <time>2022-05-26T14:22:46.000Z</time>
      </trkpt>
      <trkpt lat="44.3378" lon="1.20285">
        <ele>167.80000305176</ele>
        <time>2022-05-26T14:22:48.000Z</time>
      </trkpt>
      <trkpt lat="44.33784" lon="1.20275">
        <ele>167.19999694824</ele>
        <time>2022-05-26T14:22:49.000Z</time>
      </trkpt>
      <trkpt lat="44.33788" lon="1.20265">
        <ele>166.19999694824</ele>
        <time>2022-05-26T14:22:50.000Z</time>
      </trkpt>
      <trkpt lat="44.33799" lon="1.20239">
        <ele>165</ele>
        <time>2022-05-26T14:22:53.000Z</time>
      </trkpt>
      <trkpt lat="44.33804" lon="1.20229">
        <ele>164.80000305176</ele>
        <time>2022-05-26T14:22:54.000Z</time>
      </trkpt>
      <trkpt lat="44.33817" lon="1.20205">
        <ele>163</ele>
        <time>2022-05-26T14:22:57.000Z</time>
      </trkpt>
      <trkpt lat="44.33826" lon="1.20187">
        <ele>161.80000305176</ele>
        <time>2022-05-26T14:22:59.000Z</time>
      </trkpt>
      <trkpt lat="44.3383" lon="1.20179">
        <ele>161</ele>
        <time>2022-05-26T14:23:00.000Z</time>
      </trkpt>
      <trkpt lat="44.33832" lon="1.20171">
        <ele>160.80000305176</ele>
        <time>2022-05-26T14:23:01.000Z</time>
      </trkpt>
      <trkpt lat="44.33834" lon="1.20164">
        <ele>160.39999389648</ele>
        <time>2022-05-26T14:23:02.000Z</time>
      </trkpt>
      <trkpt lat="44.33836" lon="1.20145">
        <ele>159.80000305176</ele>
        <time>2022-05-26T14:23:04.000Z</time>
      </trkpt>
      <trkpt lat="44.33837" lon="1.20136">
        <ele>159.60000610352</ele>
        <time>2022-05-26T14:23:05.000Z</time>
      </trkpt>
      <trkpt lat="44.33841" lon="1.2012">
        <ele>158.60000610352</ele>
        <time>2022-05-26T14:23:07.000Z</time>
      </trkpt>
      <trkpt lat="44.33844" lon="1.20104">
        <ele>158</ele>
        <time>2022-05-26T14:23:09.000Z</time>
      </trkpt>
      <trkpt lat="44.33848" lon="1.20076">
        <ele>157.60000610352</ele>
        <time>2022-05-26T14:23:13.000Z</time>
      </trkpt>
      <trkpt lat="44.3385" lon="1.20071">
        <ele>157.19999694824</ele>
        <time>2022-05-26T14:23:14.000Z</time>
      </trkpt>
      <trkpt lat="44.33858" lon="1.2006">
        <ele>156.60000610352</ele>
        <time>2022-05-26T14:23:18.000Z</time>
      </trkpt>
      <trkpt lat="44.33863" lon="1.20058">
        <ele>156.60000610352</ele>
        <time>2022-05-26T14:23:22.000Z</time>
      </trkpt>
      <trkpt lat="44.33871" lon="1.20069">
        <ele>157</ele>
        <time>2022-05-26T14:23:27.000Z</time>
      </trkpt>
      <trkpt lat="44.33877" lon="1.20082">
        <ele>157.19999694824</ele>
        <time>2022-05-26T14:23:31.000Z</time>
      </trkpt>
      <trkpt lat="44.33883" lon="1.20093">
        <ele>157.39999389648</ele>
        <time>2022-05-26T14:23:34.000Z</time>
      </trkpt>
      <trkpt lat="44.33888" lon="1.20106">
        <ele>157.60000610352</ele>
        <time>2022-05-26T14:23:38.000Z</time>
      </trkpt>
      <trkpt lat="44.33888" lon="1.20107">
        <ele>157.80000305176</ele>
        <time>2022-05-26T14:23:39.000Z</time>
      </trkpt>
      <trkpt lat="44.33888" lon="1.20108">
        <ele>158</ele>
        <time>2022-05-26T14:23:41.000Z</time>
      </trkpt>
    </trkseg>
  </trk>
</gpx>